<?xml version="1.0" encoding="UTF-8" standalone="no" ?>
<gpx xmlns="http://www.topografix.com/GPX/1/1" xmlns:xsi="http://www.w3.org/2001/XMLSchema-instance" xsi:schemaLocation="http://www.topografix.com/GPX/1/1 http://www.topografix.com/GPX/1/1/gpx.xsd" version="1.1" creator="VisuGPX - https://www.visugpx.com">
  <metadata>
    <name>BREVET 100KMS 7 AVRIL 2018</name>
    <desc><![CDATA[Brevet de 100 kms Cyclo-club-rémois du 7 Avril 2018 Etienne DUGOIS]]></desc>
  </metadata>
  <trk>
    <name><![CDATA[7298986-Brevet Fédéral 100 km CCR 2018]]></name>
    <trkseg>
      <trkpt lat="49.2417" lon="4.03596">
        <ele>80</ele>
        <time>2018-03-28T17:24:53Z</time>
      </trkpt>
      <trkpt lat="49.24113" lon="4.03657">
        <ele>80</ele>
        <time>2018-03-28T17:25:53Z</time>
      </trkpt>
      <trkpt lat="49.24091" lon="4.03682">
        <ele>81</ele>
        <time>2018-03-28T17:26:53Z</time>
      </trkpt>
      <trkpt lat="49.24065" lon="4.03709">
        <ele>81</ele>
        <time>2018-03-28T17:27:53Z</time>
      </trkpt>
      <trkpt lat="49.24038" lon="4.03737">
        <ele>82</ele>
        <time>2018-03-28T17:28:53Z</time>
      </trkpt>
      <trkpt lat="49.24025" lon="4.03751">
        <ele>82</ele>
        <time>2018-03-28T17:29:53Z</time>
      </trkpt>
      <trkpt lat="49.24014" lon="4.03762">
        <ele>82</ele>
        <time>2018-03-28T17:30:53Z</time>
      </trkpt>
      <trkpt lat="49.24006" lon="4.03772">
        <ele>82</ele>
        <time>2018-03-28T17:31:53Z</time>
      </trkpt>
      <trkpt lat="49.23968" lon="4.03812">
        <ele>82</ele>
        <time>2018-03-28T17:32:53Z</time>
      </trkpt>
      <trkpt lat="49.23949" lon="4.03832">
        <ele>82</ele>
        <time>2018-03-28T17:33:53Z</time>
      </trkpt>
      <trkpt lat="49.23941" lon="4.03841">
        <ele>82</ele>
        <time>2018-03-28T17:34:53Z</time>
      </trkpt>
      <trkpt lat="49.23941" lon="4.03841">
        <ele>82</ele>
        <time>2018-03-28T17:35:53Z</time>
      </trkpt>
      <trkpt lat="49.2392" lon="4.03862">
        <ele>82</ele>
        <time>2018-03-28T17:36:53Z</time>
      </trkpt>
      <trkpt lat="49.239" lon="4.03883">
        <ele>82</ele>
        <time>2018-03-28T17:37:53Z</time>
      </trkpt>
      <trkpt lat="49.23893" lon="4.0389">
        <ele>82</ele>
        <time>2018-03-28T17:38:53Z</time>
      </trkpt>
      <trkpt lat="49.23886" lon="4.03898">
        <ele>81</ele>
        <time>2018-03-28T17:39:53Z</time>
      </trkpt>
      <trkpt lat="49.23879" lon="4.03905">
        <ele>81</ele>
        <time>2018-03-28T17:40:53Z</time>
      </trkpt>
      <trkpt lat="49.23859" lon="4.03925">
        <ele>81</ele>
        <time>2018-03-28T17:41:53Z</time>
      </trkpt>
      <trkpt lat="49.23812" lon="4.03972">
        <ele>82</ele>
        <time>2018-03-28T17:42:53Z</time>
      </trkpt>
      <trkpt lat="49.2381" lon="4.03975">
        <ele>82</ele>
        <time>2018-03-28T17:43:53Z</time>
      </trkpt>
      <trkpt lat="49.23803" lon="4.03981">
        <ele>82</ele>
        <time>2018-03-28T17:44:53Z</time>
      </trkpt>
      <trkpt lat="49.23802" lon="4.03982">
        <ele>82</ele>
        <time>2018-03-28T17:45:53Z</time>
      </trkpt>
      <trkpt lat="49.23784" lon="4.03999">
        <ele>82</ele>
        <time>2018-03-28T17:46:53Z</time>
      </trkpt>
      <trkpt lat="49.23782" lon="4.04002">
        <ele>82</ele>
        <time>2018-03-28T17:47:53Z</time>
      </trkpt>
      <trkpt lat="49.23753" lon="4.0403">
        <ele>82</ele>
        <time>2018-03-28T17:48:53Z</time>
      </trkpt>
      <trkpt lat="49.23744" lon="4.04039">
        <ele>82</ele>
        <time>2018-03-28T17:49:53Z</time>
      </trkpt>
      <trkpt lat="49.23732" lon="4.04052">
        <ele>82</ele>
        <time>2018-03-28T17:50:53Z</time>
      </trkpt>
      <trkpt lat="49.23724" lon="4.04059">
        <ele>82</ele>
        <time>2018-03-28T17:51:53Z</time>
      </trkpt>
      <trkpt lat="49.23684" lon="4.041">
        <ele>82</ele>
        <time>2018-03-28T17:52:53Z</time>
      </trkpt>
      <trkpt lat="49.23631" lon="4.04159">
        <ele>82</ele>
        <time>2018-03-28T17:53:53Z</time>
      </trkpt>
      <trkpt lat="49.23617" lon="4.04175">
        <ele>82</ele>
        <time>2018-03-28T17:54:53Z</time>
      </trkpt>
      <trkpt lat="49.23592" lon="4.04202">
        <ele>83</ele>
        <time>2018-03-28T17:55:53Z</time>
      </trkpt>
      <trkpt lat="49.23561" lon="4.04236">
        <ele>84</ele>
        <time>2018-03-28T17:56:53Z</time>
      </trkpt>
      <trkpt lat="49.2355" lon="4.04249">
        <ele>84</ele>
        <time>2018-03-28T17:57:53Z</time>
      </trkpt>
      <trkpt lat="49.23517" lon="4.04286">
        <ele>84</ele>
        <time>2018-03-28T17:58:53Z</time>
      </trkpt>
      <trkpt lat="49.23501" lon="4.04305">
        <ele>84</ele>
        <time>2018-03-28T17:59:53Z</time>
      </trkpt>
      <trkpt lat="49.23491" lon="4.04318">
        <ele>84</ele>
        <time>2018-03-28T18:00:53Z</time>
      </trkpt>
      <trkpt lat="49.23482" lon="4.0433">
        <ele>83</ele>
        <time>2018-03-28T18:01:53Z</time>
      </trkpt>
      <trkpt lat="49.23481" lon="4.04331">
        <ele>83</ele>
        <time>2018-03-28T18:02:53Z</time>
      </trkpt>
      <trkpt lat="49.23466" lon="4.04353">
        <ele>83</ele>
        <time>2018-03-28T18:03:53Z</time>
      </trkpt>
      <trkpt lat="49.23457" lon="4.04368">
        <ele>83</ele>
        <time>2018-03-28T18:04:53Z</time>
      </trkpt>
      <trkpt lat="49.23443" lon="4.04392">
        <ele>83</ele>
        <time>2018-03-28T18:05:53Z</time>
      </trkpt>
      <trkpt lat="49.23428" lon="4.04419">
        <ele>83</ele>
        <time>2018-03-28T18:06:53Z</time>
      </trkpt>
      <trkpt lat="49.23413" lon="4.04451">
        <ele>81</ele>
        <time>2018-03-28T18:07:53Z</time>
      </trkpt>
      <trkpt lat="49.23401" lon="4.04481">
        <ele>80</ele>
        <time>2018-03-28T18:08:53Z</time>
      </trkpt>
      <trkpt lat="49.23393" lon="4.04503">
        <ele>80</ele>
        <time>2018-03-28T18:09:53Z</time>
      </trkpt>
      <trkpt lat="49.23388" lon="4.04518">
        <ele>80</ele>
        <time>2018-03-28T18:10:53Z</time>
      </trkpt>
      <trkpt lat="49.23377" lon="4.04552">
        <ele>80</ele>
        <time>2018-03-28T18:11:53Z</time>
      </trkpt>
      <trkpt lat="49.23374" lon="4.04565">
        <ele>80</ele>
        <time>2018-03-28T18:12:53Z</time>
      </trkpt>
      <trkpt lat="49.23366" lon="4.04594">
        <ele>80</ele>
        <time>2018-03-28T18:13:53Z</time>
      </trkpt>
      <trkpt lat="49.23341" lon="4.04694">
        <ele>84</ele>
        <time>2018-03-28T18:14:53Z</time>
      </trkpt>
      <trkpt lat="49.23334" lon="4.04722">
        <ele>84</ele>
        <time>2018-03-28T18:15:53Z</time>
      </trkpt>
      <trkpt lat="49.23323" lon="4.04772">
        <ele>85</ele>
        <time>2018-03-28T18:16:53Z</time>
      </trkpt>
      <trkpt lat="49.23318" lon="4.04803">
        <ele>84</ele>
        <time>2018-03-28T18:17:53Z</time>
      </trkpt>
      <trkpt lat="49.23312" lon="4.04848">
        <ele>84</ele>
        <time>2018-03-28T18:18:53Z</time>
      </trkpt>
      <trkpt lat="49.23309" lon="4.04868">
        <ele>84</ele>
        <time>2018-03-28T18:19:53Z</time>
      </trkpt>
      <trkpt lat="49.23309" lon="4.04868">
        <ele>84</ele>
        <time>2018-03-28T18:20:53Z</time>
      </trkpt>
      <trkpt lat="49.23289" lon="4.04855">
        <ele>84</ele>
        <time>2018-03-28T18:21:53Z</time>
      </trkpt>
      <trkpt lat="49.23279" lon="4.04848">
        <ele>83</ele>
        <time>2018-03-28T18:22:53Z</time>
      </trkpt>
      <trkpt lat="49.23268" lon="4.04841">
        <ele>83</ele>
        <time>2018-03-28T18:23:53Z</time>
      </trkpt>
      <trkpt lat="49.23262" lon="4.04839">
        <ele>83</ele>
        <time>2018-03-28T18:24:53Z</time>
      </trkpt>
      <trkpt lat="49.23253" lon="4.04838">
        <ele>83</ele>
        <time>2018-03-28T18:25:53Z</time>
      </trkpt>
      <trkpt lat="49.23229" lon="4.04838">
        <ele>83</ele>
        <time>2018-03-28T18:26:53Z</time>
      </trkpt>
      <trkpt lat="49.232" lon="4.0484">
        <ele>83</ele>
        <time>2018-03-28T18:27:53Z</time>
      </trkpt>
      <trkpt lat="49.23159" lon="4.04841">
        <ele>83</ele>
        <time>2018-03-28T18:28:53Z</time>
      </trkpt>
      <trkpt lat="49.23103" lon="4.04853">
        <ele>82</ele>
        <time>2018-03-28T18:29:53Z</time>
      </trkpt>
      <trkpt lat="49.23101" lon="4.04855">
        <ele>82</ele>
        <time>2018-03-28T18:30:53Z</time>
      </trkpt>
      <trkpt lat="49.23099" lon="4.04857">
        <ele>82</ele>
        <time>2018-03-28T18:31:53Z</time>
      </trkpt>
      <trkpt lat="49.23097" lon="4.04861">
        <ele>82</ele>
        <time>2018-03-28T18:32:53Z</time>
      </trkpt>
      <trkpt lat="49.23094" lon="4.04868">
        <ele>82</ele>
        <time>2018-03-28T18:33:53Z</time>
      </trkpt>
      <trkpt lat="49.23091" lon="4.04876">
        <ele>82</ele>
        <time>2018-03-28T18:34:53Z</time>
      </trkpt>
      <trkpt lat="49.23087" lon="4.0489">
        <ele>81</ele>
        <time>2018-03-28T18:35:53Z</time>
      </trkpt>
      <trkpt lat="49.23083" lon="4.04903">
        <ele>81</ele>
        <time>2018-03-28T18:36:53Z</time>
      </trkpt>
      <trkpt lat="49.23079" lon="4.04923">
        <ele>81</ele>
        <time>2018-03-28T18:37:53Z</time>
      </trkpt>
      <trkpt lat="49.23072" lon="4.04955">
        <ele>80</ele>
        <time>2018-03-28T18:38:53Z</time>
      </trkpt>
      <trkpt lat="49.23066" lon="4.04978">
        <ele>80</ele>
        <time>2018-03-28T18:39:53Z</time>
      </trkpt>
      <trkpt lat="49.23059" lon="4.04999">
        <ele>79</ele>
        <time>2018-03-28T18:40:53Z</time>
      </trkpt>
      <trkpt lat="49.23055" lon="4.05012">
        <ele>79</ele>
        <time>2018-03-28T18:41:53Z</time>
      </trkpt>
      <trkpt lat="49.23049" lon="4.05024">
        <ele>79</ele>
        <time>2018-03-28T18:42:53Z</time>
      </trkpt>
      <trkpt lat="49.23039" lon="4.05048">
        <ele>79</ele>
        <time>2018-03-28T18:43:53Z</time>
      </trkpt>
      <trkpt lat="49.23026" lon="4.05073">
        <ele>80</ele>
        <time>2018-03-28T18:44:53Z</time>
      </trkpt>
      <trkpt lat="49.22993" lon="4.0514">
        <ele>80</ele>
        <time>2018-03-28T18:45:53Z</time>
      </trkpt>
      <trkpt lat="49.22979" lon="4.05167">
        <ele>80</ele>
        <time>2018-03-28T18:46:53Z</time>
      </trkpt>
      <trkpt lat="49.22972" lon="4.05177">
        <ele>80</ele>
        <time>2018-03-28T18:47:53Z</time>
      </trkpt>
      <trkpt lat="49.22965" lon="4.05185">
        <ele>80</ele>
        <time>2018-03-28T18:48:53Z</time>
      </trkpt>
      <trkpt lat="49.22957" lon="4.05195">
        <ele>80</ele>
        <time>2018-03-28T18:49:53Z</time>
      </trkpt>
      <trkpt lat="49.22946" lon="4.05206">
        <ele>80</ele>
        <time>2018-03-28T18:50:53Z</time>
      </trkpt>
      <trkpt lat="49.22907" lon="4.05238">
        <ele>80</ele>
        <time>2018-03-28T18:51:53Z</time>
      </trkpt>
      <trkpt lat="49.22896" lon="4.05248">
        <ele>80</ele>
        <time>2018-03-28T18:52:53Z</time>
      </trkpt>
      <trkpt lat="49.22869" lon="4.0527">
        <ele>81</ele>
        <time>2018-03-28T18:53:53Z</time>
      </trkpt>
      <trkpt lat="49.22827" lon="4.05303">
        <ele>82</ele>
        <time>2018-03-28T18:54:53Z</time>
      </trkpt>
      <trkpt lat="49.22811" lon="4.05313">
        <ele>83</ele>
        <time>2018-03-28T18:55:53Z</time>
      </trkpt>
      <trkpt lat="49.22796" lon="4.05321">
        <ele>83</ele>
        <time>2018-03-28T18:56:53Z</time>
      </trkpt>
      <trkpt lat="49.22781" lon="4.05328">
        <ele>83</ele>
        <time>2018-03-28T18:57:53Z</time>
      </trkpt>
      <trkpt lat="49.22762" lon="4.05334">
        <ele>83</ele>
        <time>2018-03-28T18:58:53Z</time>
      </trkpt>
      <trkpt lat="49.22755" lon="4.05336">
        <ele>83</ele>
        <time>2018-03-28T18:59:53Z</time>
      </trkpt>
      <trkpt lat="49.22743" lon="4.0534">
        <ele>83</ele>
        <time>2018-03-28T19:00:53Z</time>
      </trkpt>
      <trkpt lat="49.22726" lon="4.05346">
        <ele>83</ele>
        <time>2018-03-28T19:01:53Z</time>
      </trkpt>
      <trkpt lat="49.22705" lon="4.05352">
        <ele>83</ele>
        <time>2018-03-28T19:02:53Z</time>
      </trkpt>
      <trkpt lat="49.2269" lon="4.05355">
        <ele>83</ele>
        <time>2018-03-28T19:03:53Z</time>
      </trkpt>
      <trkpt lat="49.22679" lon="4.05355">
        <ele>83</ele>
        <time>2018-03-28T19:04:53Z</time>
      </trkpt>
      <trkpt lat="49.22668" lon="4.05352">
        <ele>83</ele>
        <time>2018-03-28T19:05:53Z</time>
      </trkpt>
      <trkpt lat="49.22653" lon="4.05347">
        <ele>83</ele>
        <time>2018-03-28T19:06:53Z</time>
      </trkpt>
      <trkpt lat="49.22645" lon="4.05342">
        <ele>82</ele>
        <time>2018-03-28T19:07:53Z</time>
      </trkpt>
      <trkpt lat="49.22631" lon="4.05333">
        <ele>82</ele>
        <time>2018-03-28T19:08:53Z</time>
      </trkpt>
      <trkpt lat="49.22618" lon="4.05319">
        <ele>82</ele>
        <time>2018-03-28T19:09:53Z</time>
      </trkpt>
      <trkpt lat="49.22588" lon="4.05289">
        <ele>81</ele>
        <time>2018-03-28T19:10:53Z</time>
      </trkpt>
      <trkpt lat="49.2257" lon="4.05272">
        <ele>80</ele>
        <time>2018-03-28T19:11:53Z</time>
      </trkpt>
      <trkpt lat="49.22565" lon="4.05267">
        <ele>80</ele>
        <time>2018-03-28T19:12:53Z</time>
      </trkpt>
      <trkpt lat="49.22558" lon="4.05263">
        <ele>80</ele>
        <time>2018-03-28T19:13:53Z</time>
      </trkpt>
      <trkpt lat="49.22548" lon="4.05256">
        <ele>80</ele>
        <time>2018-03-28T19:14:53Z</time>
      </trkpt>
      <trkpt lat="49.22537" lon="4.05249">
        <ele>81</ele>
        <time>2018-03-28T19:15:53Z</time>
      </trkpt>
      <trkpt lat="49.22527" lon="4.05243">
        <ele>81</ele>
        <time>2018-03-28T19:16:53Z</time>
      </trkpt>
      <trkpt lat="49.22508" lon="4.05232">
        <ele>81</ele>
        <time>2018-03-28T19:17:53Z</time>
      </trkpt>
      <trkpt lat="49.22496" lon="4.05226">
        <ele>81</ele>
        <time>2018-03-28T19:18:53Z</time>
      </trkpt>
      <trkpt lat="49.22475" lon="4.05211">
        <ele>81</ele>
        <time>2018-03-28T19:19:53Z</time>
      </trkpt>
      <trkpt lat="49.22453" lon="4.05195">
        <ele>82</ele>
        <time>2018-03-28T19:20:53Z</time>
      </trkpt>
      <trkpt lat="49.22429" lon="4.05176">
        <ele>82</ele>
        <time>2018-03-28T19:21:53Z</time>
      </trkpt>
      <trkpt lat="49.22429" lon="4.05176">
        <ele>82</ele>
        <time>2018-03-28T19:22:53Z</time>
      </trkpt>
      <trkpt lat="49.22361" lon="4.05131">
        <ele>83</ele>
        <time>2018-03-28T19:23:53Z</time>
      </trkpt>
      <trkpt lat="49.22346" lon="4.05122">
        <ele>83</ele>
        <time>2018-03-28T19:24:53Z</time>
      </trkpt>
      <trkpt lat="49.22324" lon="4.0511">
        <ele>84</ele>
        <time>2018-03-28T19:25:53Z</time>
      </trkpt>
      <trkpt lat="49.22324" lon="4.0511">
        <ele>84</ele>
        <time>2018-03-28T19:26:53Z</time>
      </trkpt>
      <trkpt lat="49.22319" lon="4.05106">
        <ele>84</ele>
        <time>2018-03-28T19:27:53Z</time>
      </trkpt>
      <trkpt lat="49.22303" lon="4.05182">
        <ele>84</ele>
        <time>2018-03-28T19:28:53Z</time>
      </trkpt>
      <trkpt lat="49.22297" lon="4.052">
        <ele>85</ele>
        <time>2018-03-28T19:29:53Z</time>
      </trkpt>
      <trkpt lat="49.2229" lon="4.05228">
        <ele>85</ele>
        <time>2018-03-28T19:30:53Z</time>
      </trkpt>
      <trkpt lat="49.22286" lon="4.05246">
        <ele>85</ele>
        <time>2018-03-28T19:31:53Z</time>
      </trkpt>
      <trkpt lat="49.22279" lon="4.05268">
        <ele>85</ele>
        <time>2018-03-28T19:32:53Z</time>
      </trkpt>
      <trkpt lat="49.22267" lon="4.05305">
        <ele>85</ele>
        <time>2018-03-28T19:33:53Z</time>
      </trkpt>
      <trkpt lat="49.22252" lon="4.05354">
        <ele>86</ele>
        <time>2018-03-28T19:34:53Z</time>
      </trkpt>
      <trkpt lat="49.22252" lon="4.05354">
        <ele>86</ele>
        <time>2018-03-28T19:35:53Z</time>
      </trkpt>
      <trkpt lat="49.22214" lon="4.05445">
        <ele>85</ele>
        <time>2018-03-28T19:36:53Z</time>
      </trkpt>
      <trkpt lat="49.22204" lon="4.05481">
        <ele>84</ele>
        <time>2018-03-28T19:37:53Z</time>
      </trkpt>
      <trkpt lat="49.22192" lon="4.05523">
        <ele>83</ele>
        <time>2018-03-28T19:38:53Z</time>
      </trkpt>
      <trkpt lat="49.22189" lon="4.05536">
        <ele>83</ele>
        <time>2018-03-28T19:39:53Z</time>
      </trkpt>
      <trkpt lat="49.22189" lon="4.05536">
        <ele>83</ele>
        <time>2018-03-28T19:40:53Z</time>
      </trkpt>
      <trkpt lat="49.22187" lon="4.05535">
        <ele>83</ele>
        <time>2018-03-28T19:41:53Z</time>
      </trkpt>
      <trkpt lat="49.22185" lon="4.05535">
        <ele>83</ele>
        <time>2018-03-28T19:42:53Z</time>
      </trkpt>
      <trkpt lat="49.22183" lon="4.05536">
        <ele>83</ele>
        <time>2018-03-28T19:43:53Z</time>
      </trkpt>
      <trkpt lat="49.22182" lon="4.05537">
        <ele>83</ele>
        <time>2018-03-28T19:44:53Z</time>
      </trkpt>
      <trkpt lat="49.2218" lon="4.05539">
        <ele>83</ele>
        <time>2018-03-28T19:45:53Z</time>
      </trkpt>
      <trkpt lat="49.22178" lon="4.05542">
        <ele>82</ele>
        <time>2018-03-28T19:46:53Z</time>
      </trkpt>
      <trkpt lat="49.22177" lon="4.05549">
        <ele>82</ele>
        <time>2018-03-28T19:47:53Z</time>
      </trkpt>
      <trkpt lat="49.22178" lon="4.05553">
        <ele>82</ele>
        <time>2018-03-28T19:48:53Z</time>
      </trkpt>
      <trkpt lat="49.22179" lon="4.05556">
        <ele>82</ele>
        <time>2018-03-28T19:49:53Z</time>
      </trkpt>
      <trkpt lat="49.2218" lon="4.05557">
        <ele>82</ele>
        <time>2018-03-28T19:50:53Z</time>
      </trkpt>
      <trkpt lat="49.22183" lon="4.05559">
        <ele>82</ele>
        <time>2018-03-28T19:51:53Z</time>
      </trkpt>
      <trkpt lat="49.22186" lon="4.0556">
        <ele>82</ele>
        <time>2018-03-28T19:52:53Z</time>
      </trkpt>
      <trkpt lat="49.22187" lon="4.05559">
        <ele>82</ele>
        <time>2018-03-28T19:53:53Z</time>
      </trkpt>
      <trkpt lat="49.2219" lon="4.05559">
        <ele>82</ele>
        <time>2018-03-28T19:54:53Z</time>
      </trkpt>
      <trkpt lat="49.22191" lon="4.05556">
        <ele>82</ele>
        <time>2018-03-28T19:55:53Z</time>
      </trkpt>
      <trkpt lat="49.22194" lon="4.05563">
        <ele>82</ele>
        <time>2018-03-28T19:56:53Z</time>
      </trkpt>
      <trkpt lat="49.22196" lon="4.05569">
        <ele>82</ele>
        <time>2018-03-28T19:57:53Z</time>
      </trkpt>
      <trkpt lat="49.22198" lon="4.05575">
        <ele>82</ele>
        <time>2018-03-28T19:58:53Z</time>
      </trkpt>
      <trkpt lat="49.222" lon="4.05582">
        <ele>82</ele>
        <time>2018-03-28T19:59:53Z</time>
      </trkpt>
      <trkpt lat="49.222" lon="4.0559">
        <ele>82</ele>
        <time>2018-03-28T20:00:53Z</time>
      </trkpt>
      <trkpt lat="49.22194" lon="4.05738">
        <ele>81</ele>
        <time>2018-03-28T20:01:53Z</time>
      </trkpt>
      <trkpt lat="49.22192" lon="4.05815">
        <ele>81</ele>
        <time>2018-03-28T20:02:53Z</time>
      </trkpt>
      <trkpt lat="49.22192" lon="4.05815">
        <ele>81</ele>
        <time>2018-03-28T20:03:53Z</time>
      </trkpt>
      <trkpt lat="49.2219" lon="4.05842">
        <ele>81</ele>
        <time>2018-03-28T20:04:53Z</time>
      </trkpt>
      <trkpt lat="49.22188" lon="4.05855">
        <ele>80</ele>
        <time>2018-03-28T20:05:53Z</time>
      </trkpt>
      <trkpt lat="49.22182" lon="4.05873">
        <ele>80</ele>
        <time>2018-03-28T20:06:53Z</time>
      </trkpt>
      <trkpt lat="49.22162" lon="4.0593">
        <ele>80</ele>
        <time>2018-03-28T20:07:53Z</time>
      </trkpt>
      <trkpt lat="49.22154" lon="4.05955">
        <ele>81</ele>
        <time>2018-03-28T20:08:53Z</time>
      </trkpt>
      <trkpt lat="49.22132" lon="4.06023">
        <ele>82</ele>
        <time>2018-03-28T20:09:53Z</time>
      </trkpt>
      <trkpt lat="49.22118" lon="4.06064">
        <ele>83</ele>
        <time>2018-03-28T20:10:53Z</time>
      </trkpt>
      <trkpt lat="49.22116" lon="4.0607">
        <ele>83</ele>
        <time>2018-03-28T20:11:53Z</time>
      </trkpt>
      <trkpt lat="49.22069" lon="4.06188">
        <ele>85</ele>
        <time>2018-03-28T20:12:53Z</time>
      </trkpt>
      <trkpt lat="49.22059" lon="4.06221">
        <ele>85</ele>
        <time>2018-03-28T20:13:53Z</time>
      </trkpt>
      <trkpt lat="49.22052" lon="4.06232">
        <ele>85</ele>
        <time>2018-03-28T20:14:53Z</time>
      </trkpt>
      <trkpt lat="49.22045" lon="4.06266">
        <ele>85</ele>
        <time>2018-03-28T20:15:53Z</time>
      </trkpt>
      <trkpt lat="49.22038" lon="4.0632">
        <ele>84</ele>
        <time>2018-03-28T20:16:53Z</time>
      </trkpt>
      <trkpt lat="49.22035" lon="4.06338">
        <ele>84</ele>
        <time>2018-03-28T20:17:53Z</time>
      </trkpt>
      <trkpt lat="49.22031" lon="4.06358">
        <ele>84</ele>
        <time>2018-03-28T20:18:53Z</time>
      </trkpt>
      <trkpt lat="49.22029" lon="4.06371">
        <ele>84</ele>
        <time>2018-03-28T20:19:53Z</time>
      </trkpt>
      <trkpt lat="49.22029" lon="4.06371">
        <ele>84</ele>
        <time>2018-03-28T20:20:53Z</time>
      </trkpt>
      <trkpt lat="49.22028" lon="4.06372">
        <ele>84</ele>
        <time>2018-03-28T20:21:53Z</time>
      </trkpt>
      <trkpt lat="49.22027" lon="4.06372">
        <ele>84</ele>
        <time>2018-03-28T20:22:53Z</time>
      </trkpt>
      <trkpt lat="49.22027" lon="4.06373">
        <ele>84</ele>
        <time>2018-03-28T20:23:53Z</time>
      </trkpt>
      <trkpt lat="49.22026" lon="4.06374">
        <ele>84</ele>
        <time>2018-03-28T20:24:53Z</time>
      </trkpt>
      <trkpt lat="49.22025" lon="4.06374">
        <ele>84</ele>
        <time>2018-03-28T20:25:53Z</time>
      </trkpt>
      <trkpt lat="49.22025" lon="4.06375">
        <ele>84</ele>
        <time>2018-03-28T20:26:53Z</time>
      </trkpt>
      <trkpt lat="49.22023" lon="4.06377">
        <ele>84</ele>
        <time>2018-03-28T20:27:53Z</time>
      </trkpt>
      <trkpt lat="49.22022" lon="4.06379">
        <ele>83</ele>
        <time>2018-03-28T20:28:53Z</time>
      </trkpt>
      <trkpt lat="49.22021" lon="4.06382">
        <ele>83</ele>
        <time>2018-03-28T20:29:53Z</time>
      </trkpt>
      <trkpt lat="49.2202" lon="4.06384">
        <ele>83</ele>
        <time>2018-03-28T20:30:53Z</time>
      </trkpt>
      <trkpt lat="49.22019" lon="4.06387">
        <ele>83</ele>
        <time>2018-03-28T20:31:53Z</time>
      </trkpt>
      <trkpt lat="49.22018" lon="4.06389">
        <ele>83</ele>
        <time>2018-03-28T20:32:53Z</time>
      </trkpt>
      <trkpt lat="49.22018" lon="4.06392">
        <ele>83</ele>
        <time>2018-03-28T20:33:53Z</time>
      </trkpt>
      <trkpt lat="49.22017" lon="4.06395">
        <ele>83</ele>
        <time>2018-03-28T20:34:53Z</time>
      </trkpt>
      <trkpt lat="49.22017" lon="4.064">
        <ele>83</ele>
        <time>2018-03-28T20:35:53Z</time>
      </trkpt>
      <trkpt lat="49.22017" lon="4.06401">
        <ele>83</ele>
        <time>2018-03-28T20:36:53Z</time>
      </trkpt>
      <trkpt lat="49.22017" lon="4.06402">
        <ele>83</ele>
        <time>2018-03-28T20:37:53Z</time>
      </trkpt>
      <trkpt lat="49.22017" lon="4.06404">
        <ele>83</ele>
        <time>2018-03-28T20:38:53Z</time>
      </trkpt>
      <trkpt lat="49.22018" lon="4.06406">
        <ele>83</ele>
        <time>2018-03-28T20:39:53Z</time>
      </trkpt>
      <trkpt lat="49.22018" lon="4.06407">
        <ele>83</ele>
        <time>2018-03-28T20:40:53Z</time>
      </trkpt>
      <trkpt lat="49.22018" lon="4.06409">
        <ele>82</ele>
        <time>2018-03-28T20:41:53Z</time>
      </trkpt>
      <trkpt lat="49.22018" lon="4.0641">
        <ele>82</ele>
        <time>2018-03-28T20:42:53Z</time>
      </trkpt>
      <trkpt lat="49.22019" lon="4.06412">
        <ele>82</ele>
        <time>2018-03-28T20:43:53Z</time>
      </trkpt>
      <trkpt lat="49.22019" lon="4.06413">
        <ele>82</ele>
        <time>2018-03-28T20:44:53Z</time>
      </trkpt>
      <trkpt lat="49.2202" lon="4.06414">
        <ele>82</ele>
        <time>2018-03-28T20:45:53Z</time>
      </trkpt>
      <trkpt lat="49.2202" lon="4.06415">
        <ele>82</ele>
        <time>2018-03-28T20:46:53Z</time>
      </trkpt>
      <trkpt lat="49.2202" lon="4.06416">
        <ele>82</ele>
        <time>2018-03-28T20:47:53Z</time>
      </trkpt>
      <trkpt lat="49.2202" lon="4.06417">
        <ele>82</ele>
        <time>2018-03-28T20:48:53Z</time>
      </trkpt>
      <trkpt lat="49.22021" lon="4.06417">
        <ele>82</ele>
        <time>2018-03-28T20:49:53Z</time>
      </trkpt>
      <trkpt lat="49.22016" lon="4.06432">
        <ele>82</ele>
        <time>2018-03-28T20:50:53Z</time>
      </trkpt>
      <trkpt lat="49.22012" lon="4.06449">
        <ele>82</ele>
        <time>2018-03-28T20:51:53Z</time>
      </trkpt>
      <trkpt lat="49.22003" lon="4.06497">
        <ele>81</ele>
        <time>2018-03-28T20:52:53Z</time>
      </trkpt>
      <trkpt lat="49.21985" lon="4.06592">
        <ele>81</ele>
        <time>2018-03-28T20:53:53Z</time>
      </trkpt>
      <trkpt lat="49.21977" lon="4.06628">
        <ele>82</ele>
        <time>2018-03-28T20:54:53Z</time>
      </trkpt>
      <trkpt lat="49.21976" lon="4.06642">
        <ele>82</ele>
        <time>2018-03-28T20:55:53Z</time>
      </trkpt>
      <trkpt lat="49.21972" lon="4.06667">
        <ele>82</ele>
        <time>2018-03-28T20:56:53Z</time>
      </trkpt>
      <trkpt lat="49.21965" lon="4.06698">
        <ele>82</ele>
        <time>2018-03-28T20:57:53Z</time>
      </trkpt>
      <trkpt lat="49.21961" lon="4.06717">
        <ele>82</ele>
        <time>2018-03-28T20:58:53Z</time>
      </trkpt>
      <trkpt lat="49.21952" lon="4.06749">
        <ele>83</ele>
        <time>2018-03-28T20:59:53Z</time>
      </trkpt>
      <trkpt lat="49.21948" lon="4.06766">
        <ele>83</ele>
        <time>2018-03-28T21:00:53Z</time>
      </trkpt>
      <trkpt lat="49.21945" lon="4.06777">
        <ele>83</ele>
        <time>2018-03-28T21:01:53Z</time>
      </trkpt>
      <trkpt lat="49.2194" lon="4.06795">
        <ele>83</ele>
        <time>2018-03-28T21:02:53Z</time>
      </trkpt>
      <trkpt lat="49.21926" lon="4.06839">
        <ele>85</ele>
        <time>2018-03-28T21:03:53Z</time>
      </trkpt>
      <trkpt lat="49.21926" lon="4.06839">
        <ele>85</ele>
        <time>2018-03-28T21:04:53Z</time>
      </trkpt>
      <trkpt lat="49.21925" lon="4.0684">
        <ele>85</ele>
        <time>2018-03-28T21:05:53Z</time>
      </trkpt>
      <trkpt lat="49.21924" lon="4.0684">
        <ele>85</ele>
        <time>2018-03-28T21:06:53Z</time>
      </trkpt>
      <trkpt lat="49.21922" lon="4.06841">
        <ele>85</ele>
        <time>2018-03-28T21:07:53Z</time>
      </trkpt>
      <trkpt lat="49.21921" lon="4.06842">
        <ele>85</ele>
        <time>2018-03-28T21:08:53Z</time>
      </trkpt>
      <trkpt lat="49.21919" lon="4.06843">
        <ele>85</ele>
        <time>2018-03-28T21:09:53Z</time>
      </trkpt>
      <trkpt lat="49.21918" lon="4.06844">
        <ele>85</ele>
        <time>2018-03-28T21:10:53Z</time>
      </trkpt>
      <trkpt lat="49.21917" lon="4.06846">
        <ele>85</ele>
        <time>2018-03-28T21:11:53Z</time>
      </trkpt>
      <trkpt lat="49.21916" lon="4.06847">
        <ele>85</ele>
        <time>2018-03-28T21:12:53Z</time>
      </trkpt>
      <trkpt lat="49.21915" lon="4.06849">
        <ele>85</ele>
        <time>2018-03-28T21:13:53Z</time>
      </trkpt>
      <trkpt lat="49.21914" lon="4.0685">
        <ele>85</ele>
        <time>2018-03-28T21:14:53Z</time>
      </trkpt>
      <trkpt lat="49.21913" lon="4.06852">
        <ele>85</ele>
        <time>2018-03-28T21:15:53Z</time>
      </trkpt>
      <trkpt lat="49.21913" lon="4.06854">
        <ele>85</ele>
        <time>2018-03-28T21:16:53Z</time>
      </trkpt>
      <trkpt lat="49.21912" lon="4.06856">
        <ele>85</ele>
        <time>2018-03-28T21:17:53Z</time>
      </trkpt>
      <trkpt lat="49.21912" lon="4.06858">
        <ele>85</ele>
        <time>2018-03-28T21:18:53Z</time>
      </trkpt>
      <trkpt lat="49.21911" lon="4.0686">
        <ele>85</ele>
        <time>2018-03-28T21:19:53Z</time>
      </trkpt>
      <trkpt lat="49.21911" lon="4.06863">
        <ele>85</ele>
        <time>2018-03-28T21:20:53Z</time>
      </trkpt>
      <trkpt lat="49.2191" lon="4.06865">
        <ele>85</ele>
        <time>2018-03-28T21:21:53Z</time>
      </trkpt>
      <trkpt lat="49.2191" lon="4.06867">
        <ele>85</ele>
        <time>2018-03-28T21:22:53Z</time>
      </trkpt>
      <trkpt lat="49.2191" lon="4.0687">
        <ele>85</ele>
        <time>2018-03-28T21:23:53Z</time>
      </trkpt>
      <trkpt lat="49.2191" lon="4.06873">
        <ele>85</ele>
        <time>2018-03-28T21:24:53Z</time>
      </trkpt>
      <trkpt lat="49.21911" lon="4.06875">
        <ele>85</ele>
        <time>2018-03-28T21:25:53Z</time>
      </trkpt>
      <trkpt lat="49.21911" lon="4.06877">
        <ele>85</ele>
        <time>2018-03-28T21:26:53Z</time>
      </trkpt>
      <trkpt lat="49.21912" lon="4.06879">
        <ele>85</ele>
        <time>2018-03-28T21:27:53Z</time>
      </trkpt>
      <trkpt lat="49.21912" lon="4.06881">
        <ele>84</ele>
        <time>2018-03-28T21:28:53Z</time>
      </trkpt>
      <trkpt lat="49.21913" lon="4.06883">
        <ele>84</ele>
        <time>2018-03-28T21:29:53Z</time>
      </trkpt>
      <trkpt lat="49.21913" lon="4.06884">
        <ele>84</ele>
        <time>2018-03-28T21:30:53Z</time>
      </trkpt>
      <trkpt lat="49.21914" lon="4.06886">
        <ele>84</ele>
        <time>2018-03-28T21:31:53Z</time>
      </trkpt>
      <trkpt lat="49.21915" lon="4.06888">
        <ele>84</ele>
        <time>2018-03-28T21:32:53Z</time>
      </trkpt>
      <trkpt lat="49.21916" lon="4.06889">
        <ele>84</ele>
        <time>2018-03-28T21:33:53Z</time>
      </trkpt>
      <trkpt lat="49.21917" lon="4.06891">
        <ele>84</ele>
        <time>2018-03-28T21:34:53Z</time>
      </trkpt>
      <trkpt lat="49.21918" lon="4.06892">
        <ele>84</ele>
        <time>2018-03-28T21:35:53Z</time>
      </trkpt>
      <trkpt lat="49.2192" lon="4.06893">
        <ele>84</ele>
        <time>2018-03-28T21:36:53Z</time>
      </trkpt>
      <trkpt lat="49.21921" lon="4.06894">
        <ele>84</ele>
        <time>2018-03-28T21:37:53Z</time>
      </trkpt>
      <trkpt lat="49.21921" lon="4.06902">
        <ele>84</ele>
        <time>2018-03-28T21:38:53Z</time>
      </trkpt>
      <trkpt lat="49.21922" lon="4.06914">
        <ele>84</ele>
        <time>2018-03-28T21:39:53Z</time>
      </trkpt>
      <trkpt lat="49.2192" lon="4.06936">
        <ele>84</ele>
        <time>2018-03-28T21:40:53Z</time>
      </trkpt>
      <trkpt lat="49.2192" lon="4.06949">
        <ele>84</ele>
        <time>2018-03-28T21:41:53Z</time>
      </trkpt>
      <trkpt lat="49.2192" lon="4.06981">
        <ele>84</ele>
        <time>2018-03-28T21:42:53Z</time>
      </trkpt>
      <trkpt lat="49.2192" lon="4.06986">
        <ele>84</ele>
        <time>2018-03-28T21:43:53Z</time>
      </trkpt>
      <trkpt lat="49.21922" lon="4.07023">
        <ele>84</ele>
        <time>2018-03-28T21:44:53Z</time>
      </trkpt>
      <trkpt lat="49.21923" lon="4.0704">
        <ele>84</ele>
        <time>2018-03-28T21:45:53Z</time>
      </trkpt>
      <trkpt lat="49.21924" lon="4.07054">
        <ele>84</ele>
        <time>2018-03-28T21:46:53Z</time>
      </trkpt>
      <trkpt lat="49.21924" lon="4.07055">
        <ele>84</ele>
        <time>2018-03-28T21:47:53Z</time>
      </trkpt>
      <trkpt lat="49.21925" lon="4.07065">
        <ele>84</ele>
        <time>2018-03-28T21:48:53Z</time>
      </trkpt>
      <trkpt lat="49.21925" lon="4.07074">
        <ele>84</ele>
        <time>2018-03-28T21:49:53Z</time>
      </trkpt>
      <trkpt lat="49.21925" lon="4.07075">
        <ele>84</ele>
        <time>2018-03-28T21:50:53Z</time>
      </trkpt>
      <trkpt lat="49.21925" lon="4.07076">
        <ele>84</ele>
        <time>2018-03-28T21:51:53Z</time>
      </trkpt>
      <trkpt lat="49.21927" lon="4.07099">
        <ele>85</ele>
        <time>2018-03-28T21:52:53Z</time>
      </trkpt>
      <trkpt lat="49.21928" lon="4.07117">
        <ele>85</ele>
        <time>2018-03-28T21:53:53Z</time>
      </trkpt>
      <trkpt lat="49.2193" lon="4.07157">
        <ele>86</ele>
        <time>2018-03-28T21:54:53Z</time>
      </trkpt>
      <trkpt lat="49.21931" lon="4.07196">
        <ele>87</ele>
        <time>2018-03-28T21:55:53Z</time>
      </trkpt>
      <trkpt lat="49.2193" lon="4.07226">
        <ele>87</ele>
        <time>2018-03-28T21:56:53Z</time>
      </trkpt>
      <trkpt lat="49.21925" lon="4.0727">
        <ele>87</ele>
        <time>2018-03-28T21:57:53Z</time>
      </trkpt>
      <trkpt lat="49.21912" lon="4.07338">
        <ele>88</ele>
        <time>2018-03-28T21:58:53Z</time>
      </trkpt>
      <trkpt lat="49.21911" lon="4.07342">
        <ele>88</ele>
        <time>2018-03-28T21:59:53Z</time>
      </trkpt>
      <trkpt lat="49.21905" lon="4.07366">
        <ele>87</ele>
        <time>2018-03-28T22:00:53Z</time>
      </trkpt>
      <trkpt lat="49.21897" lon="4.07393">
        <ele>86</ele>
        <time>2018-03-28T22:01:53Z</time>
      </trkpt>
      <trkpt lat="49.21891" lon="4.07405">
        <ele>86</ele>
        <time>2018-03-28T22:02:53Z</time>
      </trkpt>
      <trkpt lat="49.21883" lon="4.07424">
        <ele>85</ele>
        <time>2018-03-28T22:03:53Z</time>
      </trkpt>
      <trkpt lat="49.21865" lon="4.07466">
        <ele>83</ele>
        <time>2018-03-28T22:04:53Z</time>
      </trkpt>
      <trkpt lat="49.21859" lon="4.07479">
        <ele>83</ele>
        <time>2018-03-28T22:05:53Z</time>
      </trkpt>
      <trkpt lat="49.21837" lon="4.07528">
        <ele>82</ele>
        <time>2018-03-28T22:06:53Z</time>
      </trkpt>
      <trkpt lat="49.21826" lon="4.07551">
        <ele>82</ele>
        <time>2018-03-28T22:07:53Z</time>
      </trkpt>
      <trkpt lat="49.21798" lon="4.07613">
        <ele>83</ele>
        <time>2018-03-28T22:08:53Z</time>
      </trkpt>
      <trkpt lat="49.21777" lon="4.07657">
        <ele>83</ele>
        <time>2018-03-28T22:09:53Z</time>
      </trkpt>
      <trkpt lat="49.21744" lon="4.07726">
        <ele>82</ele>
        <time>2018-03-28T22:10:53Z</time>
      </trkpt>
      <trkpt lat="49.21737" lon="4.07734">
        <ele>82</ele>
        <time>2018-03-28T22:11:53Z</time>
      </trkpt>
      <trkpt lat="49.21722" lon="4.07764">
        <ele>82</ele>
        <time>2018-03-28T22:12:53Z</time>
      </trkpt>
      <trkpt lat="49.21707" lon="4.07796">
        <ele>82</ele>
        <time>2018-03-28T22:13:53Z</time>
      </trkpt>
      <trkpt lat="49.21681" lon="4.07851">
        <ele>82</ele>
        <time>2018-03-28T22:14:53Z</time>
      </trkpt>
      <trkpt lat="49.2168" lon="4.07854">
        <ele>82</ele>
        <time>2018-03-28T22:15:53Z</time>
      </trkpt>
      <trkpt lat="49.21678" lon="4.07857">
        <ele>82</ele>
        <time>2018-03-28T22:16:53Z</time>
      </trkpt>
      <trkpt lat="49.21655" lon="4.07911">
        <ele>81</ele>
        <time>2018-03-28T22:17:53Z</time>
      </trkpt>
      <trkpt lat="49.21642" lon="4.07939">
        <ele>82</ele>
        <time>2018-03-28T22:18:53Z</time>
      </trkpt>
      <trkpt lat="49.21612" lon="4.08013">
        <ele>84</ele>
        <time>2018-03-28T22:19:53Z</time>
      </trkpt>
      <trkpt lat="49.21606" lon="4.08025">
        <ele>85</ele>
        <time>2018-03-28T22:20:53Z</time>
      </trkpt>
      <trkpt lat="49.21605" lon="4.08027">
        <ele>85</ele>
        <time>2018-03-28T22:21:53Z</time>
      </trkpt>
      <trkpt lat="49.21597" lon="4.0804">
        <ele>86</ele>
        <time>2018-03-28T22:22:53Z</time>
      </trkpt>
      <trkpt lat="49.21587" lon="4.08057">
        <ele>88</ele>
        <time>2018-03-28T22:23:53Z</time>
      </trkpt>
      <trkpt lat="49.21587" lon="4.08057">
        <ele>88</ele>
        <time>2018-03-28T22:24:53Z</time>
      </trkpt>
      <trkpt lat="49.21585" lon="4.08057">
        <ele>88</ele>
        <time>2018-03-28T22:25:53Z</time>
      </trkpt>
      <trkpt lat="49.21583" lon="4.08057">
        <ele>88</ele>
        <time>2018-03-28T22:26:53Z</time>
      </trkpt>
      <trkpt lat="49.21579" lon="4.08058">
        <ele>88</ele>
        <time>2018-03-28T22:27:53Z</time>
      </trkpt>
      <trkpt lat="49.21577" lon="4.0806">
        <ele>88</ele>
        <time>2018-03-28T22:28:53Z</time>
      </trkpt>
      <trkpt lat="49.21575" lon="4.08062">
        <ele>88</ele>
        <time>2018-03-28T22:29:53Z</time>
      </trkpt>
      <trkpt lat="49.21573" lon="4.08066">
        <ele>89</ele>
        <time>2018-03-28T22:30:53Z</time>
      </trkpt>
      <trkpt lat="49.21572" lon="4.0807">
        <ele>89</ele>
        <time>2018-03-28T22:31:53Z</time>
      </trkpt>
      <trkpt lat="49.21572" lon="4.08078">
        <ele>89</ele>
        <time>2018-03-28T22:32:53Z</time>
      </trkpt>
      <trkpt lat="49.21572" lon="4.08079">
        <ele>89</ele>
        <time>2018-03-28T22:33:53Z</time>
      </trkpt>
      <trkpt lat="49.21573" lon="4.08083">
        <ele>89</ele>
        <time>2018-03-28T22:34:53Z</time>
      </trkpt>
      <trkpt lat="49.21574" lon="4.08086">
        <ele>89</ele>
        <time>2018-03-28T22:35:53Z</time>
      </trkpt>
      <trkpt lat="49.21576" lon="4.08089">
        <ele>89</ele>
        <time>2018-03-28T22:36:53Z</time>
      </trkpt>
      <trkpt lat="49.21578" lon="4.08091">
        <ele>89</ele>
        <time>2018-03-28T22:37:53Z</time>
      </trkpt>
      <trkpt lat="49.21581" lon="4.08093">
        <ele>89</ele>
        <time>2018-03-28T22:38:53Z</time>
      </trkpt>
      <trkpt lat="49.21582" lon="4.08093">
        <ele>89</ele>
        <time>2018-03-28T22:39:53Z</time>
      </trkpt>
      <trkpt lat="49.21586" lon="4.08101">
        <ele>89</ele>
        <time>2018-03-28T22:40:53Z</time>
      </trkpt>
      <trkpt lat="49.21589" lon="4.08107">
        <ele>89</ele>
        <time>2018-03-28T22:41:53Z</time>
      </trkpt>
      <trkpt lat="49.21591" lon="4.08116">
        <ele>89</ele>
        <time>2018-03-28T22:42:53Z</time>
      </trkpt>
      <trkpt lat="49.21593" lon="4.08125">
        <ele>89</ele>
        <time>2018-03-28T22:43:53Z</time>
      </trkpt>
      <trkpt lat="49.21594" lon="4.08135">
        <ele>89</ele>
        <time>2018-03-28T22:44:53Z</time>
      </trkpt>
      <trkpt lat="49.21594" lon="4.08142">
        <ele>89</ele>
        <time>2018-03-28T22:45:53Z</time>
      </trkpt>
      <trkpt lat="49.21594" lon="4.08144">
        <ele>89</ele>
        <time>2018-03-28T22:46:53Z</time>
      </trkpt>
      <trkpt lat="49.21585" lon="4.0825">
        <ele>89</ele>
        <time>2018-03-28T22:47:53Z</time>
      </trkpt>
      <trkpt lat="49.21576" lon="4.0831">
        <ele>90</ele>
        <time>2018-03-28T22:48:53Z</time>
      </trkpt>
      <trkpt lat="49.21574" lon="4.0834">
        <ele>90</ele>
        <time>2018-03-28T22:49:53Z</time>
      </trkpt>
      <trkpt lat="49.21562" lon="4.08472">
        <ele>90</ele>
        <time>2018-03-28T22:50:53Z</time>
      </trkpt>
      <trkpt lat="49.21558" lon="4.08506">
        <ele>90</ele>
        <time>2018-03-28T22:51:53Z</time>
      </trkpt>
      <trkpt lat="49.21556" lon="4.08512">
        <ele>90</ele>
        <time>2018-03-28T22:52:53Z</time>
      </trkpt>
      <trkpt lat="49.21548" lon="4.08541">
        <ele>89</ele>
        <time>2018-03-28T22:53:53Z</time>
      </trkpt>
      <trkpt lat="49.21548" lon="4.08541">
        <ele>89</ele>
        <time>2018-03-28T22:54:53Z</time>
      </trkpt>
      <trkpt lat="49.21547" lon="4.08541">
        <ele>89</ele>
        <time>2018-03-28T22:55:53Z</time>
      </trkpt>
      <trkpt lat="49.21546" lon="4.08541">
        <ele>89</ele>
        <time>2018-03-28T22:56:53Z</time>
      </trkpt>
      <trkpt lat="49.21546" lon="4.08542">
        <ele>89</ele>
        <time>2018-03-28T22:57:53Z</time>
      </trkpt>
      <trkpt lat="49.21545" lon="4.08542">
        <ele>89</ele>
        <time>2018-03-28T22:58:53Z</time>
      </trkpt>
      <trkpt lat="49.21544" lon="4.08543">
        <ele>89</ele>
        <time>2018-03-28T22:59:53Z</time>
      </trkpt>
      <trkpt lat="49.21544" lon="4.08544">
        <ele>89</ele>
        <time>2018-03-28T23:00:53Z</time>
      </trkpt>
      <trkpt lat="49.21543" lon="4.08544">
        <ele>89</ele>
        <time>2018-03-28T23:01:53Z</time>
      </trkpt>
      <trkpt lat="49.21543" lon="4.08545">
        <ele>89</ele>
        <time>2018-03-28T23:02:53Z</time>
      </trkpt>
      <trkpt lat="49.21542" lon="4.08545">
        <ele>89</ele>
        <time>2018-03-28T23:03:53Z</time>
      </trkpt>
      <trkpt lat="49.21542" lon="4.08546">
        <ele>89</ele>
        <time>2018-03-28T23:04:53Z</time>
      </trkpt>
      <trkpt lat="49.21542" lon="4.08547">
        <ele>89</ele>
        <time>2018-03-28T23:05:53Z</time>
      </trkpt>
      <trkpt lat="49.21541" lon="4.08548">
        <ele>89</ele>
        <time>2018-03-28T23:06:53Z</time>
      </trkpt>
      <trkpt lat="49.21541" lon="4.08549">
        <ele>89</ele>
        <time>2018-03-28T23:07:53Z</time>
      </trkpt>
      <trkpt lat="49.21541" lon="4.0855">
        <ele>89</ele>
        <time>2018-03-28T23:08:53Z</time>
      </trkpt>
      <trkpt lat="49.21541" lon="4.08551">
        <ele>89</ele>
        <time>2018-03-28T23:09:53Z</time>
      </trkpt>
      <trkpt lat="49.21541" lon="4.08552">
        <ele>89</ele>
        <time>2018-03-28T23:10:53Z</time>
      </trkpt>
      <trkpt lat="49.21541" lon="4.08553">
        <ele>89</ele>
        <time>2018-03-28T23:11:53Z</time>
      </trkpt>
      <trkpt lat="49.21541" lon="4.08554">
        <ele>89</ele>
        <time>2018-03-28T23:12:53Z</time>
      </trkpt>
      <trkpt lat="49.21541" lon="4.08555">
        <ele>89</ele>
        <time>2018-03-28T23:13:53Z</time>
      </trkpt>
      <trkpt lat="49.21541" lon="4.08556">
        <ele>89</ele>
        <time>2018-03-28T23:14:53Z</time>
      </trkpt>
      <trkpt lat="49.21541" lon="4.08557">
        <ele>89</ele>
        <time>2018-03-28T23:15:53Z</time>
      </trkpt>
      <trkpt lat="49.21541" lon="4.08558">
        <ele>89</ele>
        <time>2018-03-28T23:16:53Z</time>
      </trkpt>
      <trkpt lat="49.21541" lon="4.08559">
        <ele>89</ele>
        <time>2018-03-28T23:17:53Z</time>
      </trkpt>
      <trkpt lat="49.21542" lon="4.08559">
        <ele>89</ele>
        <time>2018-03-28T23:18:53Z</time>
      </trkpt>
      <trkpt lat="49.21542" lon="4.0856">
        <ele>89</ele>
        <time>2018-03-28T23:19:53Z</time>
      </trkpt>
      <trkpt lat="49.21542" lon="4.08561">
        <ele>89</ele>
        <time>2018-03-28T23:20:53Z</time>
      </trkpt>
      <trkpt lat="49.21543" lon="4.08561">
        <ele>89</ele>
        <time>2018-03-28T23:21:53Z</time>
      </trkpt>
      <trkpt lat="49.21543" lon="4.08562">
        <ele>89</ele>
        <time>2018-03-28T23:22:53Z</time>
      </trkpt>
      <trkpt lat="49.21544" lon="4.08563">
        <ele>89</ele>
        <time>2018-03-28T23:23:53Z</time>
      </trkpt>
      <trkpt lat="49.21545" lon="4.08564">
        <ele>89</ele>
        <time>2018-03-28T23:24:53Z</time>
      </trkpt>
      <trkpt lat="49.21546" lon="4.08564">
        <ele>89</ele>
        <time>2018-03-28T23:25:53Z</time>
      </trkpt>
      <trkpt lat="49.21546" lon="4.08565">
        <ele>89</ele>
        <time>2018-03-28T23:26:53Z</time>
      </trkpt>
      <trkpt lat="49.21547" lon="4.08565">
        <ele>89</ele>
        <time>2018-03-28T23:27:53Z</time>
      </trkpt>
      <trkpt lat="49.21548" lon="4.08565">
        <ele>89</ele>
        <time>2018-03-28T23:28:53Z</time>
      </trkpt>
      <trkpt lat="49.2155" lon="4.08572">
        <ele>89</ele>
        <time>2018-03-28T23:29:53Z</time>
      </trkpt>
      <trkpt lat="49.21551" lon="4.08585">
        <ele>89</ele>
        <time>2018-03-28T23:30:53Z</time>
      </trkpt>
      <trkpt lat="49.21548" lon="4.08632">
        <ele>90</ele>
        <time>2018-03-28T23:31:53Z</time>
      </trkpt>
      <trkpt lat="49.21547" lon="4.08702">
        <ele>90</ele>
        <time>2018-03-28T23:32:53Z</time>
      </trkpt>
      <trkpt lat="49.2155" lon="4.08816">
        <ele>88</ele>
        <time>2018-03-28T23:33:53Z</time>
      </trkpt>
      <trkpt lat="49.2155" lon="4.08849">
        <ele>87</ele>
        <time>2018-03-28T23:34:53Z</time>
      </trkpt>
      <trkpt lat="49.21549" lon="4.08871">
        <ele>87</ele>
        <time>2018-03-28T23:35:53Z</time>
      </trkpt>
      <trkpt lat="49.21548" lon="4.08879">
        <ele>87</ele>
        <time>2018-03-28T23:36:53Z</time>
      </trkpt>
      <trkpt lat="49.21546" lon="4.08898">
        <ele>87</ele>
        <time>2018-03-28T23:37:53Z</time>
      </trkpt>
      <trkpt lat="49.21529" lon="4.08991">
        <ele>86</ele>
        <time>2018-03-28T23:38:53Z</time>
      </trkpt>
      <trkpt lat="49.21515" lon="4.09059">
        <ele>86</ele>
        <time>2018-03-28T23:39:53Z</time>
      </trkpt>
      <trkpt lat="49.21509" lon="4.09091">
        <ele>86</ele>
        <time>2018-03-28T23:40:53Z</time>
      </trkpt>
      <trkpt lat="49.21497" lon="4.09142">
        <ele>86</ele>
        <time>2018-03-28T23:41:53Z</time>
      </trkpt>
      <trkpt lat="49.21477" lon="4.09229">
        <ele>85</ele>
        <time>2018-03-28T23:42:53Z</time>
      </trkpt>
      <trkpt lat="49.21459" lon="4.09292">
        <ele>85</ele>
        <time>2018-03-28T23:43:53Z</time>
      </trkpt>
      <trkpt lat="49.21446" lon="4.09334">
        <ele>85</ele>
        <time>2018-03-28T23:44:53Z</time>
      </trkpt>
      <trkpt lat="49.21441" lon="4.09355">
        <ele>85</ele>
        <time>2018-03-28T23:45:53Z</time>
      </trkpt>
      <trkpt lat="49.2144" lon="4.09355">
        <ele>85</ele>
        <time>2018-03-28T23:46:53Z</time>
      </trkpt>
      <trkpt lat="49.2144" lon="4.09354">
        <ele>85</ele>
        <time>2018-03-28T23:47:53Z</time>
      </trkpt>
      <trkpt lat="49.21439" lon="4.09354">
        <ele>85</ele>
        <time>2018-03-28T23:48:53Z</time>
      </trkpt>
      <trkpt lat="49.21438" lon="4.09354">
        <ele>85</ele>
        <time>2018-03-28T23:49:53Z</time>
      </trkpt>
      <trkpt lat="49.21438" lon="4.09355">
        <ele>85</ele>
        <time>2018-03-28T23:50:53Z</time>
      </trkpt>
      <trkpt lat="49.21437" lon="4.09355">
        <ele>85</ele>
        <time>2018-03-28T23:51:53Z</time>
      </trkpt>
      <trkpt lat="49.21436" lon="4.09355">
        <ele>85</ele>
        <time>2018-03-28T23:52:53Z</time>
      </trkpt>
      <trkpt lat="49.21436" lon="4.09356">
        <ele>85</ele>
        <time>2018-03-28T23:53:53Z</time>
      </trkpt>
      <trkpt lat="49.21435" lon="4.09357">
        <ele>85</ele>
        <time>2018-03-28T23:54:53Z</time>
      </trkpt>
      <trkpt lat="49.21435" lon="4.09358">
        <ele>85</ele>
        <time>2018-03-28T23:55:53Z</time>
      </trkpt>
      <trkpt lat="49.21435" lon="4.09359">
        <ele>85</ele>
        <time>2018-03-28T23:56:53Z</time>
      </trkpt>
      <trkpt lat="49.21434" lon="4.09359">
        <ele>85</ele>
        <time>2018-03-28T23:57:53Z</time>
      </trkpt>
      <trkpt lat="49.21434" lon="4.0936">
        <ele>85</ele>
        <time>2018-03-28T23:58:53Z</time>
      </trkpt>
      <trkpt lat="49.21434" lon="4.09361">
        <ele>85</ele>
        <time>2018-03-28T23:59:53Z</time>
      </trkpt>
      <trkpt lat="49.21434" lon="4.09362">
        <ele>85</ele>
        <time>2018-03-29T00:00:53Z</time>
      </trkpt>
      <trkpt lat="49.21434" lon="4.09363">
        <ele>85</ele>
        <time>2018-03-29T00:01:53Z</time>
      </trkpt>
      <trkpt lat="49.21434" lon="4.09364">
        <ele>85</ele>
        <time>2018-03-29T00:02:53Z</time>
      </trkpt>
      <trkpt lat="49.21434" lon="4.09365">
        <ele>85</ele>
        <time>2018-03-29T00:03:53Z</time>
      </trkpt>
      <trkpt lat="49.21435" lon="4.09365">
        <ele>85</ele>
        <time>2018-03-29T00:04:53Z</time>
      </trkpt>
      <trkpt lat="49.21435" lon="4.09366">
        <ele>85</ele>
        <time>2018-03-29T00:05:53Z</time>
      </trkpt>
      <trkpt lat="49.21435" lon="4.09367">
        <ele>85</ele>
        <time>2018-03-29T00:06:53Z</time>
      </trkpt>
      <trkpt lat="49.21436" lon="4.09368">
        <ele>85</ele>
        <time>2018-03-29T00:07:53Z</time>
      </trkpt>
      <trkpt lat="49.21436" lon="4.09369">
        <ele>85</ele>
        <time>2018-03-29T00:08:53Z</time>
      </trkpt>
      <trkpt lat="49.21437" lon="4.09369">
        <ele>85</ele>
        <time>2018-03-29T00:09:53Z</time>
      </trkpt>
      <trkpt lat="49.21432" lon="4.0938">
        <ele>84</ele>
        <time>2018-03-29T00:10:53Z</time>
      </trkpt>
      <trkpt lat="49.21414" lon="4.09425">
        <ele>84</ele>
        <time>2018-03-29T00:11:53Z</time>
      </trkpt>
      <trkpt lat="49.21396" lon="4.09467">
        <ele>83</ele>
        <time>2018-03-29T00:12:53Z</time>
      </trkpt>
      <trkpt lat="49.21381" lon="4.09503">
        <ele>82</ele>
        <time>2018-03-29T00:13:53Z</time>
      </trkpt>
      <trkpt lat="49.21364" lon="4.09545">
        <ele>82</ele>
        <time>2018-03-29T00:14:53Z</time>
      </trkpt>
      <trkpt lat="49.21345" lon="4.09594">
        <ele>83</ele>
        <time>2018-03-29T00:15:53Z</time>
      </trkpt>
      <trkpt lat="49.21335" lon="4.09624">
        <ele>82</ele>
        <time>2018-03-29T00:16:53Z</time>
      </trkpt>
      <trkpt lat="49.21315" lon="4.09678">
        <ele>82</ele>
        <time>2018-03-29T00:17:53Z</time>
      </trkpt>
      <trkpt lat="49.21307" lon="4.09708">
        <ele>83</ele>
        <time>2018-03-29T00:18:53Z</time>
      </trkpt>
      <trkpt lat="49.21296" lon="4.09746">
        <ele>83</ele>
        <time>2018-03-29T00:19:53Z</time>
      </trkpt>
      <trkpt lat="49.21274" lon="4.09819">
        <ele>85</ele>
        <time>2018-03-29T00:20:53Z</time>
      </trkpt>
      <trkpt lat="49.21258" lon="4.09876">
        <ele>86</ele>
        <time>2018-03-29T00:21:53Z</time>
      </trkpt>
      <trkpt lat="49.21237" lon="4.09941">
        <ele>87</ele>
        <time>2018-03-29T00:22:53Z</time>
      </trkpt>
      <trkpt lat="49.21228" lon="4.09977">
        <ele>87</ele>
        <time>2018-03-29T00:23:53Z</time>
      </trkpt>
      <trkpt lat="49.21217" lon="4.10011">
        <ele>87</ele>
        <time>2018-03-29T00:24:53Z</time>
      </trkpt>
      <trkpt lat="49.21209" lon="4.10043">
        <ele>87</ele>
        <time>2018-03-29T00:25:53Z</time>
      </trkpt>
      <trkpt lat="49.21208" lon="4.10047">
        <ele>88</ele>
        <time>2018-03-29T00:26:53Z</time>
      </trkpt>
      <trkpt lat="49.21206" lon="4.10058">
        <ele>88</ele>
        <time>2018-03-29T00:27:53Z</time>
      </trkpt>
      <trkpt lat="49.21201" lon="4.10081">
        <ele>88</ele>
        <time>2018-03-29T00:28:53Z</time>
      </trkpt>
      <trkpt lat="49.21199" lon="4.10096">
        <ele>88</ele>
        <time>2018-03-29T00:29:53Z</time>
      </trkpt>
      <trkpt lat="49.21197" lon="4.10112">
        <ele>87</ele>
        <time>2018-03-29T00:30:53Z</time>
      </trkpt>
      <trkpt lat="49.21192" lon="4.10167">
        <ele>86</ele>
        <time>2018-03-29T00:31:53Z</time>
      </trkpt>
      <trkpt lat="49.21192" lon="4.10176">
        <ele>86</ele>
        <time>2018-03-29T00:32:53Z</time>
      </trkpt>
      <trkpt lat="49.2119" lon="4.10183">
        <ele>86</ele>
        <time>2018-03-29T00:33:53Z</time>
      </trkpt>
      <trkpt lat="49.21189" lon="4.10194">
        <ele>86</ele>
        <time>2018-03-29T00:34:53Z</time>
      </trkpt>
      <trkpt lat="49.21187" lon="4.10202">
        <ele>86</ele>
        <time>2018-03-29T00:35:53Z</time>
      </trkpt>
      <trkpt lat="49.21164" lon="4.1026">
        <ele>87</ele>
        <time>2018-03-29T00:36:53Z</time>
      </trkpt>
      <trkpt lat="49.21155" lon="4.1028">
        <ele>87</ele>
        <time>2018-03-29T00:37:53Z</time>
      </trkpt>
      <trkpt lat="49.21152" lon="4.10286">
        <ele>87</ele>
        <time>2018-03-29T00:38:53Z</time>
      </trkpt>
      <trkpt lat="49.21151" lon="4.10291">
        <ele>87</ele>
        <time>2018-03-29T00:39:53Z</time>
      </trkpt>
      <trkpt lat="49.21141" lon="4.10316">
        <ele>87</ele>
        <time>2018-03-29T00:40:53Z</time>
      </trkpt>
      <trkpt lat="49.21137" lon="4.10327">
        <ele>87</ele>
        <time>2018-03-29T00:41:53Z</time>
      </trkpt>
      <trkpt lat="49.21131" lon="4.10336">
        <ele>87</ele>
        <time>2018-03-29T00:42:53Z</time>
      </trkpt>
      <trkpt lat="49.21128" lon="4.10339">
        <ele>87</ele>
        <time>2018-03-29T00:43:53Z</time>
      </trkpt>
      <trkpt lat="49.21125" lon="4.1034">
        <ele>87</ele>
        <time>2018-03-29T00:44:53Z</time>
      </trkpt>
      <trkpt lat="49.21121" lon="4.10342">
        <ele>87</ele>
        <time>2018-03-29T00:45:53Z</time>
      </trkpt>
      <trkpt lat="49.21115" lon="4.10347">
        <ele>87</ele>
        <time>2018-03-29T00:46:53Z</time>
      </trkpt>
      <trkpt lat="49.21112" lon="4.1035">
        <ele>87</ele>
        <time>2018-03-29T00:47:53Z</time>
      </trkpt>
      <trkpt lat="49.2111" lon="4.10354">
        <ele>87</ele>
        <time>2018-03-29T00:48:53Z</time>
      </trkpt>
      <trkpt lat="49.21108" lon="4.10358">
        <ele>87</ele>
        <time>2018-03-29T00:49:53Z</time>
      </trkpt>
      <trkpt lat="49.21107" lon="4.10362">
        <ele>87</ele>
        <time>2018-03-29T00:50:53Z</time>
      </trkpt>
      <trkpt lat="49.21105" lon="4.10368">
        <ele>87</ele>
        <time>2018-03-29T00:51:53Z</time>
      </trkpt>
      <trkpt lat="49.21104" lon="4.10378">
        <ele>87</ele>
        <time>2018-03-29T00:52:53Z</time>
      </trkpt>
      <trkpt lat="49.21103" lon="4.10383">
        <ele>87</ele>
        <time>2018-03-29T00:53:53Z</time>
      </trkpt>
      <trkpt lat="49.21102" lon="4.10388">
        <ele>87</ele>
        <time>2018-03-29T00:54:53Z</time>
      </trkpt>
      <trkpt lat="49.211" lon="4.10393">
        <ele>87</ele>
        <time>2018-03-29T00:55:53Z</time>
      </trkpt>
      <trkpt lat="49.21098" lon="4.10399">
        <ele>87</ele>
        <time>2018-03-29T00:56:53Z</time>
      </trkpt>
      <trkpt lat="49.21097" lon="4.10402">
        <ele>87</ele>
        <time>2018-03-29T00:57:53Z</time>
      </trkpt>
      <trkpt lat="49.21077" lon="4.1044">
        <ele>87</ele>
        <time>2018-03-29T00:58:53Z</time>
      </trkpt>
      <trkpt lat="49.21067" lon="4.10462">
        <ele>87</ele>
        <time>2018-03-29T00:59:53Z</time>
      </trkpt>
      <trkpt lat="49.21045" lon="4.10506">
        <ele>87</ele>
        <time>2018-03-29T01:00:53Z</time>
      </trkpt>
      <trkpt lat="49.21045" lon="4.10507">
        <ele>87</ele>
        <time>2018-03-29T01:01:53Z</time>
      </trkpt>
      <trkpt lat="49.21044" lon="4.10511">
        <ele>87</ele>
        <time>2018-03-29T01:02:53Z</time>
      </trkpt>
      <trkpt lat="49.21025" lon="4.10547">
        <ele>87</ele>
        <time>2018-03-29T01:03:53Z</time>
      </trkpt>
      <trkpt lat="49.20982" lon="4.10631">
        <ele>86</ele>
        <time>2018-03-29T01:04:53Z</time>
      </trkpt>
      <trkpt lat="49.20977" lon="4.10635">
        <ele>86</ele>
        <time>2018-03-29T01:05:53Z</time>
      </trkpt>
      <trkpt lat="49.20975" lon="4.10636">
        <ele>86</ele>
        <time>2018-03-29T01:06:53Z</time>
      </trkpt>
      <trkpt lat="49.20947" lon="4.10687">
        <ele>86</ele>
        <time>2018-03-29T01:07:53Z</time>
      </trkpt>
      <trkpt lat="49.20935" lon="4.10709">
        <ele>86</ele>
        <time>2018-03-29T01:08:53Z</time>
      </trkpt>
      <trkpt lat="49.20923" lon="4.10735">
        <ele>86</ele>
        <time>2018-03-29T01:09:53Z</time>
      </trkpt>
      <trkpt lat="49.2092" lon="4.10741">
        <ele>86</ele>
        <time>2018-03-29T01:10:53Z</time>
      </trkpt>
      <trkpt lat="49.20919" lon="4.10744">
        <ele>86</ele>
        <time>2018-03-29T01:11:53Z</time>
      </trkpt>
      <trkpt lat="49.20919" lon="4.10745">
        <ele>86</ele>
        <time>2018-03-29T01:12:53Z</time>
      </trkpt>
      <trkpt lat="49.20919" lon="4.10751">
        <ele>86</ele>
        <time>2018-03-29T01:13:53Z</time>
      </trkpt>
      <trkpt lat="49.20888" lon="4.10809">
        <ele>86</ele>
        <time>2018-03-29T01:14:53Z</time>
      </trkpt>
      <trkpt lat="49.20835" lon="4.10908">
        <ele>87</ele>
        <time>2018-03-29T01:15:53Z</time>
      </trkpt>
      <trkpt lat="49.20792" lon="4.1099">
        <ele>88</ele>
        <time>2018-03-29T01:16:53Z</time>
      </trkpt>
      <trkpt lat="49.20679" lon="4.11205">
        <ele>89</ele>
        <time>2018-03-29T01:17:53Z</time>
      </trkpt>
      <trkpt lat="49.20666" lon="4.11232">
        <ele>89</ele>
        <time>2018-03-29T01:18:53Z</time>
      </trkpt>
      <trkpt lat="49.20664" lon="4.11238">
        <ele>89</ele>
        <time>2018-03-29T01:19:53Z</time>
      </trkpt>
      <trkpt lat="49.20657" lon="4.11253">
        <ele>89</ele>
        <time>2018-03-29T01:20:53Z</time>
      </trkpt>
      <trkpt lat="49.20655" lon="4.11257">
        <ele>90</ele>
        <time>2018-03-29T01:21:53Z</time>
      </trkpt>
      <trkpt lat="49.20522" lon="4.11602">
        <ele>91</ele>
        <time>2018-03-29T01:22:53Z</time>
      </trkpt>
      <trkpt lat="49.20514" lon="4.11623">
        <ele>91</ele>
        <time>2018-03-29T01:23:53Z</time>
      </trkpt>
      <trkpt lat="49.20499" lon="4.1166">
        <ele>90</ele>
        <time>2018-03-29T01:24:53Z</time>
      </trkpt>
      <trkpt lat="49.20389" lon="4.11891">
        <ele>88</ele>
        <time>2018-03-29T01:25:53Z</time>
      </trkpt>
      <trkpt lat="49.20325" lon="4.12022">
        <ele>87</ele>
        <time>2018-03-29T01:26:53Z</time>
      </trkpt>
      <trkpt lat="49.20278" lon="4.12121">
        <ele>86</ele>
        <time>2018-03-29T01:27:53Z</time>
      </trkpt>
      <trkpt lat="49.20192" lon="4.123">
        <ele>85</ele>
        <time>2018-03-29T01:28:53Z</time>
      </trkpt>
      <trkpt lat="49.20189" lon="4.12306">
        <ele>85</ele>
        <time>2018-03-29T01:29:53Z</time>
      </trkpt>
      <trkpt lat="49.20187" lon="4.1231">
        <ele>85</ele>
        <time>2018-03-29T01:30:53Z</time>
      </trkpt>
      <trkpt lat="49.20135" lon="4.12418">
        <ele>85</ele>
        <time>2018-03-29T01:31:53Z</time>
      </trkpt>
      <trkpt lat="49.20096" lon="4.12499">
        <ele>86</ele>
        <time>2018-03-29T01:32:53Z</time>
      </trkpt>
      <trkpt lat="49.20063" lon="4.12567">
        <ele>87</ele>
        <time>2018-03-29T01:33:53Z</time>
      </trkpt>
      <trkpt lat="49.20055" lon="4.12577">
        <ele>87</ele>
        <time>2018-03-29T01:34:53Z</time>
      </trkpt>
      <trkpt lat="49.2005" lon="4.12585">
        <ele>87</ele>
        <time>2018-03-29T01:35:53Z</time>
      </trkpt>
      <trkpt lat="49.20046" lon="4.12592">
        <ele>87</ele>
        <time>2018-03-29T01:36:53Z</time>
      </trkpt>
      <trkpt lat="49.20041" lon="4.12599">
        <ele>88</ele>
        <time>2018-03-29T01:37:53Z</time>
      </trkpt>
      <trkpt lat="49.20037" lon="4.12605">
        <ele>88</ele>
        <time>2018-03-29T01:38:53Z</time>
      </trkpt>
      <trkpt lat="49.20035" lon="4.12607">
        <ele>88</ele>
        <time>2018-03-29T01:39:53Z</time>
      </trkpt>
      <trkpt lat="49.20031" lon="4.1261">
        <ele>88</ele>
        <time>2018-03-29T01:40:53Z</time>
      </trkpt>
      <trkpt lat="49.20029" lon="4.12611">
        <ele>88</ele>
        <time>2018-03-29T01:41:53Z</time>
      </trkpt>
      <trkpt lat="49.20028" lon="4.12612">
        <ele>88</ele>
        <time>2018-03-29T01:42:53Z</time>
      </trkpt>
      <trkpt lat="49.20026" lon="4.12614">
        <ele>88</ele>
        <time>2018-03-29T01:43:53Z</time>
      </trkpt>
      <trkpt lat="49.20025" lon="4.12616">
        <ele>88</ele>
        <time>2018-03-29T01:44:53Z</time>
      </trkpt>
      <trkpt lat="49.20024" lon="4.12618">
        <ele>88</ele>
        <time>2018-03-29T01:45:53Z</time>
      </trkpt>
      <trkpt lat="49.20023" lon="4.1262">
        <ele>88</ele>
        <time>2018-03-29T01:46:53Z</time>
      </trkpt>
      <trkpt lat="49.20022" lon="4.12623">
        <ele>88</ele>
        <time>2018-03-29T01:47:53Z</time>
      </trkpt>
      <trkpt lat="49.20022" lon="4.12626">
        <ele>88</ele>
        <time>2018-03-29T01:48:53Z</time>
      </trkpt>
      <trkpt lat="49.20022" lon="4.12629">
        <ele>88</ele>
        <time>2018-03-29T01:49:53Z</time>
      </trkpt>
      <trkpt lat="49.20022" lon="4.1263">
        <ele>88</ele>
        <time>2018-03-29T01:50:53Z</time>
      </trkpt>
      <trkpt lat="49.20012" lon="4.12663">
        <ele>88</ele>
        <time>2018-03-29T01:51:53Z</time>
      </trkpt>
      <trkpt lat="49.20008" lon="4.12674">
        <ele>88</ele>
        <time>2018-03-29T01:52:53Z</time>
      </trkpt>
      <trkpt lat="49.20007" lon="4.12676">
        <ele>88</ele>
        <time>2018-03-29T01:53:53Z</time>
      </trkpt>
      <trkpt lat="49.20004" lon="4.12681">
        <ele>88</ele>
        <time>2018-03-29T01:54:53Z</time>
      </trkpt>
      <trkpt lat="49.19974" lon="4.12739">
        <ele>88</ele>
        <time>2018-03-29T01:55:53Z</time>
      </trkpt>
      <trkpt lat="49.19966" lon="4.12753">
        <ele>88</ele>
        <time>2018-03-29T01:56:53Z</time>
      </trkpt>
      <trkpt lat="49.19963" lon="4.1276">
        <ele>88</ele>
        <time>2018-03-29T01:57:53Z</time>
      </trkpt>
      <trkpt lat="49.19915" lon="4.1285">
        <ele>90</ele>
        <time>2018-03-29T01:58:53Z</time>
      </trkpt>
      <trkpt lat="49.19909" lon="4.12862">
        <ele>90</ele>
        <time>2018-03-29T01:59:53Z</time>
      </trkpt>
      <trkpt lat="49.19881" lon="4.12913">
        <ele>90</ele>
        <time>2018-03-29T02:00:53Z</time>
      </trkpt>
      <trkpt lat="49.19861" lon="4.12946">
        <ele>90</ele>
        <time>2018-03-29T02:01:53Z</time>
      </trkpt>
      <trkpt lat="49.19855" lon="4.12956">
        <ele>90</ele>
        <time>2018-03-29T02:02:53Z</time>
      </trkpt>
      <trkpt lat="49.19853" lon="4.1296">
        <ele>90</ele>
        <time>2018-03-29T02:03:53Z</time>
      </trkpt>
      <trkpt lat="49.198" lon="4.13047">
        <ele>91</ele>
        <time>2018-03-29T02:04:53Z</time>
      </trkpt>
      <trkpt lat="49.19796" lon="4.13053">
        <ele>91</ele>
        <time>2018-03-29T02:05:53Z</time>
      </trkpt>
      <trkpt lat="49.19782" lon="4.13078">
        <ele>92</ele>
        <time>2018-03-29T02:06:53Z</time>
      </trkpt>
      <trkpt lat="49.19772" lon="4.13095">
        <ele>92</ele>
        <time>2018-03-29T02:07:53Z</time>
      </trkpt>
      <trkpt lat="49.19764" lon="4.13112">
        <ele>92</ele>
        <time>2018-03-29T02:08:53Z</time>
      </trkpt>
      <trkpt lat="49.19739" lon="4.13156">
        <ele>92</ele>
        <time>2018-03-29T02:09:53Z</time>
      </trkpt>
      <trkpt lat="49.19728" lon="4.13177">
        <ele>92</ele>
        <time>2018-03-29T02:10:53Z</time>
      </trkpt>
      <trkpt lat="49.1972" lon="4.13197">
        <ele>92</ele>
        <time>2018-03-29T02:11:53Z</time>
      </trkpt>
      <trkpt lat="49.19715" lon="4.13208">
        <ele>92</ele>
        <time>2018-03-29T02:12:53Z</time>
      </trkpt>
      <trkpt lat="49.19705" lon="4.13238">
        <ele>92</ele>
        <time>2018-03-29T02:13:53Z</time>
      </trkpt>
      <trkpt lat="49.19697" lon="4.13277">
        <ele>92</ele>
        <time>2018-03-29T02:14:53Z</time>
      </trkpt>
      <trkpt lat="49.19689" lon="4.13312">
        <ele>91</ele>
        <time>2018-03-29T02:15:53Z</time>
      </trkpt>
      <trkpt lat="49.19688" lon="4.13319">
        <ele>91</ele>
        <time>2018-03-29T02:16:53Z</time>
      </trkpt>
      <trkpt lat="49.19687" lon="4.13326">
        <ele>91</ele>
        <time>2018-03-29T02:17:53Z</time>
      </trkpt>
      <trkpt lat="49.1968" lon="4.13359">
        <ele>91</ele>
        <time>2018-03-29T02:18:53Z</time>
      </trkpt>
      <trkpt lat="49.19674" lon="4.13393">
        <ele>91</ele>
        <time>2018-03-29T02:19:53Z</time>
      </trkpt>
      <trkpt lat="49.1964" lon="4.13562">
        <ele>89</ele>
        <time>2018-03-29T02:20:53Z</time>
      </trkpt>
      <trkpt lat="49.19639" lon="4.13565">
        <ele>89</ele>
        <time>2018-03-29T02:21:53Z</time>
      </trkpt>
      <trkpt lat="49.19638" lon="4.13573">
        <ele>89</ele>
        <time>2018-03-29T02:22:53Z</time>
      </trkpt>
      <trkpt lat="49.1961" lon="4.13705">
        <ele>89</ele>
        <time>2018-03-29T02:23:53Z</time>
      </trkpt>
      <trkpt lat="49.19595" lon="4.13787">
        <ele>89</ele>
        <time>2018-03-29T02:24:53Z</time>
      </trkpt>
      <trkpt lat="49.19587" lon="4.13828">
        <ele>89</ele>
        <time>2018-03-29T02:25:53Z</time>
      </trkpt>
      <trkpt lat="49.19584" lon="4.13841">
        <ele>89</ele>
        <time>2018-03-29T02:26:53Z</time>
      </trkpt>
      <trkpt lat="49.19583" lon="4.13848">
        <ele>89</ele>
        <time>2018-03-29T02:27:53Z</time>
      </trkpt>
      <trkpt lat="49.19576" lon="4.13888">
        <ele>88</ele>
        <time>2018-03-29T02:28:53Z</time>
      </trkpt>
      <trkpt lat="49.19568" lon="4.13932">
        <ele>88</ele>
        <time>2018-03-29T02:29:53Z</time>
      </trkpt>
      <trkpt lat="49.19568" lon="4.13932">
        <ele>88</ele>
        <time>2018-03-29T02:30:53Z</time>
      </trkpt>
      <trkpt lat="49.19565" lon="4.13953">
        <ele>88</ele>
        <time>2018-03-29T02:31:53Z</time>
      </trkpt>
      <trkpt lat="49.1957" lon="4.13954">
        <ele>88</ele>
        <time>2018-03-29T02:32:53Z</time>
      </trkpt>
      <trkpt lat="49.19581" lon="4.13953">
        <ele>88</ele>
        <time>2018-03-29T02:33:53Z</time>
      </trkpt>
      <trkpt lat="49.1959" lon="4.13953">
        <ele>88</ele>
        <time>2018-03-29T02:34:53Z</time>
      </trkpt>
      <trkpt lat="49.19599" lon="4.13953">
        <ele>88</ele>
        <time>2018-03-29T02:35:53Z</time>
      </trkpt>
      <trkpt lat="49.19606" lon="4.13959">
        <ele>88</ele>
        <time>2018-03-29T02:36:53Z</time>
      </trkpt>
      <trkpt lat="49.1961" lon="4.13962">
        <ele>88</ele>
        <time>2018-03-29T02:37:53Z</time>
      </trkpt>
      <trkpt lat="49.19611" lon="4.13963">
        <ele>88</ele>
        <time>2018-03-29T02:38:53Z</time>
      </trkpt>
      <trkpt lat="49.19614" lon="4.13965">
        <ele>88</ele>
        <time>2018-03-29T02:39:53Z</time>
      </trkpt>
      <trkpt lat="49.1962" lon="4.13969">
        <ele>88</ele>
        <time>2018-03-29T02:40:53Z</time>
      </trkpt>
      <trkpt lat="49.19628" lon="4.13976">
        <ele>89</ele>
        <time>2018-03-29T02:41:53Z</time>
      </trkpt>
      <trkpt lat="49.19632" lon="4.13978">
        <ele>89</ele>
        <time>2018-03-29T02:42:53Z</time>
      </trkpt>
      <trkpt lat="49.19653" lon="4.13992">
        <ele>89</ele>
        <time>2018-03-29T02:43:53Z</time>
      </trkpt>
      <trkpt lat="49.19679" lon="4.14004">
        <ele>90</ele>
        <time>2018-03-29T02:44:53Z</time>
      </trkpt>
      <trkpt lat="49.19692" lon="4.1401">
        <ele>89</ele>
        <time>2018-03-29T02:45:53Z</time>
      </trkpt>
      <trkpt lat="49.19733" lon="4.14023">
        <ele>87</ele>
        <time>2018-03-29T02:46:53Z</time>
      </trkpt>
      <trkpt lat="49.19802" lon="4.14049">
        <ele>87</ele>
        <time>2018-03-29T02:47:53Z</time>
      </trkpt>
      <trkpt lat="49.19839" lon="4.1406">
        <ele>87</ele>
        <time>2018-03-29T02:48:53Z</time>
      </trkpt>
      <trkpt lat="49.19868" lon="4.1407">
        <ele>87</ele>
        <time>2018-03-29T02:49:53Z</time>
      </trkpt>
      <trkpt lat="49.19897" lon="4.14081">
        <ele>87</ele>
        <time>2018-03-29T02:50:53Z</time>
      </trkpt>
      <trkpt lat="49.19909" lon="4.14087">
        <ele>87</ele>
        <time>2018-03-29T02:51:53Z</time>
      </trkpt>
      <trkpt lat="49.19919" lon="4.14094">
        <ele>87</ele>
        <time>2018-03-29T02:52:53Z</time>
      </trkpt>
      <trkpt lat="49.19923" lon="4.14098">
        <ele>87</ele>
        <time>2018-03-29T02:53:53Z</time>
      </trkpt>
      <trkpt lat="49.19934" lon="4.14111">
        <ele>88</ele>
        <time>2018-03-29T02:54:53Z</time>
      </trkpt>
      <trkpt lat="49.19938" lon="4.14119">
        <ele>88</ele>
        <time>2018-03-29T02:55:53Z</time>
      </trkpt>
      <trkpt lat="49.19941" lon="4.14126">
        <ele>88</ele>
        <time>2018-03-29T02:56:53Z</time>
      </trkpt>
      <trkpt lat="49.19943" lon="4.14129">
        <ele>88</ele>
        <time>2018-03-29T02:57:53Z</time>
      </trkpt>
      <trkpt lat="49.19945" lon="4.14135">
        <ele>88</ele>
        <time>2018-03-29T02:58:53Z</time>
      </trkpt>
      <trkpt lat="49.19947" lon="4.14145">
        <ele>88</ele>
        <time>2018-03-29T02:59:53Z</time>
      </trkpt>
      <trkpt lat="49.1995" lon="4.14157">
        <ele>88</ele>
        <time>2018-03-29T03:00:53Z</time>
      </trkpt>
      <trkpt lat="49.19952" lon="4.1417">
        <ele>88</ele>
        <time>2018-03-29T03:01:53Z</time>
      </trkpt>
      <trkpt lat="49.19953" lon="4.14176">
        <ele>88</ele>
        <time>2018-03-29T03:02:53Z</time>
      </trkpt>
      <trkpt lat="49.19954" lon="4.14182">
        <ele>88</ele>
        <time>2018-03-29T03:03:53Z</time>
      </trkpt>
      <trkpt lat="49.19956" lon="4.14196">
        <ele>88</ele>
        <time>2018-03-29T03:04:53Z</time>
      </trkpt>
      <trkpt lat="49.19959" lon="4.14213">
        <ele>88</ele>
        <time>2018-03-29T03:05:53Z</time>
      </trkpt>
      <trkpt lat="49.1996" lon="4.14217">
        <ele>88</ele>
        <time>2018-03-29T03:06:53Z</time>
      </trkpt>
      <trkpt lat="49.19968" lon="4.14232">
        <ele>88</ele>
        <time>2018-03-29T03:07:53Z</time>
      </trkpt>
      <trkpt lat="49.19976" lon="4.14242">
        <ele>89</ele>
        <time>2018-03-29T03:08:53Z</time>
      </trkpt>
      <trkpt lat="49.19988" lon="4.14252">
        <ele>89</ele>
        <time>2018-03-29T03:09:53Z</time>
      </trkpt>
      <trkpt lat="49.20014" lon="4.14272">
        <ele>89</ele>
        <time>2018-03-29T03:10:53Z</time>
      </trkpt>
      <trkpt lat="49.20019" lon="4.14275">
        <ele>89</ele>
        <time>2018-03-29T03:11:53Z</time>
      </trkpt>
      <trkpt lat="49.20026" lon="4.14279">
        <ele>89</ele>
        <time>2018-03-29T03:12:53Z</time>
      </trkpt>
      <trkpt lat="49.2003" lon="4.14282">
        <ele>89</ele>
        <time>2018-03-29T03:13:53Z</time>
      </trkpt>
      <trkpt lat="49.20124" lon="4.14341">
        <ele>89</ele>
        <time>2018-03-29T03:14:53Z</time>
      </trkpt>
      <trkpt lat="49.202" lon="4.14387">
        <ele>89</ele>
        <time>2018-03-29T03:15:53Z</time>
      </trkpt>
      <trkpt lat="49.20245" lon="4.14415">
        <ele>88</ele>
        <time>2018-03-29T03:16:53Z</time>
      </trkpt>
      <trkpt lat="49.2025" lon="4.14418">
        <ele>88</ele>
        <time>2018-03-29T03:17:53Z</time>
      </trkpt>
      <trkpt lat="49.20256" lon="4.14421">
        <ele>88</ele>
        <time>2018-03-29T03:18:53Z</time>
      </trkpt>
      <trkpt lat="49.20262" lon="4.14425">
        <ele>88</ele>
        <time>2018-03-29T03:19:53Z</time>
      </trkpt>
      <trkpt lat="49.2027" lon="4.14427">
        <ele>88</ele>
        <time>2018-03-29T03:20:53Z</time>
      </trkpt>
      <trkpt lat="49.20285" lon="4.14433">
        <ele>88</ele>
        <time>2018-03-29T03:21:53Z</time>
      </trkpt>
      <trkpt lat="49.20306" lon="4.14436">
        <ele>88</ele>
        <time>2018-03-29T03:22:53Z</time>
      </trkpt>
      <trkpt lat="49.2031" lon="4.14436">
        <ele>88</ele>
        <time>2018-03-29T03:23:53Z</time>
      </trkpt>
      <trkpt lat="49.20318" lon="4.14438">
        <ele>88</ele>
        <time>2018-03-29T03:24:53Z</time>
      </trkpt>
      <trkpt lat="49.20328" lon="4.14438">
        <ele>88</ele>
        <time>2018-03-29T03:25:53Z</time>
      </trkpt>
      <trkpt lat="49.20332" lon="4.14438">
        <ele>88</ele>
        <time>2018-03-29T03:26:53Z</time>
      </trkpt>
      <trkpt lat="49.20333" lon="4.14438">
        <ele>88</ele>
        <time>2018-03-29T03:27:53Z</time>
      </trkpt>
      <trkpt lat="49.2035" lon="4.1444">
        <ele>88</ele>
        <time>2018-03-29T03:28:53Z</time>
      </trkpt>
      <trkpt lat="49.2035" lon="4.1444">
        <ele>88</ele>
        <time>2018-03-29T03:29:53Z</time>
      </trkpt>
      <trkpt lat="49.20346" lon="4.14456">
        <ele>88</ele>
        <time>2018-03-29T03:30:53Z</time>
      </trkpt>
      <trkpt lat="49.2034" lon="4.14514">
        <ele>88</ele>
        <time>2018-03-29T03:31:53Z</time>
      </trkpt>
      <trkpt lat="49.20336" lon="4.14598">
        <ele>88</ele>
        <time>2018-03-29T03:32:53Z</time>
      </trkpt>
      <trkpt lat="49.2033" lon="4.14741">
        <ele>87</ele>
        <time>2018-03-29T03:33:53Z</time>
      </trkpt>
      <trkpt lat="49.20315" lon="4.15055">
        <ele>90</ele>
        <time>2018-03-29T03:34:53Z</time>
      </trkpt>
      <trkpt lat="49.20312" lon="4.15147">
        <ele>88</ele>
        <time>2018-03-29T03:35:53Z</time>
      </trkpt>
      <trkpt lat="49.20308" lon="4.15218">
        <ele>88</ele>
        <time>2018-03-29T03:36:53Z</time>
      </trkpt>
      <trkpt lat="49.20308" lon="4.15227">
        <ele>88</ele>
        <time>2018-03-29T03:37:53Z</time>
      </trkpt>
      <trkpt lat="49.20307" lon="4.15238">
        <ele>88</ele>
        <time>2018-03-29T03:38:53Z</time>
      </trkpt>
      <trkpt lat="49.20305" lon="4.15291">
        <ele>89</ele>
        <time>2018-03-29T03:39:53Z</time>
      </trkpt>
      <trkpt lat="49.20303" lon="4.15367">
        <ele>89</ele>
        <time>2018-03-29T03:40:53Z</time>
      </trkpt>
      <trkpt lat="49.20303" lon="4.15381">
        <ele>89</ele>
        <time>2018-03-29T03:41:53Z</time>
      </trkpt>
      <trkpt lat="49.20303" lon="4.15416">
        <ele>88</ele>
        <time>2018-03-29T03:42:53Z</time>
      </trkpt>
      <trkpt lat="49.20303" lon="4.15465">
        <ele>88</ele>
        <time>2018-03-29T03:43:53Z</time>
      </trkpt>
      <trkpt lat="49.20304" lon="4.15526">
        <ele>88</ele>
        <time>2018-03-29T03:44:53Z</time>
      </trkpt>
      <trkpt lat="49.20305" lon="4.15591">
        <ele>88</ele>
        <time>2018-03-29T03:45:53Z</time>
      </trkpt>
      <trkpt lat="49.20307" lon="4.1569">
        <ele>87</ele>
        <time>2018-03-29T03:46:53Z</time>
      </trkpt>
      <trkpt lat="49.20307" lon="4.15728">
        <ele>87</ele>
        <time>2018-03-29T03:47:53Z</time>
      </trkpt>
      <trkpt lat="49.20304" lon="4.15781">
        <ele>87</ele>
        <time>2018-03-29T03:48:53Z</time>
      </trkpt>
      <trkpt lat="49.20299" lon="4.15819">
        <ele>88</ele>
        <time>2018-03-29T03:49:53Z</time>
      </trkpt>
      <trkpt lat="49.2027" lon="4.16003">
        <ele>88</ele>
        <time>2018-03-29T03:50:53Z</time>
      </trkpt>
      <trkpt lat="49.20241" lon="4.16188">
        <ele>88</ele>
        <time>2018-03-29T03:51:53Z</time>
      </trkpt>
      <trkpt lat="49.20212" lon="4.16372">
        <ele>88</ele>
        <time>2018-03-29T03:52:53Z</time>
      </trkpt>
      <trkpt lat="49.20176" lon="4.16594">
        <ele>87</ele>
        <time>2018-03-29T03:53:53Z</time>
      </trkpt>
      <trkpt lat="49.20153" lon="4.1675">
        <ele>87</ele>
        <time>2018-03-29T03:54:53Z</time>
      </trkpt>
      <trkpt lat="49.20149" lon="4.16778">
        <ele>87</ele>
        <time>2018-03-29T03:55:53Z</time>
      </trkpt>
      <trkpt lat="49.20143" lon="4.16856">
        <ele>87</ele>
        <time>2018-03-29T03:56:53Z</time>
      </trkpt>
      <trkpt lat="49.20131" lon="4.17043">
        <ele>88</ele>
        <time>2018-03-29T03:57:53Z</time>
      </trkpt>
      <trkpt lat="49.20129" lon="4.17081">
        <ele>89</ele>
        <time>2018-03-29T03:58:53Z</time>
      </trkpt>
      <trkpt lat="49.20127" lon="4.17104">
        <ele>90</ele>
        <time>2018-03-29T03:59:53Z</time>
      </trkpt>
      <trkpt lat="49.20124" lon="4.1715">
        <ele>90</ele>
        <time>2018-03-29T04:00:53Z</time>
      </trkpt>
      <trkpt lat="49.20119" lon="4.17227">
        <ele>90</ele>
        <time>2018-03-29T04:01:53Z</time>
      </trkpt>
      <trkpt lat="49.20117" lon="4.17263">
        <ele>89</ele>
        <time>2018-03-29T04:02:53Z</time>
      </trkpt>
      <trkpt lat="49.20115" lon="4.17289">
        <ele>89</ele>
        <time>2018-03-29T04:03:53Z</time>
      </trkpt>
      <trkpt lat="49.2011" lon="4.1733">
        <ele>88</ele>
        <time>2018-03-29T04:04:53Z</time>
      </trkpt>
      <trkpt lat="49.201" lon="4.17377">
        <ele>87</ele>
        <time>2018-03-29T04:05:53Z</time>
      </trkpt>
      <trkpt lat="49.20094" lon="4.17392">
        <ele>87</ele>
        <time>2018-03-29T04:06:53Z</time>
      </trkpt>
      <trkpt lat="49.20091" lon="4.17401">
        <ele>87</ele>
        <time>2018-03-29T04:07:53Z</time>
      </trkpt>
      <trkpt lat="49.20074" lon="4.17437">
        <ele>87</ele>
        <time>2018-03-29T04:08:53Z</time>
      </trkpt>
      <trkpt lat="49.20029" lon="4.17534">
        <ele>88</ele>
        <time>2018-03-29T04:09:53Z</time>
      </trkpt>
      <trkpt lat="49.19996" lon="4.17601">
        <ele>87</ele>
        <time>2018-03-29T04:10:53Z</time>
      </trkpt>
      <trkpt lat="49.19966" lon="4.17658">
        <ele>87</ele>
        <time>2018-03-29T04:11:53Z</time>
      </trkpt>
      <trkpt lat="49.19959" lon="4.17667">
        <ele>87</ele>
        <time>2018-03-29T04:12:53Z</time>
      </trkpt>
      <trkpt lat="49.19955" lon="4.17671">
        <ele>87</ele>
        <time>2018-03-29T04:13:53Z</time>
      </trkpt>
      <trkpt lat="49.19945" lon="4.17686">
        <ele>87</ele>
        <time>2018-03-29T04:14:53Z</time>
      </trkpt>
      <trkpt lat="49.1994" lon="4.17688">
        <ele>87</ele>
        <time>2018-03-29T04:15:53Z</time>
      </trkpt>
      <trkpt lat="49.19931" lon="4.177">
        <ele>87</ele>
        <time>2018-03-29T04:16:53Z</time>
      </trkpt>
      <trkpt lat="49.19916" lon="4.17725">
        <ele>88</ele>
        <time>2018-03-29T04:17:53Z</time>
      </trkpt>
      <trkpt lat="49.19889" lon="4.17774">
        <ele>88</ele>
        <time>2018-03-29T04:18:53Z</time>
      </trkpt>
      <trkpt lat="49.19779" lon="4.17991">
        <ele>88</ele>
        <time>2018-03-29T04:19:53Z</time>
      </trkpt>
      <trkpt lat="49.19776" lon="4.17997">
        <ele>88</ele>
        <time>2018-03-29T04:20:53Z</time>
      </trkpt>
      <trkpt lat="49.19756" lon="4.18037">
        <ele>89</ele>
        <time>2018-03-29T04:21:53Z</time>
      </trkpt>
      <trkpt lat="49.19709" lon="4.18138">
        <ele>90</ele>
        <time>2018-03-29T04:22:53Z</time>
      </trkpt>
      <trkpt lat="49.1969" lon="4.18177">
        <ele>89</ele>
        <time>2018-03-29T04:23:53Z</time>
      </trkpt>
      <trkpt lat="49.19669" lon="4.18224">
        <ele>88</ele>
        <time>2018-03-29T04:24:53Z</time>
      </trkpt>
      <trkpt lat="49.19667" lon="4.18233">
        <ele>88</ele>
        <time>2018-03-29T04:25:53Z</time>
      </trkpt>
      <trkpt lat="49.19662" lon="4.18285">
        <ele>89</ele>
        <time>2018-03-29T04:26:53Z</time>
      </trkpt>
      <trkpt lat="49.19655" lon="4.18338">
        <ele>90</ele>
        <time>2018-03-29T04:27:53Z</time>
      </trkpt>
      <trkpt lat="49.19651" lon="4.1837">
        <ele>89</ele>
        <time>2018-03-29T04:28:53Z</time>
      </trkpt>
      <trkpt lat="49.1965" lon="4.18397">
        <ele>89</ele>
        <time>2018-03-29T04:29:53Z</time>
      </trkpt>
      <trkpt lat="49.1965" lon="4.18497">
        <ele>89</ele>
        <time>2018-03-29T04:30:53Z</time>
      </trkpt>
      <trkpt lat="49.19646" lon="4.18526">
        <ele>89</ele>
        <time>2018-03-29T04:31:53Z</time>
      </trkpt>
      <trkpt lat="49.19641" lon="4.18546">
        <ele>89</ele>
        <time>2018-03-29T04:32:53Z</time>
      </trkpt>
      <trkpt lat="49.19634" lon="4.18567">
        <ele>89</ele>
        <time>2018-03-29T04:33:53Z</time>
      </trkpt>
      <trkpt lat="49.19619" lon="4.18611">
        <ele>90</ele>
        <time>2018-03-29T04:34:53Z</time>
      </trkpt>
      <trkpt lat="49.19591" lon="4.18704">
        <ele>90</ele>
        <time>2018-03-29T04:35:53Z</time>
      </trkpt>
      <trkpt lat="49.19584" lon="4.18725">
        <ele>89</ele>
        <time>2018-03-29T04:36:53Z</time>
      </trkpt>
      <trkpt lat="49.19581" lon="4.18737">
        <ele>89</ele>
        <time>2018-03-29T04:37:53Z</time>
      </trkpt>
      <trkpt lat="49.19553" lon="4.18827">
        <ele>89</ele>
        <time>2018-03-29T04:38:53Z</time>
      </trkpt>
      <trkpt lat="49.19549" lon="4.18839">
        <ele>89</ele>
        <time>2018-03-29T04:39:53Z</time>
      </trkpt>
      <trkpt lat="49.19535" lon="4.18886">
        <ele>89</ele>
        <time>2018-03-29T04:40:53Z</time>
      </trkpt>
      <trkpt lat="49.19528" lon="4.18904">
        <ele>89</ele>
        <time>2018-03-29T04:41:53Z</time>
      </trkpt>
      <trkpt lat="49.19521" lon="4.18923">
        <ele>89</ele>
        <time>2018-03-29T04:42:53Z</time>
      </trkpt>
      <trkpt lat="49.19457" lon="4.19064">
        <ele>89</ele>
        <time>2018-03-29T04:43:53Z</time>
      </trkpt>
      <trkpt lat="49.194" lon="4.19183">
        <ele>89</ele>
        <time>2018-03-29T04:44:53Z</time>
      </trkpt>
      <trkpt lat="49.19394" lon="4.19195">
        <ele>89</ele>
        <time>2018-03-29T04:45:53Z</time>
      </trkpt>
      <trkpt lat="49.19392" lon="4.19199">
        <ele>89</ele>
        <time>2018-03-29T04:46:53Z</time>
      </trkpt>
      <trkpt lat="49.1939" lon="4.19204">
        <ele>89</ele>
        <time>2018-03-29T04:47:53Z</time>
      </trkpt>
      <trkpt lat="49.19363" lon="4.1925">
        <ele>89</ele>
        <time>2018-03-29T04:48:53Z</time>
      </trkpt>
      <trkpt lat="49.19302" lon="4.19346">
        <ele>88</ele>
        <time>2018-03-29T04:49:53Z</time>
      </trkpt>
      <trkpt lat="49.19232" lon="4.19459">
        <ele>89</ele>
        <time>2018-03-29T04:50:53Z</time>
      </trkpt>
      <trkpt lat="49.19062" lon="4.19724">
        <ele>89</ele>
        <time>2018-03-29T04:51:53Z</time>
      </trkpt>
      <trkpt lat="49.19049" lon="4.19743">
        <ele>89</ele>
        <time>2018-03-29T04:52:53Z</time>
      </trkpt>
      <trkpt lat="49.19036" lon="4.19756">
        <ele>89</ele>
        <time>2018-03-29T04:53:53Z</time>
      </trkpt>
      <trkpt lat="49.1903" lon="4.19762">
        <ele>89</ele>
        <time>2018-03-29T04:54:53Z</time>
      </trkpt>
      <trkpt lat="49.19025" lon="4.19767">
        <ele>89</ele>
        <time>2018-03-29T04:55:53Z</time>
      </trkpt>
      <trkpt lat="49.1889" lon="4.19878">
        <ele>89</ele>
        <time>2018-03-29T04:56:53Z</time>
      </trkpt>
      <trkpt lat="49.18764" lon="4.1998">
        <ele>89</ele>
        <time>2018-03-29T04:57:53Z</time>
      </trkpt>
      <trkpt lat="49.18606" lon="4.20107">
        <ele>89</ele>
        <time>2018-03-29T04:58:53Z</time>
      </trkpt>
      <trkpt lat="49.18563" lon="4.20144">
        <ele>88</ele>
        <time>2018-03-29T04:59:53Z</time>
      </trkpt>
      <trkpt lat="49.18552" lon="4.20155">
        <ele>88</ele>
        <time>2018-03-29T05:00:53Z</time>
      </trkpt>
      <trkpt lat="49.18545" lon="4.20161">
        <ele>88</ele>
        <time>2018-03-29T05:01:53Z</time>
      </trkpt>
      <trkpt lat="49.18496" lon="4.20224">
        <ele>89</ele>
        <time>2018-03-29T05:02:53Z</time>
      </trkpt>
      <trkpt lat="49.18407" lon="4.20347">
        <ele>89</ele>
        <time>2018-03-29T05:03:53Z</time>
      </trkpt>
      <trkpt lat="49.18219" lon="4.20607">
        <ele>89</ele>
        <time>2018-03-29T05:04:53Z</time>
      </trkpt>
      <trkpt lat="49.18206" lon="4.20623">
        <ele>89</ele>
        <time>2018-03-29T05:05:53Z</time>
      </trkpt>
      <trkpt lat="49.18201" lon="4.20629">
        <ele>89</ele>
        <time>2018-03-29T05:06:53Z</time>
      </trkpt>
      <trkpt lat="49.18195" lon="4.20633">
        <ele>89</ele>
        <time>2018-03-29T05:07:53Z</time>
      </trkpt>
      <trkpt lat="49.18188" lon="4.20637">
        <ele>89</ele>
        <time>2018-03-29T05:08:53Z</time>
      </trkpt>
      <trkpt lat="49.18182" lon="4.20641">
        <ele>89</ele>
        <time>2018-03-29T05:09:53Z</time>
      </trkpt>
      <trkpt lat="49.1812" lon="4.20666">
        <ele>90</ele>
        <time>2018-03-29T05:10:53Z</time>
      </trkpt>
      <trkpt lat="49.18058" lon="4.20693">
        <ele>90</ele>
        <time>2018-03-29T05:11:53Z</time>
      </trkpt>
      <trkpt lat="49.18052" lon="4.20695">
        <ele>90</ele>
        <time>2018-03-29T05:12:53Z</time>
      </trkpt>
      <trkpt lat="49.18049" lon="4.207">
        <ele>90</ele>
        <time>2018-03-29T05:13:53Z</time>
      </trkpt>
      <trkpt lat="49.18045" lon="4.20704">
        <ele>90</ele>
        <time>2018-03-29T05:14:53Z</time>
      </trkpt>
      <trkpt lat="49.18041" lon="4.2071">
        <ele>90</ele>
        <time>2018-03-29T05:15:53Z</time>
      </trkpt>
      <trkpt lat="49.18038" lon="4.20715">
        <ele>90</ele>
        <time>2018-03-29T05:16:53Z</time>
      </trkpt>
      <trkpt lat="49.18021" lon="4.20742">
        <ele>90</ele>
        <time>2018-03-29T05:17:53Z</time>
      </trkpt>
      <trkpt lat="49.18002" lon="4.20778">
        <ele>90</ele>
        <time>2018-03-29T05:18:53Z</time>
      </trkpt>
      <trkpt lat="49.17982" lon="4.20812">
        <ele>90</ele>
        <time>2018-03-29T05:19:53Z</time>
      </trkpt>
      <trkpt lat="49.17942" lon="4.20886">
        <ele>90</ele>
        <time>2018-03-29T05:20:53Z</time>
      </trkpt>
      <trkpt lat="49.17871" lon="4.2101">
        <ele>90</ele>
        <time>2018-03-29T05:21:53Z</time>
      </trkpt>
      <trkpt lat="49.17824" lon="4.21088">
        <ele>90</ele>
        <time>2018-03-29T05:22:53Z</time>
      </trkpt>
      <trkpt lat="49.17787" lon="4.21155">
        <ele>90</ele>
        <time>2018-03-29T05:23:53Z</time>
      </trkpt>
      <trkpt lat="49.1772" lon="4.2128">
        <ele>90</ele>
        <time>2018-03-29T05:24:53Z</time>
      </trkpt>
      <trkpt lat="49.17672" lon="4.21358">
        <ele>90</ele>
        <time>2018-03-29T05:25:53Z</time>
      </trkpt>
      <trkpt lat="49.17668" lon="4.21365">
        <ele>90</ele>
        <time>2018-03-29T05:26:53Z</time>
      </trkpt>
      <trkpt lat="49.1766" lon="4.2138">
        <ele>90</ele>
        <time>2018-03-29T05:27:53Z</time>
      </trkpt>
      <trkpt lat="49.17655" lon="4.21392">
        <ele>90</ele>
        <time>2018-03-29T05:28:53Z</time>
      </trkpt>
      <trkpt lat="49.17652" lon="4.21397">
        <ele>90</ele>
        <time>2018-03-29T05:29:53Z</time>
      </trkpt>
      <trkpt lat="49.1765" lon="4.21404">
        <ele>90</ele>
        <time>2018-03-29T05:30:53Z</time>
      </trkpt>
      <trkpt lat="49.17648" lon="4.21413">
        <ele>90</ele>
        <time>2018-03-29T05:31:53Z</time>
      </trkpt>
      <trkpt lat="49.17648" lon="4.21423">
        <ele>90</ele>
        <time>2018-03-29T05:32:53Z</time>
      </trkpt>
      <trkpt lat="49.17649" lon="4.21435">
        <ele>90</ele>
        <time>2018-03-29T05:33:53Z</time>
      </trkpt>
      <trkpt lat="49.17653" lon="4.21454">
        <ele>90</ele>
        <time>2018-03-29T05:34:53Z</time>
      </trkpt>
      <trkpt lat="49.17663" lon="4.21514">
        <ele>90</ele>
        <time>2018-03-29T05:35:53Z</time>
      </trkpt>
      <trkpt lat="49.17676" lon="4.21586">
        <ele>91</ele>
        <time>2018-03-29T05:36:53Z</time>
      </trkpt>
      <trkpt lat="49.17687" lon="4.21643">
        <ele>93</ele>
        <time>2018-03-29T05:37:53Z</time>
      </trkpt>
      <trkpt lat="49.17686" lon="4.21644">
        <ele>93</ele>
        <time>2018-03-29T05:38:53Z</time>
      </trkpt>
      <trkpt lat="49.17685" lon="4.21644">
        <ele>93</ele>
        <time>2018-03-29T05:39:53Z</time>
      </trkpt>
      <trkpt lat="49.17685" lon="4.21645">
        <ele>93</ele>
        <time>2018-03-29T05:40:53Z</time>
      </trkpt>
      <trkpt lat="49.17684" lon="4.21645">
        <ele>93</ele>
        <time>2018-03-29T05:41:53Z</time>
      </trkpt>
      <trkpt lat="49.17684" lon="4.21646">
        <ele>93</ele>
        <time>2018-03-29T05:42:53Z</time>
      </trkpt>
      <trkpt lat="49.17683" lon="4.21646">
        <ele>93</ele>
        <time>2018-03-29T05:43:53Z</time>
      </trkpt>
      <trkpt lat="49.17683" lon="4.21647">
        <ele>93</ele>
        <time>2018-03-29T05:44:53Z</time>
      </trkpt>
      <trkpt lat="49.17682" lon="4.21648">
        <ele>93</ele>
        <time>2018-03-29T05:45:53Z</time>
      </trkpt>
      <trkpt lat="49.17682" lon="4.21649">
        <ele>93</ele>
        <time>2018-03-29T05:46:53Z</time>
      </trkpt>
      <trkpt lat="49.17682" lon="4.2165">
        <ele>93</ele>
        <time>2018-03-29T05:47:53Z</time>
      </trkpt>
      <trkpt lat="49.17681" lon="4.2165">
        <ele>93</ele>
        <time>2018-03-29T05:48:53Z</time>
      </trkpt>
      <trkpt lat="49.17681" lon="4.21651">
        <ele>93</ele>
        <time>2018-03-29T05:49:53Z</time>
      </trkpt>
      <trkpt lat="49.17681" lon="4.21652">
        <ele>93</ele>
        <time>2018-03-29T05:50:53Z</time>
      </trkpt>
      <trkpt lat="49.17681" lon="4.21653">
        <ele>93</ele>
        <time>2018-03-29T05:51:53Z</time>
      </trkpt>
      <trkpt lat="49.17681" lon="4.21654">
        <ele>93</ele>
        <time>2018-03-29T05:52:53Z</time>
      </trkpt>
      <trkpt lat="49.17681" lon="4.21655">
        <ele>93</ele>
        <time>2018-03-29T05:53:53Z</time>
      </trkpt>
      <trkpt lat="49.17681" lon="4.21656">
        <ele>93</ele>
        <time>2018-03-29T05:54:53Z</time>
      </trkpt>
      <trkpt lat="49.17681" lon="4.21657">
        <ele>93</ele>
        <time>2018-03-29T05:55:53Z</time>
      </trkpt>
      <trkpt lat="49.17681" lon="4.21658">
        <ele>93</ele>
        <time>2018-03-29T05:56:53Z</time>
      </trkpt>
      <trkpt lat="49.17681" lon="4.21659">
        <ele>93</ele>
        <time>2018-03-29T05:57:53Z</time>
      </trkpt>
      <trkpt lat="49.17681" lon="4.2166">
        <ele>93</ele>
        <time>2018-03-29T05:58:53Z</time>
      </trkpt>
      <trkpt lat="49.17681" lon="4.21661">
        <ele>93</ele>
        <time>2018-03-29T05:59:53Z</time>
      </trkpt>
      <trkpt lat="49.17682" lon="4.21661">
        <ele>93</ele>
        <time>2018-03-29T06:00:53Z</time>
      </trkpt>
      <trkpt lat="49.17682" lon="4.21662">
        <ele>93</ele>
        <time>2018-03-29T06:01:53Z</time>
      </trkpt>
      <trkpt lat="49.17682" lon="4.21663">
        <ele>94</ele>
        <time>2018-03-29T06:02:53Z</time>
      </trkpt>
      <trkpt lat="49.17683" lon="4.21664">
        <ele>94</ele>
        <time>2018-03-29T06:03:53Z</time>
      </trkpt>
      <trkpt lat="49.17683" lon="4.21665">
        <ele>94</ele>
        <time>2018-03-29T06:04:53Z</time>
      </trkpt>
      <trkpt lat="49.17684" lon="4.21665">
        <ele>94</ele>
        <time>2018-03-29T06:05:53Z</time>
      </trkpt>
      <trkpt lat="49.17684" lon="4.21666">
        <ele>94</ele>
        <time>2018-03-29T06:06:53Z</time>
      </trkpt>
      <trkpt lat="49.17685" lon="4.21666">
        <ele>94</ele>
        <time>2018-03-29T06:07:53Z</time>
      </trkpt>
      <trkpt lat="49.17685" lon="4.21667">
        <ele>94</ele>
        <time>2018-03-29T06:08:53Z</time>
      </trkpt>
      <trkpt lat="49.17686" lon="4.21667">
        <ele>94</ele>
        <time>2018-03-29T06:09:53Z</time>
      </trkpt>
      <trkpt lat="49.17686" lon="4.21668">
        <ele>94</ele>
        <time>2018-03-29T06:10:53Z</time>
      </trkpt>
      <trkpt lat="49.17687" lon="4.21668">
        <ele>94</ele>
        <time>2018-03-29T06:11:53Z</time>
      </trkpt>
      <trkpt lat="49.17688" lon="4.21668">
        <ele>93</ele>
        <time>2018-03-29T06:12:53Z</time>
      </trkpt>
      <trkpt lat="49.17689" lon="4.21668">
        <ele>93</ele>
        <time>2018-03-29T06:13:53Z</time>
      </trkpt>
      <trkpt lat="49.1769" lon="4.21668">
        <ele>93</ele>
        <time>2018-03-29T06:14:53Z</time>
      </trkpt>
      <trkpt lat="49.17697" lon="4.21883">
        <ele>91</ele>
        <time>2018-03-29T06:15:53Z</time>
      </trkpt>
      <trkpt lat="49.17697" lon="4.21883">
        <ele>91</ele>
        <time>2018-03-29T06:16:53Z</time>
      </trkpt>
      <trkpt lat="49.17702" lon="4.21951">
        <ele>91</ele>
        <time>2018-03-29T06:17:53Z</time>
      </trkpt>
      <trkpt lat="49.17705" lon="4.22001">
        <ele>91</ele>
        <time>2018-03-29T06:18:53Z</time>
      </trkpt>
      <trkpt lat="49.17708" lon="4.22032">
        <ele>92</ele>
        <time>2018-03-29T06:19:53Z</time>
      </trkpt>
      <trkpt lat="49.17709" lon="4.22043">
        <ele>92</ele>
        <time>2018-03-29T06:20:53Z</time>
      </trkpt>
      <trkpt lat="49.1771" lon="4.22055">
        <ele>92</ele>
        <time>2018-03-29T06:21:53Z</time>
      </trkpt>
      <trkpt lat="49.17716" lon="4.22082">
        <ele>93</ele>
        <time>2018-03-29T06:22:53Z</time>
      </trkpt>
      <trkpt lat="49.17727" lon="4.22114">
        <ele>93</ele>
        <time>2018-03-29T06:23:53Z</time>
      </trkpt>
      <trkpt lat="49.17733" lon="4.22127">
        <ele>93</ele>
        <time>2018-03-29T06:24:53Z</time>
      </trkpt>
      <trkpt lat="49.17779" lon="4.22225">
        <ele>94</ele>
        <time>2018-03-29T06:25:53Z</time>
      </trkpt>
      <trkpt lat="49.1779" lon="4.22246">
        <ele>94</ele>
        <time>2018-03-29T06:26:53Z</time>
      </trkpt>
      <trkpt lat="49.17792" lon="4.22251">
        <ele>93</ele>
        <time>2018-03-29T06:27:53Z</time>
      </trkpt>
      <trkpt lat="49.17816" lon="4.22299">
        <ele>93</ele>
        <time>2018-03-29T06:28:53Z</time>
      </trkpt>
      <trkpt lat="49.17875" lon="4.22414">
        <ele>93</ele>
        <time>2018-03-29T06:29:53Z</time>
      </trkpt>
      <trkpt lat="49.17966" lon="4.22593">
        <ele>92</ele>
        <time>2018-03-29T06:30:53Z</time>
      </trkpt>
      <trkpt lat="49.17991" lon="4.22643">
        <ele>93</ele>
        <time>2018-03-29T06:31:53Z</time>
      </trkpt>
      <trkpt lat="49.17994" lon="4.22649">
        <ele>93</ele>
        <time>2018-03-29T06:32:53Z</time>
      </trkpt>
      <trkpt lat="49.18031" lon="4.22723">
        <ele>94</ele>
        <time>2018-03-29T06:33:53Z</time>
      </trkpt>
      <trkpt lat="49.18078" lon="4.22818">
        <ele>93</ele>
        <time>2018-03-29T06:34:53Z</time>
      </trkpt>
      <trkpt lat="49.18218" lon="4.23096">
        <ele>94</ele>
        <time>2018-03-29T06:35:53Z</time>
      </trkpt>
      <trkpt lat="49.18327" lon="4.23311">
        <ele>95</ele>
        <time>2018-03-29T06:36:53Z</time>
      </trkpt>
      <trkpt lat="49.18528" lon="4.23712">
        <ele>96</ele>
        <time>2018-03-29T06:37:53Z</time>
      </trkpt>
      <trkpt lat="49.18626" lon="4.23911">
        <ele>96</ele>
        <time>2018-03-29T06:38:53Z</time>
      </trkpt>
      <trkpt lat="49.18649" lon="4.23956">
        <ele>96</ele>
        <time>2018-03-29T06:39:53Z</time>
      </trkpt>
      <trkpt lat="49.18694" lon="4.24043">
        <ele>97</ele>
        <time>2018-03-29T06:40:53Z</time>
      </trkpt>
      <trkpt lat="49.18846" lon="4.24349">
        <ele>99</ele>
        <time>2018-03-29T06:41:53Z</time>
      </trkpt>
      <trkpt lat="49.18933" lon="4.2452">
        <ele>99</ele>
        <time>2018-03-29T06:42:53Z</time>
      </trkpt>
      <trkpt lat="49.1902" lon="4.24692">
        <ele>99</ele>
        <time>2018-03-29T06:43:53Z</time>
      </trkpt>
      <trkpt lat="49.19088" lon="4.24826">
        <ele>101</ele>
        <time>2018-03-29T06:44:53Z</time>
      </trkpt>
      <trkpt lat="49.19105" lon="4.24872">
        <ele>101</ele>
        <time>2018-03-29T06:45:53Z</time>
      </trkpt>
      <trkpt lat="49.19122" lon="4.24881">
        <ele>101</ele>
        <time>2018-03-29T06:46:53Z</time>
      </trkpt>
      <trkpt lat="49.1913" lon="4.24884">
        <ele>102</ele>
        <time>2018-03-29T06:47:53Z</time>
      </trkpt>
      <trkpt lat="49.19138" lon="4.24886">
        <ele>102</ele>
        <time>2018-03-29T06:48:53Z</time>
      </trkpt>
      <trkpt lat="49.19352" lon="4.25018">
        <ele>102</ele>
        <time>2018-03-29T06:49:53Z</time>
      </trkpt>
      <trkpt lat="49.19497" lon="4.25106">
        <ele>100</ele>
        <time>2018-03-29T06:50:53Z</time>
      </trkpt>
      <trkpt lat="49.19657" lon="4.25204">
        <ele>102</ele>
        <time>2018-03-29T06:51:53Z</time>
      </trkpt>
      <trkpt lat="49.19659" lon="4.25205">
        <ele>102</ele>
        <time>2018-03-29T06:52:53Z</time>
      </trkpt>
      <trkpt lat="49.19883" lon="4.25343">
        <ele>101</ele>
        <time>2018-03-29T06:53:53Z</time>
      </trkpt>
      <trkpt lat="49.19985" lon="4.25405">
        <ele>103</ele>
        <time>2018-03-29T06:54:53Z</time>
      </trkpt>
      <trkpt lat="49.20087" lon="4.25466">
        <ele>103</ele>
        <time>2018-03-29T06:55:53Z</time>
      </trkpt>
      <trkpt lat="49.2019" lon="4.25526">
        <ele>106</ele>
        <time>2018-03-29T06:56:53Z</time>
      </trkpt>
      <trkpt lat="49.20262" lon="4.2555">
        <ele>105</ele>
        <time>2018-03-29T06:57:53Z</time>
      </trkpt>
      <trkpt lat="49.20428" lon="4.25593">
        <ele>106</ele>
        <time>2018-03-29T06:58:53Z</time>
      </trkpt>
      <trkpt lat="49.20622" lon="4.25646">
        <ele>109</ele>
        <time>2018-03-29T06:59:53Z</time>
      </trkpt>
      <trkpt lat="49.20743" lon="4.2568">
        <ele>111</ele>
        <time>2018-03-29T07:00:53Z</time>
      </trkpt>
      <trkpt lat="49.20906" lon="4.25723">
        <ele>113</ele>
        <time>2018-03-29T07:01:53Z</time>
      </trkpt>
      <trkpt lat="49.21068" lon="4.25765">
        <ele>113</ele>
        <time>2018-03-29T07:02:53Z</time>
      </trkpt>
      <trkpt lat="49.2123" lon="4.25808">
        <ele>117</ele>
        <time>2018-03-29T07:03:53Z</time>
      </trkpt>
      <trkpt lat="49.21332" lon="4.25836">
        <ele>120</ele>
        <time>2018-03-29T07:04:53Z</time>
      </trkpt>
      <trkpt lat="49.21446" lon="4.25867">
        <ele>122</ele>
        <time>2018-03-29T07:05:53Z</time>
      </trkpt>
      <trkpt lat="49.21704" lon="4.25937">
        <ele>129</ele>
        <time>2018-03-29T07:06:53Z</time>
      </trkpt>
      <trkpt lat="49.21895" lon="4.25987">
        <ele>132</ele>
        <time>2018-03-29T07:07:53Z</time>
      </trkpt>
      <trkpt lat="49.22013" lon="4.26018">
        <ele>137</ele>
        <time>2018-03-29T07:08:53Z</time>
      </trkpt>
      <trkpt lat="49.2213" lon="4.26049">
        <ele>143</ele>
        <time>2018-03-29T07:09:53Z</time>
      </trkpt>
      <trkpt lat="49.22247" lon="4.26081">
        <ele>147</ele>
        <time>2018-03-29T07:10:53Z</time>
      </trkpt>
      <trkpt lat="49.2233" lon="4.26102">
        <ele>147</ele>
        <time>2018-03-29T07:11:53Z</time>
      </trkpt>
      <trkpt lat="49.22396" lon="4.26119">
        <ele>145</ele>
        <time>2018-03-29T07:12:53Z</time>
      </trkpt>
      <trkpt lat="49.2242" lon="4.26126">
        <ele>144</ele>
        <time>2018-03-29T07:13:53Z</time>
      </trkpt>
      <trkpt lat="49.22468" lon="4.26139">
        <ele>142</ele>
        <time>2018-03-29T07:14:53Z</time>
      </trkpt>
      <trkpt lat="49.22487" lon="4.26144">
        <ele>141</ele>
        <time>2018-03-29T07:15:53Z</time>
      </trkpt>
      <trkpt lat="49.22506" lon="4.2615">
        <ele>141</ele>
        <time>2018-03-29T07:16:53Z</time>
      </trkpt>
      <trkpt lat="49.22578" lon="4.2617">
        <ele>141</ele>
        <time>2018-03-29T07:17:53Z</time>
      </trkpt>
      <trkpt lat="49.2262" lon="4.2618">
        <ele>142</ele>
        <time>2018-03-29T07:18:53Z</time>
      </trkpt>
      <trkpt lat="49.22679" lon="4.26197">
        <ele>142</ele>
        <time>2018-03-29T07:19:53Z</time>
      </trkpt>
      <trkpt lat="49.22808" lon="4.2623">
        <ele>141</ele>
        <time>2018-03-29T07:20:53Z</time>
      </trkpt>
      <trkpt lat="49.22821" lon="4.26234">
        <ele>141</ele>
        <time>2018-03-29T07:21:53Z</time>
      </trkpt>
      <trkpt lat="49.22856" lon="4.26243">
        <ele>140</ele>
        <time>2018-03-29T07:22:53Z</time>
      </trkpt>
      <trkpt lat="49.23036" lon="4.26291">
        <ele>134</ele>
        <time>2018-03-29T07:23:53Z</time>
      </trkpt>
      <trkpt lat="49.23195" lon="4.26333">
        <ele>134</ele>
        <time>2018-03-29T07:24:53Z</time>
      </trkpt>
      <trkpt lat="49.23204" lon="4.26335">
        <ele>134</ele>
        <time>2018-03-29T07:25:53Z</time>
      </trkpt>
      <trkpt lat="49.23218" lon="4.26339">
        <ele>134</ele>
        <time>2018-03-29T07:26:53Z</time>
      </trkpt>
      <trkpt lat="49.2335" lon="4.26374">
        <ele>139</ele>
        <time>2018-03-29T07:27:53Z</time>
      </trkpt>
      <trkpt lat="49.23551" lon="4.26427">
        <ele>142</ele>
        <time>2018-03-29T07:28:53Z</time>
      </trkpt>
      <trkpt lat="49.23622" lon="4.26445">
        <ele>142</ele>
        <time>2018-03-29T07:29:53Z</time>
      </trkpt>
      <trkpt lat="49.23682" lon="4.26462">
        <ele>142</ele>
        <time>2018-03-29T07:30:53Z</time>
      </trkpt>
      <trkpt lat="49.23691" lon="4.26468">
        <ele>142</ele>
        <time>2018-03-29T07:31:53Z</time>
      </trkpt>
      <trkpt lat="49.23696" lon="4.26477">
        <ele>142</ele>
        <time>2018-03-29T07:32:53Z</time>
      </trkpt>
      <trkpt lat="49.23697" lon="4.26479">
        <ele>142</ele>
        <time>2018-03-29T07:33:53Z</time>
      </trkpt>
      <trkpt lat="49.23697" lon="4.26479">
        <ele>142</ele>
        <time>2018-03-29T07:34:53Z</time>
      </trkpt>
      <trkpt lat="49.23703" lon="4.2649">
        <ele>143</ele>
        <time>2018-03-29T07:35:53Z</time>
      </trkpt>
      <trkpt lat="49.2371" lon="4.26509">
        <ele>143</ele>
        <time>2018-03-29T07:36:53Z</time>
      </trkpt>
      <trkpt lat="49.23715" lon="4.26525">
        <ele>143</ele>
        <time>2018-03-29T07:37:53Z</time>
      </trkpt>
      <trkpt lat="49.23719" lon="4.26539">
        <ele>144</ele>
        <time>2018-03-29T07:38:53Z</time>
      </trkpt>
      <trkpt lat="49.23736" lon="4.26618">
        <ele>145</ele>
        <time>2018-03-29T07:39:53Z</time>
      </trkpt>
      <trkpt lat="49.23744" lon="4.2665">
        <ele>146</ele>
        <time>2018-03-29T07:40:53Z</time>
      </trkpt>
      <trkpt lat="49.23753" lon="4.26658">
        <ele>146</ele>
        <time>2018-03-29T07:41:53Z</time>
      </trkpt>
      <trkpt lat="49.23755" lon="4.26659">
        <ele>146</ele>
        <time>2018-03-29T07:42:53Z</time>
      </trkpt>
      <trkpt lat="49.2376" lon="4.2666">
        <ele>146</ele>
        <time>2018-03-29T07:43:53Z</time>
      </trkpt>
      <trkpt lat="49.23772" lon="4.26657">
        <ele>146</ele>
        <time>2018-03-29T07:44:53Z</time>
      </trkpt>
      <trkpt lat="49.23835" lon="4.26625">
        <ele>146</ele>
        <time>2018-03-29T07:45:53Z</time>
      </trkpt>
      <trkpt lat="49.23838" lon="4.26618">
        <ele>146</ele>
        <time>2018-03-29T07:46:53Z</time>
      </trkpt>
      <trkpt lat="49.2384" lon="4.26613">
        <ele>146</ele>
        <time>2018-03-29T07:47:53Z</time>
      </trkpt>
      <trkpt lat="49.2384" lon="4.26607">
        <ele>146</ele>
        <time>2018-03-29T07:48:53Z</time>
      </trkpt>
      <trkpt lat="49.23841" lon="4.26596">
        <ele>146</ele>
        <time>2018-03-29T07:49:53Z</time>
      </trkpt>
      <trkpt lat="49.23834" lon="4.26558">
        <ele>145</ele>
        <time>2018-03-29T07:50:53Z</time>
      </trkpt>
      <trkpt lat="49.23809" lon="4.26407">
        <ele>141</ele>
        <time>2018-03-29T07:51:53Z</time>
      </trkpt>
      <trkpt lat="49.23806" lon="4.26396">
        <ele>140</ele>
        <time>2018-03-29T07:52:53Z</time>
      </trkpt>
      <trkpt lat="49.23806" lon="4.26391">
        <ele>140</ele>
        <time>2018-03-29T07:53:53Z</time>
      </trkpt>
      <trkpt lat="49.23804" lon="4.26375">
        <ele>140</ele>
        <time>2018-03-29T07:54:53Z</time>
      </trkpt>
      <trkpt lat="49.23804" lon="4.26362">
        <ele>139</ele>
        <time>2018-03-29T07:55:53Z</time>
      </trkpt>
      <trkpt lat="49.23804" lon="4.26345">
        <ele>138</ele>
        <time>2018-03-29T07:56:53Z</time>
      </trkpt>
      <trkpt lat="49.23807" lon="4.26308">
        <ele>138</ele>
        <time>2018-03-29T07:57:53Z</time>
      </trkpt>
      <trkpt lat="49.23813" lon="4.26268">
        <ele>138</ele>
        <time>2018-03-29T07:58:53Z</time>
      </trkpt>
      <trkpt lat="49.23831" lon="4.26208">
        <ele>137</ele>
        <time>2018-03-29T07:59:53Z</time>
      </trkpt>
      <trkpt lat="49.23846" lon="4.2616">
        <ele>136</ele>
        <time>2018-03-29T08:00:53Z</time>
      </trkpt>
      <trkpt lat="49.23868" lon="4.26092">
        <ele>136</ele>
        <time>2018-03-29T08:01:53Z</time>
      </trkpt>
      <trkpt lat="49.23979" lon="4.25752">
        <ele>135</ele>
        <time>2018-03-29T08:02:53Z</time>
      </trkpt>
      <trkpt lat="49.24052" lon="4.25524">
        <ele>135</ele>
        <time>2018-03-29T08:03:53Z</time>
      </trkpt>
      <trkpt lat="49.24126" lon="4.25295">
        <ele>130</ele>
        <time>2018-03-29T08:04:53Z</time>
      </trkpt>
      <trkpt lat="49.242" lon="4.25066">
        <ele>126</ele>
        <time>2018-03-29T08:05:53Z</time>
      </trkpt>
      <trkpt lat="49.24228" lon="4.24979">
        <ele>124</ele>
        <time>2018-03-29T08:06:53Z</time>
      </trkpt>
      <trkpt lat="49.24288" lon="4.2479">
        <ele>120</ele>
        <time>2018-03-29T08:07:53Z</time>
      </trkpt>
      <trkpt lat="49.24349" lon="4.246">
        <ele>117</ele>
        <time>2018-03-29T08:08:53Z</time>
      </trkpt>
      <trkpt lat="49.24409" lon="4.24411">
        <ele>115</ele>
        <time>2018-03-29T08:09:53Z</time>
      </trkpt>
      <trkpt lat="49.24436" lon="4.24324">
        <ele>113</ele>
        <time>2018-03-29T08:10:53Z</time>
      </trkpt>
      <trkpt lat="49.24465" lon="4.2424">
        <ele>113</ele>
        <time>2018-03-29T08:11:53Z</time>
      </trkpt>
      <trkpt lat="49.24481" lon="4.24189">
        <ele>113</ele>
        <time>2018-03-29T08:12:53Z</time>
      </trkpt>
      <trkpt lat="49.24489" lon="4.24163">
        <ele>113</ele>
        <time>2018-03-29T08:13:53Z</time>
      </trkpt>
      <trkpt lat="49.24499" lon="4.24132">
        <ele>113</ele>
        <time>2018-03-29T08:14:53Z</time>
      </trkpt>
      <trkpt lat="49.24522" lon="4.24061">
        <ele>113</ele>
        <time>2018-03-29T08:15:53Z</time>
      </trkpt>
      <trkpt lat="49.24531" lon="4.24032">
        <ele>114</ele>
        <time>2018-03-29T08:16:53Z</time>
      </trkpt>
      <trkpt lat="49.24568" lon="4.23915">
        <ele>113</ele>
        <time>2018-03-29T08:17:53Z</time>
      </trkpt>
      <trkpt lat="49.24596" lon="4.23828">
        <ele>110</ele>
        <time>2018-03-29T08:18:53Z</time>
      </trkpt>
      <trkpt lat="49.24618" lon="4.23762">
        <ele>111</ele>
        <time>2018-03-29T08:19:53Z</time>
      </trkpt>
      <trkpt lat="49.24629" lon="4.23723">
        <ele>112</ele>
        <time>2018-03-29T08:20:53Z</time>
      </trkpt>
      <trkpt lat="49.2466" lon="4.23632">
        <ele>113</ele>
        <time>2018-03-29T08:21:53Z</time>
      </trkpt>
      <trkpt lat="49.24727" lon="4.23424">
        <ele>117</ele>
        <time>2018-03-29T08:22:53Z</time>
      </trkpt>
      <trkpt lat="49.24809" lon="4.23174">
        <ele>122</ele>
        <time>2018-03-29T08:23:53Z</time>
      </trkpt>
      <trkpt lat="49.24841" lon="4.23076">
        <ele>124</ele>
        <time>2018-03-29T08:24:53Z</time>
      </trkpt>
      <trkpt lat="49.24879" lon="4.22953">
        <ele>125</ele>
        <time>2018-03-29T08:25:53Z</time>
      </trkpt>
      <trkpt lat="49.24887" lon="4.22928">
        <ele>125</ele>
        <time>2018-03-29T08:26:53Z</time>
      </trkpt>
      <trkpt lat="49.24945" lon="4.22743">
        <ele>122</ele>
        <time>2018-03-29T08:27:53Z</time>
      </trkpt>
      <trkpt lat="49.24981" lon="4.22632">
        <ele>120</ele>
        <time>2018-03-29T08:28:53Z</time>
      </trkpt>
      <trkpt lat="49.25007" lon="4.22553">
        <ele>119</ele>
        <time>2018-03-29T08:29:53Z</time>
      </trkpt>
      <trkpt lat="49.25032" lon="4.22472">
        <ele>117</ele>
        <time>2018-03-29T08:30:53Z</time>
      </trkpt>
      <trkpt lat="49.25065" lon="4.22371">
        <ele>115</ele>
        <time>2018-03-29T08:31:53Z</time>
      </trkpt>
      <trkpt lat="49.25104" lon="4.22246">
        <ele>113</ele>
        <time>2018-03-29T08:32:53Z</time>
      </trkpt>
      <trkpt lat="49.25113" lon="4.22219">
        <ele>113</ele>
        <time>2018-03-29T08:33:53Z</time>
      </trkpt>
      <trkpt lat="49.25122" lon="4.22191">
        <ele>113</ele>
        <time>2018-03-29T08:34:53Z</time>
      </trkpt>
      <trkpt lat="49.25133" lon="4.22155">
        <ele>114</ele>
        <time>2018-03-29T08:35:53Z</time>
      </trkpt>
      <trkpt lat="49.25152" lon="4.22092">
        <ele>115</ele>
        <time>2018-03-29T08:36:53Z</time>
      </trkpt>
      <trkpt lat="49.25168" lon="4.22043">
        <ele>115</ele>
        <time>2018-03-29T08:37:53Z</time>
      </trkpt>
      <trkpt lat="49.25184" lon="4.21992">
        <ele>114</ele>
        <time>2018-03-29T08:38:53Z</time>
      </trkpt>
      <trkpt lat="49.25198" lon="4.21953">
        <ele>114</ele>
        <time>2018-03-29T08:39:53Z</time>
      </trkpt>
      <trkpt lat="49.25198" lon="4.21953">
        <ele>114</ele>
        <time>2018-03-29T08:40:53Z</time>
      </trkpt>
      <trkpt lat="49.25199" lon="4.21955">
        <ele>114</ele>
        <time>2018-03-29T08:41:53Z</time>
      </trkpt>
      <trkpt lat="49.25202" lon="4.21957">
        <ele>114</ele>
        <time>2018-03-29T08:42:53Z</time>
      </trkpt>
      <trkpt lat="49.25204" lon="4.21958">
        <ele>114</ele>
        <time>2018-03-29T08:43:53Z</time>
      </trkpt>
      <trkpt lat="49.25207" lon="4.21958">
        <ele>114</ele>
        <time>2018-03-29T08:44:53Z</time>
      </trkpt>
      <trkpt lat="49.25211" lon="4.21956">
        <ele>114</ele>
        <time>2018-03-29T08:45:53Z</time>
      </trkpt>
      <trkpt lat="49.25212" lon="4.21954">
        <ele>114</ele>
        <time>2018-03-29T08:46:53Z</time>
      </trkpt>
      <trkpt lat="49.25214" lon="4.21953">
        <ele>114</ele>
        <time>2018-03-29T08:47:53Z</time>
      </trkpt>
      <trkpt lat="49.25215" lon="4.21951">
        <ele>114</ele>
        <time>2018-03-29T08:48:53Z</time>
      </trkpt>
      <trkpt lat="49.25216" lon="4.21948">
        <ele>114</ele>
        <time>2018-03-29T08:49:53Z</time>
      </trkpt>
      <trkpt lat="49.25216" lon="4.21945">
        <ele>114</ele>
        <time>2018-03-29T08:50:53Z</time>
      </trkpt>
      <trkpt lat="49.25217" lon="4.21943">
        <ele>114</ele>
        <time>2018-03-29T08:51:53Z</time>
      </trkpt>
      <trkpt lat="49.25223" lon="4.21942">
        <ele>114</ele>
        <time>2018-03-29T08:52:53Z</time>
      </trkpt>
      <trkpt lat="49.25229" lon="4.21944">
        <ele>114</ele>
        <time>2018-03-29T08:53:53Z</time>
      </trkpt>
      <trkpt lat="49.2526" lon="4.21957">
        <ele>114</ele>
        <time>2018-03-29T08:54:53Z</time>
      </trkpt>
      <trkpt lat="49.25261" lon="4.21958">
        <ele>114</ele>
        <time>2018-03-29T08:55:53Z</time>
      </trkpt>
      <trkpt lat="49.25295" lon="4.21968">
        <ele>115</ele>
        <time>2018-03-29T08:56:53Z</time>
      </trkpt>
      <trkpt lat="49.25315" lon="4.21974">
        <ele>115</ele>
        <time>2018-03-29T08:57:53Z</time>
      </trkpt>
      <trkpt lat="49.25339" lon="4.21981">
        <ele>115</ele>
        <time>2018-03-29T08:58:53Z</time>
      </trkpt>
      <trkpt lat="49.25412" lon="4.22006">
        <ele>116</ele>
        <time>2018-03-29T08:59:53Z</time>
      </trkpt>
      <trkpt lat="49.25442" lon="4.22016">
        <ele>116</ele>
        <time>2018-03-29T09:00:53Z</time>
      </trkpt>
      <trkpt lat="49.25486" lon="4.22029">
        <ele>117</ele>
        <time>2018-03-29T09:01:53Z</time>
      </trkpt>
      <trkpt lat="49.25548" lon="4.22047">
        <ele>119</ele>
        <time>2018-03-29T09:02:53Z</time>
      </trkpt>
      <trkpt lat="49.25614" lon="4.22067">
        <ele>120</ele>
        <time>2018-03-29T09:03:53Z</time>
      </trkpt>
      <trkpt lat="49.25665" lon="4.22085">
        <ele>120</ele>
        <time>2018-03-29T09:04:53Z</time>
      </trkpt>
      <trkpt lat="49.25724" lon="4.22105">
        <ele>120</ele>
        <time>2018-03-29T09:05:53Z</time>
      </trkpt>
      <trkpt lat="49.25748" lon="4.22114">
        <ele>120</ele>
        <time>2018-03-29T09:06:53Z</time>
      </trkpt>
      <trkpt lat="49.25888" lon="4.22165">
        <ele>119</ele>
        <time>2018-03-29T09:07:53Z</time>
      </trkpt>
      <trkpt lat="49.25939" lon="4.22183">
        <ele>117</ele>
        <time>2018-03-29T09:08:53Z</time>
      </trkpt>
      <trkpt lat="49.25992" lon="4.22202">
        <ele>115</ele>
        <time>2018-03-29T09:09:53Z</time>
      </trkpt>
      <trkpt lat="49.26037" lon="4.2222">
        <ele>114</ele>
        <time>2018-03-29T09:10:53Z</time>
      </trkpt>
      <trkpt lat="49.26098" lon="4.22242">
        <ele>112</ele>
        <time>2018-03-29T09:11:53Z</time>
      </trkpt>
      <trkpt lat="49.26189" lon="4.22274">
        <ele>113</ele>
        <time>2018-03-29T09:12:53Z</time>
      </trkpt>
      <trkpt lat="49.26297" lon="4.22314">
        <ele>115</ele>
        <time>2018-03-29T09:13:53Z</time>
      </trkpt>
      <trkpt lat="49.26387" lon="4.22345">
        <ele>116</ele>
        <time>2018-03-29T09:14:53Z</time>
      </trkpt>
      <trkpt lat="49.26475" lon="4.22379">
        <ele>117</ele>
        <time>2018-03-29T09:15:53Z</time>
      </trkpt>
      <trkpt lat="49.26519" lon="4.22394">
        <ele>118</ele>
        <time>2018-03-29T09:16:53Z</time>
      </trkpt>
      <trkpt lat="49.26556" lon="4.22412">
        <ele>118</ele>
        <time>2018-03-29T09:17:53Z</time>
      </trkpt>
      <trkpt lat="49.26588" lon="4.22432">
        <ele>119</ele>
        <time>2018-03-29T09:18:53Z</time>
      </trkpt>
      <trkpt lat="49.26777" lon="4.22547">
        <ele>118</ele>
        <time>2018-03-29T09:19:53Z</time>
      </trkpt>
      <trkpt lat="49.26792" lon="4.22556">
        <ele>118</ele>
        <time>2018-03-29T09:20:53Z</time>
      </trkpt>
      <trkpt lat="49.26838" lon="4.22584">
        <ele>118</ele>
        <time>2018-03-29T09:21:53Z</time>
      </trkpt>
      <trkpt lat="49.26968" lon="4.22664">
        <ele>115</ele>
        <time>2018-03-29T09:22:53Z</time>
      </trkpt>
      <trkpt lat="49.27168" lon="4.22786">
        <ele>113</ele>
        <time>2018-03-29T09:23:53Z</time>
      </trkpt>
      <trkpt lat="49.2717" lon="4.22787">
        <ele>113</ele>
        <time>2018-03-29T09:24:53Z</time>
      </trkpt>
      <trkpt lat="49.27189" lon="4.22797">
        <ele>114</ele>
        <time>2018-03-29T09:25:53Z</time>
      </trkpt>
      <trkpt lat="49.27715" lon="4.23112">
        <ele>102</ele>
        <time>2018-03-29T09:26:53Z</time>
      </trkpt>
      <trkpt lat="49.27917" lon="4.23232">
        <ele>101</ele>
        <time>2018-03-29T09:27:53Z</time>
      </trkpt>
      <trkpt lat="49.28614" lon="4.23649">
        <ele>97</ele>
        <time>2018-03-29T09:28:53Z</time>
      </trkpt>
      <trkpt lat="49.28644" lon="4.23667">
        <ele>96</ele>
        <time>2018-03-29T09:29:53Z</time>
      </trkpt>
      <trkpt lat="49.2874" lon="4.23727">
        <ele>97</ele>
        <time>2018-03-29T09:30:53Z</time>
      </trkpt>
      <trkpt lat="49.28771" lon="4.23747">
        <ele>97</ele>
        <time>2018-03-29T09:31:53Z</time>
      </trkpt>
      <trkpt lat="49.28796" lon="4.23763">
        <ele>98</ele>
        <time>2018-03-29T09:32:53Z</time>
      </trkpt>
      <trkpt lat="49.28815" lon="4.23774">
        <ele>98</ele>
        <time>2018-03-29T09:33:53Z</time>
      </trkpt>
      <trkpt lat="49.28865" lon="4.23802">
        <ele>98</ele>
        <time>2018-03-29T09:34:53Z</time>
      </trkpt>
      <trkpt lat="49.2887" lon="4.23805">
        <ele>98</ele>
        <time>2018-03-29T09:35:53Z</time>
      </trkpt>
      <trkpt lat="49.28877" lon="4.23812">
        <ele>97</ele>
        <time>2018-03-29T09:36:53Z</time>
      </trkpt>
      <trkpt lat="49.28883" lon="4.23818">
        <ele>97</ele>
        <time>2018-03-29T09:37:53Z</time>
      </trkpt>
      <trkpt lat="49.28888" lon="4.23825">
        <ele>97</ele>
        <time>2018-03-29T09:38:53Z</time>
      </trkpt>
      <trkpt lat="49.28899" lon="4.2385">
        <ele>97</ele>
        <time>2018-03-29T09:39:53Z</time>
      </trkpt>
      <trkpt lat="49.28926" lon="4.23924">
        <ele>97</ele>
        <time>2018-03-29T09:40:53Z</time>
      </trkpt>
      <trkpt lat="49.28946" lon="4.23992">
        <ele>97</ele>
        <time>2018-03-29T09:41:53Z</time>
      </trkpt>
      <trkpt lat="49.28947" lon="4.23994">
        <ele>97</ele>
        <time>2018-03-29T09:42:53Z</time>
      </trkpt>
      <trkpt lat="49.28947" lon="4.23995">
        <ele>97</ele>
        <time>2018-03-29T09:43:53Z</time>
      </trkpt>
      <trkpt lat="49.28951" lon="4.24001">
        <ele>97</ele>
        <time>2018-03-29T09:44:53Z</time>
      </trkpt>
      <trkpt lat="49.28951" lon="4.24001">
        <ele>97</ele>
        <time>2018-03-29T09:45:53Z</time>
      </trkpt>
      <trkpt lat="49.2897" lon="4.23962">
        <ele>96</ele>
        <time>2018-03-29T09:46:53Z</time>
      </trkpt>
      <trkpt lat="49.28989" lon="4.23919">
        <ele>95</ele>
        <time>2018-03-29T09:47:53Z</time>
      </trkpt>
      <trkpt lat="49.29002" lon="4.23893">
        <ele>95</ele>
        <time>2018-03-29T09:48:53Z</time>
      </trkpt>
      <trkpt lat="49.29007" lon="4.23884">
        <ele>95</ele>
        <time>2018-03-29T09:49:53Z</time>
      </trkpt>
      <trkpt lat="49.29014" lon="4.23872">
        <ele>95</ele>
        <time>2018-03-29T09:50:53Z</time>
      </trkpt>
      <trkpt lat="49.2903" lon="4.23846">
        <ele>95</ele>
        <time>2018-03-29T09:51:53Z</time>
      </trkpt>
      <trkpt lat="49.29035" lon="4.23837">
        <ele>95</ele>
        <time>2018-03-29T09:52:53Z</time>
      </trkpt>
      <trkpt lat="49.29043" lon="4.23824">
        <ele>95</ele>
        <time>2018-03-29T09:53:53Z</time>
      </trkpt>
      <trkpt lat="49.29047" lon="4.23815">
        <ele>95</ele>
        <time>2018-03-29T09:54:53Z</time>
      </trkpt>
      <trkpt lat="49.29047" lon="4.23815">
        <ele>95</ele>
        <time>2018-03-29T09:55:53Z</time>
      </trkpt>
      <trkpt lat="49.29074" lon="4.23849">
        <ele>94</ele>
        <time>2018-03-29T09:56:53Z</time>
      </trkpt>
      <trkpt lat="49.2908" lon="4.23855">
        <ele>94</ele>
        <time>2018-03-29T09:57:53Z</time>
      </trkpt>
      <trkpt lat="49.2908" lon="4.23855">
        <ele>94</ele>
        <time>2018-03-29T09:58:53Z</time>
      </trkpt>
      <trkpt lat="49.29083" lon="4.23849">
        <ele>94</ele>
        <time>2018-03-29T09:59:53Z</time>
      </trkpt>
      <trkpt lat="49.29122" lon="4.23792">
        <ele>93</ele>
        <time>2018-03-29T10:00:53Z</time>
      </trkpt>
      <trkpt lat="49.29161" lon="4.23737">
        <ele>92</ele>
        <time>2018-03-29T10:01:53Z</time>
      </trkpt>
      <trkpt lat="49.29183" lon="4.23705">
        <ele>92</ele>
        <time>2018-03-29T10:02:53Z</time>
      </trkpt>
      <trkpt lat="49.29185" lon="4.23701">
        <ele>92</ele>
        <time>2018-03-29T10:03:53Z</time>
      </trkpt>
      <trkpt lat="49.29189" lon="4.23696">
        <ele>92</ele>
        <time>2018-03-29T10:04:53Z</time>
      </trkpt>
      <trkpt lat="49.29208" lon="4.23671">
        <ele>92</ele>
        <time>2018-03-29T10:05:53Z</time>
      </trkpt>
      <trkpt lat="49.29208" lon="4.2367">
        <ele>92</ele>
        <time>2018-03-29T10:06:53Z</time>
      </trkpt>
      <trkpt lat="49.29209" lon="4.23668">
        <ele>93</ele>
        <time>2018-03-29T10:07:53Z</time>
      </trkpt>
      <trkpt lat="49.29209" lon="4.23668">
        <ele>93</ele>
        <time>2018-03-29T10:08:53Z</time>
      </trkpt>
      <trkpt lat="49.29226" lon="4.2366">
        <ele>93</ele>
        <time>2018-03-29T10:09:53Z</time>
      </trkpt>
      <trkpt lat="49.29243" lon="4.2366">
        <ele>93</ele>
        <time>2018-03-29T10:10:53Z</time>
      </trkpt>
      <trkpt lat="49.29286" lon="4.23676">
        <ele>93</ele>
        <time>2018-03-29T10:11:53Z</time>
      </trkpt>
      <trkpt lat="49.29302" lon="4.23686">
        <ele>93</ele>
        <time>2018-03-29T10:12:53Z</time>
      </trkpt>
      <trkpt lat="49.29324" lon="4.23699">
        <ele>94</ele>
        <time>2018-03-29T10:13:53Z</time>
      </trkpt>
      <trkpt lat="49.29337" lon="4.23711">
        <ele>94</ele>
        <time>2018-03-29T10:14:53Z</time>
      </trkpt>
      <trkpt lat="49.29355" lon="4.2373">
        <ele>94</ele>
        <time>2018-03-29T10:15:53Z</time>
      </trkpt>
      <trkpt lat="49.29409" lon="4.23805">
        <ele>95</ele>
        <time>2018-03-29T10:16:53Z</time>
      </trkpt>
      <trkpt lat="49.29432" lon="4.23838">
        <ele>95</ele>
        <time>2018-03-29T10:17:53Z</time>
      </trkpt>
      <trkpt lat="49.29451" lon="4.23863">
        <ele>96</ele>
        <time>2018-03-29T10:18:53Z</time>
      </trkpt>
      <trkpt lat="49.29477" lon="4.23898">
        <ele>95</ele>
        <time>2018-03-29T10:19:53Z</time>
      </trkpt>
      <trkpt lat="49.29503" lon="4.23933">
        <ele>95</ele>
        <time>2018-03-29T10:20:53Z</time>
      </trkpt>
      <trkpt lat="49.29525" lon="4.23967">
        <ele>95</ele>
        <time>2018-03-29T10:21:53Z</time>
      </trkpt>
      <trkpt lat="49.29534" lon="4.23978">
        <ele>96</ele>
        <time>2018-03-29T10:22:53Z</time>
      </trkpt>
      <trkpt lat="49.29579" lon="4.24044">
        <ele>96</ele>
        <time>2018-03-29T10:23:53Z</time>
      </trkpt>
      <trkpt lat="49.29588" lon="4.2406">
        <ele>96</ele>
        <time>2018-03-29T10:24:53Z</time>
      </trkpt>
      <trkpt lat="49.29698" lon="4.2422">
        <ele>94</ele>
        <time>2018-03-29T10:25:53Z</time>
      </trkpt>
      <trkpt lat="49.29755" lon="4.24305">
        <ele>94</ele>
        <time>2018-03-29T10:26:53Z</time>
      </trkpt>
      <trkpt lat="49.2978" lon="4.2434">
        <ele>94</ele>
        <time>2018-03-29T10:27:53Z</time>
      </trkpt>
      <trkpt lat="49.29842" lon="4.24434">
        <ele>93</ele>
        <time>2018-03-29T10:28:53Z</time>
      </trkpt>
      <trkpt lat="49.29872" lon="4.24476">
        <ele>92</ele>
        <time>2018-03-29T10:29:53Z</time>
      </trkpt>
      <trkpt lat="49.29901" lon="4.24517">
        <ele>92</ele>
        <time>2018-03-29T10:30:53Z</time>
      </trkpt>
      <trkpt lat="49.30049" lon="4.24738">
        <ele>92</ele>
        <time>2018-03-29T10:31:53Z</time>
      </trkpt>
      <trkpt lat="49.30085" lon="4.24792">
        <ele>93</ele>
        <time>2018-03-29T10:32:53Z</time>
      </trkpt>
      <trkpt lat="49.30123" lon="4.24848">
        <ele>93</ele>
        <time>2018-03-29T10:33:53Z</time>
      </trkpt>
      <trkpt lat="49.30169" lon="4.24919">
        <ele>91</ele>
        <time>2018-03-29T10:34:53Z</time>
      </trkpt>
      <trkpt lat="49.30174" lon="4.24925">
        <ele>91</ele>
        <time>2018-03-29T10:35:53Z</time>
      </trkpt>
      <trkpt lat="49.30229" lon="4.25002">
        <ele>91</ele>
        <time>2018-03-29T10:36:53Z</time>
      </trkpt>
      <trkpt lat="49.30241" lon="4.25018">
        <ele>91</ele>
        <time>2018-03-29T10:37:53Z</time>
      </trkpt>
      <trkpt lat="49.30257" lon="4.25041">
        <ele>90</ele>
        <time>2018-03-29T10:38:53Z</time>
      </trkpt>
      <trkpt lat="49.30278" lon="4.25071">
        <ele>90</ele>
        <time>2018-03-29T10:39:53Z</time>
      </trkpt>
      <trkpt lat="49.303" lon="4.25099">
        <ele>90</ele>
        <time>2018-03-29T10:40:53Z</time>
      </trkpt>
      <trkpt lat="49.30318" lon="4.25122">
        <ele>90</ele>
        <time>2018-03-29T10:41:53Z</time>
      </trkpt>
      <trkpt lat="49.30338" lon="4.25146">
        <ele>89</ele>
        <time>2018-03-29T10:42:53Z</time>
      </trkpt>
      <trkpt lat="49.30368" lon="4.25181">
        <ele>89</ele>
        <time>2018-03-29T10:43:53Z</time>
      </trkpt>
      <trkpt lat="49.30388" lon="4.25206">
        <ele>90</ele>
        <time>2018-03-29T10:44:53Z</time>
      </trkpt>
      <trkpt lat="49.30456" lon="4.25284">
        <ele>91</ele>
        <time>2018-03-29T10:45:53Z</time>
      </trkpt>
      <trkpt lat="49.30471" lon="4.25303">
        <ele>92</ele>
        <time>2018-03-29T10:46:53Z</time>
      </trkpt>
      <trkpt lat="49.30484" lon="4.25319">
        <ele>93</ele>
        <time>2018-03-29T10:47:53Z</time>
      </trkpt>
      <trkpt lat="49.30508" lon="4.25349">
        <ele>94</ele>
        <time>2018-03-29T10:48:53Z</time>
      </trkpt>
      <trkpt lat="49.30542" lon="4.25389">
        <ele>93</ele>
        <time>2018-03-29T10:49:53Z</time>
      </trkpt>
      <trkpt lat="49.30575" lon="4.25428">
        <ele>92</ele>
        <time>2018-03-29T10:50:53Z</time>
      </trkpt>
      <trkpt lat="49.30601" lon="4.25457">
        <ele>91</ele>
        <time>2018-03-29T10:51:53Z</time>
      </trkpt>
      <trkpt lat="49.30627" lon="4.25488">
        <ele>90</ele>
        <time>2018-03-29T10:52:53Z</time>
      </trkpt>
      <trkpt lat="49.30645" lon="4.25511">
        <ele>90</ele>
        <time>2018-03-29T10:53:53Z</time>
      </trkpt>
      <trkpt lat="49.30656" lon="4.25524">
        <ele>89</ele>
        <time>2018-03-29T10:54:53Z</time>
      </trkpt>
      <trkpt lat="49.30674" lon="4.25545">
        <ele>89</ele>
        <time>2018-03-29T10:55:53Z</time>
      </trkpt>
      <trkpt lat="49.30683" lon="4.25557">
        <ele>89</ele>
        <time>2018-03-29T10:56:53Z</time>
      </trkpt>
      <trkpt lat="49.30688" lon="4.25563">
        <ele>89</ele>
        <time>2018-03-29T10:57:53Z</time>
      </trkpt>
      <trkpt lat="49.30726" lon="4.25606">
        <ele>89</ele>
        <time>2018-03-29T10:58:53Z</time>
      </trkpt>
      <trkpt lat="49.3074" lon="4.25624">
        <ele>90</ele>
        <time>2018-03-29T10:59:53Z</time>
      </trkpt>
      <trkpt lat="49.30757" lon="4.25643">
        <ele>90</ele>
        <time>2018-03-29T11:00:53Z</time>
      </trkpt>
      <trkpt lat="49.30784" lon="4.25676">
        <ele>91</ele>
        <time>2018-03-29T11:01:53Z</time>
      </trkpt>
      <trkpt lat="49.308" lon="4.25697">
        <ele>91</ele>
        <time>2018-03-29T11:02:53Z</time>
      </trkpt>
      <trkpt lat="49.30837" lon="4.25741">
        <ele>91</ele>
        <time>2018-03-29T11:03:53Z</time>
      </trkpt>
      <trkpt lat="49.30868" lon="4.25776">
        <ele>92</ele>
        <time>2018-03-29T11:04:53Z</time>
      </trkpt>
      <trkpt lat="49.30983" lon="4.25909">
        <ele>90</ele>
        <time>2018-03-29T11:05:53Z</time>
      </trkpt>
      <trkpt lat="49.3104" lon="4.25976">
        <ele>91</ele>
        <time>2018-03-29T11:06:53Z</time>
      </trkpt>
      <trkpt lat="49.31052" lon="4.25992">
        <ele>92</ele>
        <time>2018-03-29T11:07:53Z</time>
      </trkpt>
      <trkpt lat="49.31069" lon="4.26012">
        <ele>92</ele>
        <time>2018-03-29T11:08:53Z</time>
      </trkpt>
      <trkpt lat="49.31072" lon="4.2602">
        <ele>92</ele>
        <time>2018-03-29T11:09:53Z</time>
      </trkpt>
      <trkpt lat="49.31083" lon="4.26039">
        <ele>92</ele>
        <time>2018-03-29T11:10:53Z</time>
      </trkpt>
      <trkpt lat="49.31083" lon="4.26039">
        <ele>92</ele>
        <time>2018-03-29T11:11:53Z</time>
      </trkpt>
      <trkpt lat="49.31083" lon="4.2604">
        <ele>92</ele>
        <time>2018-03-29T11:12:53Z</time>
      </trkpt>
      <trkpt lat="49.31084" lon="4.2604">
        <ele>92</ele>
        <time>2018-03-29T11:13:53Z</time>
      </trkpt>
      <trkpt lat="49.31084" lon="4.26041">
        <ele>92</ele>
        <time>2018-03-29T11:14:53Z</time>
      </trkpt>
      <trkpt lat="49.31084" lon="4.26042">
        <ele>91</ele>
        <time>2018-03-29T11:15:53Z</time>
      </trkpt>
      <trkpt lat="49.31085" lon="4.26042">
        <ele>91</ele>
        <time>2018-03-29T11:16:53Z</time>
      </trkpt>
      <trkpt lat="49.31085" lon="4.26043">
        <ele>91</ele>
        <time>2018-03-29T11:17:53Z</time>
      </trkpt>
      <trkpt lat="49.31086" lon="4.26044">
        <ele>91</ele>
        <time>2018-03-29T11:18:53Z</time>
      </trkpt>
      <trkpt lat="49.31087" lon="4.26045">
        <ele>91</ele>
        <time>2018-03-29T11:19:53Z</time>
      </trkpt>
      <trkpt lat="49.31088" lon="4.26045">
        <ele>91</ele>
        <time>2018-03-29T11:20:53Z</time>
      </trkpt>
      <trkpt lat="49.31088" lon="4.26046">
        <ele>91</ele>
        <time>2018-03-29T11:21:53Z</time>
      </trkpt>
      <trkpt lat="49.31089" lon="4.26046">
        <ele>91</ele>
        <time>2018-03-29T11:22:53Z</time>
      </trkpt>
      <trkpt lat="49.3109" lon="4.26046">
        <ele>91</ele>
        <time>2018-03-29T11:23:53Z</time>
      </trkpt>
      <trkpt lat="49.31091" lon="4.26046">
        <ele>91</ele>
        <time>2018-03-29T11:24:53Z</time>
      </trkpt>
      <trkpt lat="49.31091" lon="4.26045">
        <ele>91</ele>
        <time>2018-03-29T11:25:53Z</time>
      </trkpt>
      <trkpt lat="49.31092" lon="4.26045">
        <ele>91</ele>
        <time>2018-03-29T11:26:53Z</time>
      </trkpt>
      <trkpt lat="49.31093" lon="4.26045">
        <ele>91</ele>
        <time>2018-03-29T11:27:53Z</time>
      </trkpt>
      <trkpt lat="49.31093" lon="4.26044">
        <ele>91</ele>
        <time>2018-03-29T11:28:53Z</time>
      </trkpt>
      <trkpt lat="49.31094" lon="4.26044">
        <ele>91</ele>
        <time>2018-03-29T11:29:53Z</time>
      </trkpt>
      <trkpt lat="49.31094" lon="4.26043">
        <ele>91</ele>
        <time>2018-03-29T11:30:53Z</time>
      </trkpt>
      <trkpt lat="49.31095" lon="4.26043">
        <ele>91</ele>
        <time>2018-03-29T11:31:53Z</time>
      </trkpt>
      <trkpt lat="49.31095" lon="4.26042">
        <ele>91</ele>
        <time>2018-03-29T11:32:53Z</time>
      </trkpt>
      <trkpt lat="49.31096" lon="4.26042">
        <ele>91</ele>
        <time>2018-03-29T11:33:53Z</time>
      </trkpt>
      <trkpt lat="49.31096" lon="4.26041">
        <ele>91</ele>
        <time>2018-03-29T11:34:53Z</time>
      </trkpt>
      <trkpt lat="49.31096" lon="4.2604">
        <ele>91</ele>
        <time>2018-03-29T11:35:53Z</time>
      </trkpt>
      <trkpt lat="49.31097" lon="4.26039">
        <ele>91</ele>
        <time>2018-03-29T11:36:53Z</time>
      </trkpt>
      <trkpt lat="49.31097" lon="4.26038">
        <ele>91</ele>
        <time>2018-03-29T11:37:53Z</time>
      </trkpt>
      <trkpt lat="49.31097" lon="4.26037">
        <ele>91</ele>
        <time>2018-03-29T11:38:53Z</time>
      </trkpt>
      <trkpt lat="49.31097" lon="4.26036">
        <ele>91</ele>
        <time>2018-03-29T11:39:53Z</time>
      </trkpt>
      <trkpt lat="49.31097" lon="4.26035">
        <ele>91</ele>
        <time>2018-03-29T11:40:53Z</time>
      </trkpt>
      <trkpt lat="49.31097" lon="4.26034">
        <ele>91</ele>
        <time>2018-03-29T11:41:53Z</time>
      </trkpt>
      <trkpt lat="49.31097" lon="4.26033">
        <ele>91</ele>
        <time>2018-03-29T11:42:53Z</time>
      </trkpt>
      <trkpt lat="49.31097" lon="4.26032">
        <ele>91</ele>
        <time>2018-03-29T11:43:53Z</time>
      </trkpt>
      <trkpt lat="49.31097" lon="4.26031">
        <ele>91</ele>
        <time>2018-03-29T11:44:53Z</time>
      </trkpt>
      <trkpt lat="49.31097" lon="4.2603">
        <ele>91</ele>
        <time>2018-03-29T11:45:53Z</time>
      </trkpt>
      <trkpt lat="49.31102" lon="4.26022">
        <ele>92</ele>
        <time>2018-03-29T11:46:53Z</time>
      </trkpt>
      <trkpt lat="49.31107" lon="4.26016">
        <ele>92</ele>
        <time>2018-03-29T11:47:53Z</time>
      </trkpt>
      <trkpt lat="49.3112" lon="4.26007">
        <ele>91</ele>
        <time>2018-03-29T11:48:53Z</time>
      </trkpt>
      <trkpt lat="49.31129" lon="4.26002">
        <ele>91</ele>
        <time>2018-03-29T11:49:53Z</time>
      </trkpt>
      <trkpt lat="49.31142" lon="4.25996">
        <ele>91</ele>
        <time>2018-03-29T11:50:53Z</time>
      </trkpt>
      <trkpt lat="49.31149" lon="4.25994">
        <ele>91</ele>
        <time>2018-03-29T11:51:53Z</time>
      </trkpt>
      <trkpt lat="49.31155" lon="4.25993">
        <ele>91</ele>
        <time>2018-03-29T11:52:53Z</time>
      </trkpt>
      <trkpt lat="49.3121" lon="4.25984">
        <ele>91</ele>
        <time>2018-03-29T11:53:53Z</time>
      </trkpt>
      <trkpt lat="49.3124" lon="4.25984">
        <ele>91</ele>
        <time>2018-03-29T11:54:53Z</time>
      </trkpt>
      <trkpt lat="49.3126" lon="4.25986">
        <ele>91</ele>
        <time>2018-03-29T11:55:53Z</time>
      </trkpt>
      <trkpt lat="49.31274" lon="4.25991">
        <ele>91</ele>
        <time>2018-03-29T11:56:53Z</time>
      </trkpt>
      <trkpt lat="49.31288" lon="4.25997">
        <ele>91</ele>
        <time>2018-03-29T11:57:53Z</time>
      </trkpt>
      <trkpt lat="49.31297" lon="4.26002">
        <ele>91</ele>
        <time>2018-03-29T11:58:53Z</time>
      </trkpt>
      <trkpt lat="49.31305" lon="4.26007">
        <ele>91</ele>
        <time>2018-03-29T11:59:53Z</time>
      </trkpt>
      <trkpt lat="49.31311" lon="4.26012">
        <ele>91</ele>
        <time>2018-03-29T12:00:53Z</time>
      </trkpt>
      <trkpt lat="49.31317" lon="4.26018">
        <ele>91</ele>
        <time>2018-03-29T12:01:53Z</time>
      </trkpt>
      <trkpt lat="49.31325" lon="4.26029">
        <ele>91</ele>
        <time>2018-03-29T12:02:53Z</time>
      </trkpt>
      <trkpt lat="49.3134" lon="4.26055">
        <ele>91</ele>
        <time>2018-03-29T12:03:53Z</time>
      </trkpt>
      <trkpt lat="49.3134" lon="4.26055">
        <ele>91</ele>
        <time>2018-03-29T12:04:53Z</time>
      </trkpt>
      <trkpt lat="49.31348" lon="4.26046">
        <ele>91</ele>
        <time>2018-03-29T12:05:53Z</time>
      </trkpt>
      <trkpt lat="49.31356" lon="4.26042">
        <ele>91</ele>
        <time>2018-03-29T12:06:53Z</time>
      </trkpt>
      <trkpt lat="49.31384" lon="4.26033">
        <ele>90</ele>
        <time>2018-03-29T12:07:53Z</time>
      </trkpt>
      <trkpt lat="49.31395" lon="4.2603">
        <ele>90</ele>
        <time>2018-03-29T12:08:53Z</time>
      </trkpt>
      <trkpt lat="49.31414" lon="4.26025">
        <ele>89</ele>
        <time>2018-03-29T12:09:53Z</time>
      </trkpt>
      <trkpt lat="49.31465" lon="4.26011">
        <ele>89</ele>
        <time>2018-03-29T12:10:53Z</time>
      </trkpt>
      <trkpt lat="49.3155" lon="4.25985">
        <ele>89</ele>
        <time>2018-03-29T12:11:53Z</time>
      </trkpt>
      <trkpt lat="49.31623" lon="4.25963">
        <ele>89</ele>
        <time>2018-03-29T12:12:53Z</time>
      </trkpt>
      <trkpt lat="49.31728" lon="4.25932">
        <ele>89</ele>
        <time>2018-03-29T12:13:53Z</time>
      </trkpt>
      <trkpt lat="49.3185" lon="4.25897">
        <ele>88</ele>
        <time>2018-03-29T12:14:53Z</time>
      </trkpt>
      <trkpt lat="49.31904" lon="4.2588">
        <ele>89</ele>
        <time>2018-03-29T12:15:53Z</time>
      </trkpt>
      <trkpt lat="49.31906" lon="4.2588">
        <ele>89</ele>
        <time>2018-03-29T12:16:53Z</time>
      </trkpt>
      <trkpt lat="49.31915" lon="4.25877">
        <ele>89</ele>
        <time>2018-03-29T12:17:53Z</time>
      </trkpt>
      <trkpt lat="49.31924" lon="4.25873">
        <ele>89</ele>
        <time>2018-03-29T12:18:53Z</time>
      </trkpt>
      <trkpt lat="49.31947" lon="4.25862">
        <ele>89</ele>
        <time>2018-03-29T12:19:53Z</time>
      </trkpt>
      <trkpt lat="49.31962" lon="4.25852">
        <ele>89</ele>
        <time>2018-03-29T12:20:53Z</time>
      </trkpt>
      <trkpt lat="49.3197" lon="4.25848">
        <ele>89</ele>
        <time>2018-03-29T12:21:53Z</time>
      </trkpt>
      <trkpt lat="49.31982" lon="4.25841">
        <ele>89</ele>
        <time>2018-03-29T12:22:53Z</time>
      </trkpt>
      <trkpt lat="49.31994" lon="4.25834">
        <ele>89</ele>
        <time>2018-03-29T12:23:53Z</time>
      </trkpt>
      <trkpt lat="49.32006" lon="4.25828">
        <ele>89</ele>
        <time>2018-03-29T12:24:53Z</time>
      </trkpt>
      <trkpt lat="49.3201" lon="4.25827">
        <ele>89</ele>
        <time>2018-03-29T12:25:53Z</time>
      </trkpt>
      <trkpt lat="49.32015" lon="4.25826">
        <ele>89</ele>
        <time>2018-03-29T12:26:53Z</time>
      </trkpt>
      <trkpt lat="49.32021" lon="4.25824">
        <ele>89</ele>
        <time>2018-03-29T12:27:53Z</time>
      </trkpt>
      <trkpt lat="49.32028" lon="4.25824">
        <ele>89</ele>
        <time>2018-03-29T12:28:53Z</time>
      </trkpt>
      <trkpt lat="49.3203" lon="4.25823">
        <ele>89</ele>
        <time>2018-03-29T12:29:53Z</time>
      </trkpt>
      <trkpt lat="49.32035" lon="4.25823">
        <ele>89</ele>
        <time>2018-03-29T12:30:53Z</time>
      </trkpt>
      <trkpt lat="49.32046" lon="4.25823">
        <ele>89</ele>
        <time>2018-03-29T12:31:53Z</time>
      </trkpt>
      <trkpt lat="49.32054" lon="4.25823">
        <ele>89</ele>
        <time>2018-03-29T12:32:53Z</time>
      </trkpt>
      <trkpt lat="49.32059" lon="4.25823">
        <ele>89</ele>
        <time>2018-03-29T12:33:53Z</time>
      </trkpt>
      <trkpt lat="49.32067" lon="4.25822">
        <ele>89</ele>
        <time>2018-03-29T12:34:53Z</time>
      </trkpt>
      <trkpt lat="49.3207" lon="4.25822">
        <ele>89</ele>
        <time>2018-03-29T12:35:53Z</time>
      </trkpt>
      <trkpt lat="49.32084" lon="4.25818">
        <ele>89</ele>
        <time>2018-03-29T12:36:53Z</time>
      </trkpt>
      <trkpt lat="49.32094" lon="4.25815">
        <ele>89</ele>
        <time>2018-03-29T12:37:53Z</time>
      </trkpt>
      <trkpt lat="49.32106" lon="4.2581">
        <ele>89</ele>
        <time>2018-03-29T12:38:53Z</time>
      </trkpt>
      <trkpt lat="49.32115" lon="4.25805">
        <ele>89</ele>
        <time>2018-03-29T12:39:53Z</time>
      </trkpt>
      <trkpt lat="49.32154" lon="4.25792">
        <ele>90</ele>
        <time>2018-03-29T12:40:53Z</time>
      </trkpt>
      <trkpt lat="49.32194" lon="4.25777">
        <ele>90</ele>
        <time>2018-03-29T12:41:53Z</time>
      </trkpt>
      <trkpt lat="49.32236" lon="4.25762">
        <ele>89</ele>
        <time>2018-03-29T12:42:53Z</time>
      </trkpt>
      <trkpt lat="49.32266" lon="4.2575">
        <ele>89</ele>
        <time>2018-03-29T12:43:53Z</time>
      </trkpt>
      <trkpt lat="49.32281" lon="4.25746">
        <ele>89</ele>
        <time>2018-03-29T12:44:53Z</time>
      </trkpt>
      <trkpt lat="49.32293" lon="4.25745">
        <ele>88</ele>
        <time>2018-03-29T12:45:53Z</time>
      </trkpt>
      <trkpt lat="49.32301" lon="4.25744">
        <ele>88</ele>
        <time>2018-03-29T12:46:53Z</time>
      </trkpt>
      <trkpt lat="49.32311" lon="4.25744">
        <ele>88</ele>
        <time>2018-03-29T12:47:53Z</time>
      </trkpt>
      <trkpt lat="49.3232" lon="4.25745">
        <ele>88</ele>
        <time>2018-03-29T12:48:53Z</time>
      </trkpt>
      <trkpt lat="49.32331" lon="4.25748">
        <ele>88</ele>
        <time>2018-03-29T12:49:53Z</time>
      </trkpt>
      <trkpt lat="49.32354" lon="4.25754">
        <ele>87</ele>
        <time>2018-03-29T12:50:53Z</time>
      </trkpt>
      <trkpt lat="49.32363" lon="4.25756">
        <ele>87</ele>
        <time>2018-03-29T12:51:53Z</time>
      </trkpt>
      <trkpt lat="49.32377" lon="4.25759">
        <ele>86</ele>
        <time>2018-03-29T12:52:53Z</time>
      </trkpt>
      <trkpt lat="49.32385" lon="4.25761">
        <ele>86</ele>
        <time>2018-03-29T12:53:53Z</time>
      </trkpt>
      <trkpt lat="49.32397" lon="4.25761">
        <ele>86</ele>
        <time>2018-03-29T12:54:53Z</time>
      </trkpt>
      <trkpt lat="49.32408" lon="4.2576">
        <ele>85</ele>
        <time>2018-03-29T12:55:53Z</time>
      </trkpt>
      <trkpt lat="49.32417" lon="4.25756">
        <ele>85</ele>
        <time>2018-03-29T12:56:53Z</time>
      </trkpt>
      <trkpt lat="49.32429" lon="4.2575">
        <ele>85</ele>
        <time>2018-03-29T12:57:53Z</time>
      </trkpt>
      <trkpt lat="49.32438" lon="4.25742">
        <ele>85</ele>
        <time>2018-03-29T12:58:53Z</time>
      </trkpt>
      <trkpt lat="49.32455" lon="4.25727">
        <ele>85</ele>
        <time>2018-03-29T12:59:53Z</time>
      </trkpt>
      <trkpt lat="49.32472" lon="4.25711">
        <ele>85</ele>
        <time>2018-03-29T13:00:53Z</time>
      </trkpt>
      <trkpt lat="49.32484" lon="4.257">
        <ele>84</ele>
        <time>2018-03-29T13:01:53Z</time>
      </trkpt>
      <trkpt lat="49.32484" lon="4.257">
        <ele>84</ele>
        <time>2018-03-29T13:02:53Z</time>
      </trkpt>
      <trkpt lat="49.32498" lon="4.25735">
        <ele>84</ele>
        <time>2018-03-29T13:03:53Z</time>
      </trkpt>
      <trkpt lat="49.32501" lon="4.25744">
        <ele>84</ele>
        <time>2018-03-29T13:04:53Z</time>
      </trkpt>
      <trkpt lat="49.32503" lon="4.25751">
        <ele>84</ele>
        <time>2018-03-29T13:05:53Z</time>
      </trkpt>
      <trkpt lat="49.32506" lon="4.25757">
        <ele>84</ele>
        <time>2018-03-29T13:06:53Z</time>
      </trkpt>
      <trkpt lat="49.32522" lon="4.25807">
        <ele>84</ele>
        <time>2018-03-29T13:07:53Z</time>
      </trkpt>
      <trkpt lat="49.32535" lon="4.25849">
        <ele>84</ele>
        <time>2018-03-29T13:08:53Z</time>
      </trkpt>
      <trkpt lat="49.32541" lon="4.25865">
        <ele>84</ele>
        <time>2018-03-29T13:09:53Z</time>
      </trkpt>
      <trkpt lat="49.32548" lon="4.2589">
        <ele>84</ele>
        <time>2018-03-29T13:10:53Z</time>
      </trkpt>
      <trkpt lat="49.32556" lon="4.25921">
        <ele>84</ele>
        <time>2018-03-29T13:11:53Z</time>
      </trkpt>
      <trkpt lat="49.3257" lon="4.25972">
        <ele>84</ele>
        <time>2018-03-29T13:12:53Z</time>
      </trkpt>
      <trkpt lat="49.32572" lon="4.25981">
        <ele>83</ele>
        <time>2018-03-29T13:13:53Z</time>
      </trkpt>
      <trkpt lat="49.32573" lon="4.25986">
        <ele>83</ele>
        <time>2018-03-29T13:14:53Z</time>
      </trkpt>
      <trkpt lat="49.32574" lon="4.2599">
        <ele>83</ele>
        <time>2018-03-29T13:15:53Z</time>
      </trkpt>
      <trkpt lat="49.32575" lon="4.26">
        <ele>83</ele>
        <time>2018-03-29T13:16:53Z</time>
      </trkpt>
      <trkpt lat="49.32575" lon="4.26005">
        <ele>83</ele>
        <time>2018-03-29T13:17:53Z</time>
      </trkpt>
      <trkpt lat="49.32576" lon="4.26019">
        <ele>84</ele>
        <time>2018-03-29T13:18:53Z</time>
      </trkpt>
      <trkpt lat="49.32577" lon="4.26046">
        <ele>84</ele>
        <time>2018-03-29T13:19:53Z</time>
      </trkpt>
      <trkpt lat="49.32578" lon="4.26072">
        <ele>85</ele>
        <time>2018-03-29T13:20:53Z</time>
      </trkpt>
      <trkpt lat="49.32581" lon="4.26115">
        <ele>86</ele>
        <time>2018-03-29T13:21:53Z</time>
      </trkpt>
      <trkpt lat="49.32582" lon="4.26125">
        <ele>86</ele>
        <time>2018-03-29T13:22:53Z</time>
      </trkpt>
      <trkpt lat="49.32582" lon="4.26127">
        <ele>86</ele>
        <time>2018-03-29T13:23:53Z</time>
      </trkpt>
      <trkpt lat="49.32585" lon="4.26138">
        <ele>86</ele>
        <time>2018-03-29T13:24:53Z</time>
      </trkpt>
      <trkpt lat="49.32592" lon="4.26158">
        <ele>87</ele>
        <time>2018-03-29T13:25:53Z</time>
      </trkpt>
      <trkpt lat="49.32595" lon="4.26165">
        <ele>87</ele>
        <time>2018-03-29T13:26:53Z</time>
      </trkpt>
      <trkpt lat="49.32605" lon="4.26195">
        <ele>88</ele>
        <time>2018-03-29T13:27:53Z</time>
      </trkpt>
      <trkpt lat="49.3261" lon="4.26212">
        <ele>89</ele>
        <time>2018-03-29T13:28:53Z</time>
      </trkpt>
      <trkpt lat="49.32613" lon="4.2622">
        <ele>89</ele>
        <time>2018-03-29T13:29:53Z</time>
      </trkpt>
      <trkpt lat="49.32615" lon="4.2623">
        <ele>89</ele>
        <time>2018-03-29T13:30:53Z</time>
      </trkpt>
      <trkpt lat="49.32618" lon="4.26246">
        <ele>90</ele>
        <time>2018-03-29T13:31:53Z</time>
      </trkpt>
      <trkpt lat="49.3262" lon="4.26263">
        <ele>90</ele>
        <time>2018-03-29T13:32:53Z</time>
      </trkpt>
      <trkpt lat="49.32624" lon="4.26289">
        <ele>91</ele>
        <time>2018-03-29T13:33:53Z</time>
      </trkpt>
      <trkpt lat="49.32632" lon="4.26344">
        <ele>92</ele>
        <time>2018-03-29T13:34:53Z</time>
      </trkpt>
      <trkpt lat="49.32646" lon="4.26429">
        <ele>94</ele>
        <time>2018-03-29T13:35:53Z</time>
      </trkpt>
      <trkpt lat="49.32655" lon="4.26482">
        <ele>94</ele>
        <time>2018-03-29T13:36:53Z</time>
      </trkpt>
      <trkpt lat="49.32657" lon="4.26491">
        <ele>93</ele>
        <time>2018-03-29T13:37:53Z</time>
      </trkpt>
      <trkpt lat="49.32664" lon="4.2652">
        <ele>94</ele>
        <time>2018-03-29T13:38:53Z</time>
      </trkpt>
      <trkpt lat="49.32665" lon="4.26537">
        <ele>94</ele>
        <time>2018-03-29T13:39:53Z</time>
      </trkpt>
      <trkpt lat="49.32666" lon="4.26542">
        <ele>94</ele>
        <time>2018-03-29T13:40:53Z</time>
      </trkpt>
      <trkpt lat="49.32677" lon="4.266">
        <ele>95</ele>
        <time>2018-03-29T13:41:53Z</time>
      </trkpt>
      <trkpt lat="49.32699" lon="4.26724">
        <ele>97</ele>
        <time>2018-03-29T13:42:53Z</time>
      </trkpt>
      <trkpt lat="49.32709" lon="4.26779">
        <ele>98</ele>
        <time>2018-03-29T13:43:53Z</time>
      </trkpt>
      <trkpt lat="49.32714" lon="4.26802">
        <ele>98</ele>
        <time>2018-03-29T13:44:53Z</time>
      </trkpt>
      <trkpt lat="49.32717" lon="4.26816">
        <ele>98</ele>
        <time>2018-03-29T13:45:53Z</time>
      </trkpt>
      <trkpt lat="49.32723" lon="4.26837">
        <ele>98</ele>
        <time>2018-03-29T13:46:53Z</time>
      </trkpt>
      <trkpt lat="49.32728" lon="4.26858">
        <ele>98</ele>
        <time>2018-03-29T13:47:53Z</time>
      </trkpt>
      <trkpt lat="49.32736" lon="4.26882">
        <ele>97</ele>
        <time>2018-03-29T13:48:53Z</time>
      </trkpt>
      <trkpt lat="49.32747" lon="4.26911">
        <ele>97</ele>
        <time>2018-03-29T13:49:53Z</time>
      </trkpt>
      <trkpt lat="49.32749" lon="4.26916">
        <ele>97</ele>
        <time>2018-03-29T13:50:53Z</time>
      </trkpt>
      <trkpt lat="49.32757" lon="4.26939">
        <ele>97</ele>
        <time>2018-03-29T13:51:53Z</time>
      </trkpt>
      <trkpt lat="49.32786" lon="4.27016">
        <ele>97</ele>
        <time>2018-03-29T13:52:53Z</time>
      </trkpt>
      <trkpt lat="49.32825" lon="4.27119">
        <ele>96</ele>
        <time>2018-03-29T13:53:53Z</time>
      </trkpt>
      <trkpt lat="49.3285" lon="4.27191">
        <ele>96</ele>
        <time>2018-03-29T13:54:53Z</time>
      </trkpt>
      <trkpt lat="49.32853" lon="4.27197">
        <ele>96</ele>
        <time>2018-03-29T13:55:53Z</time>
      </trkpt>
      <trkpt lat="49.32861" lon="4.27221">
        <ele>96</ele>
        <time>2018-03-29T13:56:53Z</time>
      </trkpt>
      <trkpt lat="49.32904" lon="4.27343">
        <ele>96</ele>
        <time>2018-03-29T13:57:53Z</time>
      </trkpt>
      <trkpt lat="49.3295" lon="4.27462">
        <ele>95</ele>
        <time>2018-03-29T13:58:53Z</time>
      </trkpt>
      <trkpt lat="49.32987" lon="4.27561">
        <ele>94</ele>
        <time>2018-03-29T13:59:53Z</time>
      </trkpt>
      <trkpt lat="49.33002" lon="4.276">
        <ele>94</ele>
        <time>2018-03-29T14:00:53Z</time>
      </trkpt>
      <trkpt lat="49.33044" lon="4.27711">
        <ele>95</ele>
        <time>2018-03-29T14:01:53Z</time>
      </trkpt>
      <trkpt lat="49.33099" lon="4.27861">
        <ele>95</ele>
        <time>2018-03-29T14:02:53Z</time>
      </trkpt>
      <trkpt lat="49.33118" lon="4.2791">
        <ele>96</ele>
        <time>2018-03-29T14:03:53Z</time>
      </trkpt>
      <trkpt lat="49.33147" lon="4.27987">
        <ele>97</ele>
        <time>2018-03-29T14:04:53Z</time>
      </trkpt>
      <trkpt lat="49.33166" lon="4.28043">
        <ele>98</ele>
        <time>2018-03-29T14:05:53Z</time>
      </trkpt>
      <trkpt lat="49.33186" lon="4.28094">
        <ele>98</ele>
        <time>2018-03-29T14:06:53Z</time>
      </trkpt>
      <trkpt lat="49.33202" lon="4.2814">
        <ele>98</ele>
        <time>2018-03-29T14:07:53Z</time>
      </trkpt>
      <trkpt lat="49.33208" lon="4.28156">
        <ele>98</ele>
        <time>2018-03-29T14:08:53Z</time>
      </trkpt>
      <trkpt lat="49.33244" lon="4.28253">
        <ele>99</ele>
        <time>2018-03-29T14:09:53Z</time>
      </trkpt>
      <trkpt lat="49.33266" lon="4.28309">
        <ele>99</ele>
        <time>2018-03-29T14:10:53Z</time>
      </trkpt>
      <trkpt lat="49.33299" lon="4.284">
        <ele>99</ele>
        <time>2018-03-29T14:11:53Z</time>
      </trkpt>
      <trkpt lat="49.33348" lon="4.28528">
        <ele>99</ele>
        <time>2018-03-29T14:12:53Z</time>
      </trkpt>
      <trkpt lat="49.33358" lon="4.28555">
        <ele>99</ele>
        <time>2018-03-29T14:13:53Z</time>
      </trkpt>
      <trkpt lat="49.33381" lon="4.28617">
        <ele>98</ele>
        <time>2018-03-29T14:14:53Z</time>
      </trkpt>
      <trkpt lat="49.33394" lon="4.28649">
        <ele>98</ele>
        <time>2018-03-29T14:15:53Z</time>
      </trkpt>
      <trkpt lat="49.33399" lon="4.28661">
        <ele>98</ele>
        <time>2018-03-29T14:16:53Z</time>
      </trkpt>
      <trkpt lat="49.33402" lon="4.28671">
        <ele>98</ele>
        <time>2018-03-29T14:17:53Z</time>
      </trkpt>
      <trkpt lat="49.3344" lon="4.28771">
        <ele>98</ele>
        <time>2018-03-29T14:18:53Z</time>
      </trkpt>
      <trkpt lat="49.33445" lon="4.28784">
        <ele>98</ele>
        <time>2018-03-29T14:19:53Z</time>
      </trkpt>
      <trkpt lat="49.33448" lon="4.28792">
        <ele>98</ele>
        <time>2018-03-29T14:20:53Z</time>
      </trkpt>
      <trkpt lat="49.33449" lon="4.28797">
        <ele>98</ele>
        <time>2018-03-29T14:21:53Z</time>
      </trkpt>
      <trkpt lat="49.33453" lon="4.28807">
        <ele>98</ele>
        <time>2018-03-29T14:22:53Z</time>
      </trkpt>
      <trkpt lat="49.33471" lon="4.28853">
        <ele>98</ele>
        <time>2018-03-29T14:23:53Z</time>
      </trkpt>
      <trkpt lat="49.33502" lon="4.28937">
        <ele>98</ele>
        <time>2018-03-29T14:24:53Z</time>
      </trkpt>
      <trkpt lat="49.3355" lon="4.29066">
        <ele>101</ele>
        <time>2018-03-29T14:25:53Z</time>
      </trkpt>
      <trkpt lat="49.33606" lon="4.29217">
        <ele>101</ele>
        <time>2018-03-29T14:26:53Z</time>
      </trkpt>
      <trkpt lat="49.33621" lon="4.29255">
        <ele>101</ele>
        <time>2018-03-29T14:27:53Z</time>
      </trkpt>
      <trkpt lat="49.33641" lon="4.29311">
        <ele>102</ele>
        <time>2018-03-29T14:28:53Z</time>
      </trkpt>
      <trkpt lat="49.33654" lon="4.29345">
        <ele>102</ele>
        <time>2018-03-29T14:29:53Z</time>
      </trkpt>
      <trkpt lat="49.33658" lon="4.29356">
        <ele>102</ele>
        <time>2018-03-29T14:30:53Z</time>
      </trkpt>
      <trkpt lat="49.33666" lon="4.29377">
        <ele>103</ele>
        <time>2018-03-29T14:31:53Z</time>
      </trkpt>
      <trkpt lat="49.33673" lon="4.29399">
        <ele>103</ele>
        <time>2018-03-29T14:32:53Z</time>
      </trkpt>
      <trkpt lat="49.33682" lon="4.29421">
        <ele>103</ele>
        <time>2018-03-29T14:33:53Z</time>
      </trkpt>
      <trkpt lat="49.33698" lon="4.29463">
        <ele>103</ele>
        <time>2018-03-29T14:34:53Z</time>
      </trkpt>
      <trkpt lat="49.33704" lon="4.29477">
        <ele>103</ele>
        <time>2018-03-29T14:35:53Z</time>
      </trkpt>
      <trkpt lat="49.33709" lon="4.2949">
        <ele>103</ele>
        <time>2018-03-29T14:36:53Z</time>
      </trkpt>
      <trkpt lat="49.33716" lon="4.29505">
        <ele>103</ele>
        <time>2018-03-29T14:37:53Z</time>
      </trkpt>
      <trkpt lat="49.33724" lon="4.29519">
        <ele>103</ele>
        <time>2018-03-29T14:38:53Z</time>
      </trkpt>
      <trkpt lat="49.33732" lon="4.29536">
        <ele>104</ele>
        <time>2018-03-29T14:39:53Z</time>
      </trkpt>
      <trkpt lat="49.33744" lon="4.29556">
        <ele>104</ele>
        <time>2018-03-29T14:40:53Z</time>
      </trkpt>
      <trkpt lat="49.33755" lon="4.29574">
        <ele>104</ele>
        <time>2018-03-29T14:41:53Z</time>
      </trkpt>
      <trkpt lat="49.33811" lon="4.29651">
        <ele>103</ele>
        <time>2018-03-29T14:42:53Z</time>
      </trkpt>
      <trkpt lat="49.33863" lon="4.29723">
        <ele>102</ele>
        <time>2018-03-29T14:43:53Z</time>
      </trkpt>
      <trkpt lat="49.33873" lon="4.29737">
        <ele>102</ele>
        <time>2018-03-29T14:44:53Z</time>
      </trkpt>
      <trkpt lat="49.33873" lon="4.29737">
        <ele>102</ele>
        <time>2018-03-29T14:45:53Z</time>
      </trkpt>
      <trkpt lat="49.33875" lon="4.29739">
        <ele>102</ele>
        <time>2018-03-29T14:46:53Z</time>
      </trkpt>
      <trkpt lat="49.33882" lon="4.2975">
        <ele>102</ele>
        <time>2018-03-29T14:47:53Z</time>
      </trkpt>
      <trkpt lat="49.3389" lon="4.29761">
        <ele>102</ele>
        <time>2018-03-29T14:48:53Z</time>
      </trkpt>
      <trkpt lat="49.33892" lon="4.29764">
        <ele>102</ele>
        <time>2018-03-29T14:49:53Z</time>
      </trkpt>
      <trkpt lat="49.33911" lon="4.29792">
        <ele>102</ele>
        <time>2018-03-29T14:50:53Z</time>
      </trkpt>
      <trkpt lat="49.3393" lon="4.29819">
        <ele>102</ele>
        <time>2018-03-29T14:51:53Z</time>
      </trkpt>
      <trkpt lat="49.3394" lon="4.29833">
        <ele>101</ele>
        <time>2018-03-29T14:52:53Z</time>
      </trkpt>
      <trkpt lat="49.33954" lon="4.29853">
        <ele>101</ele>
        <time>2018-03-29T14:53:53Z</time>
      </trkpt>
      <trkpt lat="49.33982" lon="4.29893">
        <ele>101</ele>
        <time>2018-03-29T14:54:53Z</time>
      </trkpt>
      <trkpt lat="49.33999" lon="4.29916">
        <ele>101</ele>
        <time>2018-03-29T14:55:53Z</time>
      </trkpt>
      <trkpt lat="49.3402" lon="4.29947">
        <ele>101</ele>
        <time>2018-03-29T14:56:53Z</time>
      </trkpt>
      <trkpt lat="49.3404" lon="4.29974">
        <ele>100</ele>
        <time>2018-03-29T14:57:53Z</time>
      </trkpt>
      <trkpt lat="49.34056" lon="4.29997">
        <ele>100</ele>
        <time>2018-03-29T14:58:53Z</time>
      </trkpt>
      <trkpt lat="49.34079" lon="4.30032">
        <ele>100</ele>
        <time>2018-03-29T14:59:53Z</time>
      </trkpt>
      <trkpt lat="49.34093" lon="4.30051">
        <ele>100</ele>
        <time>2018-03-29T15:00:53Z</time>
      </trkpt>
      <trkpt lat="49.34126" lon="4.30098">
        <ele>101</ele>
        <time>2018-03-29T15:01:53Z</time>
      </trkpt>
      <trkpt lat="49.34144" lon="4.30123">
        <ele>101</ele>
        <time>2018-03-29T15:02:53Z</time>
      </trkpt>
      <trkpt lat="49.34156" lon="4.3014">
        <ele>101</ele>
        <time>2018-03-29T15:03:53Z</time>
      </trkpt>
      <trkpt lat="49.34177" lon="4.3017">
        <ele>101</ele>
        <time>2018-03-29T15:04:53Z</time>
      </trkpt>
      <trkpt lat="49.34184" lon="4.3018">
        <ele>101</ele>
        <time>2018-03-29T15:05:53Z</time>
      </trkpt>
      <trkpt lat="49.34191" lon="4.3019">
        <ele>101</ele>
        <time>2018-03-29T15:06:53Z</time>
      </trkpt>
      <trkpt lat="49.34194" lon="4.30194">
        <ele>101</ele>
        <time>2018-03-29T15:07:53Z</time>
      </trkpt>
      <trkpt lat="49.34198" lon="4.302">
        <ele>101</ele>
        <time>2018-03-29T15:08:53Z</time>
      </trkpt>
      <trkpt lat="49.34202" lon="4.30205">
        <ele>101</ele>
        <time>2018-03-29T15:09:53Z</time>
      </trkpt>
      <trkpt lat="49.34206" lon="4.3021">
        <ele>101</ele>
        <time>2018-03-29T15:10:53Z</time>
      </trkpt>
      <trkpt lat="49.34207" lon="4.30212">
        <ele>101</ele>
        <time>2018-03-29T15:11:53Z</time>
      </trkpt>
      <trkpt lat="49.34212" lon="4.30218">
        <ele>101</ele>
        <time>2018-03-29T15:12:53Z</time>
      </trkpt>
      <trkpt lat="49.34216" lon="4.30224">
        <ele>101</ele>
        <time>2018-03-29T15:13:53Z</time>
      </trkpt>
      <trkpt lat="49.34225" lon="4.30238">
        <ele>101</ele>
        <time>2018-03-29T15:14:53Z</time>
      </trkpt>
      <trkpt lat="49.34234" lon="4.30251">
        <ele>101</ele>
        <time>2018-03-29T15:15:53Z</time>
      </trkpt>
      <trkpt lat="49.34243" lon="4.30264">
        <ele>101</ele>
        <time>2018-03-29T15:16:53Z</time>
      </trkpt>
      <trkpt lat="49.34246" lon="4.30268">
        <ele>101</ele>
        <time>2018-03-29T15:17:53Z</time>
      </trkpt>
      <trkpt lat="49.34249" lon="4.30273">
        <ele>101</ele>
        <time>2018-03-29T15:18:53Z</time>
      </trkpt>
      <trkpt lat="49.34257" lon="4.30285">
        <ele>101</ele>
        <time>2018-03-29T15:19:53Z</time>
      </trkpt>
      <trkpt lat="49.34267" lon="4.30299">
        <ele>101</ele>
        <time>2018-03-29T15:20:53Z</time>
      </trkpt>
      <trkpt lat="49.34279" lon="4.30317">
        <ele>101</ele>
        <time>2018-03-29T15:21:53Z</time>
      </trkpt>
      <trkpt lat="49.34294" lon="4.3034">
        <ele>101</ele>
        <time>2018-03-29T15:22:53Z</time>
      </trkpt>
      <trkpt lat="49.34309" lon="4.30366">
        <ele>101</ele>
        <time>2018-03-29T15:23:53Z</time>
      </trkpt>
      <trkpt lat="49.34322" lon="4.3039">
        <ele>101</ele>
        <time>2018-03-29T15:24:53Z</time>
      </trkpt>
      <trkpt lat="49.34338" lon="4.30421">
        <ele>101</ele>
        <time>2018-03-29T15:25:53Z</time>
      </trkpt>
      <trkpt lat="49.34355" lon="4.30457">
        <ele>101</ele>
        <time>2018-03-29T15:26:53Z</time>
      </trkpt>
      <trkpt lat="49.34376" lon="4.305">
        <ele>100</ele>
        <time>2018-03-29T15:27:53Z</time>
      </trkpt>
      <trkpt lat="49.34393" lon="4.30536">
        <ele>100</ele>
        <time>2018-03-29T15:28:53Z</time>
      </trkpt>
      <trkpt lat="49.34404" lon="4.30562">
        <ele>100</ele>
        <time>2018-03-29T15:29:53Z</time>
      </trkpt>
      <trkpt lat="49.34411" lon="4.30579">
        <ele>100</ele>
        <time>2018-03-29T15:30:53Z</time>
      </trkpt>
      <trkpt lat="49.34421" lon="4.30608">
        <ele>101</ele>
        <time>2018-03-29T15:31:53Z</time>
      </trkpt>
      <trkpt lat="49.34428" lon="4.30634">
        <ele>101</ele>
        <time>2018-03-29T15:32:53Z</time>
      </trkpt>
      <trkpt lat="49.34435" lon="4.30659">
        <ele>101</ele>
        <time>2018-03-29T15:33:53Z</time>
      </trkpt>
      <trkpt lat="49.34443" lon="4.30686">
        <ele>101</ele>
        <time>2018-03-29T15:34:53Z</time>
      </trkpt>
      <trkpt lat="49.34451" lon="4.30717">
        <ele>101</ele>
        <time>2018-03-29T15:35:53Z</time>
      </trkpt>
      <trkpt lat="49.34459" lon="4.30743">
        <ele>100</ele>
        <time>2018-03-29T15:36:53Z</time>
      </trkpt>
      <trkpt lat="49.34463" lon="4.30759">
        <ele>100</ele>
        <time>2018-03-29T15:37:53Z</time>
      </trkpt>
      <trkpt lat="49.34471" lon="4.30789">
        <ele>100</ele>
        <time>2018-03-29T15:38:53Z</time>
      </trkpt>
      <trkpt lat="49.34479" lon="4.30818">
        <ele>100</ele>
        <time>2018-03-29T15:39:53Z</time>
      </trkpt>
      <trkpt lat="49.34486" lon="4.30842">
        <ele>100</ele>
        <time>2018-03-29T15:40:53Z</time>
      </trkpt>
      <trkpt lat="49.34494" lon="4.30866">
        <ele>100</ele>
        <time>2018-03-29T15:41:53Z</time>
      </trkpt>
      <trkpt lat="49.34502" lon="4.30892">
        <ele>100</ele>
        <time>2018-03-29T15:42:53Z</time>
      </trkpt>
      <trkpt lat="49.34511" lon="4.30922">
        <ele>101</ele>
        <time>2018-03-29T15:43:53Z</time>
      </trkpt>
      <trkpt lat="49.34521" lon="4.30948">
        <ele>101</ele>
        <time>2018-03-29T15:44:53Z</time>
      </trkpt>
      <trkpt lat="49.34532" lon="4.30974">
        <ele>101</ele>
        <time>2018-03-29T15:45:53Z</time>
      </trkpt>
      <trkpt lat="49.34544" lon="4.31">
        <ele>101</ele>
        <time>2018-03-29T15:46:53Z</time>
      </trkpt>
      <trkpt lat="49.34553" lon="4.3102">
        <ele>101</ele>
        <time>2018-03-29T15:47:53Z</time>
      </trkpt>
      <trkpt lat="49.34562" lon="4.31038">
        <ele>101</ele>
        <time>2018-03-29T15:48:53Z</time>
      </trkpt>
      <trkpt lat="49.34572" lon="4.31059">
        <ele>101</ele>
        <time>2018-03-29T15:49:53Z</time>
      </trkpt>
      <trkpt lat="49.34583" lon="4.31082">
        <ele>101</ele>
        <time>2018-03-29T15:50:53Z</time>
      </trkpt>
      <trkpt lat="49.34589" lon="4.31096">
        <ele>101</ele>
        <time>2018-03-29T15:51:53Z</time>
      </trkpt>
      <trkpt lat="49.34596" lon="4.31108">
        <ele>101</ele>
        <time>2018-03-29T15:52:53Z</time>
      </trkpt>
      <trkpt lat="49.34604" lon="4.31125">
        <ele>101</ele>
        <time>2018-03-29T15:53:53Z</time>
      </trkpt>
      <trkpt lat="49.3461" lon="4.31138">
        <ele>101</ele>
        <time>2018-03-29T15:54:53Z</time>
      </trkpt>
      <trkpt lat="49.34616" lon="4.31154">
        <ele>101</ele>
        <time>2018-03-29T15:55:53Z</time>
      </trkpt>
      <trkpt lat="49.34618" lon="4.3116">
        <ele>101</ele>
        <time>2018-03-29T15:56:53Z</time>
      </trkpt>
      <trkpt lat="49.34621" lon="4.31167">
        <ele>101</ele>
        <time>2018-03-29T15:57:53Z</time>
      </trkpt>
      <trkpt lat="49.34627" lon="4.31184">
        <ele>100</ele>
        <time>2018-03-29T15:58:53Z</time>
      </trkpt>
      <trkpt lat="49.34637" lon="4.3121">
        <ele>100</ele>
        <time>2018-03-29T15:59:53Z</time>
      </trkpt>
      <trkpt lat="49.34648" lon="4.31242">
        <ele>100</ele>
        <time>2018-03-29T16:00:53Z</time>
      </trkpt>
      <trkpt lat="49.34659" lon="4.31272">
        <ele>100</ele>
        <time>2018-03-29T16:01:53Z</time>
      </trkpt>
      <trkpt lat="49.34669" lon="4.31299">
        <ele>100</ele>
        <time>2018-03-29T16:02:53Z</time>
      </trkpt>
      <trkpt lat="49.34681" lon="4.31332">
        <ele>99</ele>
        <time>2018-03-29T16:03:53Z</time>
      </trkpt>
      <trkpt lat="49.34693" lon="4.31365">
        <ele>100</ele>
        <time>2018-03-29T16:04:53Z</time>
      </trkpt>
      <trkpt lat="49.34702" lon="4.31391">
        <ele>100</ele>
        <time>2018-03-29T16:05:53Z</time>
      </trkpt>
      <trkpt lat="49.34713" lon="4.31421">
        <ele>100</ele>
        <time>2018-03-29T16:06:53Z</time>
      </trkpt>
      <trkpt lat="49.3472" lon="4.31439">
        <ele>100</ele>
        <time>2018-03-29T16:07:53Z</time>
      </trkpt>
      <trkpt lat="49.34731" lon="4.31463">
        <ele>100</ele>
        <time>2018-03-29T16:08:53Z</time>
      </trkpt>
      <trkpt lat="49.34748" lon="4.31507">
        <ele>100</ele>
        <time>2018-03-29T16:09:53Z</time>
      </trkpt>
      <trkpt lat="49.34775" lon="4.31572">
        <ele>99</ele>
        <time>2018-03-29T16:10:53Z</time>
      </trkpt>
      <trkpt lat="49.34784" lon="4.31594">
        <ele>99</ele>
        <time>2018-03-29T16:11:53Z</time>
      </trkpt>
      <trkpt lat="49.34794" lon="4.31618">
        <ele>100</ele>
        <time>2018-03-29T16:12:53Z</time>
      </trkpt>
      <trkpt lat="49.34808" lon="4.3165">
        <ele>100</ele>
        <time>2018-03-29T16:13:53Z</time>
      </trkpt>
      <trkpt lat="49.34818" lon="4.31674">
        <ele>100</ele>
        <time>2018-03-29T16:14:53Z</time>
      </trkpt>
      <trkpt lat="49.34827" lon="4.31698">
        <ele>100</ele>
        <time>2018-03-29T16:15:53Z</time>
      </trkpt>
      <trkpt lat="49.34836" lon="4.31721">
        <ele>101</ele>
        <time>2018-03-29T16:16:53Z</time>
      </trkpt>
      <trkpt lat="49.34847" lon="4.31747">
        <ele>100</ele>
        <time>2018-03-29T16:17:53Z</time>
      </trkpt>
      <trkpt lat="49.34855" lon="4.31766">
        <ele>101</ele>
        <time>2018-03-29T16:18:53Z</time>
      </trkpt>
      <trkpt lat="49.34863" lon="4.31785">
        <ele>101</ele>
        <time>2018-03-29T16:19:53Z</time>
      </trkpt>
      <trkpt lat="49.34866" lon="4.31793">
        <ele>101</ele>
        <time>2018-03-29T16:20:53Z</time>
      </trkpt>
      <trkpt lat="49.34871" lon="4.31803">
        <ele>101</ele>
        <time>2018-03-29T16:21:53Z</time>
      </trkpt>
      <trkpt lat="49.34881" lon="4.31828">
        <ele>101</ele>
        <time>2018-03-29T16:22:53Z</time>
      </trkpt>
      <trkpt lat="49.34891" lon="4.31853">
        <ele>102</ele>
        <time>2018-03-29T16:23:53Z</time>
      </trkpt>
      <trkpt lat="49.34902" lon="4.31881">
        <ele>102</ele>
        <time>2018-03-29T16:24:53Z</time>
      </trkpt>
      <trkpt lat="49.34911" lon="4.31904">
        <ele>102</ele>
        <time>2018-03-29T16:25:53Z</time>
      </trkpt>
      <trkpt lat="49.34921" lon="4.31929">
        <ele>102</ele>
        <time>2018-03-29T16:26:53Z</time>
      </trkpt>
      <trkpt lat="49.3493" lon="4.31957">
        <ele>102</ele>
        <time>2018-03-29T16:27:53Z</time>
      </trkpt>
      <trkpt lat="49.34938" lon="4.31983">
        <ele>103</ele>
        <time>2018-03-29T16:28:53Z</time>
      </trkpt>
      <trkpt lat="49.34947" lon="4.32004">
        <ele>103</ele>
        <time>2018-03-29T16:29:53Z</time>
      </trkpt>
      <trkpt lat="49.34947" lon="4.32004">
        <ele>103</ele>
        <time>2018-03-29T16:30:53Z</time>
      </trkpt>
      <trkpt lat="49.34955" lon="4.31998">
        <ele>103</ele>
        <time>2018-03-29T16:31:53Z</time>
      </trkpt>
      <trkpt lat="49.34977" lon="4.31981">
        <ele>102</ele>
        <time>2018-03-29T16:32:53Z</time>
      </trkpt>
      <trkpt lat="49.35002" lon="4.31964">
        <ele>102</ele>
        <time>2018-03-29T16:33:53Z</time>
      </trkpt>
      <trkpt lat="49.35019" lon="4.31952">
        <ele>102</ele>
        <time>2018-03-29T16:34:53Z</time>
      </trkpt>
      <trkpt lat="49.3503" lon="4.31944">
        <ele>102</ele>
        <time>2018-03-29T16:35:53Z</time>
      </trkpt>
      <trkpt lat="49.3504" lon="4.31932">
        <ele>102</ele>
        <time>2018-03-29T16:36:53Z</time>
      </trkpt>
      <trkpt lat="49.35047" lon="4.31924">
        <ele>102</ele>
        <time>2018-03-29T16:37:53Z</time>
      </trkpt>
      <trkpt lat="49.35049" lon="4.31917">
        <ele>102</ele>
        <time>2018-03-29T16:38:53Z</time>
      </trkpt>
      <trkpt lat="49.35052" lon="4.31911">
        <ele>102</ele>
        <time>2018-03-29T16:39:53Z</time>
      </trkpt>
      <trkpt lat="49.35055" lon="4.31899">
        <ele>102</ele>
        <time>2018-03-29T16:40:53Z</time>
      </trkpt>
      <trkpt lat="49.35057" lon="4.31889">
        <ele>102</ele>
        <time>2018-03-29T16:41:53Z</time>
      </trkpt>
      <trkpt lat="49.3506" lon="4.31875">
        <ele>102</ele>
        <time>2018-03-29T16:42:53Z</time>
      </trkpt>
      <trkpt lat="49.35063" lon="4.31865">
        <ele>102</ele>
        <time>2018-03-29T16:43:53Z</time>
      </trkpt>
      <trkpt lat="49.35066" lon="4.3185">
        <ele>102</ele>
        <time>2018-03-29T16:44:53Z</time>
      </trkpt>
      <trkpt lat="49.3507" lon="4.31836">
        <ele>102</ele>
        <time>2018-03-29T16:45:53Z</time>
      </trkpt>
      <trkpt lat="49.35075" lon="4.31818">
        <ele>101</ele>
        <time>2018-03-29T16:46:53Z</time>
      </trkpt>
      <trkpt lat="49.35079" lon="4.31802">
        <ele>101</ele>
        <time>2018-03-29T16:47:53Z</time>
      </trkpt>
      <trkpt lat="49.35084" lon="4.31785">
        <ele>100</ele>
        <time>2018-03-29T16:48:53Z</time>
      </trkpt>
      <trkpt lat="49.35087" lon="4.31772">
        <ele>100</ele>
        <time>2018-03-29T16:49:53Z</time>
      </trkpt>
      <trkpt lat="49.35091" lon="4.31757">
        <ele>100</ele>
        <time>2018-03-29T16:50:53Z</time>
      </trkpt>
      <trkpt lat="49.35095" lon="4.3174">
        <ele>100</ele>
        <time>2018-03-29T16:51:53Z</time>
      </trkpt>
      <trkpt lat="49.351" lon="4.31724">
        <ele>100</ele>
        <time>2018-03-29T16:52:53Z</time>
      </trkpt>
      <trkpt lat="49.35103" lon="4.31711">
        <ele>100</ele>
        <time>2018-03-29T16:53:53Z</time>
      </trkpt>
      <trkpt lat="49.35108" lon="4.31694">
        <ele>100</ele>
        <time>2018-03-29T16:54:53Z</time>
      </trkpt>
      <trkpt lat="49.35111" lon="4.31684">
        <ele>100</ele>
        <time>2018-03-29T16:55:53Z</time>
      </trkpt>
      <trkpt lat="49.35113" lon="4.31675">
        <ele>100</ele>
        <time>2018-03-29T16:56:53Z</time>
      </trkpt>
      <trkpt lat="49.35116" lon="4.31665">
        <ele>101</ele>
        <time>2018-03-29T16:57:53Z</time>
      </trkpt>
      <trkpt lat="49.35118" lon="4.31654">
        <ele>101</ele>
        <time>2018-03-29T16:58:53Z</time>
      </trkpt>
      <trkpt lat="49.35122" lon="4.31645">
        <ele>101</ele>
        <time>2018-03-29T16:59:53Z</time>
      </trkpt>
      <trkpt lat="49.35129" lon="4.31627">
        <ele>102</ele>
        <time>2018-03-29T17:00:53Z</time>
      </trkpt>
      <trkpt lat="49.35138" lon="4.31609">
        <ele>103</ele>
        <time>2018-03-29T17:01:53Z</time>
      </trkpt>
      <trkpt lat="49.3514" lon="4.31607">
        <ele>103</ele>
        <time>2018-03-29T17:02:53Z</time>
      </trkpt>
      <trkpt lat="49.35141" lon="4.31604">
        <ele>103</ele>
        <time>2018-03-29T17:03:53Z</time>
      </trkpt>
      <trkpt lat="49.35151" lon="4.31589">
        <ele>103</ele>
        <time>2018-03-29T17:04:53Z</time>
      </trkpt>
      <trkpt lat="49.35152" lon="4.31588">
        <ele>103</ele>
        <time>2018-03-29T17:05:53Z</time>
      </trkpt>
      <trkpt lat="49.35154" lon="4.31586">
        <ele>104</ele>
        <time>2018-03-29T17:06:53Z</time>
      </trkpt>
      <trkpt lat="49.35172" lon="4.31568">
        <ele>104</ele>
        <time>2018-03-29T17:07:53Z</time>
      </trkpt>
      <trkpt lat="49.35197" lon="4.31543">
        <ele>105</ele>
        <time>2018-03-29T17:08:53Z</time>
      </trkpt>
      <trkpt lat="49.35227" lon="4.31517">
        <ele>105</ele>
        <time>2018-03-29T17:09:53Z</time>
      </trkpt>
      <trkpt lat="49.35229" lon="4.31515">
        <ele>105</ele>
        <time>2018-03-29T17:10:53Z</time>
      </trkpt>
      <trkpt lat="49.35231" lon="4.31514">
        <ele>105</ele>
        <time>2018-03-29T17:11:53Z</time>
      </trkpt>
      <trkpt lat="49.35268" lon="4.31483">
        <ele>106</ele>
        <time>2018-03-29T17:12:53Z</time>
      </trkpt>
      <trkpt lat="49.35277" lon="4.31475">
        <ele>106</ele>
        <time>2018-03-29T17:13:53Z</time>
      </trkpt>
      <trkpt lat="49.353" lon="4.31456">
        <ele>106</ele>
        <time>2018-03-29T17:14:53Z</time>
      </trkpt>
      <trkpt lat="49.3531" lon="4.31448">
        <ele>107</ele>
        <time>2018-03-29T17:15:53Z</time>
      </trkpt>
      <trkpt lat="49.35354" lon="4.31413">
        <ele>108</ele>
        <time>2018-03-29T17:16:53Z</time>
      </trkpt>
      <trkpt lat="49.35396" lon="4.31379">
        <ele>109</ele>
        <time>2018-03-29T17:17:53Z</time>
      </trkpt>
      <trkpt lat="49.3543" lon="4.31349">
        <ele>109</ele>
        <time>2018-03-29T17:18:53Z</time>
      </trkpt>
      <trkpt lat="49.35463" lon="4.31321">
        <ele>109</ele>
        <time>2018-03-29T17:19:53Z</time>
      </trkpt>
      <trkpt lat="49.35476" lon="4.31311">
        <ele>109</ele>
        <time>2018-03-29T17:20:53Z</time>
      </trkpt>
      <trkpt lat="49.35487" lon="4.31299">
        <ele>109</ele>
        <time>2018-03-29T17:21:53Z</time>
      </trkpt>
      <trkpt lat="49.35496" lon="4.31288">
        <ele>109</ele>
        <time>2018-03-29T17:22:53Z</time>
      </trkpt>
      <trkpt lat="49.35504" lon="4.31276">
        <ele>109</ele>
        <time>2018-03-29T17:23:53Z</time>
      </trkpt>
      <trkpt lat="49.35514" lon="4.31254">
        <ele>109</ele>
        <time>2018-03-29T17:24:53Z</time>
      </trkpt>
      <trkpt lat="49.35527" lon="4.31223">
        <ele>110</ele>
        <time>2018-03-29T17:25:53Z</time>
      </trkpt>
      <trkpt lat="49.35543" lon="4.31181">
        <ele>110</ele>
        <time>2018-03-29T17:26:53Z</time>
      </trkpt>
      <trkpt lat="49.35558" lon="4.31141">
        <ele>110</ele>
        <time>2018-03-29T17:27:53Z</time>
      </trkpt>
      <trkpt lat="49.35576" lon="4.31098">
        <ele>111</ele>
        <time>2018-03-29T17:28:53Z</time>
      </trkpt>
      <trkpt lat="49.35587" lon="4.31073">
        <ele>111</ele>
        <time>2018-03-29T17:29:53Z</time>
      </trkpt>
      <trkpt lat="49.35605" lon="4.31035">
        <ele>112</ele>
        <time>2018-03-29T17:30:53Z</time>
      </trkpt>
      <trkpt lat="49.35628" lon="4.3099">
        <ele>112</ele>
        <time>2018-03-29T17:31:53Z</time>
      </trkpt>
      <trkpt lat="49.35653" lon="4.30944">
        <ele>112</ele>
        <time>2018-03-29T17:32:53Z</time>
      </trkpt>
      <trkpt lat="49.35679" lon="4.30899">
        <ele>112</ele>
        <time>2018-03-29T17:33:53Z</time>
      </trkpt>
      <trkpt lat="49.35697" lon="4.30865">
        <ele>113</ele>
        <time>2018-03-29T17:34:53Z</time>
      </trkpt>
      <trkpt lat="49.3571" lon="4.30843">
        <ele>114</ele>
        <time>2018-03-29T17:35:53Z</time>
      </trkpt>
      <trkpt lat="49.35723" lon="4.3082">
        <ele>114</ele>
        <time>2018-03-29T17:36:53Z</time>
      </trkpt>
      <trkpt lat="49.35735" lon="4.30798">
        <ele>114</ele>
        <time>2018-03-29T17:37:53Z</time>
      </trkpt>
      <trkpt lat="49.35753" lon="4.30769">
        <ele>114</ele>
        <time>2018-03-29T17:38:53Z</time>
      </trkpt>
      <trkpt lat="49.3577" lon="4.30739">
        <ele>115</ele>
        <time>2018-03-29T17:39:53Z</time>
      </trkpt>
      <trkpt lat="49.35789" lon="4.30705">
        <ele>115</ele>
        <time>2018-03-29T17:40:53Z</time>
      </trkpt>
      <trkpt lat="49.358" lon="4.30687">
        <ele>116</ele>
        <time>2018-03-29T17:41:53Z</time>
      </trkpt>
      <trkpt lat="49.35807" lon="4.30671">
        <ele>117</ele>
        <time>2018-03-29T17:42:53Z</time>
      </trkpt>
      <trkpt lat="49.35819" lon="4.30652">
        <ele>118</ele>
        <time>2018-03-29T17:43:53Z</time>
      </trkpt>
      <trkpt lat="49.3584" lon="4.30619">
        <ele>119</ele>
        <time>2018-03-29T17:44:53Z</time>
      </trkpt>
      <trkpt lat="49.35866" lon="4.30584">
        <ele>120</ele>
        <time>2018-03-29T17:45:53Z</time>
      </trkpt>
      <trkpt lat="49.35892" lon="4.30552">
        <ele>121</ele>
        <time>2018-03-29T17:46:53Z</time>
      </trkpt>
      <trkpt lat="49.35921" lon="4.30519">
        <ele>122</ele>
        <time>2018-03-29T17:47:53Z</time>
      </trkpt>
      <trkpt lat="49.35948" lon="4.30487">
        <ele>125</ele>
        <time>2018-03-29T17:48:53Z</time>
      </trkpt>
      <trkpt lat="49.35975" lon="4.30456">
        <ele>128</ele>
        <time>2018-03-29T17:49:53Z</time>
      </trkpt>
      <trkpt lat="49.3599" lon="4.30437">
        <ele>130</ele>
        <time>2018-03-29T17:50:53Z</time>
      </trkpt>
      <trkpt lat="49.36004" lon="4.3042">
        <ele>132</ele>
        <time>2018-03-29T17:51:53Z</time>
      </trkpt>
      <trkpt lat="49.36007" lon="4.30417">
        <ele>132</ele>
        <time>2018-03-29T17:52:53Z</time>
      </trkpt>
      <trkpt lat="49.3602" lon="4.30396">
        <ele>134</ele>
        <time>2018-03-29T17:53:53Z</time>
      </trkpt>
      <trkpt lat="49.3604" lon="4.30363">
        <ele>136</ele>
        <time>2018-03-29T17:54:53Z</time>
      </trkpt>
      <trkpt lat="49.3606" lon="4.30331">
        <ele>139</ele>
        <time>2018-03-29T17:55:53Z</time>
      </trkpt>
      <trkpt lat="49.36083" lon="4.30296">
        <ele>140</ele>
        <time>2018-03-29T17:56:53Z</time>
      </trkpt>
      <trkpt lat="49.36102" lon="4.30267">
        <ele>143</ele>
        <time>2018-03-29T17:57:53Z</time>
      </trkpt>
      <trkpt lat="49.36116" lon="4.30245">
        <ele>144</ele>
        <time>2018-03-29T17:58:53Z</time>
      </trkpt>
      <trkpt lat="49.3613" lon="4.30221">
        <ele>146</ele>
        <time>2018-03-29T17:59:53Z</time>
      </trkpt>
      <trkpt lat="49.36153" lon="4.30187">
        <ele>147</ele>
        <time>2018-03-29T18:00:53Z</time>
      </trkpt>
      <trkpt lat="49.36173" lon="4.30159">
        <ele>148</ele>
        <time>2018-03-29T18:01:53Z</time>
      </trkpt>
      <trkpt lat="49.36178" lon="4.3015">
        <ele>148</ele>
        <time>2018-03-29T18:02:53Z</time>
      </trkpt>
      <trkpt lat="49.36196" lon="4.30124">
        <ele>148</ele>
        <time>2018-03-29T18:03:53Z</time>
      </trkpt>
      <trkpt lat="49.36203" lon="4.30115">
        <ele>148</ele>
        <time>2018-03-29T18:04:53Z</time>
      </trkpt>
      <trkpt lat="49.36207" lon="4.3011">
        <ele>148</ele>
        <time>2018-03-29T18:05:53Z</time>
      </trkpt>
      <trkpt lat="49.3623" lon="4.30083">
        <ele>147</ele>
        <time>2018-03-29T18:06:53Z</time>
      </trkpt>
      <trkpt lat="49.36261" lon="4.30048">
        <ele>146</ele>
        <time>2018-03-29T18:07:53Z</time>
      </trkpt>
      <trkpt lat="49.3629" lon="4.30017">
        <ele>144</ele>
        <time>2018-03-29T18:08:53Z</time>
      </trkpt>
      <trkpt lat="49.36308" lon="4.29998">
        <ele>143</ele>
        <time>2018-03-29T18:09:53Z</time>
      </trkpt>
      <trkpt lat="49.36315" lon="4.2999">
        <ele>142</ele>
        <time>2018-03-29T18:10:53Z</time>
      </trkpt>
      <trkpt lat="49.36322" lon="4.29982">
        <ele>142</ele>
        <time>2018-03-29T18:11:53Z</time>
      </trkpt>
      <trkpt lat="49.3634" lon="4.29959">
        <ele>140</ele>
        <time>2018-03-29T18:12:53Z</time>
      </trkpt>
      <trkpt lat="49.36365" lon="4.2993">
        <ele>138</ele>
        <time>2018-03-29T18:13:53Z</time>
      </trkpt>
      <trkpt lat="49.36401" lon="4.2989">
        <ele>134</ele>
        <time>2018-03-29T18:14:53Z</time>
      </trkpt>
      <trkpt lat="49.3643" lon="4.29856">
        <ele>132</ele>
        <time>2018-03-29T18:15:53Z</time>
      </trkpt>
      <trkpt lat="49.36449" lon="4.29834">
        <ele>130</ele>
        <time>2018-03-29T18:16:53Z</time>
      </trkpt>
      <trkpt lat="49.36466" lon="4.29815">
        <ele>129</ele>
        <time>2018-03-29T18:17:53Z</time>
      </trkpt>
      <trkpt lat="49.36482" lon="4.29796">
        <ele>128</ele>
        <time>2018-03-29T18:18:53Z</time>
      </trkpt>
      <trkpt lat="49.36503" lon="4.29773">
        <ele>127</ele>
        <time>2018-03-29T18:19:53Z</time>
      </trkpt>
      <trkpt lat="49.3652" lon="4.29753">
        <ele>126</ele>
        <time>2018-03-29T18:20:53Z</time>
      </trkpt>
      <trkpt lat="49.36542" lon="4.29728">
        <ele>126</ele>
        <time>2018-03-29T18:21:53Z</time>
      </trkpt>
      <trkpt lat="49.36565" lon="4.29704">
        <ele>125</ele>
        <time>2018-03-29T18:22:53Z</time>
      </trkpt>
      <trkpt lat="49.36592" lon="4.29675">
        <ele>125</ele>
        <time>2018-03-29T18:23:53Z</time>
      </trkpt>
      <trkpt lat="49.36615" lon="4.29651">
        <ele>125</ele>
        <time>2018-03-29T18:24:53Z</time>
      </trkpt>
      <trkpt lat="49.36641" lon="4.29625">
        <ele>126</ele>
        <time>2018-03-29T18:25:53Z</time>
      </trkpt>
      <trkpt lat="49.36662" lon="4.29604">
        <ele>126</ele>
        <time>2018-03-29T18:26:53Z</time>
      </trkpt>
      <trkpt lat="49.3669" lon="4.29576">
        <ele>126</ele>
        <time>2018-03-29T18:27:53Z</time>
      </trkpt>
      <trkpt lat="49.3672" lon="4.29545">
        <ele>126</ele>
        <time>2018-03-29T18:28:53Z</time>
      </trkpt>
      <trkpt lat="49.36747" lon="4.29518">
        <ele>126</ele>
        <time>2018-03-29T18:29:53Z</time>
      </trkpt>
      <trkpt lat="49.36771" lon="4.29494">
        <ele>126</ele>
        <time>2018-03-29T18:30:53Z</time>
      </trkpt>
      <trkpt lat="49.36789" lon="4.29475">
        <ele>126</ele>
        <time>2018-03-29T18:31:53Z</time>
      </trkpt>
      <trkpt lat="49.36802" lon="4.29463">
        <ele>125</ele>
        <time>2018-03-29T18:32:53Z</time>
      </trkpt>
      <trkpt lat="49.36826" lon="4.29439">
        <ele>125</ele>
        <time>2018-03-29T18:33:53Z</time>
      </trkpt>
      <trkpt lat="49.36853" lon="4.29412">
        <ele>124</ele>
        <time>2018-03-29T18:34:53Z</time>
      </trkpt>
      <trkpt lat="49.36886" lon="4.2938">
        <ele>123</ele>
        <time>2018-03-29T18:35:53Z</time>
      </trkpt>
      <trkpt lat="49.36912" lon="4.29354">
        <ele>123</ele>
        <time>2018-03-29T18:36:53Z</time>
      </trkpt>
      <trkpt lat="49.36948" lon="4.29318">
        <ele>123</ele>
        <time>2018-03-29T18:37:53Z</time>
      </trkpt>
      <trkpt lat="49.36964" lon="4.29301">
        <ele>123</ele>
        <time>2018-03-29T18:38:53Z</time>
      </trkpt>
      <trkpt lat="49.36975" lon="4.2929">
        <ele>123</ele>
        <time>2018-03-29T18:39:53Z</time>
      </trkpt>
      <trkpt lat="49.36994" lon="4.29271">
        <ele>123</ele>
        <time>2018-03-29T18:40:53Z</time>
      </trkpt>
      <trkpt lat="49.37017" lon="4.29247">
        <ele>123</ele>
        <time>2018-03-29T18:41:53Z</time>
      </trkpt>
      <trkpt lat="49.37044" lon="4.29219">
        <ele>123</ele>
        <time>2018-03-29T18:42:53Z</time>
      </trkpt>
      <trkpt lat="49.37062" lon="4.29201">
        <ele>123</ele>
        <time>2018-03-29T18:43:53Z</time>
      </trkpt>
      <trkpt lat="49.37089" lon="4.29174">
        <ele>122</ele>
        <time>2018-03-29T18:44:53Z</time>
      </trkpt>
      <trkpt lat="49.37125" lon="4.29138">
        <ele>120</ele>
        <time>2018-03-29T18:45:53Z</time>
      </trkpt>
      <trkpt lat="49.3716" lon="4.29104">
        <ele>119</ele>
        <time>2018-03-29T18:46:53Z</time>
      </trkpt>
      <trkpt lat="49.37202" lon="4.29062">
        <ele>118</ele>
        <time>2018-03-29T18:47:53Z</time>
      </trkpt>
      <trkpt lat="49.37229" lon="4.29035">
        <ele>117</ele>
        <time>2018-03-29T18:48:53Z</time>
      </trkpt>
      <trkpt lat="49.37256" lon="4.29008">
        <ele>116</ele>
        <time>2018-03-29T18:49:53Z</time>
      </trkpt>
      <trkpt lat="49.37279" lon="4.28985">
        <ele>115</ele>
        <time>2018-03-29T18:50:53Z</time>
      </trkpt>
      <trkpt lat="49.37311" lon="4.28954">
        <ele>114</ele>
        <time>2018-03-29T18:51:53Z</time>
      </trkpt>
      <trkpt lat="49.37339" lon="4.28927">
        <ele>114</ele>
        <time>2018-03-29T18:52:53Z</time>
      </trkpt>
      <trkpt lat="49.37369" lon="4.28897">
        <ele>115</ele>
        <time>2018-03-29T18:53:53Z</time>
      </trkpt>
      <trkpt lat="49.37386" lon="4.28881">
        <ele>115</ele>
        <time>2018-03-29T18:54:53Z</time>
      </trkpt>
      <trkpt lat="49.3741" lon="4.28862">
        <ele>115</ele>
        <time>2018-03-29T18:55:53Z</time>
      </trkpt>
      <trkpt lat="49.37445" lon="4.2884">
        <ele>115</ele>
        <time>2018-03-29T18:56:53Z</time>
      </trkpt>
      <trkpt lat="49.37484" lon="4.28818">
        <ele>116</ele>
        <time>2018-03-29T18:57:53Z</time>
      </trkpt>
      <trkpt lat="49.37526" lon="4.28792">
        <ele>116</ele>
        <time>2018-03-29T18:58:53Z</time>
      </trkpt>
      <trkpt lat="49.37573" lon="4.28763">
        <ele>114</ele>
        <time>2018-03-29T18:59:53Z</time>
      </trkpt>
      <trkpt lat="49.37613" lon="4.28739">
        <ele>112</ele>
        <time>2018-03-29T19:00:53Z</time>
      </trkpt>
      <trkpt lat="49.37662" lon="4.28709">
        <ele>109</ele>
        <time>2018-03-29T19:01:53Z</time>
      </trkpt>
      <trkpt lat="49.37705" lon="4.28683">
        <ele>108</ele>
        <time>2018-03-29T19:02:53Z</time>
      </trkpt>
      <trkpt lat="49.37752" lon="4.28655">
        <ele>107</ele>
        <time>2018-03-29T19:03:53Z</time>
      </trkpt>
      <trkpt lat="49.37777" lon="4.2864">
        <ele>108</ele>
        <time>2018-03-29T19:04:53Z</time>
      </trkpt>
      <trkpt lat="49.37792" lon="4.28632">
        <ele>109</ele>
        <time>2018-03-29T19:05:53Z</time>
      </trkpt>
      <trkpt lat="49.37813" lon="4.2862">
        <ele>110</ele>
        <time>2018-03-29T19:06:53Z</time>
      </trkpt>
      <trkpt lat="49.3783" lon="4.28608">
        <ele>111</ele>
        <time>2018-03-29T19:07:53Z</time>
      </trkpt>
      <trkpt lat="49.37847" lon="4.28594">
        <ele>111</ele>
        <time>2018-03-29T19:08:53Z</time>
      </trkpt>
      <trkpt lat="49.37865" lon="4.28576">
        <ele>111</ele>
        <time>2018-03-29T19:09:53Z</time>
      </trkpt>
      <trkpt lat="49.37865" lon="4.28576">
        <ele>111</ele>
        <time>2018-03-29T19:10:53Z</time>
      </trkpt>
      <trkpt lat="49.37875" lon="4.286">
        <ele>111</ele>
        <time>2018-03-29T19:11:53Z</time>
      </trkpt>
      <trkpt lat="49.37876" lon="4.28603">
        <ele>111</ele>
        <time>2018-03-29T19:12:53Z</time>
      </trkpt>
      <trkpt lat="49.37891" lon="4.28641">
        <ele>111</ele>
        <time>2018-03-29T19:13:53Z</time>
      </trkpt>
      <trkpt lat="49.37896" lon="4.28654">
        <ele>110</ele>
        <time>2018-03-29T19:14:53Z</time>
      </trkpt>
      <trkpt lat="49.37905" lon="4.28679">
        <ele>110</ele>
        <time>2018-03-29T19:15:53Z</time>
      </trkpt>
      <trkpt lat="49.37919" lon="4.28707">
        <ele>110</ele>
        <time>2018-03-29T19:16:53Z</time>
      </trkpt>
      <trkpt lat="49.37925" lon="4.2872">
        <ele>109</ele>
        <time>2018-03-29T19:17:53Z</time>
      </trkpt>
      <trkpt lat="49.37932" lon="4.28734">
        <ele>109</ele>
        <time>2018-03-29T19:18:53Z</time>
      </trkpt>
      <trkpt lat="49.37941" lon="4.2875">
        <ele>109</ele>
        <time>2018-03-29T19:19:53Z</time>
      </trkpt>
      <trkpt lat="49.37947" lon="4.2876">
        <ele>109</ele>
        <time>2018-03-29T19:20:53Z</time>
      </trkpt>
      <trkpt lat="49.37953" lon="4.28772">
        <ele>109</ele>
        <time>2018-03-29T19:21:53Z</time>
      </trkpt>
      <trkpt lat="49.37971" lon="4.28795">
        <ele>109</ele>
        <time>2018-03-29T19:22:53Z</time>
      </trkpt>
      <trkpt lat="49.37984" lon="4.28809">
        <ele>110</ele>
        <time>2018-03-29T19:23:53Z</time>
      </trkpt>
      <trkpt lat="49.37993" lon="4.28816">
        <ele>110</ele>
        <time>2018-03-29T19:24:53Z</time>
      </trkpt>
      <trkpt lat="49.38002" lon="4.28822">
        <ele>110</ele>
        <time>2018-03-29T19:25:53Z</time>
      </trkpt>
      <trkpt lat="49.38015" lon="4.28829">
        <ele>110</ele>
        <time>2018-03-29T19:26:53Z</time>
      </trkpt>
      <trkpt lat="49.38023" lon="4.28833">
        <ele>111</ele>
        <time>2018-03-29T19:27:53Z</time>
      </trkpt>
      <trkpt lat="49.38032" lon="4.28836">
        <ele>111</ele>
        <time>2018-03-29T19:28:53Z</time>
      </trkpt>
      <trkpt lat="49.38047" lon="4.28839">
        <ele>111</ele>
        <time>2018-03-29T19:29:53Z</time>
      </trkpt>
      <trkpt lat="49.38067" lon="4.28845">
        <ele>112</ele>
        <time>2018-03-29T19:30:53Z</time>
      </trkpt>
      <trkpt lat="49.38088" lon="4.28851">
        <ele>112</ele>
        <time>2018-03-29T19:31:53Z</time>
      </trkpt>
      <trkpt lat="49.38097" lon="4.28854">
        <ele>112</ele>
        <time>2018-03-29T19:32:53Z</time>
      </trkpt>
      <trkpt lat="49.38106" lon="4.28857">
        <ele>113</ele>
        <time>2018-03-29T19:33:53Z</time>
      </trkpt>
      <trkpt lat="49.38111" lon="4.2886">
        <ele>113</ele>
        <time>2018-03-29T19:34:53Z</time>
      </trkpt>
      <trkpt lat="49.38127" lon="4.28871">
        <ele>114</ele>
        <time>2018-03-29T19:35:53Z</time>
      </trkpt>
      <trkpt lat="49.38156" lon="4.28896">
        <ele>115</ele>
        <time>2018-03-29T19:36:53Z</time>
      </trkpt>
      <trkpt lat="49.38188" lon="4.28926">
        <ele>116</ele>
        <time>2018-03-29T19:37:53Z</time>
      </trkpt>
      <trkpt lat="49.38225" lon="4.28961">
        <ele>117</ele>
        <time>2018-03-29T19:38:53Z</time>
      </trkpt>
      <trkpt lat="49.38263" lon="4.28997">
        <ele>117</ele>
        <time>2018-03-29T19:39:53Z</time>
      </trkpt>
      <trkpt lat="49.38294" lon="4.29024">
        <ele>118</ele>
        <time>2018-03-29T19:40:53Z</time>
      </trkpt>
      <trkpt lat="49.38318" lon="4.29043">
        <ele>118</ele>
        <time>2018-03-29T19:41:53Z</time>
      </trkpt>
      <trkpt lat="49.38329" lon="4.2905">
        <ele>118</ele>
        <time>2018-03-29T19:42:53Z</time>
      </trkpt>
      <trkpt lat="49.38342" lon="4.29059">
        <ele>119</ele>
        <time>2018-03-29T19:43:53Z</time>
      </trkpt>
      <trkpt lat="49.38367" lon="4.29076">
        <ele>119</ele>
        <time>2018-03-29T19:44:53Z</time>
      </trkpt>
      <trkpt lat="49.38397" lon="4.29096">
        <ele>119</ele>
        <time>2018-03-29T19:45:53Z</time>
      </trkpt>
      <trkpt lat="49.38433" lon="4.2912">
        <ele>120</ele>
        <time>2018-03-29T19:46:53Z</time>
      </trkpt>
      <trkpt lat="49.38465" lon="4.29141">
        <ele>121</ele>
        <time>2018-03-29T19:47:53Z</time>
      </trkpt>
      <trkpt lat="49.38495" lon="4.2916">
        <ele>123</ele>
        <time>2018-03-29T19:48:53Z</time>
      </trkpt>
      <trkpt lat="49.38512" lon="4.29172">
        <ele>123</ele>
        <time>2018-03-29T19:49:53Z</time>
      </trkpt>
      <trkpt lat="49.38539" lon="4.29189">
        <ele>124</ele>
        <time>2018-03-29T19:50:53Z</time>
      </trkpt>
      <trkpt lat="49.38572" lon="4.29211">
        <ele>124</ele>
        <time>2018-03-29T19:51:53Z</time>
      </trkpt>
      <trkpt lat="49.3861" lon="4.29236">
        <ele>124</ele>
        <time>2018-03-29T19:52:53Z</time>
      </trkpt>
      <trkpt lat="49.38647" lon="4.2926">
        <ele>125</ele>
        <time>2018-03-29T19:53:53Z</time>
      </trkpt>
      <trkpt lat="49.38678" lon="4.29281">
        <ele>125</ele>
        <time>2018-03-29T19:54:53Z</time>
      </trkpt>
      <trkpt lat="49.38706" lon="4.29299">
        <ele>126</ele>
        <time>2018-03-29T19:55:53Z</time>
      </trkpt>
      <trkpt lat="49.38732" lon="4.29316">
        <ele>127</ele>
        <time>2018-03-29T19:56:53Z</time>
      </trkpt>
      <trkpt lat="49.38758" lon="4.29333">
        <ele>127</ele>
        <time>2018-03-29T19:57:53Z</time>
      </trkpt>
      <trkpt lat="49.38784" lon="4.2935">
        <ele>127</ele>
        <time>2018-03-29T19:58:53Z</time>
      </trkpt>
      <trkpt lat="49.38804" lon="4.29364">
        <ele>127</ele>
        <time>2018-03-29T19:59:53Z</time>
      </trkpt>
      <trkpt lat="49.38817" lon="4.29372">
        <ele>127</ele>
        <time>2018-03-29T20:00:53Z</time>
      </trkpt>
      <trkpt lat="49.38844" lon="4.29388">
        <ele>127</ele>
        <time>2018-03-29T20:01:53Z</time>
      </trkpt>
      <trkpt lat="49.38864" lon="4.294">
        <ele>127</ele>
        <time>2018-03-29T20:02:53Z</time>
      </trkpt>
      <trkpt lat="49.38879" lon="4.29408">
        <ele>127</ele>
        <time>2018-03-29T20:03:53Z</time>
      </trkpt>
      <trkpt lat="49.38892" lon="4.29414">
        <ele>127</ele>
        <time>2018-03-29T20:04:53Z</time>
      </trkpt>
      <trkpt lat="49.38916" lon="4.29426">
        <ele>126</ele>
        <time>2018-03-29T20:05:53Z</time>
      </trkpt>
      <trkpt lat="49.38938" lon="4.29435">
        <ele>126</ele>
        <time>2018-03-29T20:06:53Z</time>
      </trkpt>
      <trkpt lat="49.38965" lon="4.29446">
        <ele>126</ele>
        <time>2018-03-29T20:07:53Z</time>
      </trkpt>
      <trkpt lat="49.39002" lon="4.29457">
        <ele>126</ele>
        <time>2018-03-29T20:08:53Z</time>
      </trkpt>
      <trkpt lat="49.39034" lon="4.29466">
        <ele>126</ele>
        <time>2018-03-29T20:09:53Z</time>
      </trkpt>
      <trkpt lat="49.39076" lon="4.29478">
        <ele>127</ele>
        <time>2018-03-29T20:10:53Z</time>
      </trkpt>
      <trkpt lat="49.39091" lon="4.29482">
        <ele>127</ele>
        <time>2018-03-29T20:11:53Z</time>
      </trkpt>
      <trkpt lat="49.39105" lon="4.29486">
        <ele>126</ele>
        <time>2018-03-29T20:12:53Z</time>
      </trkpt>
      <trkpt lat="49.39133" lon="4.29494">
        <ele>125</ele>
        <time>2018-03-29T20:13:53Z</time>
      </trkpt>
      <trkpt lat="49.39162" lon="4.29502">
        <ele>124</ele>
        <time>2018-03-29T20:14:53Z</time>
      </trkpt>
      <trkpt lat="49.39191" lon="4.2951">
        <ele>123</ele>
        <time>2018-03-29T20:15:53Z</time>
      </trkpt>
      <trkpt lat="49.3921" lon="4.29514">
        <ele>122</ele>
        <time>2018-03-29T20:16:53Z</time>
      </trkpt>
      <trkpt lat="49.39228" lon="4.29519">
        <ele>121</ele>
        <time>2018-03-29T20:17:53Z</time>
      </trkpt>
      <trkpt lat="49.39244" lon="4.29522">
        <ele>120</ele>
        <time>2018-03-29T20:18:53Z</time>
      </trkpt>
      <trkpt lat="49.39268" lon="4.29526">
        <ele>119</ele>
        <time>2018-03-29T20:19:53Z</time>
      </trkpt>
      <trkpt lat="49.39293" lon="4.2953">
        <ele>118</ele>
        <time>2018-03-29T20:20:53Z</time>
      </trkpt>
      <trkpt lat="49.39317" lon="4.29534">
        <ele>117</ele>
        <time>2018-03-29T20:21:53Z</time>
      </trkpt>
      <trkpt lat="49.39341" lon="4.29538">
        <ele>115</ele>
        <time>2018-03-29T20:22:53Z</time>
      </trkpt>
      <trkpt lat="49.39363" lon="4.29546">
        <ele>114</ele>
        <time>2018-03-29T20:23:53Z</time>
      </trkpt>
      <trkpt lat="49.39385" lon="4.29559">
        <ele>113</ele>
        <time>2018-03-29T20:24:53Z</time>
      </trkpt>
      <trkpt lat="49.39416" lon="4.29586">
        <ele>111</ele>
        <time>2018-03-29T20:25:53Z</time>
      </trkpt>
      <trkpt lat="49.39444" lon="4.2961">
        <ele>111</ele>
        <time>2018-03-29T20:26:53Z</time>
      </trkpt>
      <trkpt lat="49.39469" lon="4.29632">
        <ele>111</ele>
        <time>2018-03-29T20:27:53Z</time>
      </trkpt>
      <trkpt lat="49.39494" lon="4.29656">
        <ele>111</ele>
        <time>2018-03-29T20:28:53Z</time>
      </trkpt>
      <trkpt lat="49.39525" lon="4.29682">
        <ele>111</ele>
        <time>2018-03-29T20:29:53Z</time>
      </trkpt>
      <trkpt lat="49.39556" lon="4.2971">
        <ele>112</ele>
        <time>2018-03-29T20:30:53Z</time>
      </trkpt>
      <trkpt lat="49.39583" lon="4.29734">
        <ele>112</ele>
        <time>2018-03-29T20:31:53Z</time>
      </trkpt>
      <trkpt lat="49.39615" lon="4.29762">
        <ele>111</ele>
        <time>2018-03-29T20:32:53Z</time>
      </trkpt>
      <trkpt lat="49.39647" lon="4.29788">
        <ele>111</ele>
        <time>2018-03-29T20:33:53Z</time>
      </trkpt>
      <trkpt lat="49.39676" lon="4.29809">
        <ele>111</ele>
        <time>2018-03-29T20:34:53Z</time>
      </trkpt>
      <trkpt lat="49.39701" lon="4.29823">
        <ele>110</ele>
        <time>2018-03-29T20:35:53Z</time>
      </trkpt>
      <trkpt lat="49.3973" lon="4.29836">
        <ele>109</ele>
        <time>2018-03-29T20:36:53Z</time>
      </trkpt>
      <trkpt lat="49.39764" lon="4.29851">
        <ele>108</ele>
        <time>2018-03-29T20:37:53Z</time>
      </trkpt>
      <trkpt lat="49.39798" lon="4.29867">
        <ele>108</ele>
        <time>2018-03-29T20:38:53Z</time>
      </trkpt>
      <trkpt lat="49.39836" lon="4.29883">
        <ele>107</ele>
        <time>2018-03-29T20:39:53Z</time>
      </trkpt>
      <trkpt lat="49.39867" lon="4.29897">
        <ele>108</ele>
        <time>2018-03-29T20:40:53Z</time>
      </trkpt>
      <trkpt lat="49.39905" lon="4.29914">
        <ele>109</ele>
        <time>2018-03-29T20:41:53Z</time>
      </trkpt>
      <trkpt lat="49.39939" lon="4.29929">
        <ele>109</ele>
        <time>2018-03-29T20:42:53Z</time>
      </trkpt>
      <trkpt lat="49.39984" lon="4.2995">
        <ele>109</ele>
        <time>2018-03-29T20:43:53Z</time>
      </trkpt>
      <trkpt lat="49.40019" lon="4.29961">
        <ele>108</ele>
        <time>2018-03-29T20:44:53Z</time>
      </trkpt>
      <trkpt lat="49.40044" lon="4.29968">
        <ele>107</ele>
        <time>2018-03-29T20:45:53Z</time>
      </trkpt>
      <trkpt lat="49.40079" lon="4.29977">
        <ele>106</ele>
        <time>2018-03-29T20:46:53Z</time>
      </trkpt>
      <trkpt lat="49.40115" lon="4.29985">
        <ele>104</ele>
        <time>2018-03-29T20:47:53Z</time>
      </trkpt>
      <trkpt lat="49.40142" lon="4.29992">
        <ele>102</ele>
        <time>2018-03-29T20:48:53Z</time>
      </trkpt>
      <trkpt lat="49.40176" lon="4.3">
        <ele>101</ele>
        <time>2018-03-29T20:49:53Z</time>
      </trkpt>
      <trkpt lat="49.40216" lon="4.3001">
        <ele>101</ele>
        <time>2018-03-29T20:50:53Z</time>
      </trkpt>
      <trkpt lat="49.40261" lon="4.30022">
        <ele>101</ele>
        <time>2018-03-29T20:51:53Z</time>
      </trkpt>
      <trkpt lat="49.40294" lon="4.30032">
        <ele>102</ele>
        <time>2018-03-29T20:52:53Z</time>
      </trkpt>
      <trkpt lat="49.40327" lon="4.3004">
        <ele>103</ele>
        <time>2018-03-29T20:53:53Z</time>
      </trkpt>
      <trkpt lat="49.40357" lon="4.30048">
        <ele>104</ele>
        <time>2018-03-29T20:54:53Z</time>
      </trkpt>
      <trkpt lat="49.40386" lon="4.30056">
        <ele>105</ele>
        <time>2018-03-29T20:55:53Z</time>
      </trkpt>
      <trkpt lat="49.40409" lon="4.30061">
        <ele>105</ele>
        <time>2018-03-29T20:56:53Z</time>
      </trkpt>
      <trkpt lat="49.40424" lon="4.30064">
        <ele>105</ele>
        <time>2018-03-29T20:57:53Z</time>
      </trkpt>
      <trkpt lat="49.40435" lon="4.30066">
        <ele>105</ele>
        <time>2018-03-29T20:58:53Z</time>
      </trkpt>
      <trkpt lat="49.40444" lon="4.30067">
        <ele>105</ele>
        <time>2018-03-29T20:59:53Z</time>
      </trkpt>
      <trkpt lat="49.40456" lon="4.30067">
        <ele>105</ele>
        <time>2018-03-29T21:00:53Z</time>
      </trkpt>
      <trkpt lat="49.40522" lon="4.30061">
        <ele>103</ele>
        <time>2018-03-29T21:01:53Z</time>
      </trkpt>
      <trkpt lat="49.40531" lon="4.30061">
        <ele>103</ele>
        <time>2018-03-29T21:02:53Z</time>
      </trkpt>
      <trkpt lat="49.40531" lon="4.30061">
        <ele>103</ele>
        <time>2018-03-29T21:03:53Z</time>
      </trkpt>
      <trkpt lat="49.40541" lon="4.3006">
        <ele>102</ele>
        <time>2018-03-29T21:04:53Z</time>
      </trkpt>
      <trkpt lat="49.40552" lon="4.30062">
        <ele>102</ele>
        <time>2018-03-29T21:05:53Z</time>
      </trkpt>
      <trkpt lat="49.40564" lon="4.30064">
        <ele>101</ele>
        <time>2018-03-29T21:06:53Z</time>
      </trkpt>
      <trkpt lat="49.40575" lon="4.30067">
        <ele>100</ele>
        <time>2018-03-29T21:07:53Z</time>
      </trkpt>
      <trkpt lat="49.40584" lon="4.30071">
        <ele>100</ele>
        <time>2018-03-29T21:08:53Z</time>
      </trkpt>
      <trkpt lat="49.40595" lon="4.30077">
        <ele>99</ele>
        <time>2018-03-29T21:09:53Z</time>
      </trkpt>
      <trkpt lat="49.40616" lon="4.3009">
        <ele>98</ele>
        <time>2018-03-29T21:10:53Z</time>
      </trkpt>
      <trkpt lat="49.40664" lon="4.30126">
        <ele>96</ele>
        <time>2018-03-29T21:11:53Z</time>
      </trkpt>
      <trkpt lat="49.40711" lon="4.30161">
        <ele>93</ele>
        <time>2018-03-29T21:12:53Z</time>
      </trkpt>
      <trkpt lat="49.40726" lon="4.30171">
        <ele>93</ele>
        <time>2018-03-29T21:13:53Z</time>
      </trkpt>
      <trkpt lat="49.40726" lon="4.30171">
        <ele>93</ele>
        <time>2018-03-29T21:14:53Z</time>
      </trkpt>
      <trkpt lat="49.40756" lon="4.30193">
        <ele>91</ele>
        <time>2018-03-29T21:15:53Z</time>
      </trkpt>
      <trkpt lat="49.40773" lon="4.30204">
        <ele>90</ele>
        <time>2018-03-29T21:16:53Z</time>
      </trkpt>
      <trkpt lat="49.40782" lon="4.30209">
        <ele>90</ele>
        <time>2018-03-29T21:17:53Z</time>
      </trkpt>
      <trkpt lat="49.40791" lon="4.30213">
        <ele>89</ele>
        <time>2018-03-29T21:18:53Z</time>
      </trkpt>
      <trkpt lat="49.40797" lon="4.30216">
        <ele>89</ele>
        <time>2018-03-29T21:19:53Z</time>
      </trkpt>
      <trkpt lat="49.40802" lon="4.30217">
        <ele>88</ele>
        <time>2018-03-29T21:20:53Z</time>
      </trkpt>
      <trkpt lat="49.40815" lon="4.30222">
        <ele>88</ele>
        <time>2018-03-29T21:21:53Z</time>
      </trkpt>
      <trkpt lat="49.40836" lon="4.30227">
        <ele>86</ele>
        <time>2018-03-29T21:22:53Z</time>
      </trkpt>
      <trkpt lat="49.40863" lon="4.30232">
        <ele>86</ele>
        <time>2018-03-29T21:23:53Z</time>
      </trkpt>
      <trkpt lat="49.40901" lon="4.3024">
        <ele>84</ele>
        <time>2018-03-29T21:24:53Z</time>
      </trkpt>
      <trkpt lat="49.40926" lon="4.30244">
        <ele>84</ele>
        <time>2018-03-29T21:25:53Z</time>
      </trkpt>
      <trkpt lat="49.40974" lon="4.30249">
        <ele>84</ele>
        <time>2018-03-29T21:26:53Z</time>
      </trkpt>
      <trkpt lat="49.40981" lon="4.3025">
        <ele>84</ele>
        <time>2018-03-29T21:27:53Z</time>
      </trkpt>
      <trkpt lat="49.40987" lon="4.30251">
        <ele>84</ele>
        <time>2018-03-29T21:28:53Z</time>
      </trkpt>
      <trkpt lat="49.40993" lon="4.30251">
        <ele>84</ele>
        <time>2018-03-29T21:29:53Z</time>
      </trkpt>
      <trkpt lat="49.40999" lon="4.30251">
        <ele>84</ele>
        <time>2018-03-29T21:30:53Z</time>
      </trkpt>
      <trkpt lat="49.41007" lon="4.3025">
        <ele>84</ele>
        <time>2018-03-29T21:31:53Z</time>
      </trkpt>
      <trkpt lat="49.41038" lon="4.30246">
        <ele>83</ele>
        <time>2018-03-29T21:32:53Z</time>
      </trkpt>
      <trkpt lat="49.41107" lon="4.30234">
        <ele>82</ele>
        <time>2018-03-29T21:33:53Z</time>
      </trkpt>
      <trkpt lat="49.41113" lon="4.30233">
        <ele>82</ele>
        <time>2018-03-29T21:34:53Z</time>
      </trkpt>
      <trkpt lat="49.41128" lon="4.30233">
        <ele>82</ele>
        <time>2018-03-29T21:35:53Z</time>
      </trkpt>
      <trkpt lat="49.41128" lon="4.30233">
        <ele>82</ele>
        <time>2018-03-29T21:36:53Z</time>
      </trkpt>
      <trkpt lat="49.41198" lon="4.30226">
        <ele>82</ele>
        <time>2018-03-29T21:37:53Z</time>
      </trkpt>
      <trkpt lat="49.41198" lon="4.30226">
        <ele>82</ele>
        <time>2018-03-29T21:38:53Z</time>
      </trkpt>
      <trkpt lat="49.41198" lon="4.30234">
        <ele>82</ele>
        <time>2018-03-29T21:39:53Z</time>
      </trkpt>
      <trkpt lat="49.41198" lon="4.30244">
        <ele>82</ele>
        <time>2018-03-29T21:40:53Z</time>
      </trkpt>
      <trkpt lat="49.41198" lon="4.30252">
        <ele>82</ele>
        <time>2018-03-29T21:41:53Z</time>
      </trkpt>
      <trkpt lat="49.41197" lon="4.30264">
        <ele>82</ele>
        <time>2018-03-29T21:42:53Z</time>
      </trkpt>
      <trkpt lat="49.41195" lon="4.30286">
        <ele>82</ele>
        <time>2018-03-29T21:43:53Z</time>
      </trkpt>
      <trkpt lat="49.41187" lon="4.30351">
        <ele>82</ele>
        <time>2018-03-29T21:44:53Z</time>
      </trkpt>
      <trkpt lat="49.41187" lon="4.30357">
        <ele>82</ele>
        <time>2018-03-29T21:45:53Z</time>
      </trkpt>
      <trkpt lat="49.41183" lon="4.30416">
        <ele>82</ele>
        <time>2018-03-29T21:46:53Z</time>
      </trkpt>
      <trkpt lat="49.41181" lon="4.3043">
        <ele>82</ele>
        <time>2018-03-29T21:47:53Z</time>
      </trkpt>
      <trkpt lat="49.41179" lon="4.30471">
        <ele>82</ele>
        <time>2018-03-29T21:48:53Z</time>
      </trkpt>
      <trkpt lat="49.41179" lon="4.30471">
        <ele>82</ele>
        <time>2018-03-29T21:49:53Z</time>
      </trkpt>
      <trkpt lat="49.41198" lon="4.30491">
        <ele>82</ele>
        <time>2018-03-29T21:50:53Z</time>
      </trkpt>
      <trkpt lat="49.4124" lon="4.30533">
        <ele>82</ele>
        <time>2018-03-29T21:51:53Z</time>
      </trkpt>
      <trkpt lat="49.41243" lon="4.30537">
        <ele>82</ele>
        <time>2018-03-29T21:52:53Z</time>
      </trkpt>
      <trkpt lat="49.41251" lon="4.30544">
        <ele>82</ele>
        <time>2018-03-29T21:53:53Z</time>
      </trkpt>
      <trkpt lat="49.41264" lon="4.30556">
        <ele>82</ele>
        <time>2018-03-29T21:54:53Z</time>
      </trkpt>
      <trkpt lat="49.41289" lon="4.30577">
        <ele>82</ele>
        <time>2018-03-29T21:55:53Z</time>
      </trkpt>
      <trkpt lat="49.41302" lon="4.30588">
        <ele>83</ele>
        <time>2018-03-29T21:56:53Z</time>
      </trkpt>
      <trkpt lat="49.41333" lon="4.30612">
        <ele>83</ele>
        <time>2018-03-29T21:57:53Z</time>
      </trkpt>
      <trkpt lat="49.41378" lon="4.30647">
        <ele>85</ele>
        <time>2018-03-29T21:58:53Z</time>
      </trkpt>
      <trkpt lat="49.41389" lon="4.30654">
        <ele>86</ele>
        <time>2018-03-29T21:59:53Z</time>
      </trkpt>
      <trkpt lat="49.41403" lon="4.30662">
        <ele>86</ele>
        <time>2018-03-29T22:00:53Z</time>
      </trkpt>
      <trkpt lat="49.41418" lon="4.3067">
        <ele>87</ele>
        <time>2018-03-29T22:01:53Z</time>
      </trkpt>
      <trkpt lat="49.41451" lon="4.30684">
        <ele>89</ele>
        <time>2018-03-29T22:02:53Z</time>
      </trkpt>
      <trkpt lat="49.41469" lon="4.30693">
        <ele>90</ele>
        <time>2018-03-29T22:03:53Z</time>
      </trkpt>
      <trkpt lat="49.41478" lon="4.30697">
        <ele>90</ele>
        <time>2018-03-29T22:04:53Z</time>
      </trkpt>
      <trkpt lat="49.41486" lon="4.30701">
        <ele>90</ele>
        <time>2018-03-29T22:05:53Z</time>
      </trkpt>
      <trkpt lat="49.41495" lon="4.30707">
        <ele>91</ele>
        <time>2018-03-29T22:06:53Z</time>
      </trkpt>
      <trkpt lat="49.41504" lon="4.30715">
        <ele>91</ele>
        <time>2018-03-29T22:07:53Z</time>
      </trkpt>
      <trkpt lat="49.41515" lon="4.30724">
        <ele>92</ele>
        <time>2018-03-29T22:08:53Z</time>
      </trkpt>
      <trkpt lat="49.41529" lon="4.30737">
        <ele>92</ele>
        <time>2018-03-29T22:09:53Z</time>
      </trkpt>
      <trkpt lat="49.41567" lon="4.30775">
        <ele>94</ele>
        <time>2018-03-29T22:10:53Z</time>
      </trkpt>
      <trkpt lat="49.41576" lon="4.30782">
        <ele>94</ele>
        <time>2018-03-29T22:11:53Z</time>
      </trkpt>
      <trkpt lat="49.41584" lon="4.30789">
        <ele>95</ele>
        <time>2018-03-29T22:12:53Z</time>
      </trkpt>
      <trkpt lat="49.41593" lon="4.30794">
        <ele>96</ele>
        <time>2018-03-29T22:13:53Z</time>
      </trkpt>
      <trkpt lat="49.41596" lon="4.30794">
        <ele>96</ele>
        <time>2018-03-29T22:14:53Z</time>
      </trkpt>
      <trkpt lat="49.41602" lon="4.30794">
        <ele>96</ele>
        <time>2018-03-29T22:15:53Z</time>
      </trkpt>
      <trkpt lat="49.41612" lon="4.30793">
        <ele>97</ele>
        <time>2018-03-29T22:16:53Z</time>
      </trkpt>
      <trkpt lat="49.41629" lon="4.3079">
        <ele>97</ele>
        <time>2018-03-29T22:17:53Z</time>
      </trkpt>
      <trkpt lat="49.41681" lon="4.30781">
        <ele>100</ele>
        <time>2018-03-29T22:18:53Z</time>
      </trkpt>
      <trkpt lat="49.41706" lon="4.30776">
        <ele>100</ele>
        <time>2018-03-29T22:19:53Z</time>
      </trkpt>
      <trkpt lat="49.41719" lon="4.30774">
        <ele>100</ele>
        <time>2018-03-29T22:20:53Z</time>
      </trkpt>
      <trkpt lat="49.41727" lon="4.30774">
        <ele>101</ele>
        <time>2018-03-29T22:21:53Z</time>
      </trkpt>
      <trkpt lat="49.41737" lon="4.30774">
        <ele>101</ele>
        <time>2018-03-29T22:22:53Z</time>
      </trkpt>
      <trkpt lat="49.41746" lon="4.30774">
        <ele>101</ele>
        <time>2018-03-29T22:23:53Z</time>
      </trkpt>
      <trkpt lat="49.41756" lon="4.30775">
        <ele>101</ele>
        <time>2018-03-29T22:24:53Z</time>
      </trkpt>
      <trkpt lat="49.41764" lon="4.30777">
        <ele>101</ele>
        <time>2018-03-29T22:25:53Z</time>
      </trkpt>
      <trkpt lat="49.41772" lon="4.30779">
        <ele>101</ele>
        <time>2018-03-29T22:26:53Z</time>
      </trkpt>
      <trkpt lat="49.41782" lon="4.30782">
        <ele>101</ele>
        <time>2018-03-29T22:27:53Z</time>
      </trkpt>
      <trkpt lat="49.41806" lon="4.30787">
        <ele>102</ele>
        <time>2018-03-29T22:28:53Z</time>
      </trkpt>
      <trkpt lat="49.41816" lon="4.30788">
        <ele>102</ele>
        <time>2018-03-29T22:29:53Z</time>
      </trkpt>
      <trkpt lat="49.41826" lon="4.30789">
        <ele>102</ele>
        <time>2018-03-29T22:30:53Z</time>
      </trkpt>
      <trkpt lat="49.41839" lon="4.30789">
        <ele>102</ele>
        <time>2018-03-29T22:31:53Z</time>
      </trkpt>
      <trkpt lat="49.41852" lon="4.30785">
        <ele>102</ele>
        <time>2018-03-29T22:32:53Z</time>
      </trkpt>
      <trkpt lat="49.41865" lon="4.30782">
        <ele>101</ele>
        <time>2018-03-29T22:33:53Z</time>
      </trkpt>
      <trkpt lat="49.41879" lon="4.30777">
        <ele>101</ele>
        <time>2018-03-29T22:34:53Z</time>
      </trkpt>
      <trkpt lat="49.41968" lon="4.30739">
        <ele>96</ele>
        <time>2018-03-29T22:35:53Z</time>
      </trkpt>
      <trkpt lat="49.42028" lon="4.3071">
        <ele>92</ele>
        <time>2018-03-29T22:36:53Z</time>
      </trkpt>
      <trkpt lat="49.42068" lon="4.30691">
        <ele>91</ele>
        <time>2018-03-29T22:37:53Z</time>
      </trkpt>
      <trkpt lat="49.42083" lon="4.30683">
        <ele>91</ele>
        <time>2018-03-29T22:38:53Z</time>
      </trkpt>
      <trkpt lat="49.42093" lon="4.30678">
        <ele>91</ele>
        <time>2018-03-29T22:39:53Z</time>
      </trkpt>
      <trkpt lat="49.42096" lon="4.30676">
        <ele>91</ele>
        <time>2018-03-29T22:40:53Z</time>
      </trkpt>
      <trkpt lat="49.42105" lon="4.3067">
        <ele>91</ele>
        <time>2018-03-29T22:41:53Z</time>
      </trkpt>
      <trkpt lat="49.42113" lon="4.30665">
        <ele>91</ele>
        <time>2018-03-29T22:42:53Z</time>
      </trkpt>
      <trkpt lat="49.42121" lon="4.30659">
        <ele>91</ele>
        <time>2018-03-29T22:43:53Z</time>
      </trkpt>
      <trkpt lat="49.42132" lon="4.3065">
        <ele>91</ele>
        <time>2018-03-29T22:44:53Z</time>
      </trkpt>
      <trkpt lat="49.42141" lon="4.30642">
        <ele>91</ele>
        <time>2018-03-29T22:45:53Z</time>
      </trkpt>
      <trkpt lat="49.42168" lon="4.30615">
        <ele>92</ele>
        <time>2018-03-29T22:46:53Z</time>
      </trkpt>
      <trkpt lat="49.42189" lon="4.30594">
        <ele>93</ele>
        <time>2018-03-29T22:47:53Z</time>
      </trkpt>
      <trkpt lat="49.42203" lon="4.3058">
        <ele>95</ele>
        <time>2018-03-29T22:48:53Z</time>
      </trkpt>
      <trkpt lat="49.42221" lon="4.30564">
        <ele>97</ele>
        <time>2018-03-29T22:49:53Z</time>
      </trkpt>
      <trkpt lat="49.42237" lon="4.3055">
        <ele>98</ele>
        <time>2018-03-29T22:50:53Z</time>
      </trkpt>
      <trkpt lat="49.42255" lon="4.30537">
        <ele>99</ele>
        <time>2018-03-29T22:51:53Z</time>
      </trkpt>
      <trkpt lat="49.42274" lon="4.30523">
        <ele>100</ele>
        <time>2018-03-29T22:52:53Z</time>
      </trkpt>
      <trkpt lat="49.42293" lon="4.3051">
        <ele>101</ele>
        <time>2018-03-29T22:53:53Z</time>
      </trkpt>
      <trkpt lat="49.4232" lon="4.30491">
        <ele>103</ele>
        <time>2018-03-29T22:54:53Z</time>
      </trkpt>
      <trkpt lat="49.42354" lon="4.30469">
        <ele>105</ele>
        <time>2018-03-29T22:55:53Z</time>
      </trkpt>
      <trkpt lat="49.4239" lon="4.30445">
        <ele>108</ele>
        <time>2018-03-29T22:56:53Z</time>
      </trkpt>
      <trkpt lat="49.42402" lon="4.30438">
        <ele>109</ele>
        <time>2018-03-29T22:57:53Z</time>
      </trkpt>
      <trkpt lat="49.42416" lon="4.3043">
        <ele>110</ele>
        <time>2018-03-29T22:58:53Z</time>
      </trkpt>
      <trkpt lat="49.4243" lon="4.30423">
        <ele>111</ele>
        <time>2018-03-29T22:59:53Z</time>
      </trkpt>
      <trkpt lat="49.42464" lon="4.3041">
        <ele>113</ele>
        <time>2018-03-29T23:00:53Z</time>
      </trkpt>
      <trkpt lat="49.42499" lon="4.30396">
        <ele>115</ele>
        <time>2018-03-29T23:01:53Z</time>
      </trkpt>
      <trkpt lat="49.42528" lon="4.30384">
        <ele>118</ele>
        <time>2018-03-29T23:02:53Z</time>
      </trkpt>
      <trkpt lat="49.42539" lon="4.3038">
        <ele>119</ele>
        <time>2018-03-29T23:03:53Z</time>
      </trkpt>
      <trkpt lat="49.42543" lon="4.30378">
        <ele>119</ele>
        <time>2018-03-29T23:04:53Z</time>
      </trkpt>
      <trkpt lat="49.42548" lon="4.30376">
        <ele>119</ele>
        <time>2018-03-29T23:05:53Z</time>
      </trkpt>
      <trkpt lat="49.42548" lon="4.30376">
        <ele>119</ele>
        <time>2018-03-29T23:06:53Z</time>
      </trkpt>
      <trkpt lat="49.42553" lon="4.30373">
        <ele>120</ele>
        <time>2018-03-29T23:07:53Z</time>
      </trkpt>
      <trkpt lat="49.42564" lon="4.30367">
        <ele>121</ele>
        <time>2018-03-29T23:08:53Z</time>
      </trkpt>
      <trkpt lat="49.42588" lon="4.30351">
        <ele>122</ele>
        <time>2018-03-29T23:09:53Z</time>
      </trkpt>
      <trkpt lat="49.42625" lon="4.30324">
        <ele>124</ele>
        <time>2018-03-29T23:10:53Z</time>
      </trkpt>
      <trkpt lat="49.42655" lon="4.30301">
        <ele>125</ele>
        <time>2018-03-29T23:11:53Z</time>
      </trkpt>
      <trkpt lat="49.42661" lon="4.30298">
        <ele>125</ele>
        <time>2018-03-29T23:12:53Z</time>
      </trkpt>
      <trkpt lat="49.42689" lon="4.30275">
        <ele>126</ele>
        <time>2018-03-29T23:13:53Z</time>
      </trkpt>
      <trkpt lat="49.42716" lon="4.30255">
        <ele>127</ele>
        <time>2018-03-29T23:14:53Z</time>
      </trkpt>
      <trkpt lat="49.42743" lon="4.30235">
        <ele>127</ele>
        <time>2018-03-29T23:15:53Z</time>
      </trkpt>
      <trkpt lat="49.42762" lon="4.30222">
        <ele>126</ele>
        <time>2018-03-29T23:16:53Z</time>
      </trkpt>
      <trkpt lat="49.42787" lon="4.30208">
        <ele>125</ele>
        <time>2018-03-29T23:17:53Z</time>
      </trkpt>
      <trkpt lat="49.42823" lon="4.3019">
        <ele>124</ele>
        <time>2018-03-29T23:18:53Z</time>
      </trkpt>
      <trkpt lat="49.42851" lon="4.30174">
        <ele>123</ele>
        <time>2018-03-29T23:19:53Z</time>
      </trkpt>
      <trkpt lat="49.42874" lon="4.30159">
        <ele>122</ele>
        <time>2018-03-29T23:20:53Z</time>
      </trkpt>
      <trkpt lat="49.42894" lon="4.30145">
        <ele>121</ele>
        <time>2018-03-29T23:21:53Z</time>
      </trkpt>
      <trkpt lat="49.42913" lon="4.30129">
        <ele>119</ele>
        <time>2018-03-29T23:22:53Z</time>
      </trkpt>
      <trkpt lat="49.42925" lon="4.30116">
        <ele>118</ele>
        <time>2018-03-29T23:23:53Z</time>
      </trkpt>
      <trkpt lat="49.42939" lon="4.30101">
        <ele>116</ele>
        <time>2018-03-29T23:24:53Z</time>
      </trkpt>
      <trkpt lat="49.42951" lon="4.30085">
        <ele>114</ele>
        <time>2018-03-29T23:25:53Z</time>
      </trkpt>
      <trkpt lat="49.42966" lon="4.30068">
        <ele>112</ele>
        <time>2018-03-29T23:26:53Z</time>
      </trkpt>
      <trkpt lat="49.42981" lon="4.30051">
        <ele>110</ele>
        <time>2018-03-29T23:27:53Z</time>
      </trkpt>
      <trkpt lat="49.42995" lon="4.30037">
        <ele>108</ele>
        <time>2018-03-29T23:28:53Z</time>
      </trkpt>
      <trkpt lat="49.4302" lon="4.30015">
        <ele>105</ele>
        <time>2018-03-29T23:29:53Z</time>
      </trkpt>
      <trkpt lat="49.43039" lon="4.29999">
        <ele>105</ele>
        <time>2018-03-29T23:30:53Z</time>
      </trkpt>
      <trkpt lat="49.43066" lon="4.2998">
        <ele>104</ele>
        <time>2018-03-29T23:31:53Z</time>
      </trkpt>
      <trkpt lat="49.43096" lon="4.29962">
        <ele>104</ele>
        <time>2018-03-29T23:32:53Z</time>
      </trkpt>
      <trkpt lat="49.43128" lon="4.29943">
        <ele>105</ele>
        <time>2018-03-29T23:33:53Z</time>
      </trkpt>
      <trkpt lat="49.43142" lon="4.29935">
        <ele>106</ele>
        <time>2018-03-29T23:34:53Z</time>
      </trkpt>
      <trkpt lat="49.43173" lon="4.29918">
        <ele>107</ele>
        <time>2018-03-29T23:35:53Z</time>
      </trkpt>
      <trkpt lat="49.43215" lon="4.29893">
        <ele>110</ele>
        <time>2018-03-29T23:36:53Z</time>
      </trkpt>
      <trkpt lat="49.4325" lon="4.29874">
        <ele>112</ele>
        <time>2018-03-29T23:37:53Z</time>
      </trkpt>
      <trkpt lat="49.43263" lon="4.29867">
        <ele>113</ele>
        <time>2018-03-29T23:38:53Z</time>
      </trkpt>
      <trkpt lat="49.43273" lon="4.29863">
        <ele>114</ele>
        <time>2018-03-29T23:39:53Z</time>
      </trkpt>
      <trkpt lat="49.43282" lon="4.29859">
        <ele>114</ele>
        <time>2018-03-29T23:40:53Z</time>
      </trkpt>
      <trkpt lat="49.43293" lon="4.29854">
        <ele>115</ele>
        <time>2018-03-29T23:41:53Z</time>
      </trkpt>
      <trkpt lat="49.43302" lon="4.2985">
        <ele>116</ele>
        <time>2018-03-29T23:42:53Z</time>
      </trkpt>
      <trkpt lat="49.4331" lon="4.29847">
        <ele>116</ele>
        <time>2018-03-29T23:43:53Z</time>
      </trkpt>
      <trkpt lat="49.43321" lon="4.29843">
        <ele>117</ele>
        <time>2018-03-29T23:44:53Z</time>
      </trkpt>
      <trkpt lat="49.43331" lon="4.2984">
        <ele>118</ele>
        <time>2018-03-29T23:45:53Z</time>
      </trkpt>
      <trkpt lat="49.43339" lon="4.29838">
        <ele>118</ele>
        <time>2018-03-29T23:46:53Z</time>
      </trkpt>
      <trkpt lat="49.4335" lon="4.29836">
        <ele>118</ele>
        <time>2018-03-29T23:47:53Z</time>
      </trkpt>
      <trkpt lat="49.43361" lon="4.29834">
        <ele>118</ele>
        <time>2018-03-29T23:48:53Z</time>
      </trkpt>
      <trkpt lat="49.43371" lon="4.29833">
        <ele>118</ele>
        <time>2018-03-29T23:49:53Z</time>
      </trkpt>
      <trkpt lat="49.43383" lon="4.29831">
        <ele>119</ele>
        <time>2018-03-29T23:50:53Z</time>
      </trkpt>
      <trkpt lat="49.43394" lon="4.29827">
        <ele>119</ele>
        <time>2018-03-29T23:51:53Z</time>
      </trkpt>
      <trkpt lat="49.43405" lon="4.29823">
        <ele>119</ele>
        <time>2018-03-29T23:52:53Z</time>
      </trkpt>
      <trkpt lat="49.43417" lon="4.29818">
        <ele>119</ele>
        <time>2018-03-29T23:53:53Z</time>
      </trkpt>
      <trkpt lat="49.4343" lon="4.2981">
        <ele>118</ele>
        <time>2018-03-29T23:54:53Z</time>
      </trkpt>
      <trkpt lat="49.4344" lon="4.29802">
        <ele>118</ele>
        <time>2018-03-29T23:55:53Z</time>
      </trkpt>
      <trkpt lat="49.43449" lon="4.29793">
        <ele>118</ele>
        <time>2018-03-29T23:56:53Z</time>
      </trkpt>
      <trkpt lat="49.43458" lon="4.29783">
        <ele>117</ele>
        <time>2018-03-29T23:57:53Z</time>
      </trkpt>
      <trkpt lat="49.43474" lon="4.29763">
        <ele>116</ele>
        <time>2018-03-29T23:58:53Z</time>
      </trkpt>
      <trkpt lat="49.43503" lon="4.29727">
        <ele>114</ele>
        <time>2018-03-29T23:59:53Z</time>
      </trkpt>
      <trkpt lat="49.43573" lon="4.29638">
        <ele>107</ele>
        <time>2018-03-30T00:00:53Z</time>
      </trkpt>
      <trkpt lat="49.43624" lon="4.29574">
        <ele>101</ele>
        <time>2018-03-30T00:01:53Z</time>
      </trkpt>
      <trkpt lat="49.43653" lon="4.2954">
        <ele>98</ele>
        <time>2018-03-30T00:02:53Z</time>
      </trkpt>
      <trkpt lat="49.43662" lon="4.29529">
        <ele>98</ele>
        <time>2018-03-30T00:03:53Z</time>
      </trkpt>
      <trkpt lat="49.43668" lon="4.29523">
        <ele>97</ele>
        <time>2018-03-30T00:04:53Z</time>
      </trkpt>
      <trkpt lat="49.43675" lon="4.29516">
        <ele>97</ele>
        <time>2018-03-30T00:05:53Z</time>
      </trkpt>
      <trkpt lat="49.4368" lon="4.29511">
        <ele>97</ele>
        <time>2018-03-30T00:06:53Z</time>
      </trkpt>
      <trkpt lat="49.43685" lon="4.29506">
        <ele>96</ele>
        <time>2018-03-30T00:07:53Z</time>
      </trkpt>
      <trkpt lat="49.43689" lon="4.29503">
        <ele>96</ele>
        <time>2018-03-30T00:08:53Z</time>
      </trkpt>
      <trkpt lat="49.43694" lon="4.295">
        <ele>96</ele>
        <time>2018-03-30T00:09:53Z</time>
      </trkpt>
      <trkpt lat="49.43698" lon="4.29498">
        <ele>96</ele>
        <time>2018-03-30T00:10:53Z</time>
      </trkpt>
      <trkpt lat="49.43702" lon="4.29496">
        <ele>96</ele>
        <time>2018-03-30T00:11:53Z</time>
      </trkpt>
      <trkpt lat="49.43708" lon="4.29496">
        <ele>95</ele>
        <time>2018-03-30T00:12:53Z</time>
      </trkpt>
      <trkpt lat="49.43712" lon="4.29496">
        <ele>95</ele>
        <time>2018-03-30T00:13:53Z</time>
      </trkpt>
      <trkpt lat="49.43719" lon="4.29497">
        <ele>95</ele>
        <time>2018-03-30T00:14:53Z</time>
      </trkpt>
      <trkpt lat="49.43726" lon="4.29498">
        <ele>95</ele>
        <time>2018-03-30T00:15:53Z</time>
      </trkpt>
      <trkpt lat="49.43726" lon="4.29498">
        <ele>95</ele>
        <time>2018-03-30T00:16:53Z</time>
      </trkpt>
      <trkpt lat="49.43727" lon="4.29493">
        <ele>95</ele>
        <time>2018-03-30T00:17:53Z</time>
      </trkpt>
      <trkpt lat="49.43729" lon="4.29489">
        <ele>94</ele>
        <time>2018-03-30T00:18:53Z</time>
      </trkpt>
      <trkpt lat="49.43734" lon="4.29481">
        <ele>94</ele>
        <time>2018-03-30T00:19:53Z</time>
      </trkpt>
      <trkpt lat="49.43737" lon="4.29477">
        <ele>94</ele>
        <time>2018-03-30T00:20:53Z</time>
      </trkpt>
      <trkpt lat="49.43747" lon="4.29459">
        <ele>93</ele>
        <time>2018-03-30T00:21:53Z</time>
      </trkpt>
      <trkpt lat="49.43748" lon="4.29457">
        <ele>93</ele>
        <time>2018-03-30T00:22:53Z</time>
      </trkpt>
      <trkpt lat="49.43751" lon="4.29453">
        <ele>92</ele>
        <time>2018-03-30T00:23:53Z</time>
      </trkpt>
      <trkpt lat="49.43757" lon="4.29442">
        <ele>92</ele>
        <time>2018-03-30T00:24:53Z</time>
      </trkpt>
      <trkpt lat="49.43759" lon="4.29438">
        <ele>91</ele>
        <time>2018-03-30T00:25:53Z</time>
      </trkpt>
      <trkpt lat="49.43763" lon="4.29429">
        <ele>91</ele>
        <time>2018-03-30T00:26:53Z</time>
      </trkpt>
      <trkpt lat="49.43768" lon="4.29417">
        <ele>91</ele>
        <time>2018-03-30T00:27:53Z</time>
      </trkpt>
      <trkpt lat="49.43777" lon="4.29396">
        <ele>90</ele>
        <time>2018-03-30T00:28:53Z</time>
      </trkpt>
      <trkpt lat="49.43778" lon="4.29394">
        <ele>90</ele>
        <time>2018-03-30T00:29:53Z</time>
      </trkpt>
      <trkpt lat="49.43797" lon="4.29349">
        <ele>89</ele>
        <time>2018-03-30T00:30:53Z</time>
      </trkpt>
      <trkpt lat="49.43801" lon="4.2934">
        <ele>89</ele>
        <time>2018-03-30T00:31:53Z</time>
      </trkpt>
      <trkpt lat="49.43802" lon="4.29337">
        <ele>89</ele>
        <time>2018-03-30T00:32:53Z</time>
      </trkpt>
      <trkpt lat="49.43803" lon="4.29334">
        <ele>89</ele>
        <time>2018-03-30T00:33:53Z</time>
      </trkpt>
      <trkpt lat="49.43803" lon="4.29328">
        <ele>89</ele>
        <time>2018-03-30T00:34:53Z</time>
      </trkpt>
      <trkpt lat="49.43804" lon="4.29323">
        <ele>90</ele>
        <time>2018-03-30T00:35:53Z</time>
      </trkpt>
      <trkpt lat="49.43804" lon="4.29317">
        <ele>90</ele>
        <time>2018-03-30T00:36:53Z</time>
      </trkpt>
      <trkpt lat="49.43804" lon="4.29317">
        <ele>90</ele>
        <time>2018-03-30T00:37:53Z</time>
      </trkpt>
      <trkpt lat="49.43814" lon="4.29312">
        <ele>90</ele>
        <time>2018-03-30T00:38:53Z</time>
      </trkpt>
      <trkpt lat="49.43824" lon="4.29309">
        <ele>91</ele>
        <time>2018-03-30T00:39:53Z</time>
      </trkpt>
      <trkpt lat="49.43835" lon="4.29306">
        <ele>91</ele>
        <time>2018-03-30T00:40:53Z</time>
      </trkpt>
      <trkpt lat="49.43843" lon="4.29303">
        <ele>91</ele>
        <time>2018-03-30T00:41:53Z</time>
      </trkpt>
      <trkpt lat="49.43849" lon="4.29301">
        <ele>92</ele>
        <time>2018-03-30T00:42:53Z</time>
      </trkpt>
      <trkpt lat="49.4385" lon="4.293">
        <ele>92</ele>
        <time>2018-03-30T00:43:53Z</time>
      </trkpt>
      <trkpt lat="49.43853" lon="4.29298">
        <ele>92</ele>
        <time>2018-03-30T00:44:53Z</time>
      </trkpt>
      <trkpt lat="49.43862" lon="4.29291">
        <ele>92</ele>
        <time>2018-03-30T00:45:53Z</time>
      </trkpt>
      <trkpt lat="49.43885" lon="4.29272">
        <ele>93</ele>
        <time>2018-03-30T00:46:53Z</time>
      </trkpt>
      <trkpt lat="49.43892" lon="4.29264">
        <ele>93</ele>
        <time>2018-03-30T00:47:53Z</time>
      </trkpt>
      <trkpt lat="49.43896" lon="4.29257">
        <ele>94</ele>
        <time>2018-03-30T00:48:53Z</time>
      </trkpt>
      <trkpt lat="49.43898" lon="4.29252">
        <ele>94</ele>
        <time>2018-03-30T00:49:53Z</time>
      </trkpt>
      <trkpt lat="49.43902" lon="4.29243">
        <ele>94</ele>
        <time>2018-03-30T00:50:53Z</time>
      </trkpt>
      <trkpt lat="49.43902" lon="4.2924">
        <ele>94</ele>
        <time>2018-03-30T00:51:53Z</time>
      </trkpt>
      <trkpt lat="49.43903" lon="4.29238">
        <ele>94</ele>
        <time>2018-03-30T00:52:53Z</time>
      </trkpt>
      <trkpt lat="49.43904" lon="4.29233">
        <ele>94</ele>
        <time>2018-03-30T00:53:53Z</time>
      </trkpt>
      <trkpt lat="49.43904" lon="4.29231">
        <ele>95</ele>
        <time>2018-03-30T00:54:53Z</time>
      </trkpt>
      <trkpt lat="49.43905" lon="4.29226">
        <ele>95</ele>
        <time>2018-03-30T00:55:53Z</time>
      </trkpt>
      <trkpt lat="49.43906" lon="4.29223">
        <ele>95</ele>
        <time>2018-03-30T00:56:53Z</time>
      </trkpt>
      <trkpt lat="49.43909" lon="4.29218">
        <ele>95</ele>
        <time>2018-03-30T00:57:53Z</time>
      </trkpt>
      <trkpt lat="49.43941" lon="4.29193">
        <ele>97</ele>
        <time>2018-03-30T00:58:53Z</time>
      </trkpt>
      <trkpt lat="49.4395" lon="4.2919">
        <ele>97</ele>
        <time>2018-03-30T00:59:53Z</time>
      </trkpt>
      <trkpt lat="49.43962" lon="4.29184">
        <ele>98</ele>
        <time>2018-03-30T01:00:53Z</time>
      </trkpt>
      <trkpt lat="49.4397" lon="4.2918">
        <ele>99</ele>
        <time>2018-03-30T01:01:53Z</time>
      </trkpt>
      <trkpt lat="49.43982" lon="4.29173">
        <ele>99</ele>
        <time>2018-03-30T01:02:53Z</time>
      </trkpt>
      <trkpt lat="49.43996" lon="4.29164">
        <ele>100</ele>
        <time>2018-03-30T01:03:53Z</time>
      </trkpt>
      <trkpt lat="49.44008" lon="4.29155">
        <ele>101</ele>
        <time>2018-03-30T01:04:53Z</time>
      </trkpt>
      <trkpt lat="49.44027" lon="4.2914">
        <ele>102</ele>
        <time>2018-03-30T01:05:53Z</time>
      </trkpt>
      <trkpt lat="49.44121" lon="4.29067">
        <ele>109</ele>
        <time>2018-03-30T01:06:53Z</time>
      </trkpt>
      <trkpt lat="49.44138" lon="4.29053">
        <ele>110</ele>
        <time>2018-03-30T01:07:53Z</time>
      </trkpt>
      <trkpt lat="49.44147" lon="4.29047">
        <ele>111</ele>
        <time>2018-03-30T01:08:53Z</time>
      </trkpt>
      <trkpt lat="49.44156" lon="4.2904">
        <ele>112</ele>
        <time>2018-03-30T01:09:53Z</time>
      </trkpt>
      <trkpt lat="49.44224" lon="4.28987">
        <ele>116</ele>
        <time>2018-03-30T01:10:53Z</time>
      </trkpt>
      <trkpt lat="49.4423" lon="4.28982">
        <ele>117</ele>
        <time>2018-03-30T01:11:53Z</time>
      </trkpt>
      <trkpt lat="49.44236" lon="4.28979">
        <ele>117</ele>
        <time>2018-03-30T01:12:53Z</time>
      </trkpt>
      <trkpt lat="49.44242" lon="4.28977">
        <ele>117</ele>
        <time>2018-03-30T01:13:53Z</time>
      </trkpt>
      <trkpt lat="49.44248" lon="4.28975">
        <ele>118</ele>
        <time>2018-03-30T01:14:53Z</time>
      </trkpt>
      <trkpt lat="49.44255" lon="4.28974">
        <ele>118</ele>
        <time>2018-03-30T01:15:53Z</time>
      </trkpt>
      <trkpt lat="49.44261" lon="4.28974">
        <ele>118</ele>
        <time>2018-03-30T01:16:53Z</time>
      </trkpt>
      <trkpt lat="49.44269" lon="4.28975">
        <ele>118</ele>
        <time>2018-03-30T01:17:53Z</time>
      </trkpt>
      <trkpt lat="49.44293" lon="4.28978">
        <ele>119</ele>
        <time>2018-03-30T01:18:53Z</time>
      </trkpt>
      <trkpt lat="49.44293" lon="4.28978">
        <ele>119</ele>
        <time>2018-03-30T01:19:53Z</time>
      </trkpt>
      <trkpt lat="49.44303" lon="4.2898">
        <ele>119</ele>
        <time>2018-03-30T01:20:53Z</time>
      </trkpt>
      <trkpt lat="49.44307" lon="4.2898">
        <ele>119</ele>
        <time>2018-03-30T01:21:53Z</time>
      </trkpt>
      <trkpt lat="49.44311" lon="4.2898">
        <ele>120</ele>
        <time>2018-03-30T01:22:53Z</time>
      </trkpt>
      <trkpt lat="49.44332" lon="4.28974">
        <ele>120</ele>
        <time>2018-03-30T01:23:53Z</time>
      </trkpt>
      <trkpt lat="49.4435" lon="4.2897">
        <ele>120</ele>
        <time>2018-03-30T01:24:53Z</time>
      </trkpt>
      <trkpt lat="49.44364" lon="4.28968">
        <ele>120</ele>
        <time>2018-03-30T01:25:53Z</time>
      </trkpt>
      <trkpt lat="49.44373" lon="4.28969">
        <ele>120</ele>
        <time>2018-03-30T01:26:53Z</time>
      </trkpt>
      <trkpt lat="49.44386" lon="4.2897">
        <ele>120</ele>
        <time>2018-03-30T01:27:53Z</time>
      </trkpt>
      <trkpt lat="49.44402" lon="4.28973">
        <ele>119</ele>
        <time>2018-03-30T01:28:53Z</time>
      </trkpt>
      <trkpt lat="49.4442" lon="4.28976">
        <ele>119</ele>
        <time>2018-03-30T01:29:53Z</time>
      </trkpt>
      <trkpt lat="49.44508" lon="4.28991">
        <ele>114</ele>
        <time>2018-03-30T01:30:53Z</time>
      </trkpt>
      <trkpt lat="49.44516" lon="4.28992">
        <ele>113</ele>
        <time>2018-03-30T01:31:53Z</time>
      </trkpt>
      <trkpt lat="49.44524" lon="4.28992">
        <ele>113</ele>
        <time>2018-03-30T01:32:53Z</time>
      </trkpt>
      <trkpt lat="49.44532" lon="4.28992">
        <ele>112</ele>
        <time>2018-03-30T01:33:53Z</time>
      </trkpt>
      <trkpt lat="49.44573" lon="4.28987">
        <ele>110</ele>
        <time>2018-03-30T01:34:53Z</time>
      </trkpt>
      <trkpt lat="49.4462" lon="4.28986">
        <ele>108</ele>
        <time>2018-03-30T01:35:53Z</time>
      </trkpt>
      <trkpt lat="49.44652" lon="4.28986">
        <ele>106</ele>
        <time>2018-03-30T01:36:53Z</time>
      </trkpt>
      <trkpt lat="49.44674" lon="4.28985">
        <ele>105</ele>
        <time>2018-03-30T01:37:53Z</time>
      </trkpt>
      <trkpt lat="49.44674" lon="4.28985">
        <ele>105</ele>
        <time>2018-03-30T01:38:53Z</time>
      </trkpt>
      <trkpt lat="49.44664" lon="4.28967">
        <ele>105</ele>
        <time>2018-03-30T01:39:53Z</time>
      </trkpt>
      <trkpt lat="49.44645" lon="4.28914">
        <ele>107</ele>
        <time>2018-03-30T01:40:53Z</time>
      </trkpt>
      <trkpt lat="49.44629" lon="4.28867">
        <ele>109</ele>
        <time>2018-03-30T01:41:53Z</time>
      </trkpt>
      <trkpt lat="49.44618" lon="4.28832">
        <ele>111</ele>
        <time>2018-03-30T01:42:53Z</time>
      </trkpt>
      <trkpt lat="49.44605" lon="4.28792">
        <ele>111</ele>
        <time>2018-03-30T01:43:53Z</time>
      </trkpt>
      <trkpt lat="49.44587" lon="4.28726">
        <ele>113</ele>
        <time>2018-03-30T01:44:53Z</time>
      </trkpt>
      <trkpt lat="49.44568" lon="4.2865">
        <ele>115</ele>
        <time>2018-03-30T01:45:53Z</time>
      </trkpt>
      <trkpt lat="49.44546" lon="4.28565">
        <ele>116</ele>
        <time>2018-03-30T01:46:53Z</time>
      </trkpt>
      <trkpt lat="49.44539" lon="4.28539">
        <ele>117</ele>
        <time>2018-03-30T01:47:53Z</time>
      </trkpt>
      <trkpt lat="49.44532" lon="4.28519">
        <ele>117</ele>
        <time>2018-03-30T01:48:53Z</time>
      </trkpt>
      <trkpt lat="49.44525" lon="4.28499">
        <ele>117</ele>
        <time>2018-03-30T01:49:53Z</time>
      </trkpt>
      <trkpt lat="49.44509" lon="4.2846">
        <ele>118</ele>
        <time>2018-03-30T01:50:53Z</time>
      </trkpt>
      <trkpt lat="49.44483" lon="4.28407">
        <ele>119</ele>
        <time>2018-03-30T01:51:53Z</time>
      </trkpt>
      <trkpt lat="49.44455" lon="4.28352">
        <ele>118</ele>
        <time>2018-03-30T01:52:53Z</time>
      </trkpt>
      <trkpt lat="49.44434" lon="4.28312">
        <ele>118</ele>
        <time>2018-03-30T01:53:53Z</time>
      </trkpt>
      <trkpt lat="49.44413" lon="4.28278">
        <ele>117</ele>
        <time>2018-03-30T01:54:53Z</time>
      </trkpt>
      <trkpt lat="49.4438" lon="4.28231">
        <ele>116</ele>
        <time>2018-03-30T01:55:53Z</time>
      </trkpt>
      <trkpt lat="49.44342" lon="4.28175">
        <ele>115</ele>
        <time>2018-03-30T01:56:53Z</time>
      </trkpt>
      <trkpt lat="49.44311" lon="4.28133">
        <ele>115</ele>
        <time>2018-03-30T01:57:53Z</time>
      </trkpt>
      <trkpt lat="49.44289" lon="4.28104">
        <ele>115</ele>
        <time>2018-03-30T01:58:53Z</time>
      </trkpt>
      <trkpt lat="49.44272" lon="4.28064">
        <ele>114</ele>
        <time>2018-03-30T01:59:53Z</time>
      </trkpt>
      <trkpt lat="49.44268" lon="4.2805">
        <ele>115</ele>
        <time>2018-03-30T02:00:53Z</time>
      </trkpt>
      <trkpt lat="49.44264" lon="4.28031">
        <ele>115</ele>
        <time>2018-03-30T02:01:53Z</time>
      </trkpt>
      <trkpt lat="49.44256" lon="4.28008">
        <ele>115</ele>
        <time>2018-03-30T02:02:53Z</time>
      </trkpt>
      <trkpt lat="49.44252" lon="4.27999">
        <ele>115</ele>
        <time>2018-03-30T02:03:53Z</time>
      </trkpt>
      <trkpt lat="49.44249" lon="4.27996">
        <ele>115</ele>
        <time>2018-03-30T02:04:53Z</time>
      </trkpt>
      <trkpt lat="49.44247" lon="4.27995">
        <ele>115</ele>
        <time>2018-03-30T02:05:53Z</time>
      </trkpt>
      <trkpt lat="49.44244" lon="4.27994">
        <ele>115</ele>
        <time>2018-03-30T02:06:53Z</time>
      </trkpt>
      <trkpt lat="49.44241" lon="4.27993">
        <ele>115</ele>
        <time>2018-03-30T02:07:53Z</time>
      </trkpt>
      <trkpt lat="49.44238" lon="4.27993">
        <ele>115</ele>
        <time>2018-03-30T02:08:53Z</time>
      </trkpt>
      <trkpt lat="49.44233" lon="4.27994">
        <ele>115</ele>
        <time>2018-03-30T02:09:53Z</time>
      </trkpt>
      <trkpt lat="49.44226" lon="4.27998">
        <ele>114</ele>
        <time>2018-03-30T02:10:53Z</time>
      </trkpt>
      <trkpt lat="49.4422" lon="4.28004">
        <ele>114</ele>
        <time>2018-03-30T02:11:53Z</time>
      </trkpt>
      <trkpt lat="49.44215" lon="4.2801">
        <ele>114</ele>
        <time>2018-03-30T02:12:53Z</time>
      </trkpt>
      <trkpt lat="49.44209" lon="4.28014">
        <ele>114</ele>
        <time>2018-03-30T02:13:53Z</time>
      </trkpt>
      <trkpt lat="49.44204" lon="4.28016">
        <ele>114</ele>
        <time>2018-03-30T02:14:53Z</time>
      </trkpt>
      <trkpt lat="49.44196" lon="4.28017">
        <ele>113</ele>
        <time>2018-03-30T02:15:53Z</time>
      </trkpt>
      <trkpt lat="49.44191" lon="4.28015">
        <ele>113</ele>
        <time>2018-03-30T02:16:53Z</time>
      </trkpt>
      <trkpt lat="49.44184" lon="4.28013">
        <ele>113</ele>
        <time>2018-03-30T02:17:53Z</time>
      </trkpt>
      <trkpt lat="49.44155" lon="4.27998">
        <ele>112</ele>
        <time>2018-03-30T02:18:53Z</time>
      </trkpt>
      <trkpt lat="49.44127" lon="4.27985">
        <ele>111</ele>
        <time>2018-03-30T02:19:53Z</time>
      </trkpt>
      <trkpt lat="49.44084" lon="4.27966">
        <ele>110</ele>
        <time>2018-03-30T02:20:53Z</time>
      </trkpt>
      <trkpt lat="49.44081" lon="4.27965">
        <ele>110</ele>
        <time>2018-03-30T02:21:53Z</time>
      </trkpt>
      <trkpt lat="49.44075" lon="4.27963">
        <ele>109</ele>
        <time>2018-03-30T02:22:53Z</time>
      </trkpt>
      <trkpt lat="49.44068" lon="4.27961">
        <ele>109</ele>
        <time>2018-03-30T02:23:53Z</time>
      </trkpt>
      <trkpt lat="49.44062" lon="4.27961">
        <ele>109</ele>
        <time>2018-03-30T02:24:53Z</time>
      </trkpt>
      <trkpt lat="49.44054" lon="4.27961">
        <ele>109</ele>
        <time>2018-03-30T02:25:53Z</time>
      </trkpt>
      <trkpt lat="49.44045" lon="4.27962">
        <ele>108</ele>
        <time>2018-03-30T02:26:53Z</time>
      </trkpt>
      <trkpt lat="49.44038" lon="4.27962">
        <ele>108</ele>
        <time>2018-03-30T02:27:53Z</time>
      </trkpt>
      <trkpt lat="49.44027" lon="4.27961">
        <ele>107</ele>
        <time>2018-03-30T02:28:53Z</time>
      </trkpt>
      <trkpt lat="49.44009" lon="4.2796">
        <ele>106</ele>
        <time>2018-03-30T02:29:53Z</time>
      </trkpt>
      <trkpt lat="49.43979" lon="4.27958">
        <ele>105</ele>
        <time>2018-03-30T02:30:53Z</time>
      </trkpt>
      <trkpt lat="49.43948" lon="4.27958">
        <ele>104</ele>
        <time>2018-03-30T02:31:53Z</time>
      </trkpt>
      <trkpt lat="49.43923" lon="4.27956">
        <ele>102</ele>
        <time>2018-03-30T02:32:53Z</time>
      </trkpt>
      <trkpt lat="49.43915" lon="4.27955">
        <ele>102</ele>
        <time>2018-03-30T02:33:53Z</time>
      </trkpt>
      <trkpt lat="49.43908" lon="4.27953">
        <ele>102</ele>
        <time>2018-03-30T02:34:53Z</time>
      </trkpt>
      <trkpt lat="49.439" lon="4.2795">
        <ele>101</ele>
        <time>2018-03-30T02:35:53Z</time>
      </trkpt>
      <trkpt lat="49.43892" lon="4.27946">
        <ele>101</ele>
        <time>2018-03-30T02:36:53Z</time>
      </trkpt>
      <trkpt lat="49.43883" lon="4.27943">
        <ele>101</ele>
        <time>2018-03-30T02:37:53Z</time>
      </trkpt>
      <trkpt lat="49.43873" lon="4.2794">
        <ele>100</ele>
        <time>2018-03-30T02:38:53Z</time>
      </trkpt>
      <trkpt lat="49.43865" lon="4.27938">
        <ele>100</ele>
        <time>2018-03-30T02:39:53Z</time>
      </trkpt>
      <trkpt lat="49.43855" lon="4.27936">
        <ele>100</ele>
        <time>2018-03-30T02:40:53Z</time>
      </trkpt>
      <trkpt lat="49.43848" lon="4.27935">
        <ele>99</ele>
        <time>2018-03-30T02:41:53Z</time>
      </trkpt>
      <trkpt lat="49.43842" lon="4.27934">
        <ele>99</ele>
        <time>2018-03-30T02:42:53Z</time>
      </trkpt>
      <trkpt lat="49.43835" lon="4.27935">
        <ele>99</ele>
        <time>2018-03-30T02:43:53Z</time>
      </trkpt>
      <trkpt lat="49.43828" lon="4.27936">
        <ele>99</ele>
        <time>2018-03-30T02:44:53Z</time>
      </trkpt>
      <trkpt lat="49.43821" lon="4.27938">
        <ele>99</ele>
        <time>2018-03-30T02:45:53Z</time>
      </trkpt>
      <trkpt lat="49.43814" lon="4.27942">
        <ele>99</ele>
        <time>2018-03-30T02:46:53Z</time>
      </trkpt>
      <trkpt lat="49.43807" lon="4.27946">
        <ele>99</ele>
        <time>2018-03-30T02:47:53Z</time>
      </trkpt>
      <trkpt lat="49.43799" lon="4.27949">
        <ele>99</ele>
        <time>2018-03-30T02:48:53Z</time>
      </trkpt>
      <trkpt lat="49.43792" lon="4.2795">
        <ele>100</ele>
        <time>2018-03-30T02:49:53Z</time>
      </trkpt>
      <trkpt lat="49.43784" lon="4.2795">
        <ele>100</ele>
        <time>2018-03-30T02:50:53Z</time>
      </trkpt>
      <trkpt lat="49.43773" lon="4.27948">
        <ele>100</ele>
        <time>2018-03-30T02:51:53Z</time>
      </trkpt>
      <trkpt lat="49.43762" lon="4.27946">
        <ele>101</ele>
        <time>2018-03-30T02:52:53Z</time>
      </trkpt>
      <trkpt lat="49.43752" lon="4.27945">
        <ele>101</ele>
        <time>2018-03-30T02:53:53Z</time>
      </trkpt>
      <trkpt lat="49.43737" lon="4.27942">
        <ele>102</ele>
        <time>2018-03-30T02:54:53Z</time>
      </trkpt>
      <trkpt lat="49.43723" lon="4.27939">
        <ele>103</ele>
        <time>2018-03-30T02:55:53Z</time>
      </trkpt>
      <trkpt lat="49.43674" lon="4.2793">
        <ele>105</ele>
        <time>2018-03-30T02:56:53Z</time>
      </trkpt>
      <trkpt lat="49.43664" lon="4.27929">
        <ele>105</ele>
        <time>2018-03-30T02:57:53Z</time>
      </trkpt>
      <trkpt lat="49.43651" lon="4.27928">
        <ele>105</ele>
        <time>2018-03-30T02:58:53Z</time>
      </trkpt>
      <trkpt lat="49.43638" lon="4.27927">
        <ele>105</ele>
        <time>2018-03-30T02:59:53Z</time>
      </trkpt>
      <trkpt lat="49.43595" lon="4.27927">
        <ele>104</ele>
        <time>2018-03-30T03:00:53Z</time>
      </trkpt>
      <trkpt lat="49.43555" lon="4.2793">
        <ele>104</ele>
        <time>2018-03-30T03:01:53Z</time>
      </trkpt>
      <trkpt lat="49.43505" lon="4.27931">
        <ele>103</ele>
        <time>2018-03-30T03:02:53Z</time>
      </trkpt>
      <trkpt lat="49.43465" lon="4.27928">
        <ele>101</ele>
        <time>2018-03-30T03:03:53Z</time>
      </trkpt>
      <trkpt lat="49.4343" lon="4.27922">
        <ele>100</ele>
        <time>2018-03-30T03:04:53Z</time>
      </trkpt>
      <trkpt lat="49.43411" lon="4.27916">
        <ele>99</ele>
        <time>2018-03-30T03:05:53Z</time>
      </trkpt>
      <trkpt lat="49.43366" lon="4.279">
        <ele>99</ele>
        <time>2018-03-30T03:06:53Z</time>
      </trkpt>
      <trkpt lat="49.43333" lon="4.27883">
        <ele>99</ele>
        <time>2018-03-30T03:07:53Z</time>
      </trkpt>
      <trkpt lat="49.43293" lon="4.27856">
        <ele>100</ele>
        <time>2018-03-30T03:08:53Z</time>
      </trkpt>
      <trkpt lat="49.43252" lon="4.27823">
        <ele>100</ele>
        <time>2018-03-30T03:09:53Z</time>
      </trkpt>
      <trkpt lat="49.43221" lon="4.27798">
        <ele>100</ele>
        <time>2018-03-30T03:10:53Z</time>
      </trkpt>
      <trkpt lat="49.43197" lon="4.27778">
        <ele>101</ele>
        <time>2018-03-30T03:11:53Z</time>
      </trkpt>
      <trkpt lat="49.43184" lon="4.27765">
        <ele>101</ele>
        <time>2018-03-30T03:12:53Z</time>
      </trkpt>
      <trkpt lat="49.43169" lon="4.27749">
        <ele>102</ele>
        <time>2018-03-30T03:13:53Z</time>
      </trkpt>
      <trkpt lat="49.43148" lon="4.27727">
        <ele>102</ele>
        <time>2018-03-30T03:14:53Z</time>
      </trkpt>
      <trkpt lat="49.43113" lon="4.27688">
        <ele>102</ele>
        <time>2018-03-30T03:15:53Z</time>
      </trkpt>
      <trkpt lat="49.43059" lon="4.27632">
        <ele>102</ele>
        <time>2018-03-30T03:16:53Z</time>
      </trkpt>
      <trkpt lat="49.43006" lon="4.27577">
        <ele>103</ele>
        <time>2018-03-30T03:17:53Z</time>
      </trkpt>
      <trkpt lat="49.42953" lon="4.2752">
        <ele>104</ele>
        <time>2018-03-30T03:18:53Z</time>
      </trkpt>
      <trkpt lat="49.42882" lon="4.27442">
        <ele>106</ele>
        <time>2018-03-30T03:19:53Z</time>
      </trkpt>
      <trkpt lat="49.42827" lon="4.27383">
        <ele>107</ele>
        <time>2018-03-30T03:20:53Z</time>
      </trkpt>
      <trkpt lat="49.42814" lon="4.2737">
        <ele>107</ele>
        <time>2018-03-30T03:21:53Z</time>
      </trkpt>
      <trkpt lat="49.42804" lon="4.27359">
        <ele>107</ele>
        <time>2018-03-30T03:22:53Z</time>
      </trkpt>
      <trkpt lat="49.42795" lon="4.2735">
        <ele>107</ele>
        <time>2018-03-30T03:23:53Z</time>
      </trkpt>
      <trkpt lat="49.42758" lon="4.27312">
        <ele>106</ele>
        <time>2018-03-30T03:24:53Z</time>
      </trkpt>
      <trkpt lat="49.42703" lon="4.27256">
        <ele>104</ele>
        <time>2018-03-30T03:25:53Z</time>
      </trkpt>
      <trkpt lat="49.42603" lon="4.2715">
        <ele>100</ele>
        <time>2018-03-30T03:26:53Z</time>
      </trkpt>
      <trkpt lat="49.42567" lon="4.27112">
        <ele>99</ele>
        <time>2018-03-30T03:27:53Z</time>
      </trkpt>
      <trkpt lat="49.42494" lon="4.27035">
        <ele>97</ele>
        <time>2018-03-30T03:28:53Z</time>
      </trkpt>
      <trkpt lat="49.42451" lon="4.2699">
        <ele>97</ele>
        <time>2018-03-30T03:29:53Z</time>
      </trkpt>
      <trkpt lat="49.42393" lon="4.26928">
        <ele>95</ele>
        <time>2018-03-30T03:30:53Z</time>
      </trkpt>
      <trkpt lat="49.42378" lon="4.26914">
        <ele>94</ele>
        <time>2018-03-30T03:31:53Z</time>
      </trkpt>
      <trkpt lat="49.42357" lon="4.26891">
        <ele>93</ele>
        <time>2018-03-30T03:32:53Z</time>
      </trkpt>
      <trkpt lat="49.42347" lon="4.26878">
        <ele>93</ele>
        <time>2018-03-30T03:33:53Z</time>
      </trkpt>
      <trkpt lat="49.42337" lon="4.26865">
        <ele>93</ele>
        <time>2018-03-30T03:34:53Z</time>
      </trkpt>
      <trkpt lat="49.42323" lon="4.2685">
        <ele>93</ele>
        <time>2018-03-30T03:35:53Z</time>
      </trkpt>
      <trkpt lat="49.42307" lon="4.26836">
        <ele>92</ele>
        <time>2018-03-30T03:36:53Z</time>
      </trkpt>
      <trkpt lat="49.42279" lon="4.26811">
        <ele>91</ele>
        <time>2018-03-30T03:37:53Z</time>
      </trkpt>
      <trkpt lat="49.4224" lon="4.26773">
        <ele>90</ele>
        <time>2018-03-30T03:38:53Z</time>
      </trkpt>
      <trkpt lat="49.42191" lon="4.26724">
        <ele>90</ele>
        <time>2018-03-30T03:39:53Z</time>
      </trkpt>
      <trkpt lat="49.42171" lon="4.26702">
        <ele>89</ele>
        <time>2018-03-30T03:40:53Z</time>
      </trkpt>
      <trkpt lat="49.42145" lon="4.26672">
        <ele>88</ele>
        <time>2018-03-30T03:41:53Z</time>
      </trkpt>
      <trkpt lat="49.42115" lon="4.26631">
        <ele>88</ele>
        <time>2018-03-30T03:42:53Z</time>
      </trkpt>
      <trkpt lat="49.42089" lon="4.26594">
        <ele>88</ele>
        <time>2018-03-30T03:43:53Z</time>
      </trkpt>
      <trkpt lat="49.42081" lon="4.26578">
        <ele>88</ele>
        <time>2018-03-30T03:44:53Z</time>
      </trkpt>
      <trkpt lat="49.42078" lon="4.26565">
        <ele>88</ele>
        <time>2018-03-30T03:45:53Z</time>
      </trkpt>
      <trkpt lat="49.42076" lon="4.26551">
        <ele>88</ele>
        <time>2018-03-30T03:46:53Z</time>
      </trkpt>
      <trkpt lat="49.42077" lon="4.26518">
        <ele>87</ele>
        <time>2018-03-30T03:47:53Z</time>
      </trkpt>
      <trkpt lat="49.42077" lon="4.26448">
        <ele>87</ele>
        <time>2018-03-30T03:48:53Z</time>
      </trkpt>
      <trkpt lat="49.42078" lon="4.26393">
        <ele>87</ele>
        <time>2018-03-30T03:49:53Z</time>
      </trkpt>
      <trkpt lat="49.42078" lon="4.26368">
        <ele>87</ele>
        <time>2018-03-30T03:50:53Z</time>
      </trkpt>
      <trkpt lat="49.42077" lon="4.26357">
        <ele>87</ele>
        <time>2018-03-30T03:51:53Z</time>
      </trkpt>
      <trkpt lat="49.42076" lon="4.26353">
        <ele>88</ele>
        <time>2018-03-30T03:52:53Z</time>
      </trkpt>
      <trkpt lat="49.42075" lon="4.2635">
        <ele>87</ele>
        <time>2018-03-30T03:53:53Z</time>
      </trkpt>
      <trkpt lat="49.42074" lon="4.26347">
        <ele>88</ele>
        <time>2018-03-30T03:54:53Z</time>
      </trkpt>
      <trkpt lat="49.42072" lon="4.26346">
        <ele>87</ele>
        <time>2018-03-30T03:55:53Z</time>
      </trkpt>
      <trkpt lat="49.42068" lon="4.26344">
        <ele>87</ele>
        <time>2018-03-30T03:56:53Z</time>
      </trkpt>
      <trkpt lat="49.42068" lon="4.26344">
        <ele>87</ele>
        <time>2018-03-30T03:57:53Z</time>
      </trkpt>
      <trkpt lat="49.4207" lon="4.26337">
        <ele>87</ele>
        <time>2018-03-30T03:58:53Z</time>
      </trkpt>
      <trkpt lat="49.42076" lon="4.26288">
        <ele>88</ele>
        <time>2018-03-30T03:59:53Z</time>
      </trkpt>
      <trkpt lat="49.42082" lon="4.26218">
        <ele>88</ele>
        <time>2018-03-30T04:00:53Z</time>
      </trkpt>
      <trkpt lat="49.42084" lon="4.26147">
        <ele>87</ele>
        <time>2018-03-30T04:01:53Z</time>
      </trkpt>
      <trkpt lat="49.42084" lon="4.26059">
        <ele>87</ele>
        <time>2018-03-30T04:02:53Z</time>
      </trkpt>
      <trkpt lat="49.42085" lon="4.26009">
        <ele>86</ele>
        <time>2018-03-30T04:03:53Z</time>
      </trkpt>
      <trkpt lat="49.42084" lon="4.25938">
        <ele>85</ele>
        <time>2018-03-30T04:04:53Z</time>
      </trkpt>
      <trkpt lat="49.42084" lon="4.25847">
        <ele>85</ele>
        <time>2018-03-30T04:05:53Z</time>
      </trkpt>
      <trkpt lat="49.42084" lon="4.25822">
        <ele>85</ele>
        <time>2018-03-30T04:06:53Z</time>
      </trkpt>
      <trkpt lat="49.42084" lon="4.25771">
        <ele>86</ele>
        <time>2018-03-30T04:07:53Z</time>
      </trkpt>
      <trkpt lat="49.42084" lon="4.2571">
        <ele>87</ele>
        <time>2018-03-30T04:08:53Z</time>
      </trkpt>
      <trkpt lat="49.42085" lon="4.25611">
        <ele>87</ele>
        <time>2018-03-30T04:09:53Z</time>
      </trkpt>
      <trkpt lat="49.42085" lon="4.25535">
        <ele>86</ele>
        <time>2018-03-30T04:10:53Z</time>
      </trkpt>
      <trkpt lat="49.42085" lon="4.25512">
        <ele>86</ele>
        <time>2018-03-30T04:11:53Z</time>
      </trkpt>
      <trkpt lat="49.42084" lon="4.25442">
        <ele>87</ele>
        <time>2018-03-30T04:12:53Z</time>
      </trkpt>
      <trkpt lat="49.42084" lon="4.25345">
        <ele>86</ele>
        <time>2018-03-30T04:13:53Z</time>
      </trkpt>
      <trkpt lat="49.42085" lon="4.25237">
        <ele>86</ele>
        <time>2018-03-30T04:14:53Z</time>
      </trkpt>
      <trkpt lat="49.42085" lon="4.25125">
        <ele>86</ele>
        <time>2018-03-30T04:15:53Z</time>
      </trkpt>
      <trkpt lat="49.42085" lon="4.25055">
        <ele>86</ele>
        <time>2018-03-30T04:16:53Z</time>
      </trkpt>
      <trkpt lat="49.42083" lon="4.24989">
        <ele>86</ele>
        <time>2018-03-30T04:17:53Z</time>
      </trkpt>
      <trkpt lat="49.42081" lon="4.2495">
        <ele>86</ele>
        <time>2018-03-30T04:18:53Z</time>
      </trkpt>
      <trkpt lat="49.42074" lon="4.24871">
        <ele>86</ele>
        <time>2018-03-30T04:19:53Z</time>
      </trkpt>
      <trkpt lat="49.42067" lon="4.24813">
        <ele>85</ele>
        <time>2018-03-30T04:20:53Z</time>
      </trkpt>
      <trkpt lat="49.42049" lon="4.24701">
        <ele>85</ele>
        <time>2018-03-30T04:21:53Z</time>
      </trkpt>
      <trkpt lat="49.42028" lon="4.24575">
        <ele>85</ele>
        <time>2018-03-30T04:22:53Z</time>
      </trkpt>
      <trkpt lat="49.42012" lon="4.24482">
        <ele>85</ele>
        <time>2018-03-30T04:23:53Z</time>
      </trkpt>
      <trkpt lat="49.42006" lon="4.24452">
        <ele>84</ele>
        <time>2018-03-30T04:24:53Z</time>
      </trkpt>
      <trkpt lat="49.41986" lon="4.24337">
        <ele>83</ele>
        <time>2018-03-30T04:25:53Z</time>
      </trkpt>
      <trkpt lat="49.41972" lon="4.24251">
        <ele>83</ele>
        <time>2018-03-30T04:26:53Z</time>
      </trkpt>
      <trkpt lat="49.41959" lon="4.24159">
        <ele>83</ele>
        <time>2018-03-30T04:27:53Z</time>
      </trkpt>
      <trkpt lat="49.41951" lon="4.24086">
        <ele>82</ele>
        <time>2018-03-30T04:28:53Z</time>
      </trkpt>
      <trkpt lat="49.41945" lon="4.23983">
        <ele>83</ele>
        <time>2018-03-30T04:29:53Z</time>
      </trkpt>
      <trkpt lat="49.41944" lon="4.23925">
        <ele>84</ele>
        <time>2018-03-30T04:30:53Z</time>
      </trkpt>
      <trkpt lat="49.41945" lon="4.23837">
        <ele>84</ele>
        <time>2018-03-30T04:31:53Z</time>
      </trkpt>
      <trkpt lat="49.41944" lon="4.23777">
        <ele>84</ele>
        <time>2018-03-30T04:32:53Z</time>
      </trkpt>
      <trkpt lat="49.41945" lon="4.23642">
        <ele>84</ele>
        <time>2018-03-30T04:33:53Z</time>
      </trkpt>
      <trkpt lat="49.4194" lon="4.23524">
        <ele>83</ele>
        <time>2018-03-30T04:34:53Z</time>
      </trkpt>
      <trkpt lat="49.41933" lon="4.23419">
        <ele>83</ele>
        <time>2018-03-30T04:35:53Z</time>
      </trkpt>
      <trkpt lat="49.41932" lon="4.23363">
        <ele>83</ele>
        <time>2018-03-30T04:36:53Z</time>
      </trkpt>
      <trkpt lat="49.41936" lon="4.23315">
        <ele>82</ele>
        <time>2018-03-30T04:37:53Z</time>
      </trkpt>
      <trkpt lat="49.41942" lon="4.23194">
        <ele>82</ele>
        <time>2018-03-30T04:38:53Z</time>
      </trkpt>
      <trkpt lat="49.41954" lon="4.23092">
        <ele>82</ele>
        <time>2018-03-30T04:39:53Z</time>
      </trkpt>
      <trkpt lat="49.41969" lon="4.22967">
        <ele>83</ele>
        <time>2018-03-30T04:40:53Z</time>
      </trkpt>
      <trkpt lat="49.41978" lon="4.22896">
        <ele>84</ele>
        <time>2018-03-30T04:41:53Z</time>
      </trkpt>
      <trkpt lat="49.41984" lon="4.22846">
        <ele>83</ele>
        <time>2018-03-30T04:42:53Z</time>
      </trkpt>
      <trkpt lat="49.41993" lon="4.22772">
        <ele>83</ele>
        <time>2018-03-30T04:43:53Z</time>
      </trkpt>
      <trkpt lat="49.42009" lon="4.22647">
        <ele>83</ele>
        <time>2018-03-30T04:44:53Z</time>
      </trkpt>
      <trkpt lat="49.42028" lon="4.225">
        <ele>84</ele>
        <time>2018-03-30T04:45:53Z</time>
      </trkpt>
      <trkpt lat="49.4205" lon="4.2232">
        <ele>83</ele>
        <time>2018-03-30T04:46:53Z</time>
      </trkpt>
      <trkpt lat="49.42063" lon="4.22186">
        <ele>83</ele>
        <time>2018-03-30T04:47:53Z</time>
      </trkpt>
      <trkpt lat="49.42061" lon="4.2214">
        <ele>82</ele>
        <time>2018-03-30T04:48:53Z</time>
      </trkpt>
      <trkpt lat="49.42058" lon="4.22103">
        <ele>82</ele>
        <time>2018-03-30T04:49:53Z</time>
      </trkpt>
      <trkpt lat="49.42046" lon="4.22016">
        <ele>81</ele>
        <time>2018-03-30T04:50:53Z</time>
      </trkpt>
      <trkpt lat="49.42032" lon="4.21924">
        <ele>81</ele>
        <time>2018-03-30T04:51:53Z</time>
      </trkpt>
      <trkpt lat="49.42018" lon="4.21822">
        <ele>79</ele>
        <time>2018-03-30T04:52:53Z</time>
      </trkpt>
      <trkpt lat="49.42005" lon="4.21732">
        <ele>76</ele>
        <time>2018-03-30T04:53:53Z</time>
      </trkpt>
      <trkpt lat="49.41998" lon="4.21675">
        <ele>76</ele>
        <time>2018-03-30T04:54:53Z</time>
      </trkpt>
      <trkpt lat="49.41993" lon="4.21626">
        <ele>76</ele>
        <time>2018-03-30T04:55:53Z</time>
      </trkpt>
      <trkpt lat="49.41992" lon="4.21605">
        <ele>76</ele>
        <time>2018-03-30T04:56:53Z</time>
      </trkpt>
      <trkpt lat="49.41993" lon="4.2158">
        <ele>77</ele>
        <time>2018-03-30T04:57:53Z</time>
      </trkpt>
      <trkpt lat="49.41995" lon="4.21563">
        <ele>77</ele>
        <time>2018-03-30T04:58:53Z</time>
      </trkpt>
      <trkpt lat="49.41997" lon="4.2155">
        <ele>76</ele>
        <time>2018-03-30T04:59:53Z</time>
      </trkpt>
      <trkpt lat="49.42001" lon="4.21532">
        <ele>76</ele>
        <time>2018-03-30T05:00:53Z</time>
      </trkpt>
      <trkpt lat="49.42008" lon="4.21497">
        <ele>77</ele>
        <time>2018-03-30T05:01:53Z</time>
      </trkpt>
      <trkpt lat="49.42014" lon="4.21472">
        <ele>76</ele>
        <time>2018-03-30T05:02:53Z</time>
      </trkpt>
      <trkpt lat="49.42025" lon="4.21423">
        <ele>76</ele>
        <time>2018-03-30T05:03:53Z</time>
      </trkpt>
      <trkpt lat="49.42041" lon="4.21333">
        <ele>77</ele>
        <time>2018-03-30T05:04:53Z</time>
      </trkpt>
      <trkpt lat="49.42055" lon="4.2124">
        <ele>76</ele>
        <time>2018-03-30T05:05:53Z</time>
      </trkpt>
      <trkpt lat="49.42074" lon="4.21121">
        <ele>77</ele>
        <time>2018-03-30T05:06:53Z</time>
      </trkpt>
      <trkpt lat="49.42093" lon="4.20998">
        <ele>77</ele>
        <time>2018-03-30T05:07:53Z</time>
      </trkpt>
      <trkpt lat="49.42101" lon="4.2095">
        <ele>77</ele>
        <time>2018-03-30T05:08:53Z</time>
      </trkpt>
      <trkpt lat="49.42112" lon="4.20866">
        <ele>77</ele>
        <time>2018-03-30T05:09:53Z</time>
      </trkpt>
      <trkpt lat="49.42126" lon="4.20773">
        <ele>77</ele>
        <time>2018-03-30T05:10:53Z</time>
      </trkpt>
      <trkpt lat="49.4214" lon="4.20689">
        <ele>77</ele>
        <time>2018-03-30T05:11:53Z</time>
      </trkpt>
      <trkpt lat="49.42145" lon="4.20654">
        <ele>77</ele>
        <time>2018-03-30T05:12:53Z</time>
      </trkpt>
      <trkpt lat="49.42147" lon="4.20628">
        <ele>77</ele>
        <time>2018-03-30T05:13:53Z</time>
      </trkpt>
      <trkpt lat="49.42148" lon="4.20599">
        <ele>77</ele>
        <time>2018-03-30T05:14:53Z</time>
      </trkpt>
      <trkpt lat="49.42147" lon="4.20565">
        <ele>77</ele>
        <time>2018-03-30T05:15:53Z</time>
      </trkpt>
      <trkpt lat="49.42144" lon="4.2053">
        <ele>77</ele>
        <time>2018-03-30T05:16:53Z</time>
      </trkpt>
      <trkpt lat="49.42138" lon="4.20471">
        <ele>77</ele>
        <time>2018-03-30T05:17:53Z</time>
      </trkpt>
      <trkpt lat="49.4213" lon="4.20395">
        <ele>77</ele>
        <time>2018-03-30T05:18:53Z</time>
      </trkpt>
      <trkpt lat="49.42122" lon="4.20325">
        <ele>76</ele>
        <time>2018-03-30T05:19:53Z</time>
      </trkpt>
      <trkpt lat="49.42117" lon="4.20283">
        <ele>76</ele>
        <time>2018-03-30T05:20:53Z</time>
      </trkpt>
      <trkpt lat="49.42113" lon="4.20242">
        <ele>75</ele>
        <time>2018-03-30T05:21:53Z</time>
      </trkpt>
      <trkpt lat="49.42111" lon="4.20211">
        <ele>74</ele>
        <time>2018-03-30T05:22:53Z</time>
      </trkpt>
      <trkpt lat="49.42112" lon="4.20187">
        <ele>74</ele>
        <time>2018-03-30T05:23:53Z</time>
      </trkpt>
      <trkpt lat="49.42116" lon="4.20161">
        <ele>73</ele>
        <time>2018-03-30T05:24:53Z</time>
      </trkpt>
      <trkpt lat="49.42116" lon="4.2016">
        <ele>73</ele>
        <time>2018-03-30T05:25:53Z</time>
      </trkpt>
      <trkpt lat="49.42122" lon="4.20128">
        <ele>73</ele>
        <time>2018-03-30T05:26:53Z</time>
      </trkpt>
      <trkpt lat="49.4213" lon="4.20089">
        <ele>73</ele>
        <time>2018-03-30T05:27:53Z</time>
      </trkpt>
      <trkpt lat="49.42148" lon="4.20019">
        <ele>73</ele>
        <time>2018-03-30T05:28:53Z</time>
      </trkpt>
      <trkpt lat="49.4217" lon="4.19933">
        <ele>73</ele>
        <time>2018-03-30T05:29:53Z</time>
      </trkpt>
      <trkpt lat="49.42186" lon="4.19875">
        <ele>74</ele>
        <time>2018-03-30T05:30:53Z</time>
      </trkpt>
      <trkpt lat="49.42205" lon="4.19815">
        <ele>75</ele>
        <time>2018-03-30T05:31:53Z</time>
      </trkpt>
      <trkpt lat="49.42214" lon="4.19788">
        <ele>75</ele>
        <time>2018-03-30T05:32:53Z</time>
      </trkpt>
      <trkpt lat="49.42227" lon="4.19755">
        <ele>75</ele>
        <time>2018-03-30T05:33:53Z</time>
      </trkpt>
      <trkpt lat="49.42245" lon="4.19709">
        <ele>75</ele>
        <time>2018-03-30T05:34:53Z</time>
      </trkpt>
      <trkpt lat="49.42247" lon="4.19704">
        <ele>75</ele>
        <time>2018-03-30T05:35:53Z</time>
      </trkpt>
      <trkpt lat="49.4226" lon="4.1967">
        <ele>75</ele>
        <time>2018-03-30T05:36:53Z</time>
      </trkpt>
      <trkpt lat="49.42272" lon="4.19636">
        <ele>76</ele>
        <time>2018-03-30T05:37:53Z</time>
      </trkpt>
      <trkpt lat="49.42286" lon="4.196">
        <ele>76</ele>
        <time>2018-03-30T05:38:53Z</time>
      </trkpt>
      <trkpt lat="49.42305" lon="4.1955">
        <ele>76</ele>
        <time>2018-03-30T05:39:53Z</time>
      </trkpt>
      <trkpt lat="49.4232" lon="4.19506">
        <ele>76</ele>
        <time>2018-03-30T05:40:53Z</time>
      </trkpt>
      <trkpt lat="49.42334" lon="4.19467">
        <ele>76</ele>
        <time>2018-03-30T05:41:53Z</time>
      </trkpt>
      <trkpt lat="49.42346" lon="4.19423">
        <ele>76</ele>
        <time>2018-03-30T05:42:53Z</time>
      </trkpt>
      <trkpt lat="49.4236" lon="4.1937">
        <ele>77</ele>
        <time>2018-03-30T05:43:53Z</time>
      </trkpt>
      <trkpt lat="49.42379" lon="4.19302">
        <ele>77</ele>
        <time>2018-03-30T05:44:53Z</time>
      </trkpt>
      <trkpt lat="49.42397" lon="4.19237">
        <ele>77</ele>
        <time>2018-03-30T05:45:53Z</time>
      </trkpt>
      <trkpt lat="49.42417" lon="4.1916">
        <ele>76</ele>
        <time>2018-03-30T05:46:53Z</time>
      </trkpt>
      <trkpt lat="49.42438" lon="4.19083">
        <ele>76</ele>
        <time>2018-03-30T05:47:53Z</time>
      </trkpt>
      <trkpt lat="49.42459" lon="4.19007">
        <ele>77</ele>
        <time>2018-03-30T05:48:53Z</time>
      </trkpt>
      <trkpt lat="49.42474" lon="4.18954">
        <ele>76</ele>
        <time>2018-03-30T05:49:53Z</time>
      </trkpt>
      <trkpt lat="49.42484" lon="4.18917">
        <ele>76</ele>
        <time>2018-03-30T05:50:53Z</time>
      </trkpt>
      <trkpt lat="49.4249" lon="4.1889">
        <ele>76</ele>
        <time>2018-03-30T05:51:53Z</time>
      </trkpt>
      <trkpt lat="49.42495" lon="4.18868">
        <ele>76</ele>
        <time>2018-03-30T05:52:53Z</time>
      </trkpt>
      <trkpt lat="49.42499" lon="4.18843">
        <ele>76</ele>
        <time>2018-03-30T05:53:53Z</time>
      </trkpt>
      <trkpt lat="49.42499" lon="4.18819">
        <ele>76</ele>
        <time>2018-03-30T05:54:53Z</time>
      </trkpt>
      <trkpt lat="49.425" lon="4.18805">
        <ele>76</ele>
        <time>2018-03-30T05:55:53Z</time>
      </trkpt>
      <trkpt lat="49.42499" lon="4.18794">
        <ele>76</ele>
        <time>2018-03-30T05:56:53Z</time>
      </trkpt>
      <trkpt lat="49.42498" lon="4.18779">
        <ele>76</ele>
        <time>2018-03-30T05:57:53Z</time>
      </trkpt>
      <trkpt lat="49.42497" lon="4.1876">
        <ele>76</ele>
        <time>2018-03-30T05:58:53Z</time>
      </trkpt>
      <trkpt lat="49.42495" lon="4.18739">
        <ele>76</ele>
        <time>2018-03-30T05:59:53Z</time>
      </trkpt>
      <trkpt lat="49.42493" lon="4.18716">
        <ele>76</ele>
        <time>2018-03-30T06:00:53Z</time>
      </trkpt>
      <trkpt lat="49.42488" lon="4.18672">
        <ele>76</ele>
        <time>2018-03-30T06:01:53Z</time>
      </trkpt>
      <trkpt lat="49.42485" lon="4.18637">
        <ele>76</ele>
        <time>2018-03-30T06:02:53Z</time>
      </trkpt>
      <trkpt lat="49.42484" lon="4.18612">
        <ele>75</ele>
        <time>2018-03-30T06:03:53Z</time>
      </trkpt>
      <trkpt lat="49.42484" lon="4.18599">
        <ele>75</ele>
        <time>2018-03-30T06:04:53Z</time>
      </trkpt>
      <trkpt lat="49.42484" lon="4.18582">
        <ele>75</ele>
        <time>2018-03-30T06:05:53Z</time>
      </trkpt>
      <trkpt lat="49.42486" lon="4.18567">
        <ele>75</ele>
        <time>2018-03-30T06:06:53Z</time>
      </trkpt>
      <trkpt lat="49.42487" lon="4.18554">
        <ele>75</ele>
        <time>2018-03-30T06:07:53Z</time>
      </trkpt>
      <trkpt lat="49.42496" lon="4.1851">
        <ele>75</ele>
        <time>2018-03-30T06:08:53Z</time>
      </trkpt>
      <trkpt lat="49.42505" lon="4.18465">
        <ele>75</ele>
        <time>2018-03-30T06:09:53Z</time>
      </trkpt>
      <trkpt lat="49.42518" lon="4.18407">
        <ele>75</ele>
        <time>2018-03-30T06:10:53Z</time>
      </trkpt>
      <trkpt lat="49.42527" lon="4.18365">
        <ele>75</ele>
        <time>2018-03-30T06:11:53Z</time>
      </trkpt>
      <trkpt lat="49.42537" lon="4.18321">
        <ele>74</ele>
        <time>2018-03-30T06:12:53Z</time>
      </trkpt>
      <trkpt lat="49.4255" lon="4.18263">
        <ele>74</ele>
        <time>2018-03-30T06:13:53Z</time>
      </trkpt>
      <trkpt lat="49.42563" lon="4.18203">
        <ele>74</ele>
        <time>2018-03-30T06:14:53Z</time>
      </trkpt>
      <trkpt lat="49.42574" lon="4.18154">
        <ele>75</ele>
        <time>2018-03-30T06:15:53Z</time>
      </trkpt>
      <trkpt lat="49.42581" lon="4.18126">
        <ele>75</ele>
        <time>2018-03-30T06:16:53Z</time>
      </trkpt>
      <trkpt lat="49.42587" lon="4.18102">
        <ele>75</ele>
        <time>2018-03-30T06:17:53Z</time>
      </trkpt>
      <trkpt lat="49.42598" lon="4.18065">
        <ele>75</ele>
        <time>2018-03-30T06:18:53Z</time>
      </trkpt>
      <trkpt lat="49.42612" lon="4.18027">
        <ele>75</ele>
        <time>2018-03-30T06:19:53Z</time>
      </trkpt>
      <trkpt lat="49.42629" lon="4.17978">
        <ele>75</ele>
        <time>2018-03-30T06:20:53Z</time>
      </trkpt>
      <trkpt lat="49.42649" lon="4.17924">
        <ele>76</ele>
        <time>2018-03-30T06:21:53Z</time>
      </trkpt>
      <trkpt lat="49.42653" lon="4.17911">
        <ele>76</ele>
        <time>2018-03-30T06:22:53Z</time>
      </trkpt>
      <trkpt lat="49.42655" lon="4.17907">
        <ele>75</ele>
        <time>2018-03-30T06:23:53Z</time>
      </trkpt>
      <trkpt lat="49.42656" lon="4.17904">
        <ele>75</ele>
        <time>2018-03-30T06:24:53Z</time>
      </trkpt>
      <trkpt lat="49.42663" lon="4.17877">
        <ele>75</ele>
        <time>2018-03-30T06:25:53Z</time>
      </trkpt>
      <trkpt lat="49.42668" lon="4.17861">
        <ele>75</ele>
        <time>2018-03-30T06:26:53Z</time>
      </trkpt>
      <trkpt lat="49.42676" lon="4.17836">
        <ele>74</ele>
        <time>2018-03-30T06:27:53Z</time>
      </trkpt>
      <trkpt lat="49.42683" lon="4.1781">
        <ele>74</ele>
        <time>2018-03-30T06:28:53Z</time>
      </trkpt>
      <trkpt lat="49.42689" lon="4.17797">
        <ele>74</ele>
        <time>2018-03-30T06:29:53Z</time>
      </trkpt>
      <trkpt lat="49.42694" lon="4.17788">
        <ele>73</ele>
        <time>2018-03-30T06:30:53Z</time>
      </trkpt>
      <trkpt lat="49.42699" lon="4.17777">
        <ele>73</ele>
        <time>2018-03-30T06:31:53Z</time>
      </trkpt>
      <trkpt lat="49.42702" lon="4.17768">
        <ele>73</ele>
        <time>2018-03-30T06:32:53Z</time>
      </trkpt>
      <trkpt lat="49.42703" lon="4.17765">
        <ele>73</ele>
        <time>2018-03-30T06:33:53Z</time>
      </trkpt>
      <trkpt lat="49.42704" lon="4.17762">
        <ele>73</ele>
        <time>2018-03-30T06:34:53Z</time>
      </trkpt>
      <trkpt lat="49.42704" lon="4.17758">
        <ele>73</ele>
        <time>2018-03-30T06:35:53Z</time>
      </trkpt>
      <trkpt lat="49.42705" lon="4.17755">
        <ele>73</ele>
        <time>2018-03-30T06:36:53Z</time>
      </trkpt>
      <trkpt lat="49.42705" lon="4.17753">
        <ele>73</ele>
        <time>2018-03-30T06:37:53Z</time>
      </trkpt>
      <trkpt lat="49.42705" lon="4.1775">
        <ele>73</ele>
        <time>2018-03-30T06:38:53Z</time>
      </trkpt>
      <trkpt lat="49.42705" lon="4.17748">
        <ele>73</ele>
        <time>2018-03-30T06:39:53Z</time>
      </trkpt>
      <trkpt lat="49.42705" lon="4.17746">
        <ele>73</ele>
        <time>2018-03-30T06:40:53Z</time>
      </trkpt>
      <trkpt lat="49.42705" lon="4.17744">
        <ele>73</ele>
        <time>2018-03-30T06:41:53Z</time>
      </trkpt>
      <trkpt lat="49.42705" lon="4.17742">
        <ele>73</ele>
        <time>2018-03-30T06:42:53Z</time>
      </trkpt>
      <trkpt lat="49.42704" lon="4.1774">
        <ele>73</ele>
        <time>2018-03-30T06:43:53Z</time>
      </trkpt>
      <trkpt lat="49.42701" lon="4.17723">
        <ele>73</ele>
        <time>2018-03-30T06:44:53Z</time>
      </trkpt>
      <trkpt lat="49.42701" lon="4.17723">
        <ele>73</ele>
        <time>2018-03-30T06:45:53Z</time>
      </trkpt>
      <trkpt lat="49.42698" lon="4.17721">
        <ele>73</ele>
        <time>2018-03-30T06:46:53Z</time>
      </trkpt>
      <trkpt lat="49.42689" lon="4.17717">
        <ele>73</ele>
        <time>2018-03-30T06:47:53Z</time>
      </trkpt>
      <trkpt lat="49.4268" lon="4.17714">
        <ele>73</ele>
        <time>2018-03-30T06:48:53Z</time>
      </trkpt>
      <trkpt lat="49.42665" lon="4.1771">
        <ele>72</ele>
        <time>2018-03-30T06:49:53Z</time>
      </trkpt>
      <trkpt lat="49.42652" lon="4.17703">
        <ele>72</ele>
        <time>2018-03-30T06:50:53Z</time>
      </trkpt>
      <trkpt lat="49.42638" lon="4.17692">
        <ele>72</ele>
        <time>2018-03-30T06:51:53Z</time>
      </trkpt>
      <trkpt lat="49.42626" lon="4.17678">
        <ele>72</ele>
        <time>2018-03-30T06:52:53Z</time>
      </trkpt>
      <trkpt lat="49.4261" lon="4.1765">
        <ele>71</ele>
        <time>2018-03-30T06:53:53Z</time>
      </trkpt>
      <trkpt lat="49.42591" lon="4.17615">
        <ele>70</ele>
        <time>2018-03-30T06:54:53Z</time>
      </trkpt>
      <trkpt lat="49.42583" lon="4.17601">
        <ele>69</ele>
        <time>2018-03-30T06:55:53Z</time>
      </trkpt>
      <trkpt lat="49.42579" lon="4.17594">
        <ele>69</ele>
        <time>2018-03-30T06:56:53Z</time>
      </trkpt>
      <trkpt lat="49.42575" lon="4.17588">
        <ele>69</ele>
        <time>2018-03-30T06:57:53Z</time>
      </trkpt>
      <trkpt lat="49.4257" lon="4.17582">
        <ele>69</ele>
        <time>2018-03-30T06:58:53Z</time>
      </trkpt>
      <trkpt lat="49.42564" lon="4.17574">
        <ele>69</ele>
        <time>2018-03-30T06:59:53Z</time>
      </trkpt>
      <trkpt lat="49.42552" lon="4.17562">
        <ele>70</ele>
        <time>2018-03-30T07:00:53Z</time>
      </trkpt>
      <trkpt lat="49.42539" lon="4.17551">
        <ele>70</ele>
        <time>2018-03-30T07:01:53Z</time>
      </trkpt>
      <trkpt lat="49.42521" lon="4.17535">
        <ele>70</ele>
        <time>2018-03-30T07:02:53Z</time>
      </trkpt>
      <trkpt lat="49.42489" lon="4.17507">
        <ele>70</ele>
        <time>2018-03-30T07:03:53Z</time>
      </trkpt>
      <trkpt lat="49.42466" lon="4.17488">
        <ele>70</ele>
        <time>2018-03-30T07:04:53Z</time>
      </trkpt>
      <trkpt lat="49.42439" lon="4.17469">
        <ele>70</ele>
        <time>2018-03-30T07:05:53Z</time>
      </trkpt>
      <trkpt lat="49.42414" lon="4.17449">
        <ele>70</ele>
        <time>2018-03-30T07:06:53Z</time>
      </trkpt>
      <trkpt lat="49.42406" lon="4.17442">
        <ele>70</ele>
        <time>2018-03-30T07:07:53Z</time>
      </trkpt>
      <trkpt lat="49.42399" lon="4.17435">
        <ele>70</ele>
        <time>2018-03-30T07:08:53Z</time>
      </trkpt>
      <trkpt lat="49.42399" lon="4.17435">
        <ele>70</ele>
        <time>2018-03-30T07:09:53Z</time>
      </trkpt>
      <trkpt lat="49.42379" lon="4.17498">
        <ele>69</ele>
        <time>2018-03-30T07:10:53Z</time>
      </trkpt>
      <trkpt lat="49.42364" lon="4.175">
        <ele>69</ele>
        <time>2018-03-30T07:11:53Z</time>
      </trkpt>
      <trkpt lat="49.42327" lon="4.1751">
        <ele>69</ele>
        <time>2018-03-30T07:12:53Z</time>
      </trkpt>
      <trkpt lat="49.4232" lon="4.17511">
        <ele>69</ele>
        <time>2018-03-30T07:13:53Z</time>
      </trkpt>
      <trkpt lat="49.42309" lon="4.17514">
        <ele>70</ele>
        <time>2018-03-30T07:14:53Z</time>
      </trkpt>
      <trkpt lat="49.42299" lon="4.17517">
        <ele>70</ele>
        <time>2018-03-30T07:15:53Z</time>
      </trkpt>
      <trkpt lat="49.42286" lon="4.17521">
        <ele>70</ele>
        <time>2018-03-30T07:16:53Z</time>
      </trkpt>
      <trkpt lat="49.42276" lon="4.17527">
        <ele>70</ele>
        <time>2018-03-30T07:17:53Z</time>
      </trkpt>
      <trkpt lat="49.4227" lon="4.1753">
        <ele>70</ele>
        <time>2018-03-30T07:18:53Z</time>
      </trkpt>
      <trkpt lat="49.42261" lon="4.17536">
        <ele>71</ele>
        <time>2018-03-30T07:19:53Z</time>
      </trkpt>
      <trkpt lat="49.42244" lon="4.17549">
        <ele>71</ele>
        <time>2018-03-30T07:20:53Z</time>
      </trkpt>
      <trkpt lat="49.4222" lon="4.17568">
        <ele>73</ele>
        <time>2018-03-30T07:21:53Z</time>
      </trkpt>
      <trkpt lat="49.42185" lon="4.17596">
        <ele>74</ele>
        <time>2018-03-30T07:22:53Z</time>
      </trkpt>
      <trkpt lat="49.42171" lon="4.17607">
        <ele>75</ele>
        <time>2018-03-30T07:23:53Z</time>
      </trkpt>
      <trkpt lat="49.42158" lon="4.17617">
        <ele>75</ele>
        <time>2018-03-30T07:24:53Z</time>
      </trkpt>
      <trkpt lat="49.42148" lon="4.17625">
        <ele>75</ele>
        <time>2018-03-30T07:25:53Z</time>
      </trkpt>
      <trkpt lat="49.4214" lon="4.17631">
        <ele>74</ele>
        <time>2018-03-30T07:26:53Z</time>
      </trkpt>
      <trkpt lat="49.4213" lon="4.17639">
        <ele>74</ele>
        <time>2018-03-30T07:27:53Z</time>
      </trkpt>
      <trkpt lat="49.42122" lon="4.17645">
        <ele>74</ele>
        <time>2018-03-30T07:28:53Z</time>
      </trkpt>
      <trkpt lat="49.42114" lon="4.1765">
        <ele>74</ele>
        <time>2018-03-30T07:29:53Z</time>
      </trkpt>
      <trkpt lat="49.42103" lon="4.17657">
        <ele>74</ele>
        <time>2018-03-30T07:30:53Z</time>
      </trkpt>
      <trkpt lat="49.42093" lon="4.17662">
        <ele>73</ele>
        <time>2018-03-30T07:31:53Z</time>
      </trkpt>
      <trkpt lat="49.42075" lon="4.17669">
        <ele>73</ele>
        <time>2018-03-30T07:32:53Z</time>
      </trkpt>
      <trkpt lat="49.42069" lon="4.17671">
        <ele>73</ele>
        <time>2018-03-30T07:33:53Z</time>
      </trkpt>
      <trkpt lat="49.42063" lon="4.17675">
        <ele>73</ele>
        <time>2018-03-30T07:34:53Z</time>
      </trkpt>
      <trkpt lat="49.42051" lon="4.17674">
        <ele>73</ele>
        <time>2018-03-30T07:35:53Z</time>
      </trkpt>
      <trkpt lat="49.42036" lon="4.17673">
        <ele>73</ele>
        <time>2018-03-30T07:36:53Z</time>
      </trkpt>
      <trkpt lat="49.42015" lon="4.17671">
        <ele>74</ele>
        <time>2018-03-30T07:37:53Z</time>
      </trkpt>
      <trkpt lat="49.41994" lon="4.17667">
        <ele>74</ele>
        <time>2018-03-30T07:38:53Z</time>
      </trkpt>
      <trkpt lat="49.41961" lon="4.17658">
        <ele>76</ele>
        <time>2018-03-30T07:39:53Z</time>
      </trkpt>
      <trkpt lat="49.41902" lon="4.17644">
        <ele>79</ele>
        <time>2018-03-30T07:40:53Z</time>
      </trkpt>
      <trkpt lat="49.41853" lon="4.17631">
        <ele>82</ele>
        <time>2018-03-30T07:41:53Z</time>
      </trkpt>
      <trkpt lat="49.41835" lon="4.17626">
        <ele>82</ele>
        <time>2018-03-30T07:42:53Z</time>
      </trkpt>
      <trkpt lat="49.41831" lon="4.17625">
        <ele>83</ele>
        <time>2018-03-30T07:43:53Z</time>
      </trkpt>
      <trkpt lat="49.41823" lon="4.17622">
        <ele>83</ele>
        <time>2018-03-30T07:44:53Z</time>
      </trkpt>
      <trkpt lat="49.41795" lon="4.17615">
        <ele>83</ele>
        <time>2018-03-30T07:45:53Z</time>
      </trkpt>
      <trkpt lat="49.41763" lon="4.17606">
        <ele>83</ele>
        <time>2018-03-30T07:46:53Z</time>
      </trkpt>
      <trkpt lat="49.4172" lon="4.17588">
        <ele>83</ele>
        <time>2018-03-30T07:47:53Z</time>
      </trkpt>
      <trkpt lat="49.41669" lon="4.17568">
        <ele>82</ele>
        <time>2018-03-30T07:48:53Z</time>
      </trkpt>
      <trkpt lat="49.41612" lon="4.17544">
        <ele>80</ele>
        <time>2018-03-30T07:49:53Z</time>
      </trkpt>
      <trkpt lat="49.41543" lon="4.17515">
        <ele>78</ele>
        <time>2018-03-30T07:50:53Z</time>
      </trkpt>
      <trkpt lat="49.41514" lon="4.17504">
        <ele>78</ele>
        <time>2018-03-30T07:51:53Z</time>
      </trkpt>
      <trkpt lat="49.41503" lon="4.17501">
        <ele>78</ele>
        <time>2018-03-30T07:52:53Z</time>
      </trkpt>
      <trkpt lat="49.41454" lon="4.17492">
        <ele>77</ele>
        <time>2018-03-30T07:53:53Z</time>
      </trkpt>
      <trkpt lat="49.41373" lon="4.17487">
        <ele>77</ele>
        <time>2018-03-30T07:54:53Z</time>
      </trkpt>
      <trkpt lat="49.41307" lon="4.17483">
        <ele>78</ele>
        <time>2018-03-30T07:55:53Z</time>
      </trkpt>
      <trkpt lat="49.41243" lon="4.17478">
        <ele>80</ele>
        <time>2018-03-30T07:56:53Z</time>
      </trkpt>
      <trkpt lat="49.41184" lon="4.17473">
        <ele>83</ele>
        <time>2018-03-30T07:57:53Z</time>
      </trkpt>
      <trkpt lat="49.41118" lon="4.17468">
        <ele>85</ele>
        <time>2018-03-30T07:58:53Z</time>
      </trkpt>
      <trkpt lat="49.41052" lon="4.17463">
        <ele>86</ele>
        <time>2018-03-30T07:59:53Z</time>
      </trkpt>
      <trkpt lat="49.40993" lon="4.1746">
        <ele>88</ele>
        <time>2018-03-30T08:00:53Z</time>
      </trkpt>
      <trkpt lat="49.40931" lon="4.17455">
        <ele>88</ele>
        <time>2018-03-30T08:01:53Z</time>
      </trkpt>
      <trkpt lat="49.40851" lon="4.17447">
        <ele>87</ele>
        <time>2018-03-30T08:02:53Z</time>
      </trkpt>
      <trkpt lat="49.40783" lon="4.17442">
        <ele>86</ele>
        <time>2018-03-30T08:03:53Z</time>
      </trkpt>
      <trkpt lat="49.40762" lon="4.17441">
        <ele>86</ele>
        <time>2018-03-30T08:04:53Z</time>
      </trkpt>
      <trkpt lat="49.4071" lon="4.17441">
        <ele>86</ele>
        <time>2018-03-30T08:05:53Z</time>
      </trkpt>
      <trkpt lat="49.40671" lon="4.17443">
        <ele>86</ele>
        <time>2018-03-30T08:06:53Z</time>
      </trkpt>
      <trkpt lat="49.40619" lon="4.17447">
        <ele>89</ele>
        <time>2018-03-30T08:07:53Z</time>
      </trkpt>
      <trkpt lat="49.40584" lon="4.17448">
        <ele>91</ele>
        <time>2018-03-30T08:08:53Z</time>
      </trkpt>
      <trkpt lat="49.40552" lon="4.17448">
        <ele>92</ele>
        <time>2018-03-30T08:09:53Z</time>
      </trkpt>
      <trkpt lat="49.40516" lon="4.17447">
        <ele>94</ele>
        <time>2018-03-30T08:10:53Z</time>
      </trkpt>
      <trkpt lat="49.40447" lon="4.17443">
        <ele>97</ele>
        <time>2018-03-30T08:11:53Z</time>
      </trkpt>
      <trkpt lat="49.40419" lon="4.17441">
        <ele>99</ele>
        <time>2018-03-30T08:12:53Z</time>
      </trkpt>
      <trkpt lat="49.40352" lon="4.17437">
        <ele>100</ele>
        <time>2018-03-30T08:13:53Z</time>
      </trkpt>
      <trkpt lat="49.40277" lon="4.17431">
        <ele>100</ele>
        <time>2018-03-30T08:14:53Z</time>
      </trkpt>
      <trkpt lat="49.40215" lon="4.17427">
        <ele>99</ele>
        <time>2018-03-30T08:15:53Z</time>
      </trkpt>
      <trkpt lat="49.40183" lon="4.17424">
        <ele>98</ele>
        <time>2018-03-30T08:16:53Z</time>
      </trkpt>
      <trkpt lat="49.40158" lon="4.17421">
        <ele>98</ele>
        <time>2018-03-30T08:17:53Z</time>
      </trkpt>
      <trkpt lat="49.40158" lon="4.17421">
        <ele>98</ele>
        <time>2018-03-30T08:18:53Z</time>
      </trkpt>
      <trkpt lat="49.4015" lon="4.17419">
        <ele>98</ele>
        <time>2018-03-30T08:19:53Z</time>
      </trkpt>
      <trkpt lat="49.40142" lon="4.17416">
        <ele>97</ele>
        <time>2018-03-30T08:20:53Z</time>
      </trkpt>
      <trkpt lat="49.40134" lon="4.17411">
        <ele>97</ele>
        <time>2018-03-30T08:21:53Z</time>
      </trkpt>
      <trkpt lat="49.40123" lon="4.17403">
        <ele>97</ele>
        <time>2018-03-30T08:22:53Z</time>
      </trkpt>
      <trkpt lat="49.39981" lon="4.17293">
        <ele>95</ele>
        <time>2018-03-30T08:23:53Z</time>
      </trkpt>
      <trkpt lat="49.39839" lon="4.17183">
        <ele>90</ele>
        <time>2018-03-30T08:24:53Z</time>
      </trkpt>
      <trkpt lat="49.39697" lon="4.17073">
        <ele>87</ele>
        <time>2018-03-30T08:25:53Z</time>
      </trkpt>
      <trkpt lat="49.39596" lon="4.16995">
        <ele>86</ele>
        <time>2018-03-30T08:26:53Z</time>
      </trkpt>
      <trkpt lat="49.39517" lon="4.16936">
        <ele>87</ele>
        <time>2018-03-30T08:27:53Z</time>
      </trkpt>
      <trkpt lat="49.39437" lon="4.16875">
        <ele>88</ele>
        <time>2018-03-30T08:28:53Z</time>
      </trkpt>
      <trkpt lat="49.39369" lon="4.16823">
        <ele>89</ele>
        <time>2018-03-30T08:29:53Z</time>
      </trkpt>
      <trkpt lat="49.39291" lon="4.16765">
        <ele>90</ele>
        <time>2018-03-30T08:30:53Z</time>
      </trkpt>
      <trkpt lat="49.39219" lon="4.1671">
        <ele>91</ele>
        <time>2018-03-30T08:31:53Z</time>
      </trkpt>
      <trkpt lat="49.39146" lon="4.16656">
        <ele>91</ele>
        <time>2018-03-30T08:32:53Z</time>
      </trkpt>
      <trkpt lat="49.39104" lon="4.16624">
        <ele>90</ele>
        <time>2018-03-30T08:33:53Z</time>
      </trkpt>
      <trkpt lat="49.39057" lon="4.16589">
        <ele>89</ele>
        <time>2018-03-30T08:34:53Z</time>
      </trkpt>
      <trkpt lat="49.39025" lon="4.16565">
        <ele>88</ele>
        <time>2018-03-30T08:35:53Z</time>
      </trkpt>
      <trkpt lat="49.39006" lon="4.16551">
        <ele>88</ele>
        <time>2018-03-30T08:36:53Z</time>
      </trkpt>
      <trkpt lat="49.39006" lon="4.16551">
        <ele>88</ele>
        <time>2018-03-30T08:37:53Z</time>
      </trkpt>
      <trkpt lat="49.3895" lon="4.16507">
        <ele>86</ele>
        <time>2018-03-30T08:38:53Z</time>
      </trkpt>
      <trkpt lat="49.38895" lon="4.16467">
        <ele>85</ele>
        <time>2018-03-30T08:39:53Z</time>
      </trkpt>
      <trkpt lat="49.38866" lon="4.16445">
        <ele>85</ele>
        <time>2018-03-30T08:40:53Z</time>
      </trkpt>
      <trkpt lat="49.3886" lon="4.16441">
        <ele>85</ele>
        <time>2018-03-30T08:41:53Z</time>
      </trkpt>
      <trkpt lat="49.38824" lon="4.16413">
        <ele>85</ele>
        <time>2018-03-30T08:42:53Z</time>
      </trkpt>
      <trkpt lat="49.38775" lon="4.16377">
        <ele>85</ele>
        <time>2018-03-30T08:43:53Z</time>
      </trkpt>
      <trkpt lat="49.38721" lon="4.16336">
        <ele>85</ele>
        <time>2018-03-30T08:44:53Z</time>
      </trkpt>
      <trkpt lat="49.38693" lon="4.16315">
        <ele>86</ele>
        <time>2018-03-30T08:45:53Z</time>
      </trkpt>
      <trkpt lat="49.38662" lon="4.16292">
        <ele>86</ele>
        <time>2018-03-30T08:46:53Z</time>
      </trkpt>
      <trkpt lat="49.38601" lon="4.16246">
        <ele>86</ele>
        <time>2018-03-30T08:47:53Z</time>
      </trkpt>
      <trkpt lat="49.38563" lon="4.16217">
        <ele>86</ele>
        <time>2018-03-30T08:48:53Z</time>
      </trkpt>
      <trkpt lat="49.38537" lon="4.16197">
        <ele>86</ele>
        <time>2018-03-30T08:49:53Z</time>
      </trkpt>
      <trkpt lat="49.38467" lon="4.16145">
        <ele>87</ele>
        <time>2018-03-30T08:50:53Z</time>
      </trkpt>
      <trkpt lat="49.38402" lon="4.16097">
        <ele>87</ele>
        <time>2018-03-30T08:51:53Z</time>
      </trkpt>
      <trkpt lat="49.3831" lon="4.16029">
        <ele>87</ele>
        <time>2018-03-30T08:52:53Z</time>
      </trkpt>
      <trkpt lat="49.38218" lon="4.15961">
        <ele>85</ele>
        <time>2018-03-30T08:53:53Z</time>
      </trkpt>
      <trkpt lat="49.38182" lon="4.15934">
        <ele>84</ele>
        <time>2018-03-30T08:54:53Z</time>
      </trkpt>
      <trkpt lat="49.38131" lon="4.15895">
        <ele>83</ele>
        <time>2018-03-30T08:55:53Z</time>
      </trkpt>
      <trkpt lat="49.38116" lon="4.15884">
        <ele>83</ele>
        <time>2018-03-30T08:56:53Z</time>
      </trkpt>
      <trkpt lat="49.38054" lon="4.15838">
        <ele>82</ele>
        <time>2018-03-30T08:57:53Z</time>
      </trkpt>
      <trkpt lat="49.37989" lon="4.15789">
        <ele>81</ele>
        <time>2018-03-30T08:58:53Z</time>
      </trkpt>
      <trkpt lat="49.3796" lon="4.15767">
        <ele>81</ele>
        <time>2018-03-30T08:59:53Z</time>
      </trkpt>
      <trkpt lat="49.37902" lon="4.15724">
        <ele>79</ele>
        <time>2018-03-30T09:00:53Z</time>
      </trkpt>
      <trkpt lat="49.37845" lon="4.15681">
        <ele>78</ele>
        <time>2018-03-30T09:01:53Z</time>
      </trkpt>
      <trkpt lat="49.37833" lon="4.15672">
        <ele>78</ele>
        <time>2018-03-30T09:02:53Z</time>
      </trkpt>
      <trkpt lat="49.37822" lon="4.15661">
        <ele>77</ele>
        <time>2018-03-30T09:03:53Z</time>
      </trkpt>
      <trkpt lat="49.37756" lon="4.15613">
        <ele>74</ele>
        <time>2018-03-30T09:04:53Z</time>
      </trkpt>
      <trkpt lat="49.37707" lon="4.15576">
        <ele>74</ele>
        <time>2018-03-30T09:05:53Z</time>
      </trkpt>
      <trkpt lat="49.3765" lon="4.15532">
        <ele>74</ele>
        <time>2018-03-30T09:06:53Z</time>
      </trkpt>
      <trkpt lat="49.37585" lon="4.15485">
        <ele>73</ele>
        <time>2018-03-30T09:07:53Z</time>
      </trkpt>
      <trkpt lat="49.3755" lon="4.15456">
        <ele>73</ele>
        <time>2018-03-30T09:08:53Z</time>
      </trkpt>
      <trkpt lat="49.37545" lon="4.15454">
        <ele>73</ele>
        <time>2018-03-30T09:09:53Z</time>
      </trkpt>
      <trkpt lat="49.37537" lon="4.15448">
        <ele>73</ele>
        <time>2018-03-30T09:10:53Z</time>
      </trkpt>
      <trkpt lat="49.37512" lon="4.15427">
        <ele>72</ele>
        <time>2018-03-30T09:11:53Z</time>
      </trkpt>
      <trkpt lat="49.37463" lon="4.15386">
        <ele>72</ele>
        <time>2018-03-30T09:12:53Z</time>
      </trkpt>
      <trkpt lat="49.37382" lon="4.15321">
        <ele>71</ele>
        <time>2018-03-30T09:13:53Z</time>
      </trkpt>
      <trkpt lat="49.37358" lon="4.153">
        <ele>71</ele>
        <time>2018-03-30T09:14:53Z</time>
      </trkpt>
      <trkpt lat="49.37344" lon="4.15287">
        <ele>71</ele>
        <time>2018-03-30T09:15:53Z</time>
      </trkpt>
      <trkpt lat="49.37341" lon="4.15282">
        <ele>70</ele>
        <time>2018-03-30T09:16:53Z</time>
      </trkpt>
      <trkpt lat="49.37337" lon="4.15278">
        <ele>70</ele>
        <time>2018-03-30T09:17:53Z</time>
      </trkpt>
      <trkpt lat="49.37333" lon="4.15272">
        <ele>70</ele>
        <time>2018-03-30T09:18:53Z</time>
      </trkpt>
      <trkpt lat="49.37327" lon="4.15262">
        <ele>70</ele>
        <time>2018-03-30T09:19:53Z</time>
      </trkpt>
      <trkpt lat="49.37325" lon="4.15258">
        <ele>70</ele>
        <time>2018-03-30T09:20:53Z</time>
      </trkpt>
      <trkpt lat="49.37323" lon="4.15253">
        <ele>70</ele>
        <time>2018-03-30T09:21:53Z</time>
      </trkpt>
      <trkpt lat="49.37319" lon="4.15244">
        <ele>70</ele>
        <time>2018-03-30T09:22:53Z</time>
      </trkpt>
      <trkpt lat="49.37318" lon="4.15241">
        <ele>70</ele>
        <time>2018-03-30T09:23:53Z</time>
      </trkpt>
      <trkpt lat="49.37309" lon="4.15218">
        <ele>70</ele>
        <time>2018-03-30T09:24:53Z</time>
      </trkpt>
      <trkpt lat="49.37304" lon="4.15209">
        <ele>70</ele>
        <time>2018-03-30T09:25:53Z</time>
      </trkpt>
      <trkpt lat="49.37301" lon="4.15201">
        <ele>70</ele>
        <time>2018-03-30T09:26:53Z</time>
      </trkpt>
      <trkpt lat="49.37298" lon="4.15193">
        <ele>70</ele>
        <time>2018-03-30T09:27:53Z</time>
      </trkpt>
      <trkpt lat="49.37296" lon="4.15187">
        <ele>70</ele>
        <time>2018-03-30T09:28:53Z</time>
      </trkpt>
      <trkpt lat="49.37288" lon="4.15167">
        <ele>70</ele>
        <time>2018-03-30T09:29:53Z</time>
      </trkpt>
      <trkpt lat="49.37284" lon="4.15154">
        <ele>70</ele>
        <time>2018-03-30T09:30:53Z</time>
      </trkpt>
      <trkpt lat="49.37282" lon="4.15145">
        <ele>70</ele>
        <time>2018-03-30T09:31:53Z</time>
      </trkpt>
      <trkpt lat="49.37281" lon="4.15137">
        <ele>71</ele>
        <time>2018-03-30T09:32:53Z</time>
      </trkpt>
      <trkpt lat="49.37279" lon="4.15126">
        <ele>71</ele>
        <time>2018-03-30T09:33:53Z</time>
      </trkpt>
      <trkpt lat="49.37279" lon="4.15116">
        <ele>71</ele>
        <time>2018-03-30T09:34:53Z</time>
      </trkpt>
      <trkpt lat="49.37278" lon="4.15093">
        <ele>71</ele>
        <time>2018-03-30T09:35:53Z</time>
      </trkpt>
      <trkpt lat="49.37275" lon="4.15049">
        <ele>71</ele>
        <time>2018-03-30T09:36:53Z</time>
      </trkpt>
      <trkpt lat="49.37271" lon="4.15013">
        <ele>71</ele>
        <time>2018-03-30T09:37:53Z</time>
      </trkpt>
      <trkpt lat="49.3727" lon="4.15002">
        <ele>71</ele>
        <time>2018-03-30T09:38:53Z</time>
      </trkpt>
      <trkpt lat="49.37269" lon="4.14995">
        <ele>71</ele>
        <time>2018-03-30T09:39:53Z</time>
      </trkpt>
      <trkpt lat="49.37269" lon="4.14986">
        <ele>71</ele>
        <time>2018-03-30T09:40:53Z</time>
      </trkpt>
      <trkpt lat="49.37268" lon="4.14978">
        <ele>71</ele>
        <time>2018-03-30T09:41:53Z</time>
      </trkpt>
      <trkpt lat="49.37268" lon="4.14968">
        <ele>71</ele>
        <time>2018-03-30T09:42:53Z</time>
      </trkpt>
      <trkpt lat="49.37267" lon="4.14959">
        <ele>71</ele>
        <time>2018-03-30T09:43:53Z</time>
      </trkpt>
      <trkpt lat="49.37267" lon="4.14956">
        <ele>71</ele>
        <time>2018-03-30T09:44:53Z</time>
      </trkpt>
      <trkpt lat="49.37266" lon="4.14951">
        <ele>71</ele>
        <time>2018-03-30T09:45:53Z</time>
      </trkpt>
      <trkpt lat="49.37265" lon="4.14946">
        <ele>71</ele>
        <time>2018-03-30T09:46:53Z</time>
      </trkpt>
      <trkpt lat="49.37263" lon="4.14941">
        <ele>71</ele>
        <time>2018-03-30T09:47:53Z</time>
      </trkpt>
      <trkpt lat="49.37262" lon="4.14937">
        <ele>71</ele>
        <time>2018-03-30T09:48:53Z</time>
      </trkpt>
      <trkpt lat="49.37259" lon="4.14931">
        <ele>71</ele>
        <time>2018-03-30T09:49:53Z</time>
      </trkpt>
      <trkpt lat="49.37255" lon="4.14926">
        <ele>71</ele>
        <time>2018-03-30T09:50:53Z</time>
      </trkpt>
      <trkpt lat="49.37249" lon="4.14918">
        <ele>71</ele>
        <time>2018-03-30T09:51:53Z</time>
      </trkpt>
      <trkpt lat="49.37234" lon="4.14902">
        <ele>71</ele>
        <time>2018-03-30T09:52:53Z</time>
      </trkpt>
      <trkpt lat="49.37219" lon="4.14886">
        <ele>70</ele>
        <time>2018-03-30T09:53:53Z</time>
      </trkpt>
      <trkpt lat="49.37218" lon="4.14884">
        <ele>70</ele>
        <time>2018-03-30T09:54:53Z</time>
      </trkpt>
      <trkpt lat="49.37212" lon="4.14878">
        <ele>70</ele>
        <time>2018-03-30T09:55:53Z</time>
      </trkpt>
      <trkpt lat="49.37206" lon="4.14872">
        <ele>70</ele>
        <time>2018-03-30T09:56:53Z</time>
      </trkpt>
      <trkpt lat="49.37204" lon="4.1487">
        <ele>70</ele>
        <time>2018-03-30T09:57:53Z</time>
      </trkpt>
      <trkpt lat="49.37198" lon="4.14864">
        <ele>70</ele>
        <time>2018-03-30T09:58:53Z</time>
      </trkpt>
      <trkpt lat="49.37186" lon="4.14853">
        <ele>70</ele>
        <time>2018-03-30T09:59:53Z</time>
      </trkpt>
      <trkpt lat="49.3718" lon="4.14849">
        <ele>70</ele>
        <time>2018-03-30T10:00:53Z</time>
      </trkpt>
      <trkpt lat="49.37167" lon="4.14842">
        <ele>70</ele>
        <time>2018-03-30T10:01:53Z</time>
      </trkpt>
      <trkpt lat="49.37155" lon="4.14836">
        <ele>70</ele>
        <time>2018-03-30T10:02:53Z</time>
      </trkpt>
      <trkpt lat="49.37142" lon="4.14831">
        <ele>71</ele>
        <time>2018-03-30T10:03:53Z</time>
      </trkpt>
      <trkpt lat="49.37125" lon="4.14826">
        <ele>71</ele>
        <time>2018-03-30T10:04:53Z</time>
      </trkpt>
      <trkpt lat="49.37102" lon="4.1482">
        <ele>71</ele>
        <time>2018-03-30T10:05:53Z</time>
      </trkpt>
      <trkpt lat="49.37086" lon="4.14819">
        <ele>72</ele>
        <time>2018-03-30T10:06:53Z</time>
      </trkpt>
      <trkpt lat="49.37071" lon="4.14816">
        <ele>72</ele>
        <time>2018-03-30T10:07:53Z</time>
      </trkpt>
      <trkpt lat="49.3706" lon="4.14814">
        <ele>71</ele>
        <time>2018-03-30T10:08:53Z</time>
      </trkpt>
      <trkpt lat="49.37036" lon="4.14812">
        <ele>71</ele>
        <time>2018-03-30T10:09:53Z</time>
      </trkpt>
      <trkpt lat="49.37015" lon="4.14809">
        <ele>71</ele>
        <time>2018-03-30T10:10:53Z</time>
      </trkpt>
      <trkpt lat="49.37004" lon="4.14806">
        <ele>70</ele>
        <time>2018-03-30T10:11:53Z</time>
      </trkpt>
      <trkpt lat="49.36984" lon="4.14802">
        <ele>71</ele>
        <time>2018-03-30T10:12:53Z</time>
      </trkpt>
      <trkpt lat="49.36966" lon="4.14797">
        <ele>71</ele>
        <time>2018-03-30T10:13:53Z</time>
      </trkpt>
      <trkpt lat="49.36953" lon="4.14792">
        <ele>72</ele>
        <time>2018-03-30T10:14:53Z</time>
      </trkpt>
      <trkpt lat="49.36942" lon="4.14787">
        <ele>72</ele>
        <time>2018-03-30T10:15:53Z</time>
      </trkpt>
      <trkpt lat="49.36929" lon="4.14781">
        <ele>72</ele>
        <time>2018-03-30T10:16:53Z</time>
      </trkpt>
      <trkpt lat="49.36917" lon="4.14773">
        <ele>73</ele>
        <time>2018-03-30T10:17:53Z</time>
      </trkpt>
      <trkpt lat="49.3691" lon="4.14769">
        <ele>73</ele>
        <time>2018-03-30T10:18:53Z</time>
      </trkpt>
      <trkpt lat="49.36907" lon="4.14767">
        <ele>73</ele>
        <time>2018-03-30T10:19:53Z</time>
      </trkpt>
      <trkpt lat="49.36904" lon="4.14765">
        <ele>73</ele>
        <time>2018-03-30T10:20:53Z</time>
      </trkpt>
      <trkpt lat="49.36899" lon="4.14762">
        <ele>73</ele>
        <time>2018-03-30T10:21:53Z</time>
      </trkpt>
      <trkpt lat="49.36895" lon="4.14758">
        <ele>73</ele>
        <time>2018-03-30T10:22:53Z</time>
      </trkpt>
      <trkpt lat="49.36886" lon="4.1475">
        <ele>74</ele>
        <time>2018-03-30T10:23:53Z</time>
      </trkpt>
      <trkpt lat="49.36877" lon="4.14748">
        <ele>74</ele>
        <time>2018-03-30T10:24:53Z</time>
      </trkpt>
      <trkpt lat="49.36877" lon="4.14748">
        <ele>74</ele>
        <time>2018-03-30T10:25:53Z</time>
      </trkpt>
      <trkpt lat="49.36866" lon="4.1478">
        <ele>74</ele>
        <time>2018-03-30T10:26:53Z</time>
      </trkpt>
      <trkpt lat="49.36864" lon="4.14785">
        <ele>74</ele>
        <time>2018-03-30T10:27:53Z</time>
      </trkpt>
      <trkpt lat="49.36863" lon="4.14789">
        <ele>74</ele>
        <time>2018-03-30T10:28:53Z</time>
      </trkpt>
      <trkpt lat="49.36856" lon="4.14809">
        <ele>74</ele>
        <time>2018-03-30T10:29:53Z</time>
      </trkpt>
      <trkpt lat="49.36834" lon="4.1488">
        <ele>73</ele>
        <time>2018-03-30T10:30:53Z</time>
      </trkpt>
      <trkpt lat="49.36773" lon="4.15063">
        <ele>75</ele>
        <time>2018-03-30T10:31:53Z</time>
      </trkpt>
      <trkpt lat="49.36754" lon="4.15122">
        <ele>76</ele>
        <time>2018-03-30T10:32:53Z</time>
      </trkpt>
      <trkpt lat="49.36723" lon="4.15217">
        <ele>76</ele>
        <time>2018-03-30T10:33:53Z</time>
      </trkpt>
      <trkpt lat="49.36689" lon="4.15322">
        <ele>74</ele>
        <time>2018-03-30T10:34:53Z</time>
      </trkpt>
      <trkpt lat="49.36686" lon="4.15332">
        <ele>74</ele>
        <time>2018-03-30T10:35:53Z</time>
      </trkpt>
      <trkpt lat="49.36681" lon="4.1535">
        <ele>74</ele>
        <time>2018-03-30T10:36:53Z</time>
      </trkpt>
      <trkpt lat="49.36666" lon="4.15393">
        <ele>72</ele>
        <time>2018-03-30T10:37:53Z</time>
      </trkpt>
      <trkpt lat="49.36633" lon="4.15495">
        <ele>71</ele>
        <time>2018-03-30T10:38:53Z</time>
      </trkpt>
      <trkpt lat="49.3662" lon="4.15533">
        <ele>72</ele>
        <time>2018-03-30T10:39:53Z</time>
      </trkpt>
      <trkpt lat="49.36596" lon="4.156">
        <ele>74</ele>
        <time>2018-03-30T10:40:53Z</time>
      </trkpt>
      <trkpt lat="49.36567" lon="4.15687">
        <ele>75</ele>
        <time>2018-03-30T10:41:53Z</time>
      </trkpt>
      <trkpt lat="49.36543" lon="4.15756">
        <ele>74</ele>
        <time>2018-03-30T10:42:53Z</time>
      </trkpt>
      <trkpt lat="49.36529" lon="4.15796">
        <ele>74</ele>
        <time>2018-03-30T10:43:53Z</time>
      </trkpt>
      <trkpt lat="49.36518" lon="4.15828">
        <ele>74</ele>
        <time>2018-03-30T10:44:53Z</time>
      </trkpt>
      <trkpt lat="49.36505" lon="4.15864">
        <ele>74</ele>
        <time>2018-03-30T10:45:53Z</time>
      </trkpt>
      <trkpt lat="49.36494" lon="4.15898">
        <ele>74</ele>
        <time>2018-03-30T10:46:53Z</time>
      </trkpt>
      <trkpt lat="49.36474" lon="4.15958">
        <ele>75</ele>
        <time>2018-03-30T10:47:53Z</time>
      </trkpt>
      <trkpt lat="49.36451" lon="4.16029">
        <ele>76</ele>
        <time>2018-03-30T10:48:53Z</time>
      </trkpt>
      <trkpt lat="49.36421" lon="4.16119">
        <ele>74</ele>
        <time>2018-03-30T10:49:53Z</time>
      </trkpt>
      <trkpt lat="49.36416" lon="4.16134">
        <ele>74</ele>
        <time>2018-03-30T10:50:53Z</time>
      </trkpt>
      <trkpt lat="49.36404" lon="4.1618">
        <ele>74</ele>
        <time>2018-03-30T10:51:53Z</time>
      </trkpt>
      <trkpt lat="49.36398" lon="4.16213">
        <ele>74</ele>
        <time>2018-03-30T10:52:53Z</time>
      </trkpt>
      <trkpt lat="49.36395" lon="4.16233">
        <ele>74</ele>
        <time>2018-03-30T10:53:53Z</time>
      </trkpt>
      <trkpt lat="49.36392" lon="4.16252">
        <ele>74</ele>
        <time>2018-03-30T10:54:53Z</time>
      </trkpt>
      <trkpt lat="49.36389" lon="4.16278">
        <ele>75</ele>
        <time>2018-03-30T10:55:53Z</time>
      </trkpt>
      <trkpt lat="49.3638" lon="4.16347">
        <ele>76</ele>
        <time>2018-03-30T10:56:53Z</time>
      </trkpt>
      <trkpt lat="49.36371" lon="4.16424">
        <ele>75</ele>
        <time>2018-03-30T10:57:53Z</time>
      </trkpt>
      <trkpt lat="49.36367" lon="4.16463">
        <ele>74</ele>
        <time>2018-03-30T10:58:53Z</time>
      </trkpt>
      <trkpt lat="49.36363" lon="4.16495">
        <ele>74</ele>
        <time>2018-03-30T10:59:53Z</time>
      </trkpt>
      <trkpt lat="49.36354" lon="4.16582">
        <ele>73</ele>
        <time>2018-03-30T11:00:53Z</time>
      </trkpt>
      <trkpt lat="49.36348" lon="4.16623">
        <ele>74</ele>
        <time>2018-03-30T11:01:53Z</time>
      </trkpt>
      <trkpt lat="49.36338" lon="4.16681">
        <ele>74</ele>
        <time>2018-03-30T11:02:53Z</time>
      </trkpt>
      <trkpt lat="49.36331" lon="4.16731">
        <ele>73</ele>
        <time>2018-03-30T11:03:53Z</time>
      </trkpt>
      <trkpt lat="49.3632" lon="4.16804">
        <ele>74</ele>
        <time>2018-03-30T11:04:53Z</time>
      </trkpt>
      <trkpt lat="49.36313" lon="4.16851">
        <ele>75</ele>
        <time>2018-03-30T11:05:53Z</time>
      </trkpt>
      <trkpt lat="49.3631" lon="4.16874">
        <ele>75</ele>
        <time>2018-03-30T11:06:53Z</time>
      </trkpt>
      <trkpt lat="49.36308" lon="4.16897">
        <ele>75</ele>
        <time>2018-03-30T11:07:53Z</time>
      </trkpt>
      <trkpt lat="49.36303" lon="4.1694">
        <ele>74</ele>
        <time>2018-03-30T11:08:53Z</time>
      </trkpt>
      <trkpt lat="49.363" lon="4.16971">
        <ele>74</ele>
        <time>2018-03-30T11:09:53Z</time>
      </trkpt>
      <trkpt lat="49.36295" lon="4.17003">
        <ele>74</ele>
        <time>2018-03-30T11:10:53Z</time>
      </trkpt>
      <trkpt lat="49.36291" lon="4.17035">
        <ele>74</ele>
        <time>2018-03-30T11:11:53Z</time>
      </trkpt>
      <trkpt lat="49.3628" lon="4.17096">
        <ele>75</ele>
        <time>2018-03-30T11:12:53Z</time>
      </trkpt>
      <trkpt lat="49.36274" lon="4.17133">
        <ele>76</ele>
        <time>2018-03-30T11:13:53Z</time>
      </trkpt>
      <trkpt lat="49.36272" lon="4.1714">
        <ele>76</ele>
        <time>2018-03-30T11:14:53Z</time>
      </trkpt>
      <trkpt lat="49.36271" lon="4.17148">
        <ele>76</ele>
        <time>2018-03-30T11:15:53Z</time>
      </trkpt>
      <trkpt lat="49.36269" lon="4.17154">
        <ele>76</ele>
        <time>2018-03-30T11:16:53Z</time>
      </trkpt>
      <trkpt lat="49.36269" lon="4.1716">
        <ele>76</ele>
        <time>2018-03-30T11:17:53Z</time>
      </trkpt>
      <trkpt lat="49.36269" lon="4.1716">
        <ele>76</ele>
        <time>2018-03-30T11:18:53Z</time>
      </trkpt>
      <trkpt lat="49.36266" lon="4.1716">
        <ele>77</ele>
        <time>2018-03-30T11:19:53Z</time>
      </trkpt>
      <trkpt lat="49.36265" lon="4.17161">
        <ele>77</ele>
        <time>2018-03-30T11:20:53Z</time>
      </trkpt>
      <trkpt lat="49.36263" lon="4.17162">
        <ele>77</ele>
        <time>2018-03-30T11:21:53Z</time>
      </trkpt>
      <trkpt lat="49.36262" lon="4.17163">
        <ele>77</ele>
        <time>2018-03-30T11:22:53Z</time>
      </trkpt>
      <trkpt lat="49.36262" lon="4.17165">
        <ele>77</ele>
        <time>2018-03-30T11:23:53Z</time>
      </trkpt>
      <trkpt lat="49.36261" lon="4.17166">
        <ele>77</ele>
        <time>2018-03-30T11:24:53Z</time>
      </trkpt>
      <trkpt lat="49.36261" lon="4.17168">
        <ele>77</ele>
        <time>2018-03-30T11:25:53Z</time>
      </trkpt>
      <trkpt lat="49.3625" lon="4.17162">
        <ele>77</ele>
        <time>2018-03-30T11:26:53Z</time>
      </trkpt>
      <trkpt lat="49.36248" lon="4.1716">
        <ele>77</ele>
        <time>2018-03-30T11:27:53Z</time>
      </trkpt>
      <trkpt lat="49.3622" lon="4.17142">
        <ele>77</ele>
        <time>2018-03-30T11:28:53Z</time>
      </trkpt>
      <trkpt lat="49.36195" lon="4.17122">
        <ele>76</ele>
        <time>2018-03-30T11:29:53Z</time>
      </trkpt>
      <trkpt lat="49.36169" lon="4.17105">
        <ele>76</ele>
        <time>2018-03-30T11:30:53Z</time>
      </trkpt>
      <trkpt lat="49.36158" lon="4.17096">
        <ele>76</ele>
        <time>2018-03-30T11:31:53Z</time>
      </trkpt>
      <trkpt lat="49.36108" lon="4.17064">
        <ele>77</ele>
        <time>2018-03-30T11:32:53Z</time>
      </trkpt>
      <trkpt lat="49.36069" lon="4.17038">
        <ele>77</ele>
        <time>2018-03-30T11:33:53Z</time>
      </trkpt>
      <trkpt lat="49.36021" lon="4.17007">
        <ele>78</ele>
        <time>2018-03-30T11:34:53Z</time>
      </trkpt>
      <trkpt lat="49.35977" lon="4.16978">
        <ele>78</ele>
        <time>2018-03-30T11:35:53Z</time>
      </trkpt>
      <trkpt lat="49.35916" lon="4.16936">
        <ele>79</ele>
        <time>2018-03-30T11:36:53Z</time>
      </trkpt>
      <trkpt lat="49.35893" lon="4.16921">
        <ele>78</ele>
        <time>2018-03-30T11:37:53Z</time>
      </trkpt>
      <trkpt lat="49.35853" lon="4.16894">
        <ele>78</ele>
        <time>2018-03-30T11:38:53Z</time>
      </trkpt>
      <trkpt lat="49.35816" lon="4.16871">
        <ele>77</ele>
        <time>2018-03-30T11:39:53Z</time>
      </trkpt>
      <trkpt lat="49.3576" lon="4.16837">
        <ele>77</ele>
        <time>2018-03-30T11:40:53Z</time>
      </trkpt>
      <trkpt lat="49.35696" lon="4.16799">
        <ele>77</ele>
        <time>2018-03-30T11:41:53Z</time>
      </trkpt>
      <trkpt lat="49.35641" lon="4.16765">
        <ele>77</ele>
        <time>2018-03-30T11:42:53Z</time>
      </trkpt>
      <trkpt lat="49.35604" lon="4.16742">
        <ele>78</ele>
        <time>2018-03-30T11:43:53Z</time>
      </trkpt>
      <trkpt lat="49.35591" lon="4.16735">
        <ele>78</ele>
        <time>2018-03-30T11:44:53Z</time>
      </trkpt>
      <trkpt lat="49.35502" lon="4.16681">
        <ele>79</ele>
        <time>2018-03-30T11:45:53Z</time>
      </trkpt>
      <trkpt lat="49.35476" lon="4.16666">
        <ele>79</ele>
        <time>2018-03-30T11:46:53Z</time>
      </trkpt>
      <trkpt lat="49.3547" lon="4.16662">
        <ele>79</ele>
        <time>2018-03-30T11:47:53Z</time>
      </trkpt>
      <trkpt lat="49.35465" lon="4.16659">
        <ele>79</ele>
        <time>2018-03-30T11:48:53Z</time>
      </trkpt>
      <trkpt lat="49.35452" lon="4.16648">
        <ele>80</ele>
        <time>2018-03-30T11:49:53Z</time>
      </trkpt>
      <trkpt lat="49.35444" lon="4.1664">
        <ele>80</ele>
        <time>2018-03-30T11:50:53Z</time>
      </trkpt>
      <trkpt lat="49.3544" lon="4.16635">
        <ele>80</ele>
        <time>2018-03-30T11:51:53Z</time>
      </trkpt>
      <trkpt lat="49.35437" lon="4.16631">
        <ele>80</ele>
        <time>2018-03-30T11:52:53Z</time>
      </trkpt>
      <trkpt lat="49.35421" lon="4.16612">
        <ele>79</ele>
        <time>2018-03-30T11:53:53Z</time>
      </trkpt>
      <trkpt lat="49.35406" lon="4.16591">
        <ele>79</ele>
        <time>2018-03-30T11:54:53Z</time>
      </trkpt>
      <trkpt lat="49.35384" lon="4.16558">
        <ele>79</ele>
        <time>2018-03-30T11:55:53Z</time>
      </trkpt>
      <trkpt lat="49.35374" lon="4.16539">
        <ele>79</ele>
        <time>2018-03-30T11:56:53Z</time>
      </trkpt>
      <trkpt lat="49.35364" lon="4.16522">
        <ele>79</ele>
        <time>2018-03-30T11:57:53Z</time>
      </trkpt>
      <trkpt lat="49.3535" lon="4.16498">
        <ele>79</ele>
        <time>2018-03-30T11:58:53Z</time>
      </trkpt>
      <trkpt lat="49.35339" lon="4.16477">
        <ele>79</ele>
        <time>2018-03-30T11:59:53Z</time>
      </trkpt>
      <trkpt lat="49.35328" lon="4.16466">
        <ele>79</ele>
        <time>2018-03-30T12:00:53Z</time>
      </trkpt>
      <trkpt lat="49.35321" lon="4.16455">
        <ele>79</ele>
        <time>2018-03-30T12:01:53Z</time>
      </trkpt>
      <trkpt lat="49.35318" lon="4.16451">
        <ele>79</ele>
        <time>2018-03-30T12:02:53Z</time>
      </trkpt>
      <trkpt lat="49.35306" lon="4.1643">
        <ele>79</ele>
        <time>2018-03-30T12:03:53Z</time>
      </trkpt>
      <trkpt lat="49.35292" lon="4.16409">
        <ele>80</ele>
        <time>2018-03-30T12:04:53Z</time>
      </trkpt>
      <trkpt lat="49.35277" lon="4.16389">
        <ele>81</ele>
        <time>2018-03-30T12:05:53Z</time>
      </trkpt>
      <trkpt lat="49.35261" lon="4.16372">
        <ele>81</ele>
        <time>2018-03-30T12:06:53Z</time>
      </trkpt>
      <trkpt lat="49.35239" lon="4.16353">
        <ele>82</ele>
        <time>2018-03-30T12:07:53Z</time>
      </trkpt>
      <trkpt lat="49.35217" lon="4.16338">
        <ele>82</ele>
        <time>2018-03-30T12:08:53Z</time>
      </trkpt>
      <trkpt lat="49.35212" lon="4.16336">
        <ele>82</ele>
        <time>2018-03-30T12:09:53Z</time>
      </trkpt>
      <trkpt lat="49.35198" lon="4.1633">
        <ele>82</ele>
        <time>2018-03-30T12:10:53Z</time>
      </trkpt>
      <trkpt lat="49.35174" lon="4.1632">
        <ele>82</ele>
        <time>2018-03-30T12:11:53Z</time>
      </trkpt>
      <trkpt lat="49.35169" lon="4.16318">
        <ele>82</ele>
        <time>2018-03-30T12:12:53Z</time>
      </trkpt>
      <trkpt lat="49.35108" lon="4.16294">
        <ele>82</ele>
        <time>2018-03-30T12:13:53Z</time>
      </trkpt>
      <trkpt lat="49.35079" lon="4.16285">
        <ele>83</ele>
        <time>2018-03-30T12:14:53Z</time>
      </trkpt>
      <trkpt lat="49.35061" lon="4.16281">
        <ele>83</ele>
        <time>2018-03-30T12:15:53Z</time>
      </trkpt>
      <trkpt lat="49.35041" lon="4.16279">
        <ele>84</ele>
        <time>2018-03-30T12:16:53Z</time>
      </trkpt>
      <trkpt lat="49.35029" lon="4.1628">
        <ele>84</ele>
        <time>2018-03-30T12:17:53Z</time>
      </trkpt>
      <trkpt lat="49.35024" lon="4.16277">
        <ele>84</ele>
        <time>2018-03-30T12:18:53Z</time>
      </trkpt>
      <trkpt lat="49.35016" lon="4.16277">
        <ele>85</ele>
        <time>2018-03-30T12:19:53Z</time>
      </trkpt>
      <trkpt lat="49.35004" lon="4.16278">
        <ele>85</ele>
        <time>2018-03-30T12:20:53Z</time>
      </trkpt>
      <trkpt lat="49.34969" lon="4.16283">
        <ele>85</ele>
        <time>2018-03-30T12:21:53Z</time>
      </trkpt>
      <trkpt lat="49.34925" lon="4.16293">
        <ele>85</ele>
        <time>2018-03-30T12:22:53Z</time>
      </trkpt>
      <trkpt lat="49.3491" lon="4.16297">
        <ele>85</ele>
        <time>2018-03-30T12:23:53Z</time>
      </trkpt>
      <trkpt lat="49.34902" lon="4.16298">
        <ele>85</ele>
        <time>2018-03-30T12:24:53Z</time>
      </trkpt>
      <trkpt lat="49.3489" lon="4.163">
        <ele>85</ele>
        <time>2018-03-30T12:25:53Z</time>
      </trkpt>
      <trkpt lat="49.34872" lon="4.16302">
        <ele>85</ele>
        <time>2018-03-30T12:26:53Z</time>
      </trkpt>
      <trkpt lat="49.34864" lon="4.16299">
        <ele>85</ele>
        <time>2018-03-30T12:27:53Z</time>
      </trkpt>
      <trkpt lat="49.34852" lon="4.16299">
        <ele>84</ele>
        <time>2018-03-30T12:28:53Z</time>
      </trkpt>
      <trkpt lat="49.34837" lon="4.16297">
        <ele>84</ele>
        <time>2018-03-30T12:29:53Z</time>
      </trkpt>
      <trkpt lat="49.34816" lon="4.16293">
        <ele>84</ele>
        <time>2018-03-30T12:30:53Z</time>
      </trkpt>
      <trkpt lat="49.34799" lon="4.16286">
        <ele>84</ele>
        <time>2018-03-30T12:31:53Z</time>
      </trkpt>
      <trkpt lat="49.34783" lon="4.16276">
        <ele>84</ele>
        <time>2018-03-30T12:32:53Z</time>
      </trkpt>
      <trkpt lat="49.3477" lon="4.16267">
        <ele>84</ele>
        <time>2018-03-30T12:33:53Z</time>
      </trkpt>
      <trkpt lat="49.34764" lon="4.16263">
        <ele>84</ele>
        <time>2018-03-30T12:34:53Z</time>
      </trkpt>
      <trkpt lat="49.34726" lon="4.16227">
        <ele>84</ele>
        <time>2018-03-30T12:35:53Z</time>
      </trkpt>
      <trkpt lat="49.34716" lon="4.16219">
        <ele>84</ele>
        <time>2018-03-30T12:36:53Z</time>
      </trkpt>
      <trkpt lat="49.34707" lon="4.16212">
        <ele>84</ele>
        <time>2018-03-30T12:37:53Z</time>
      </trkpt>
      <trkpt lat="49.34614" lon="4.16114">
        <ele>84</ele>
        <time>2018-03-30T12:38:53Z</time>
      </trkpt>
      <trkpt lat="49.34559" lon="4.16052">
        <ele>85</ele>
        <time>2018-03-30T12:39:53Z</time>
      </trkpt>
      <trkpt lat="49.34517" lon="4.16007">
        <ele>84</ele>
        <time>2018-03-30T12:40:53Z</time>
      </trkpt>
      <trkpt lat="49.34509" lon="4.15998">
        <ele>84</ele>
        <time>2018-03-30T12:41:53Z</time>
      </trkpt>
      <trkpt lat="49.34498" lon="4.15986">
        <ele>84</ele>
        <time>2018-03-30T12:42:53Z</time>
      </trkpt>
      <trkpt lat="49.34487" lon="4.15974">
        <ele>84</ele>
        <time>2018-03-30T12:43:53Z</time>
      </trkpt>
      <trkpt lat="49.34478" lon="4.15964">
        <ele>84</ele>
        <time>2018-03-30T12:44:53Z</time>
      </trkpt>
      <trkpt lat="49.34466" lon="4.15951">
        <ele>84</ele>
        <time>2018-03-30T12:45:53Z</time>
      </trkpt>
      <trkpt lat="49.34459" lon="4.15941">
        <ele>84</ele>
        <time>2018-03-30T12:46:53Z</time>
      </trkpt>
      <trkpt lat="49.34449" lon="4.15926">
        <ele>84</ele>
        <time>2018-03-30T12:47:53Z</time>
      </trkpt>
      <trkpt lat="49.34449" lon="4.15926">
        <ele>84</ele>
        <time>2018-03-30T12:48:53Z</time>
      </trkpt>
      <trkpt lat="49.34449" lon="4.15923">
        <ele>84</ele>
        <time>2018-03-30T12:49:53Z</time>
      </trkpt>
      <trkpt lat="49.34449" lon="4.15916">
        <ele>84</ele>
        <time>2018-03-30T12:50:53Z</time>
      </trkpt>
      <trkpt lat="49.34449" lon="4.15909">
        <ele>84</ele>
        <time>2018-03-30T12:51:53Z</time>
      </trkpt>
      <trkpt lat="49.34449" lon="4.15907">
        <ele>84</ele>
        <time>2018-03-30T12:52:53Z</time>
      </trkpt>
      <trkpt lat="49.34447" lon="4.15902">
        <ele>84</ele>
        <time>2018-03-30T12:53:53Z</time>
      </trkpt>
      <trkpt lat="49.34445" lon="4.15895">
        <ele>84</ele>
        <time>2018-03-30T12:54:53Z</time>
      </trkpt>
      <trkpt lat="49.34443" lon="4.15889">
        <ele>84</ele>
        <time>2018-03-30T12:55:53Z</time>
      </trkpt>
      <trkpt lat="49.3444" lon="4.15883">
        <ele>85</ele>
        <time>2018-03-30T12:56:53Z</time>
      </trkpt>
      <trkpt lat="49.34434" lon="4.15877">
        <ele>85</ele>
        <time>2018-03-30T12:57:53Z</time>
      </trkpt>
      <trkpt lat="49.3443" lon="4.15874">
        <ele>85</ele>
        <time>2018-03-30T12:58:53Z</time>
      </trkpt>
      <trkpt lat="49.34426" lon="4.15871">
        <ele>85</ele>
        <time>2018-03-30T12:59:53Z</time>
      </trkpt>
      <trkpt lat="49.34421" lon="4.15869">
        <ele>85</ele>
        <time>2018-03-30T13:00:53Z</time>
      </trkpt>
      <trkpt lat="49.34416" lon="4.15869">
        <ele>85</ele>
        <time>2018-03-30T13:01:53Z</time>
      </trkpt>
      <trkpt lat="49.34412" lon="4.1587">
        <ele>85</ele>
        <time>2018-03-30T13:02:53Z</time>
      </trkpt>
      <trkpt lat="49.34407" lon="4.15871">
        <ele>85</ele>
        <time>2018-03-30T13:03:53Z</time>
      </trkpt>
      <trkpt lat="49.34403" lon="4.15874">
        <ele>85</ele>
        <time>2018-03-30T13:04:53Z</time>
      </trkpt>
      <trkpt lat="49.344" lon="4.15876">
        <ele>85</ele>
        <time>2018-03-30T13:05:53Z</time>
      </trkpt>
      <trkpt lat="49.34384" lon="4.15859">
        <ele>85</ele>
        <time>2018-03-30T13:06:53Z</time>
      </trkpt>
      <trkpt lat="49.34377" lon="4.15852">
        <ele>85</ele>
        <time>2018-03-30T13:07:53Z</time>
      </trkpt>
      <trkpt lat="49.34369" lon="4.15846">
        <ele>86</ele>
        <time>2018-03-30T13:08:53Z</time>
      </trkpt>
      <trkpt lat="49.34358" lon="4.15842">
        <ele>86</ele>
        <time>2018-03-30T13:09:53Z</time>
      </trkpt>
      <trkpt lat="49.34328" lon="4.15804">
        <ele>87</ele>
        <time>2018-03-30T13:10:53Z</time>
      </trkpt>
      <trkpt lat="49.34241" lon="4.15693">
        <ele>86</ele>
        <time>2018-03-30T13:11:53Z</time>
      </trkpt>
      <trkpt lat="49.34177" lon="4.15611">
        <ele>86</ele>
        <time>2018-03-30T13:12:53Z</time>
      </trkpt>
      <trkpt lat="49.34158" lon="4.15584">
        <ele>86</ele>
        <time>2018-03-30T13:13:53Z</time>
      </trkpt>
      <trkpt lat="49.34144" lon="4.15562">
        <ele>86</ele>
        <time>2018-03-30T13:14:53Z</time>
      </trkpt>
      <trkpt lat="49.34128" lon="4.15529">
        <ele>86</ele>
        <time>2018-03-30T13:15:53Z</time>
      </trkpt>
      <trkpt lat="49.34098" lon="4.1546">
        <ele>85</ele>
        <time>2018-03-30T13:16:53Z</time>
      </trkpt>
      <trkpt lat="49.34065" lon="4.1538">
        <ele>86</ele>
        <time>2018-03-30T13:17:53Z</time>
      </trkpt>
      <trkpt lat="49.34061" lon="4.15373">
        <ele>86</ele>
        <time>2018-03-30T13:18:53Z</time>
      </trkpt>
      <trkpt lat="49.34056" lon="4.15361">
        <ele>86</ele>
        <time>2018-03-30T13:19:53Z</time>
      </trkpt>
      <trkpt lat="49.34011" lon="4.15257">
        <ele>86</ele>
        <time>2018-03-30T13:20:53Z</time>
      </trkpt>
      <trkpt lat="49.33978" lon="4.15181">
        <ele>87</ele>
        <time>2018-03-30T13:21:53Z</time>
      </trkpt>
      <trkpt lat="49.33962" lon="4.15144">
        <ele>87</ele>
        <time>2018-03-30T13:22:53Z</time>
      </trkpt>
      <trkpt lat="49.33946" lon="4.15113">
        <ele>87</ele>
        <time>2018-03-30T13:23:53Z</time>
      </trkpt>
      <trkpt lat="49.33927" lon="4.15083">
        <ele>87</ele>
        <time>2018-03-30T13:24:53Z</time>
      </trkpt>
      <trkpt lat="49.33904" lon="4.15054">
        <ele>87</ele>
        <time>2018-03-30T13:25:53Z</time>
      </trkpt>
      <trkpt lat="49.33835" lon="4.14971">
        <ele>86</ele>
        <time>2018-03-30T13:26:53Z</time>
      </trkpt>
      <trkpt lat="49.33742" lon="4.14865">
        <ele>86</ele>
        <time>2018-03-30T13:27:53Z</time>
      </trkpt>
      <trkpt lat="49.33697" lon="4.14807">
        <ele>86</ele>
        <time>2018-03-30T13:28:53Z</time>
      </trkpt>
      <trkpt lat="49.33694" lon="4.14804">
        <ele>86</ele>
        <time>2018-03-30T13:29:53Z</time>
      </trkpt>
      <trkpt lat="49.33659" lon="4.1476">
        <ele>86</ele>
        <time>2018-03-30T13:30:53Z</time>
      </trkpt>
      <trkpt lat="49.33641" lon="4.14737">
        <ele>86</ele>
        <time>2018-03-30T13:31:53Z</time>
      </trkpt>
      <trkpt lat="49.33575" lon="4.1465">
        <ele>86</ele>
        <time>2018-03-30T13:32:53Z</time>
      </trkpt>
      <trkpt lat="49.3355" lon="4.14621">
        <ele>86</ele>
        <time>2018-03-30T13:33:53Z</time>
      </trkpt>
      <trkpt lat="49.33536" lon="4.14604">
        <ele>86</ele>
        <time>2018-03-30T13:34:53Z</time>
      </trkpt>
      <trkpt lat="49.33506" lon="4.14654">
        <ele>86</ele>
        <time>2018-03-30T13:35:53Z</time>
      </trkpt>
      <trkpt lat="49.335" lon="4.14667">
        <ele>86</ele>
        <time>2018-03-30T13:36:53Z</time>
      </trkpt>
      <trkpt lat="49.33496" lon="4.14673">
        <ele>86</ele>
        <time>2018-03-30T13:37:53Z</time>
      </trkpt>
      <trkpt lat="49.33496" lon="4.14673">
        <ele>86</ele>
        <time>2018-03-30T13:38:53Z</time>
      </trkpt>
      <trkpt lat="49.33483" lon="4.14702">
        <ele>87</ele>
        <time>2018-03-30T13:39:53Z</time>
      </trkpt>
      <trkpt lat="49.3347" lon="4.14721">
        <ele>87</ele>
        <time>2018-03-30T13:40:53Z</time>
      </trkpt>
      <trkpt lat="49.33461" lon="4.14733">
        <ele>87</ele>
        <time>2018-03-30T13:41:53Z</time>
      </trkpt>
      <trkpt lat="49.33452" lon="4.14747">
        <ele>88</ele>
        <time>2018-03-30T13:42:53Z</time>
      </trkpt>
      <trkpt lat="49.33448" lon="4.14752">
        <ele>88</ele>
        <time>2018-03-30T13:43:53Z</time>
      </trkpt>
      <trkpt lat="49.33445" lon="4.14759">
        <ele>88</ele>
        <time>2018-03-30T13:44:53Z</time>
      </trkpt>
      <trkpt lat="49.33441" lon="4.14765">
        <ele>88</ele>
        <time>2018-03-30T13:45:53Z</time>
      </trkpt>
      <trkpt lat="49.33431" lon="4.14786">
        <ele>88</ele>
        <time>2018-03-30T13:46:53Z</time>
      </trkpt>
      <trkpt lat="49.33424" lon="4.14801">
        <ele>89</ele>
        <time>2018-03-30T13:47:53Z</time>
      </trkpt>
      <trkpt lat="49.33398" lon="4.14853">
        <ele>89</ele>
        <time>2018-03-30T13:48:53Z</time>
      </trkpt>
      <trkpt lat="49.33394" lon="4.14861">
        <ele>89</ele>
        <time>2018-03-30T13:49:53Z</time>
      </trkpt>
      <trkpt lat="49.33391" lon="4.14866">
        <ele>89</ele>
        <time>2018-03-30T13:50:53Z</time>
      </trkpt>
      <trkpt lat="49.33391" lon="4.14866">
        <ele>89</ele>
        <time>2018-03-30T13:51:53Z</time>
      </trkpt>
      <trkpt lat="49.33383" lon="4.14856">
        <ele>89</ele>
        <time>2018-03-30T13:52:53Z</time>
      </trkpt>
      <trkpt lat="49.33379" lon="4.14852">
        <ele>89</ele>
        <time>2018-03-30T13:53:53Z</time>
      </trkpt>
      <trkpt lat="49.33376" lon="4.14849">
        <ele>89</ele>
        <time>2018-03-30T13:54:53Z</time>
      </trkpt>
      <trkpt lat="49.33374" lon="4.14846">
        <ele>89</ele>
        <time>2018-03-30T13:55:53Z</time>
      </trkpt>
      <trkpt lat="49.33368" lon="4.1484">
        <ele>89</ele>
        <time>2018-03-30T13:56:53Z</time>
      </trkpt>
      <trkpt lat="49.33366" lon="4.14837">
        <ele>89</ele>
        <time>2018-03-30T13:57:53Z</time>
      </trkpt>
      <trkpt lat="49.33361" lon="4.14831">
        <ele>89</ele>
        <time>2018-03-30T13:58:53Z</time>
      </trkpt>
      <trkpt lat="49.33358" lon="4.14828">
        <ele>89</ele>
        <time>2018-03-30T13:59:53Z</time>
      </trkpt>
      <trkpt lat="49.33355" lon="4.14825">
        <ele>89</ele>
        <time>2018-03-30T14:00:53Z</time>
      </trkpt>
      <trkpt lat="49.33349" lon="4.14821">
        <ele>89</ele>
        <time>2018-03-30T14:01:53Z</time>
      </trkpt>
      <trkpt lat="49.33344" lon="4.14818">
        <ele>89</ele>
        <time>2018-03-30T14:02:53Z</time>
      </trkpt>
      <trkpt lat="49.33342" lon="4.14817">
        <ele>89</ele>
        <time>2018-03-30T14:03:53Z</time>
      </trkpt>
      <trkpt lat="49.33339" lon="4.14815">
        <ele>89</ele>
        <time>2018-03-30T14:04:53Z</time>
      </trkpt>
      <trkpt lat="49.33334" lon="4.14814">
        <ele>89</ele>
        <time>2018-03-30T14:05:53Z</time>
      </trkpt>
      <trkpt lat="49.33332" lon="4.14813">
        <ele>89</ele>
        <time>2018-03-30T14:06:53Z</time>
      </trkpt>
      <trkpt lat="49.33322" lon="4.14812">
        <ele>89</ele>
        <time>2018-03-30T14:07:53Z</time>
      </trkpt>
      <trkpt lat="49.33308" lon="4.14812">
        <ele>89</ele>
        <time>2018-03-30T14:08:53Z</time>
      </trkpt>
      <trkpt lat="49.33288" lon="4.14812">
        <ele>89</ele>
        <time>2018-03-30T14:09:53Z</time>
      </trkpt>
      <trkpt lat="49.3322" lon="4.14811">
        <ele>88</ele>
        <time>2018-03-30T14:10:53Z</time>
      </trkpt>
      <trkpt lat="49.33209" lon="4.14812">
        <ele>88</ele>
        <time>2018-03-30T14:11:53Z</time>
      </trkpt>
      <trkpt lat="49.33209" lon="4.14812">
        <ele>88</ele>
        <time>2018-03-30T14:12:53Z</time>
      </trkpt>
      <trkpt lat="49.33122" lon="4.14814">
        <ele>88</ele>
        <time>2018-03-30T14:13:53Z</time>
      </trkpt>
      <trkpt lat="49.33101" lon="4.14815">
        <ele>87</ele>
        <time>2018-03-30T14:14:53Z</time>
      </trkpt>
      <trkpt lat="49.33025" lon="4.14818">
        <ele>86</ele>
        <time>2018-03-30T14:15:53Z</time>
      </trkpt>
      <trkpt lat="49.32939" lon="4.1482">
        <ele>87</ele>
        <time>2018-03-30T14:16:53Z</time>
      </trkpt>
      <trkpt lat="49.3281" lon="4.14824">
        <ele>86</ele>
        <time>2018-03-30T14:17:53Z</time>
      </trkpt>
      <trkpt lat="49.32661" lon="4.14828">
        <ele>88</ele>
        <time>2018-03-30T14:18:53Z</time>
      </trkpt>
      <trkpt lat="49.326" lon="4.14831">
        <ele>88</ele>
        <time>2018-03-30T14:19:53Z</time>
      </trkpt>
      <trkpt lat="49.32497" lon="4.14835">
        <ele>90</ele>
        <time>2018-03-30T14:20:53Z</time>
      </trkpt>
      <trkpt lat="49.32462" lon="4.14835">
        <ele>91</ele>
        <time>2018-03-30T14:21:53Z</time>
      </trkpt>
      <trkpt lat="49.32439" lon="4.14836">
        <ele>91</ele>
        <time>2018-03-30T14:22:53Z</time>
      </trkpt>
      <trkpt lat="49.32404" lon="4.14838">
        <ele>92</ele>
        <time>2018-03-30T14:23:53Z</time>
      </trkpt>
      <trkpt lat="49.32348" lon="4.1484">
        <ele>91</ele>
        <time>2018-03-30T14:24:53Z</time>
      </trkpt>
      <trkpt lat="49.32325" lon="4.1484">
        <ele>91</ele>
        <time>2018-03-30T14:25:53Z</time>
      </trkpt>
      <trkpt lat="49.32305" lon="4.14841">
        <ele>91</ele>
        <time>2018-03-30T14:26:53Z</time>
      </trkpt>
      <trkpt lat="49.32271" lon="4.14842">
        <ele>92</ele>
        <time>2018-03-30T14:27:53Z</time>
      </trkpt>
      <trkpt lat="49.3222" lon="4.14844">
        <ele>93</ele>
        <time>2018-03-30T14:28:53Z</time>
      </trkpt>
      <trkpt lat="49.32198" lon="4.14845">
        <ele>94</ele>
        <time>2018-03-30T14:29:53Z</time>
      </trkpt>
      <trkpt lat="49.32183" lon="4.14845">
        <ele>94</ele>
        <time>2018-03-30T14:30:53Z</time>
      </trkpt>
      <trkpt lat="49.32168" lon="4.14845">
        <ele>95</ele>
        <time>2018-03-30T14:31:53Z</time>
      </trkpt>
      <trkpt lat="49.32122" lon="4.14846">
        <ele>96</ele>
        <time>2018-03-30T14:32:53Z</time>
      </trkpt>
      <trkpt lat="49.32034" lon="4.14848">
        <ele>97</ele>
        <time>2018-03-30T14:33:53Z</time>
      </trkpt>
      <trkpt lat="49.32026" lon="4.14847">
        <ele>97</ele>
        <time>2018-03-30T14:34:53Z</time>
      </trkpt>
      <trkpt lat="49.32019" lon="4.14848">
        <ele>97</ele>
        <time>2018-03-30T14:35:53Z</time>
      </trkpt>
      <trkpt lat="49.32015" lon="4.14849">
        <ele>97</ele>
        <time>2018-03-30T14:36:53Z</time>
      </trkpt>
      <trkpt lat="49.32013" lon="4.1485">
        <ele>97</ele>
        <time>2018-03-30T14:37:53Z</time>
      </trkpt>
      <trkpt lat="49.3201" lon="4.14851">
        <ele>97</ele>
        <time>2018-03-30T14:38:53Z</time>
      </trkpt>
      <trkpt lat="49.32005" lon="4.14853">
        <ele>97</ele>
        <time>2018-03-30T14:39:53Z</time>
      </trkpt>
      <trkpt lat="49.32" lon="4.14855">
        <ele>97</ele>
        <time>2018-03-30T14:40:53Z</time>
      </trkpt>
      <trkpt lat="49.31994" lon="4.14859">
        <ele>97</ele>
        <time>2018-03-30T14:41:53Z</time>
      </trkpt>
      <trkpt lat="49.31991" lon="4.14861">
        <ele>98</ele>
        <time>2018-03-30T14:42:53Z</time>
      </trkpt>
      <trkpt lat="49.31989" lon="4.14864">
        <ele>98</ele>
        <time>2018-03-30T14:43:53Z</time>
      </trkpt>
      <trkpt lat="49.31986" lon="4.14866">
        <ele>98</ele>
        <time>2018-03-30T14:44:53Z</time>
      </trkpt>
      <trkpt lat="49.31983" lon="4.14871">
        <ele>98</ele>
        <time>2018-03-30T14:45:53Z</time>
      </trkpt>
      <trkpt lat="49.31978" lon="4.14878">
        <ele>98</ele>
        <time>2018-03-30T14:46:53Z</time>
      </trkpt>
      <trkpt lat="49.31974" lon="4.14885">
        <ele>98</ele>
        <time>2018-03-30T14:47:53Z</time>
      </trkpt>
      <trkpt lat="49.31967" lon="4.14898">
        <ele>99</ele>
        <time>2018-03-30T14:48:53Z</time>
      </trkpt>
      <trkpt lat="49.31959" lon="4.14915">
        <ele>99</ele>
        <time>2018-03-30T14:49:53Z</time>
      </trkpt>
      <trkpt lat="49.31942" lon="4.14953">
        <ele>100</ele>
        <time>2018-03-30T14:50:53Z</time>
      </trkpt>
      <trkpt lat="49.31925" lon="4.14983">
        <ele>101</ele>
        <time>2018-03-30T14:51:53Z</time>
      </trkpt>
      <trkpt lat="49.31919" lon="4.14996">
        <ele>101</ele>
        <time>2018-03-30T14:52:53Z</time>
      </trkpt>
      <trkpt lat="49.31916" lon="4.15002">
        <ele>101</ele>
        <time>2018-03-30T14:53:53Z</time>
      </trkpt>
      <trkpt lat="49.31909" lon="4.15013">
        <ele>101</ele>
        <time>2018-03-30T14:54:53Z</time>
      </trkpt>
      <trkpt lat="49.31903" lon="4.15023">
        <ele>101</ele>
        <time>2018-03-30T14:55:53Z</time>
      </trkpt>
      <trkpt lat="49.31899" lon="4.15031">
        <ele>101</ele>
        <time>2018-03-30T14:56:53Z</time>
      </trkpt>
      <trkpt lat="49.31894" lon="4.15037">
        <ele>101</ele>
        <time>2018-03-30T14:57:53Z</time>
      </trkpt>
      <trkpt lat="49.31891" lon="4.15041">
        <ele>101</ele>
        <time>2018-03-30T14:58:53Z</time>
      </trkpt>
      <trkpt lat="49.31887" lon="4.15045">
        <ele>102</ele>
        <time>2018-03-30T14:59:53Z</time>
      </trkpt>
      <trkpt lat="49.31882" lon="4.1505">
        <ele>102</ele>
        <time>2018-03-30T15:00:53Z</time>
      </trkpt>
      <trkpt lat="49.31877" lon="4.15055">
        <ele>102</ele>
        <time>2018-03-30T15:01:53Z</time>
      </trkpt>
      <trkpt lat="49.31871" lon="4.15059">
        <ele>102</ele>
        <time>2018-03-30T15:02:53Z</time>
      </trkpt>
      <trkpt lat="49.31865" lon="4.15063">
        <ele>102</ele>
        <time>2018-03-30T15:03:53Z</time>
      </trkpt>
      <trkpt lat="49.3186" lon="4.15065">
        <ele>102</ele>
        <time>2018-03-30T15:04:53Z</time>
      </trkpt>
      <trkpt lat="49.31853" lon="4.15069">
        <ele>102</ele>
        <time>2018-03-30T15:05:53Z</time>
      </trkpt>
      <trkpt lat="49.31845" lon="4.15073">
        <ele>102</ele>
        <time>2018-03-30T15:06:53Z</time>
      </trkpt>
      <trkpt lat="49.31839" lon="4.15075">
        <ele>102</ele>
        <time>2018-03-30T15:07:53Z</time>
      </trkpt>
      <trkpt lat="49.31833" lon="4.15077">
        <ele>102</ele>
        <time>2018-03-30T15:08:53Z</time>
      </trkpt>
      <trkpt lat="49.31827" lon="4.15078">
        <ele>102</ele>
        <time>2018-03-30T15:09:53Z</time>
      </trkpt>
      <trkpt lat="49.31821" lon="4.15079">
        <ele>102</ele>
        <time>2018-03-30T15:10:53Z</time>
      </trkpt>
      <trkpt lat="49.31815" lon="4.1508">
        <ele>102</ele>
        <time>2018-03-30T15:11:53Z</time>
      </trkpt>
      <trkpt lat="49.31806" lon="4.1508">
        <ele>102</ele>
        <time>2018-03-30T15:12:53Z</time>
      </trkpt>
      <trkpt lat="49.31797" lon="4.1508">
        <ele>102</ele>
        <time>2018-03-30T15:13:53Z</time>
      </trkpt>
      <trkpt lat="49.3179" lon="4.15079">
        <ele>102</ele>
        <time>2018-03-30T15:14:53Z</time>
      </trkpt>
      <trkpt lat="49.31781" lon="4.15077">
        <ele>103</ele>
        <time>2018-03-30T15:15:53Z</time>
      </trkpt>
      <trkpt lat="49.31774" lon="4.15074">
        <ele>103</ele>
        <time>2018-03-30T15:16:53Z</time>
      </trkpt>
      <trkpt lat="49.31769" lon="4.15073">
        <ele>103</ele>
        <time>2018-03-30T15:17:53Z</time>
      </trkpt>
      <trkpt lat="49.31765" lon="4.15071">
        <ele>103</ele>
        <time>2018-03-30T15:18:53Z</time>
      </trkpt>
      <trkpt lat="49.31761" lon="4.15069">
        <ele>103</ele>
        <time>2018-03-30T15:19:53Z</time>
      </trkpt>
      <trkpt lat="49.31752" lon="4.15063">
        <ele>103</ele>
        <time>2018-03-30T15:20:53Z</time>
      </trkpt>
      <trkpt lat="49.31743" lon="4.15058">
        <ele>103</ele>
        <time>2018-03-30T15:21:53Z</time>
      </trkpt>
      <trkpt lat="49.3174" lon="4.15056">
        <ele>103</ele>
        <time>2018-03-30T15:22:53Z</time>
      </trkpt>
      <trkpt lat="49.31735" lon="4.15052">
        <ele>103</ele>
        <time>2018-03-30T15:23:53Z</time>
      </trkpt>
      <trkpt lat="49.31729" lon="4.15045">
        <ele>103</ele>
        <time>2018-03-30T15:24:53Z</time>
      </trkpt>
      <trkpt lat="49.31724" lon="4.15041">
        <ele>102</ele>
        <time>2018-03-30T15:25:53Z</time>
      </trkpt>
      <trkpt lat="49.3172" lon="4.15038">
        <ele>102</ele>
        <time>2018-03-30T15:26:53Z</time>
      </trkpt>
      <trkpt lat="49.31718" lon="4.15035">
        <ele>102</ele>
        <time>2018-03-30T15:27:53Z</time>
      </trkpt>
      <trkpt lat="49.31715" lon="4.15033">
        <ele>102</ele>
        <time>2018-03-30T15:28:53Z</time>
      </trkpt>
      <trkpt lat="49.31712" lon="4.15031">
        <ele>102</ele>
        <time>2018-03-30T15:29:53Z</time>
      </trkpt>
      <trkpt lat="49.31709" lon="4.15029">
        <ele>102</ele>
        <time>2018-03-30T15:30:53Z</time>
      </trkpt>
      <trkpt lat="49.31707" lon="4.15028">
        <ele>103</ele>
        <time>2018-03-30T15:31:53Z</time>
      </trkpt>
      <trkpt lat="49.31704" lon="4.15026">
        <ele>103</ele>
        <time>2018-03-30T15:32:53Z</time>
      </trkpt>
      <trkpt lat="49.31702" lon="4.15025">
        <ele>103</ele>
        <time>2018-03-30T15:33:53Z</time>
      </trkpt>
      <trkpt lat="49.31699" lon="4.15024">
        <ele>103</ele>
        <time>2018-03-30T15:34:53Z</time>
      </trkpt>
      <trkpt lat="49.31696" lon="4.15023">
        <ele>103</ele>
        <time>2018-03-30T15:35:53Z</time>
      </trkpt>
      <trkpt lat="49.31693" lon="4.15023">
        <ele>103</ele>
        <time>2018-03-30T15:36:53Z</time>
      </trkpt>
      <trkpt lat="49.31688" lon="4.15022">
        <ele>103</ele>
        <time>2018-03-30T15:37:53Z</time>
      </trkpt>
      <trkpt lat="49.31682" lon="4.15021">
        <ele>103</ele>
        <time>2018-03-30T15:38:53Z</time>
      </trkpt>
      <trkpt lat="49.31674" lon="4.1502">
        <ele>103</ele>
        <time>2018-03-30T15:39:53Z</time>
      </trkpt>
      <trkpt lat="49.31666" lon="4.15019">
        <ele>103</ele>
        <time>2018-03-30T15:40:53Z</time>
      </trkpt>
      <trkpt lat="49.31663" lon="4.15018">
        <ele>103</ele>
        <time>2018-03-30T15:41:53Z</time>
      </trkpt>
      <trkpt lat="49.31657" lon="4.15015">
        <ele>103</ele>
        <time>2018-03-30T15:42:53Z</time>
      </trkpt>
      <trkpt lat="49.31653" lon="4.15014">
        <ele>103</ele>
        <time>2018-03-30T15:43:53Z</time>
      </trkpt>
      <trkpt lat="49.31645" lon="4.15011">
        <ele>103</ele>
        <time>2018-03-30T15:44:53Z</time>
      </trkpt>
      <trkpt lat="49.31641" lon="4.1501">
        <ele>103</ele>
        <time>2018-03-30T15:45:53Z</time>
      </trkpt>
      <trkpt lat="49.31633" lon="4.15005">
        <ele>103</ele>
        <time>2018-03-30T15:46:53Z</time>
      </trkpt>
      <trkpt lat="49.31627" lon="4.15001">
        <ele>103</ele>
        <time>2018-03-30T15:47:53Z</time>
      </trkpt>
      <trkpt lat="49.3162" lon="4.14995">
        <ele>104</ele>
        <time>2018-03-30T15:48:53Z</time>
      </trkpt>
      <trkpt lat="49.31618" lon="4.14993">
        <ele>104</ele>
        <time>2018-03-30T15:49:53Z</time>
      </trkpt>
      <trkpt lat="49.31615" lon="4.14991">
        <ele>104</ele>
        <time>2018-03-30T15:50:53Z</time>
      </trkpt>
      <trkpt lat="49.31615" lon="4.14991">
        <ele>104</ele>
        <time>2018-03-30T15:51:53Z</time>
      </trkpt>
      <trkpt lat="49.31615" lon="4.14989">
        <ele>104</ele>
        <time>2018-03-30T15:52:53Z</time>
      </trkpt>
      <trkpt lat="49.31614" lon="4.14986">
        <ele>104</ele>
        <time>2018-03-30T15:53:53Z</time>
      </trkpt>
      <trkpt lat="49.31614" lon="4.14984">
        <ele>104</ele>
        <time>2018-03-30T15:54:53Z</time>
      </trkpt>
      <trkpt lat="49.31613" lon="4.14982">
        <ele>104</ele>
        <time>2018-03-30T15:55:53Z</time>
      </trkpt>
      <trkpt lat="49.31613" lon="4.14979">
        <ele>104</ele>
        <time>2018-03-30T15:56:53Z</time>
      </trkpt>
      <trkpt lat="49.31612" lon="4.14976">
        <ele>104</ele>
        <time>2018-03-30T15:57:53Z</time>
      </trkpt>
      <trkpt lat="49.31611" lon="4.14974">
        <ele>104</ele>
        <time>2018-03-30T15:58:53Z</time>
      </trkpt>
      <trkpt lat="49.3161" lon="4.14971">
        <ele>104</ele>
        <time>2018-03-30T15:59:53Z</time>
      </trkpt>
      <trkpt lat="49.31604" lon="4.14963">
        <ele>104</ele>
        <time>2018-03-30T16:00:53Z</time>
      </trkpt>
      <trkpt lat="49.31603" lon="4.14962">
        <ele>104</ele>
        <time>2018-03-30T16:01:53Z</time>
      </trkpt>
      <trkpt lat="49.31602" lon="4.1496">
        <ele>104</ele>
        <time>2018-03-30T16:02:53Z</time>
      </trkpt>
      <trkpt lat="49.31601" lon="4.1496">
        <ele>104</ele>
        <time>2018-03-30T16:03:53Z</time>
      </trkpt>
      <trkpt lat="49.316" lon="4.14959">
        <ele>104</ele>
        <time>2018-03-30T16:04:53Z</time>
      </trkpt>
      <trkpt lat="49.31598" lon="4.14958">
        <ele>104</ele>
        <time>2018-03-30T16:05:53Z</time>
      </trkpt>
      <trkpt lat="49.31596" lon="4.14957">
        <ele>104</ele>
        <time>2018-03-30T16:06:53Z</time>
      </trkpt>
      <trkpt lat="49.31595" lon="4.14957">
        <ele>104</ele>
        <time>2018-03-30T16:07:53Z</time>
      </trkpt>
      <trkpt lat="49.31593" lon="4.14957">
        <ele>104</ele>
        <time>2018-03-30T16:08:53Z</time>
      </trkpt>
      <trkpt lat="49.31592" lon="4.14957">
        <ele>104</ele>
        <time>2018-03-30T16:09:53Z</time>
      </trkpt>
      <trkpt lat="49.3159" lon="4.14957">
        <ele>104</ele>
        <time>2018-03-30T16:10:53Z</time>
      </trkpt>
      <trkpt lat="49.31584" lon="4.14952">
        <ele>105</ele>
        <time>2018-03-30T16:11:53Z</time>
      </trkpt>
      <trkpt lat="49.31581" lon="4.1495">
        <ele>105</ele>
        <time>2018-03-30T16:12:53Z</time>
      </trkpt>
      <trkpt lat="49.31579" lon="4.14947">
        <ele>105</ele>
        <time>2018-03-30T16:13:53Z</time>
      </trkpt>
      <trkpt lat="49.31577" lon="4.14944">
        <ele>105</ele>
        <time>2018-03-30T16:14:53Z</time>
      </trkpt>
      <trkpt lat="49.31575" lon="4.1494">
        <ele>105</ele>
        <time>2018-03-30T16:15:53Z</time>
      </trkpt>
      <trkpt lat="49.31573" lon="4.14935">
        <ele>105</ele>
        <time>2018-03-30T16:16:53Z</time>
      </trkpt>
      <trkpt lat="49.3157" lon="4.14926">
        <ele>105</ele>
        <time>2018-03-30T16:17:53Z</time>
      </trkpt>
      <trkpt lat="49.31567" lon="4.14918">
        <ele>105</ele>
        <time>2018-03-30T16:18:53Z</time>
      </trkpt>
      <trkpt lat="49.31564" lon="4.14911">
        <ele>105</ele>
        <time>2018-03-30T16:19:53Z</time>
      </trkpt>
      <trkpt lat="49.31562" lon="4.14904">
        <ele>105</ele>
        <time>2018-03-30T16:20:53Z</time>
      </trkpt>
      <trkpt lat="49.31559" lon="4.14899">
        <ele>105</ele>
        <time>2018-03-30T16:21:53Z</time>
      </trkpt>
      <trkpt lat="49.31557" lon="4.14895">
        <ele>105</ele>
        <time>2018-03-30T16:22:53Z</time>
      </trkpt>
      <trkpt lat="49.31554" lon="4.14891">
        <ele>105</ele>
        <time>2018-03-30T16:23:53Z</time>
      </trkpt>
      <trkpt lat="49.31552" lon="4.14888">
        <ele>105</ele>
        <time>2018-03-30T16:24:53Z</time>
      </trkpt>
      <trkpt lat="49.31548" lon="4.14884">
        <ele>105</ele>
        <time>2018-03-30T16:25:53Z</time>
      </trkpt>
      <trkpt lat="49.31545" lon="4.14881">
        <ele>105</ele>
        <time>2018-03-30T16:26:53Z</time>
      </trkpt>
      <trkpt lat="49.31541" lon="4.14878">
        <ele>105</ele>
        <time>2018-03-30T16:27:53Z</time>
      </trkpt>
      <trkpt lat="49.31536" lon="4.14876">
        <ele>105</ele>
        <time>2018-03-30T16:28:53Z</time>
      </trkpt>
      <trkpt lat="49.31532" lon="4.14874">
        <ele>105</ele>
        <time>2018-03-30T16:29:53Z</time>
      </trkpt>
      <trkpt lat="49.31526" lon="4.14873">
        <ele>105</ele>
        <time>2018-03-30T16:30:53Z</time>
      </trkpt>
      <trkpt lat="49.31519" lon="4.14872">
        <ele>105</ele>
        <time>2018-03-30T16:31:53Z</time>
      </trkpt>
      <trkpt lat="49.31507" lon="4.14872">
        <ele>105</ele>
        <time>2018-03-30T16:32:53Z</time>
      </trkpt>
      <trkpt lat="49.31498" lon="4.14873">
        <ele>105</ele>
        <time>2018-03-30T16:33:53Z</time>
      </trkpt>
      <trkpt lat="49.31494" lon="4.14874">
        <ele>105</ele>
        <time>2018-03-30T16:34:53Z</time>
      </trkpt>
      <trkpt lat="49.3148" lon="4.14873">
        <ele>105</ele>
        <time>2018-03-30T16:35:53Z</time>
      </trkpt>
      <trkpt lat="49.31458" lon="4.14872">
        <ele>105</ele>
        <time>2018-03-30T16:36:53Z</time>
      </trkpt>
      <trkpt lat="49.31432" lon="4.14871">
        <ele>105</ele>
        <time>2018-03-30T16:37:53Z</time>
      </trkpt>
      <trkpt lat="49.31425" lon="4.14871">
        <ele>105</ele>
        <time>2018-03-30T16:38:53Z</time>
      </trkpt>
      <trkpt lat="49.31417" lon="4.14869">
        <ele>105</ele>
        <time>2018-03-30T16:39:53Z</time>
      </trkpt>
      <trkpt lat="49.31409" lon="4.14868">
        <ele>105</ele>
        <time>2018-03-30T16:40:53Z</time>
      </trkpt>
      <trkpt lat="49.314" lon="4.14866">
        <ele>105</ele>
        <time>2018-03-30T16:41:53Z</time>
      </trkpt>
      <trkpt lat="49.31389" lon="4.14863">
        <ele>105</ele>
        <time>2018-03-30T16:42:53Z</time>
      </trkpt>
      <trkpt lat="49.31377" lon="4.14858">
        <ele>105</ele>
        <time>2018-03-30T16:43:53Z</time>
      </trkpt>
      <trkpt lat="49.31362" lon="4.14851">
        <ele>105</ele>
        <time>2018-03-30T16:44:53Z</time>
      </trkpt>
      <trkpt lat="49.31346" lon="4.14841">
        <ele>105</ele>
        <time>2018-03-30T16:45:53Z</time>
      </trkpt>
      <trkpt lat="49.31328" lon="4.14829">
        <ele>105</ele>
        <time>2018-03-30T16:46:53Z</time>
      </trkpt>
      <trkpt lat="49.31312" lon="4.14817">
        <ele>105</ele>
        <time>2018-03-30T16:47:53Z</time>
      </trkpt>
      <trkpt lat="49.31292" lon="4.148">
        <ele>105</ele>
        <time>2018-03-30T16:48:53Z</time>
      </trkpt>
      <trkpt lat="49.31283" lon="4.14791">
        <ele>105</ele>
        <time>2018-03-30T16:49:53Z</time>
      </trkpt>
      <trkpt lat="49.31274" lon="4.14782">
        <ele>105</ele>
        <time>2018-03-30T16:50:53Z</time>
      </trkpt>
      <trkpt lat="49.31265" lon="4.14772">
        <ele>105</ele>
        <time>2018-03-30T16:51:53Z</time>
      </trkpt>
      <trkpt lat="49.31254" lon="4.1476">
        <ele>105</ele>
        <time>2018-03-30T16:52:53Z</time>
      </trkpt>
      <trkpt lat="49.31232" lon="4.14735">
        <ele>105</ele>
        <time>2018-03-30T16:53:53Z</time>
      </trkpt>
      <trkpt lat="49.31213" lon="4.14712">
        <ele>105</ele>
        <time>2018-03-30T16:54:53Z</time>
      </trkpt>
      <trkpt lat="49.31184" lon="4.14677">
        <ele>106</ele>
        <time>2018-03-30T16:55:53Z</time>
      </trkpt>
      <trkpt lat="49.31099" lon="4.14572">
        <ele>106</ele>
        <time>2018-03-30T16:56:53Z</time>
      </trkpt>
      <trkpt lat="49.31093" lon="4.14564">
        <ele>106</ele>
        <time>2018-03-30T16:57:53Z</time>
      </trkpt>
      <trkpt lat="49.30467" lon="4.138">
        <ele>112</ele>
        <time>2018-03-30T16:58:53Z</time>
      </trkpt>
      <trkpt lat="49.30435" lon="4.13762">
        <ele>113</ele>
        <time>2018-03-30T16:59:53Z</time>
      </trkpt>
      <trkpt lat="49.30382" lon="4.13697">
        <ele>114</ele>
        <time>2018-03-30T17:00:53Z</time>
      </trkpt>
      <trkpt lat="49.30338" lon="4.13643">
        <ele>115</ele>
        <time>2018-03-30T17:01:53Z</time>
      </trkpt>
      <trkpt lat="49.30281" lon="4.13573">
        <ele>117</ele>
        <time>2018-03-30T17:02:53Z</time>
      </trkpt>
      <trkpt lat="49.30213" lon="4.13491">
        <ele>120</ele>
        <time>2018-03-30T17:03:53Z</time>
      </trkpt>
      <trkpt lat="49.30194" lon="4.13468">
        <ele>121</ele>
        <time>2018-03-30T17:04:53Z</time>
      </trkpt>
      <trkpt lat="49.30153" lon="4.13419">
        <ele>121</ele>
        <time>2018-03-30T17:05:53Z</time>
      </trkpt>
      <trkpt lat="49.30125" lon="4.13386">
        <ele>122</ele>
        <time>2018-03-30T17:06:53Z</time>
      </trkpt>
      <trkpt lat="49.3011" lon="4.1337">
        <ele>122</ele>
        <time>2018-03-30T17:07:53Z</time>
      </trkpt>
      <trkpt lat="49.30095" lon="4.13353">
        <ele>123</ele>
        <time>2018-03-30T17:08:53Z</time>
      </trkpt>
      <trkpt lat="49.30083" lon="4.1334">
        <ele>123</ele>
        <time>2018-03-30T17:09:53Z</time>
      </trkpt>
      <trkpt lat="49.30074" lon="4.13331">
        <ele>123</ele>
        <time>2018-03-30T17:10:53Z</time>
      </trkpt>
      <trkpt lat="49.30072" lon="4.13329">
        <ele>123</ele>
        <time>2018-03-30T17:11:53Z</time>
      </trkpt>
      <trkpt lat="49.30065" lon="4.13322">
        <ele>123</ele>
        <time>2018-03-30T17:12:53Z</time>
      </trkpt>
      <trkpt lat="49.30021" lon="4.13279">
        <ele>124</ele>
        <time>2018-03-30T17:13:53Z</time>
      </trkpt>
      <trkpt lat="49.29961" lon="4.13222">
        <ele>124</ele>
        <time>2018-03-30T17:14:53Z</time>
      </trkpt>
      <trkpt lat="49.29918" lon="4.13182">
        <ele>125</ele>
        <time>2018-03-30T17:15:53Z</time>
      </trkpt>
      <trkpt lat="49.29888" lon="4.13152">
        <ele>125</ele>
        <time>2018-03-30T17:16:53Z</time>
      </trkpt>
      <trkpt lat="49.29874" lon="4.13138">
        <ele>125</ele>
        <time>2018-03-30T17:17:53Z</time>
      </trkpt>
      <trkpt lat="49.29861" lon="4.13122">
        <ele>125</ele>
        <time>2018-03-30T17:18:53Z</time>
      </trkpt>
      <trkpt lat="49.2982" lon="4.13074">
        <ele>126</ele>
        <time>2018-03-30T17:19:53Z</time>
      </trkpt>
      <trkpt lat="49.2981" lon="4.13061">
        <ele>126</ele>
        <time>2018-03-30T17:20:53Z</time>
      </trkpt>
      <trkpt lat="49.29801" lon="4.13052">
        <ele>126</ele>
        <time>2018-03-30T17:21:53Z</time>
      </trkpt>
      <trkpt lat="49.29789" lon="4.1304">
        <ele>125</ele>
        <time>2018-03-30T17:22:53Z</time>
      </trkpt>
      <trkpt lat="49.29784" lon="4.13035">
        <ele>125</ele>
        <time>2018-03-30T17:23:53Z</time>
      </trkpt>
      <trkpt lat="49.2977" lon="4.1302">
        <ele>125</ele>
        <time>2018-03-30T17:24:53Z</time>
      </trkpt>
      <trkpt lat="49.2977" lon="4.13019">
        <ele>125</ele>
        <time>2018-03-30T17:25:53Z</time>
      </trkpt>
      <trkpt lat="49.2977" lon="4.13018">
        <ele>125</ele>
        <time>2018-03-30T17:26:53Z</time>
      </trkpt>
      <trkpt lat="49.2977" lon="4.13017">
        <ele>125</ele>
        <time>2018-03-30T17:27:53Z</time>
      </trkpt>
      <trkpt lat="49.29771" lon="4.13016">
        <ele>125</ele>
        <time>2018-03-30T17:28:53Z</time>
      </trkpt>
      <trkpt lat="49.29771" lon="4.13015">
        <ele>125</ele>
        <time>2018-03-30T17:29:53Z</time>
      </trkpt>
      <trkpt lat="49.29771" lon="4.13014">
        <ele>125</ele>
        <time>2018-03-30T17:30:53Z</time>
      </trkpt>
      <trkpt lat="49.29771" lon="4.13013">
        <ele>125</ele>
        <time>2018-03-30T17:31:53Z</time>
      </trkpt>
      <trkpt lat="49.29771" lon="4.13012">
        <ele>125</ele>
        <time>2018-03-30T17:32:53Z</time>
      </trkpt>
      <trkpt lat="49.29771" lon="4.13011">
        <ele>125</ele>
        <time>2018-03-30T17:33:53Z</time>
      </trkpt>
      <trkpt lat="49.29771" lon="4.1301">
        <ele>125</ele>
        <time>2018-03-30T17:34:53Z</time>
      </trkpt>
      <trkpt lat="49.29771" lon="4.13009">
        <ele>125</ele>
        <time>2018-03-30T17:35:53Z</time>
      </trkpt>
      <trkpt lat="49.29771" lon="4.13008">
        <ele>125</ele>
        <time>2018-03-30T17:36:53Z</time>
      </trkpt>
      <trkpt lat="49.2977" lon="4.13008">
        <ele>125</ele>
        <time>2018-03-30T17:37:53Z</time>
      </trkpt>
      <trkpt lat="49.2977" lon="4.13007">
        <ele>125</ele>
        <time>2018-03-30T17:38:53Z</time>
      </trkpt>
      <trkpt lat="49.2977" lon="4.13006">
        <ele>125</ele>
        <time>2018-03-30T17:39:53Z</time>
      </trkpt>
      <trkpt lat="49.2977" lon="4.13005">
        <ele>125</ele>
        <time>2018-03-30T17:40:53Z</time>
      </trkpt>
      <trkpt lat="49.29769" lon="4.13005">
        <ele>125</ele>
        <time>2018-03-30T17:41:53Z</time>
      </trkpt>
      <trkpt lat="49.29769" lon="4.13004">
        <ele>125</ele>
        <time>2018-03-30T17:42:53Z</time>
      </trkpt>
      <trkpt lat="49.29769" lon="4.13003">
        <ele>125</ele>
        <time>2018-03-30T17:43:53Z</time>
      </trkpt>
      <trkpt lat="49.29768" lon="4.13002">
        <ele>125</ele>
        <time>2018-03-30T17:44:53Z</time>
      </trkpt>
      <trkpt lat="49.29767" lon="4.13002">
        <ele>125</ele>
        <time>2018-03-30T17:45:53Z</time>
      </trkpt>
      <trkpt lat="49.29767" lon="4.13001">
        <ele>125</ele>
        <time>2018-03-30T17:46:53Z</time>
      </trkpt>
      <trkpt lat="49.29766" lon="4.13001">
        <ele>125</ele>
        <time>2018-03-30T17:47:53Z</time>
      </trkpt>
      <trkpt lat="49.29766" lon="4.13">
        <ele>125</ele>
        <time>2018-03-30T17:48:53Z</time>
      </trkpt>
      <trkpt lat="49.29765" lon="4.13">
        <ele>125</ele>
        <time>2018-03-30T17:49:53Z</time>
      </trkpt>
      <trkpt lat="49.29764" lon="4.12999">
        <ele>125</ele>
        <time>2018-03-30T17:50:53Z</time>
      </trkpt>
      <trkpt lat="49.29763" lon="4.12999">
        <ele>125</ele>
        <time>2018-03-30T17:51:53Z</time>
      </trkpt>
      <trkpt lat="49.29762" lon="4.12999">
        <ele>125</ele>
        <time>2018-03-30T17:52:53Z</time>
      </trkpt>
      <trkpt lat="49.29761" lon="4.12999">
        <ele>125</ele>
        <time>2018-03-30T17:53:53Z</time>
      </trkpt>
      <trkpt lat="49.2976" lon="4.12999">
        <ele>125</ele>
        <time>2018-03-30T17:54:53Z</time>
      </trkpt>
      <trkpt lat="49.2976" lon="4.13">
        <ele>125</ele>
        <time>2018-03-30T17:55:53Z</time>
      </trkpt>
      <trkpt lat="49.29759" lon="4.13">
        <ele>125</ele>
        <time>2018-03-30T17:56:53Z</time>
      </trkpt>
      <trkpt lat="49.29758" lon="4.13">
        <ele>125</ele>
        <time>2018-03-30T17:57:53Z</time>
      </trkpt>
      <trkpt lat="49.29758" lon="4.13001">
        <ele>125</ele>
        <time>2018-03-30T17:58:53Z</time>
      </trkpt>
      <trkpt lat="49.29757" lon="4.13001">
        <ele>125</ele>
        <time>2018-03-30T17:59:53Z</time>
      </trkpt>
      <trkpt lat="49.29757" lon="4.13002">
        <ele>125</ele>
        <time>2018-03-30T18:00:53Z</time>
      </trkpt>
      <trkpt lat="49.29681" lon="4.12906">
        <ele>125</ele>
        <time>2018-03-30T18:01:53Z</time>
      </trkpt>
      <trkpt lat="49.29666" lon="4.12887">
        <ele>125</ele>
        <time>2018-03-30T18:02:53Z</time>
      </trkpt>
      <trkpt lat="49.29653" lon="4.12871">
        <ele>125</ele>
        <time>2018-03-30T18:03:53Z</time>
      </trkpt>
      <trkpt lat="49.2959" lon="4.12795">
        <ele>126</ele>
        <time>2018-03-30T18:04:53Z</time>
      </trkpt>
      <trkpt lat="49.29571" lon="4.12771">
        <ele>127</ele>
        <time>2018-03-30T18:05:53Z</time>
      </trkpt>
      <trkpt lat="49.29563" lon="4.12763">
        <ele>127</ele>
        <time>2018-03-30T18:06:53Z</time>
      </trkpt>
      <trkpt lat="49.29526" lon="4.12718">
        <ele>128</ele>
        <time>2018-03-30T18:07:53Z</time>
      </trkpt>
      <trkpt lat="49.29469" lon="4.12648">
        <ele>128</ele>
        <time>2018-03-30T18:08:53Z</time>
      </trkpt>
      <trkpt lat="49.29432" lon="4.12601">
        <ele>128</ele>
        <time>2018-03-30T18:09:53Z</time>
      </trkpt>
      <trkpt lat="49.29428" lon="4.12596">
        <ele>128</ele>
        <time>2018-03-30T18:10:53Z</time>
      </trkpt>
      <trkpt lat="49.2936" lon="4.12514">
        <ele>129</ele>
        <time>2018-03-30T18:11:53Z</time>
      </trkpt>
      <trkpt lat="49.29323" lon="4.12469">
        <ele>129</ele>
        <time>2018-03-30T18:12:53Z</time>
      </trkpt>
      <trkpt lat="49.29306" lon="4.12447">
        <ele>129</ele>
        <time>2018-03-30T18:13:53Z</time>
      </trkpt>
      <trkpt lat="49.29286" lon="4.12419">
        <ele>129</ele>
        <time>2018-03-30T18:14:53Z</time>
      </trkpt>
      <trkpt lat="49.29235" lon="4.12341">
        <ele>130</ele>
        <time>2018-03-30T18:15:53Z</time>
      </trkpt>
      <trkpt lat="49.29168" lon="4.12241">
        <ele>130</ele>
        <time>2018-03-30T18:16:53Z</time>
      </trkpt>
      <trkpt lat="49.29071" lon="4.12101">
        <ele>132</ele>
        <time>2018-03-30T18:17:53Z</time>
      </trkpt>
      <trkpt lat="49.28991" lon="4.11976">
        <ele>133</ele>
        <time>2018-03-30T18:18:53Z</time>
      </trkpt>
      <trkpt lat="49.28976" lon="4.11955">
        <ele>134</ele>
        <time>2018-03-30T18:19:53Z</time>
      </trkpt>
      <trkpt lat="49.28958" lon="4.11927">
        <ele>134</ele>
        <time>2018-03-30T18:20:53Z</time>
      </trkpt>
      <trkpt lat="49.2889" lon="4.11825">
        <ele>136</ele>
        <time>2018-03-30T18:21:53Z</time>
      </trkpt>
      <trkpt lat="49.28882" lon="4.11813">
        <ele>136</ele>
        <time>2018-03-30T18:22:53Z</time>
      </trkpt>
      <trkpt lat="49.28868" lon="4.11791">
        <ele>137</ele>
        <time>2018-03-30T18:23:53Z</time>
      </trkpt>
      <trkpt lat="49.2881" lon="4.11704">
        <ele>139</ele>
        <time>2018-03-30T18:24:53Z</time>
      </trkpt>
      <trkpt lat="49.28776" lon="4.11652">
        <ele>140</ele>
        <time>2018-03-30T18:25:53Z</time>
      </trkpt>
      <trkpt lat="49.28775" lon="4.11651">
        <ele>140</ele>
        <time>2018-03-30T18:26:53Z</time>
      </trkpt>
      <trkpt lat="49.28712" lon="4.11555">
        <ele>140</ele>
        <time>2018-03-30T18:27:53Z</time>
      </trkpt>
      <trkpt lat="49.28687" lon="4.11518">
        <ele>141</ele>
        <time>2018-03-30T18:28:53Z</time>
      </trkpt>
      <trkpt lat="49.28644" lon="4.11455">
        <ele>142</ele>
        <time>2018-03-30T18:29:53Z</time>
      </trkpt>
      <trkpt lat="49.2862" lon="4.11418">
        <ele>143</ele>
        <time>2018-03-30T18:30:53Z</time>
      </trkpt>
      <trkpt lat="49.28571" lon="4.11346">
        <ele>144</ele>
        <time>2018-03-30T18:31:53Z</time>
      </trkpt>
      <trkpt lat="49.28559" lon="4.11323">
        <ele>144</ele>
        <time>2018-03-30T18:32:53Z</time>
      </trkpt>
      <trkpt lat="49.28557" lon="4.11321">
        <ele>144</ele>
        <time>2018-03-30T18:33:53Z</time>
      </trkpt>
      <trkpt lat="49.28556" lon="4.11318">
        <ele>144</ele>
        <time>2018-03-30T18:34:53Z</time>
      </trkpt>
      <trkpt lat="49.28555" lon="4.11315">
        <ele>144</ele>
        <time>2018-03-30T18:35:53Z</time>
      </trkpt>
      <trkpt lat="49.28554" lon="4.11313">
        <ele>144</ele>
        <time>2018-03-30T18:36:53Z</time>
      </trkpt>
      <trkpt lat="49.28553" lon="4.1131">
        <ele>144</ele>
        <time>2018-03-30T18:37:53Z</time>
      </trkpt>
      <trkpt lat="49.28552" lon="4.11307">
        <ele>144</ele>
        <time>2018-03-30T18:38:53Z</time>
      </trkpt>
      <trkpt lat="49.28552" lon="4.11304">
        <ele>144</ele>
        <time>2018-03-30T18:39:53Z</time>
      </trkpt>
      <trkpt lat="49.28551" lon="4.11293">
        <ele>144</ele>
        <time>2018-03-30T18:40:53Z</time>
      </trkpt>
      <trkpt lat="49.28551" lon="4.11293">
        <ele>144</ele>
        <time>2018-03-30T18:41:53Z</time>
      </trkpt>
      <trkpt lat="49.28551" lon="4.11292">
        <ele>144</ele>
        <time>2018-03-30T18:42:53Z</time>
      </trkpt>
      <trkpt lat="49.28551" lon="4.11291">
        <ele>144</ele>
        <time>2018-03-30T18:43:53Z</time>
      </trkpt>
      <trkpt lat="49.28552" lon="4.11291">
        <ele>144</ele>
        <time>2018-03-30T18:44:53Z</time>
      </trkpt>
      <trkpt lat="49.28552" lon="4.1129">
        <ele>144</ele>
        <time>2018-03-30T18:45:53Z</time>
      </trkpt>
      <trkpt lat="49.28552" lon="4.11289">
        <ele>144</ele>
        <time>2018-03-30T18:46:53Z</time>
      </trkpt>
      <trkpt lat="49.28552" lon="4.11288">
        <ele>144</ele>
        <time>2018-03-30T18:47:53Z</time>
      </trkpt>
      <trkpt lat="49.28553" lon="4.11287">
        <ele>144</ele>
        <time>2018-03-30T18:48:53Z</time>
      </trkpt>
      <trkpt lat="49.28553" lon="4.11286">
        <ele>144</ele>
        <time>2018-03-30T18:49:53Z</time>
      </trkpt>
      <trkpt lat="49.28553" lon="4.11285">
        <ele>144</ele>
        <time>2018-03-30T18:50:53Z</time>
      </trkpt>
      <trkpt lat="49.28553" lon="4.11284">
        <ele>144</ele>
        <time>2018-03-30T18:51:53Z</time>
      </trkpt>
      <trkpt lat="49.28553" lon="4.11283">
        <ele>144</ele>
        <time>2018-03-30T18:52:53Z</time>
      </trkpt>
      <trkpt lat="49.28553" lon="4.11282">
        <ele>144</ele>
        <time>2018-03-30T18:53:53Z</time>
      </trkpt>
      <trkpt lat="49.28553" lon="4.11281">
        <ele>144</ele>
        <time>2018-03-30T18:54:53Z</time>
      </trkpt>
      <trkpt lat="49.28552" lon="4.1128">
        <ele>144</ele>
        <time>2018-03-30T18:55:53Z</time>
      </trkpt>
      <trkpt lat="49.28552" lon="4.11279">
        <ele>144</ele>
        <time>2018-03-30T18:56:53Z</time>
      </trkpt>
      <trkpt lat="49.28552" lon="4.11278">
        <ele>144</ele>
        <time>2018-03-30T18:57:53Z</time>
      </trkpt>
      <trkpt lat="49.28552" lon="4.11277">
        <ele>145</ele>
        <time>2018-03-30T18:58:53Z</time>
      </trkpt>
      <trkpt lat="49.28551" lon="4.11276">
        <ele>145</ele>
        <time>2018-03-30T18:59:53Z</time>
      </trkpt>
      <trkpt lat="49.28551" lon="4.11275">
        <ele>145</ele>
        <time>2018-03-30T19:00:53Z</time>
      </trkpt>
      <trkpt lat="49.2855" lon="4.11274">
        <ele>145</ele>
        <time>2018-03-30T19:01:53Z</time>
      </trkpt>
      <trkpt lat="49.2855" lon="4.11273">
        <ele>145</ele>
        <time>2018-03-30T19:02:53Z</time>
      </trkpt>
      <trkpt lat="49.28549" lon="4.11273">
        <ele>145</ele>
        <time>2018-03-30T19:03:53Z</time>
      </trkpt>
      <trkpt lat="49.28549" lon="4.11272">
        <ele>145</ele>
        <time>2018-03-30T19:04:53Z</time>
      </trkpt>
      <trkpt lat="49.28548" lon="4.11272">
        <ele>145</ele>
        <time>2018-03-30T19:05:53Z</time>
      </trkpt>
      <trkpt lat="49.28548" lon="4.11271">
        <ele>145</ele>
        <time>2018-03-30T19:06:53Z</time>
      </trkpt>
      <trkpt lat="49.28547" lon="4.11271">
        <ele>145</ele>
        <time>2018-03-30T19:07:53Z</time>
      </trkpt>
      <trkpt lat="49.28547" lon="4.1127">
        <ele>145</ele>
        <time>2018-03-30T19:08:53Z</time>
      </trkpt>
      <trkpt lat="49.28546" lon="4.1127">
        <ele>145</ele>
        <time>2018-03-30T19:09:53Z</time>
      </trkpt>
      <trkpt lat="49.28545" lon="4.1127">
        <ele>145</ele>
        <time>2018-03-30T19:10:53Z</time>
      </trkpt>
      <trkpt lat="49.28544" lon="4.1127">
        <ele>145</ele>
        <time>2018-03-30T19:11:53Z</time>
      </trkpt>
      <trkpt lat="49.28543" lon="4.1127">
        <ele>145</ele>
        <time>2018-03-30T19:12:53Z</time>
      </trkpt>
      <trkpt lat="49.28542" lon="4.1127">
        <ele>145</ele>
        <time>2018-03-30T19:13:53Z</time>
      </trkpt>
      <trkpt lat="49.28541" lon="4.1127">
        <ele>145</ele>
        <time>2018-03-30T19:14:53Z</time>
      </trkpt>
      <trkpt lat="49.2854" lon="4.1127">
        <ele>145</ele>
        <time>2018-03-30T19:15:53Z</time>
      </trkpt>
      <trkpt lat="49.2854" lon="4.11271">
        <ele>145</ele>
        <time>2018-03-30T19:16:53Z</time>
      </trkpt>
      <trkpt lat="49.28539" lon="4.11271">
        <ele>145</ele>
        <time>2018-03-30T19:17:53Z</time>
      </trkpt>
      <trkpt lat="49.28538" lon="4.11272">
        <ele>145</ele>
        <time>2018-03-30T19:18:53Z</time>
      </trkpt>
      <trkpt lat="49.28538" lon="4.11273">
        <ele>145</ele>
        <time>2018-03-30T19:19:53Z</time>
      </trkpt>
      <trkpt lat="49.28537" lon="4.11273">
        <ele>145</ele>
        <time>2018-03-30T19:20:53Z</time>
      </trkpt>
      <trkpt lat="49.28537" lon="4.11274">
        <ele>145</ele>
        <time>2018-03-30T19:21:53Z</time>
      </trkpt>
      <trkpt lat="49.28536" lon="4.11274">
        <ele>145</ele>
        <time>2018-03-30T19:22:53Z</time>
      </trkpt>
      <trkpt lat="49.28533" lon="4.11272">
        <ele>145</ele>
        <time>2018-03-30T19:23:53Z</time>
      </trkpt>
      <trkpt lat="49.28529" lon="4.1127">
        <ele>145</ele>
        <time>2018-03-30T19:24:53Z</time>
      </trkpt>
      <trkpt lat="49.28525" lon="4.11266">
        <ele>145</ele>
        <time>2018-03-30T19:25:53Z</time>
      </trkpt>
      <trkpt lat="49.28517" lon="4.11255">
        <ele>145</ele>
        <time>2018-03-30T19:26:53Z</time>
      </trkpt>
      <trkpt lat="49.28485" lon="4.11205">
        <ele>146</ele>
        <time>2018-03-30T19:27:53Z</time>
      </trkpt>
      <trkpt lat="49.2848" lon="4.11199">
        <ele>145</ele>
        <time>2018-03-30T19:28:53Z</time>
      </trkpt>
      <trkpt lat="49.28478" lon="4.11195">
        <ele>145</ele>
        <time>2018-03-30T19:29:53Z</time>
      </trkpt>
      <trkpt lat="49.28471" lon="4.11185">
        <ele>145</ele>
        <time>2018-03-30T19:30:53Z</time>
      </trkpt>
      <trkpt lat="49.28465" lon="4.11174">
        <ele>145</ele>
        <time>2018-03-30T19:31:53Z</time>
      </trkpt>
      <trkpt lat="49.28452" lon="4.11152">
        <ele>145</ele>
        <time>2018-03-30T19:32:53Z</time>
      </trkpt>
      <trkpt lat="49.28443" lon="4.11134">
        <ele>145</ele>
        <time>2018-03-30T19:33:53Z</time>
      </trkpt>
      <trkpt lat="49.28414" lon="4.11075">
        <ele>144</ele>
        <time>2018-03-30T19:34:53Z</time>
      </trkpt>
      <trkpt lat="49.28403" lon="4.11052">
        <ele>144</ele>
        <time>2018-03-30T19:35:53Z</time>
      </trkpt>
      <trkpt lat="49.28398" lon="4.11041">
        <ele>144</ele>
        <time>2018-03-30T19:36:53Z</time>
      </trkpt>
      <trkpt lat="49.28396" lon="4.11036">
        <ele>144</ele>
        <time>2018-03-30T19:37:53Z</time>
      </trkpt>
      <trkpt lat="49.28394" lon="4.11029">
        <ele>144</ele>
        <time>2018-03-30T19:38:53Z</time>
      </trkpt>
      <trkpt lat="49.28392" lon="4.1102">
        <ele>144</ele>
        <time>2018-03-30T19:39:53Z</time>
      </trkpt>
      <trkpt lat="49.28393" lon="4.11018">
        <ele>144</ele>
        <time>2018-03-30T19:40:53Z</time>
      </trkpt>
      <trkpt lat="49.28393" lon="4.11015">
        <ele>144</ele>
        <time>2018-03-30T19:41:53Z</time>
      </trkpt>
      <trkpt lat="49.28393" lon="4.11013">
        <ele>144</ele>
        <time>2018-03-30T19:42:53Z</time>
      </trkpt>
      <trkpt lat="49.28392" lon="4.1101">
        <ele>144</ele>
        <time>2018-03-30T19:43:53Z</time>
      </trkpt>
      <trkpt lat="49.28391" lon="4.11007">
        <ele>144</ele>
        <time>2018-03-30T19:44:53Z</time>
      </trkpt>
      <trkpt lat="49.28389" lon="4.11004">
        <ele>144</ele>
        <time>2018-03-30T19:45:53Z</time>
      </trkpt>
      <trkpt lat="49.28383" lon="4.11002">
        <ele>144</ele>
        <time>2018-03-30T19:46:53Z</time>
      </trkpt>
      <trkpt lat="49.28376" lon="4.10986">
        <ele>144</ele>
        <time>2018-03-30T19:47:53Z</time>
      </trkpt>
      <trkpt lat="49.28372" lon="4.10975">
        <ele>144</ele>
        <time>2018-03-30T19:48:53Z</time>
      </trkpt>
      <trkpt lat="49.28368" lon="4.10961">
        <ele>145</ele>
        <time>2018-03-30T19:49:53Z</time>
      </trkpt>
      <trkpt lat="49.28363" lon="4.10946">
        <ele>145</ele>
        <time>2018-03-30T19:50:53Z</time>
      </trkpt>
      <trkpt lat="49.2836" lon="4.10935">
        <ele>145</ele>
        <time>2018-03-30T19:51:53Z</time>
      </trkpt>
      <trkpt lat="49.28301" lon="4.10782">
        <ele>143</ele>
        <time>2018-03-30T19:52:53Z</time>
      </trkpt>
      <trkpt lat="49.28292" lon="4.10757">
        <ele>142</ele>
        <time>2018-03-30T19:53:53Z</time>
      </trkpt>
      <trkpt lat="49.28287" lon="4.1074">
        <ele>142</ele>
        <time>2018-03-30T19:54:53Z</time>
      </trkpt>
      <trkpt lat="49.28283" lon="4.10724">
        <ele>142</ele>
        <time>2018-03-30T19:55:53Z</time>
      </trkpt>
      <trkpt lat="49.2828" lon="4.10712">
        <ele>143</ele>
        <time>2018-03-30T19:56:53Z</time>
      </trkpt>
      <trkpt lat="49.28279" lon="4.10703">
        <ele>143</ele>
        <time>2018-03-30T19:57:53Z</time>
      </trkpt>
      <trkpt lat="49.28279" lon="4.1069">
        <ele>143</ele>
        <time>2018-03-30T19:58:53Z</time>
      </trkpt>
      <trkpt lat="49.28279" lon="4.1069">
        <ele>143</ele>
        <time>2018-03-30T19:59:53Z</time>
      </trkpt>
      <trkpt lat="49.2828" lon="4.10685">
        <ele>143</ele>
        <time>2018-03-30T20:00:53Z</time>
      </trkpt>
      <trkpt lat="49.2828" lon="4.10682">
        <ele>143</ele>
        <time>2018-03-30T20:01:53Z</time>
      </trkpt>
      <trkpt lat="49.28281" lon="4.10679">
        <ele>143</ele>
        <time>2018-03-30T20:02:53Z</time>
      </trkpt>
      <trkpt lat="49.2828" lon="4.10676">
        <ele>143</ele>
        <time>2018-03-30T20:03:53Z</time>
      </trkpt>
      <trkpt lat="49.2828" lon="4.10672">
        <ele>143</ele>
        <time>2018-03-30T20:04:53Z</time>
      </trkpt>
      <trkpt lat="49.2828" lon="4.10669">
        <ele>143</ele>
        <time>2018-03-30T20:05:53Z</time>
      </trkpt>
      <trkpt lat="49.28279" lon="4.10666">
        <ele>143</ele>
        <time>2018-03-30T20:06:53Z</time>
      </trkpt>
      <trkpt lat="49.28278" lon="4.10663">
        <ele>143</ele>
        <time>2018-03-30T20:07:53Z</time>
      </trkpt>
      <trkpt lat="49.28277" lon="4.1066">
        <ele>143</ele>
        <time>2018-03-30T20:08:53Z</time>
      </trkpt>
      <trkpt lat="49.28276" lon="4.10657">
        <ele>143</ele>
        <time>2018-03-30T20:09:53Z</time>
      </trkpt>
      <trkpt lat="49.28274" lon="4.10655">
        <ele>143</ele>
        <time>2018-03-30T20:10:53Z</time>
      </trkpt>
      <trkpt lat="49.28273" lon="4.10653">
        <ele>143</ele>
        <time>2018-03-30T20:11:53Z</time>
      </trkpt>
      <trkpt lat="49.28271" lon="4.10651">
        <ele>143</ele>
        <time>2018-03-30T20:12:53Z</time>
      </trkpt>
      <trkpt lat="49.28269" lon="4.10649">
        <ele>143</ele>
        <time>2018-03-30T20:13:53Z</time>
      </trkpt>
      <trkpt lat="49.28267" lon="4.10647">
        <ele>144</ele>
        <time>2018-03-30T20:14:53Z</time>
      </trkpt>
      <trkpt lat="49.28265" lon="4.10646">
        <ele>144</ele>
        <time>2018-03-30T20:15:53Z</time>
      </trkpt>
      <trkpt lat="49.28263" lon="4.10645">
        <ele>144</ele>
        <time>2018-03-30T20:16:53Z</time>
      </trkpt>
      <trkpt lat="49.28258" lon="4.10643">
        <ele>144</ele>
        <time>2018-03-30T20:17:53Z</time>
      </trkpt>
      <trkpt lat="49.28255" lon="4.10644">
        <ele>144</ele>
        <time>2018-03-30T20:18:53Z</time>
      </trkpt>
      <trkpt lat="49.28253" lon="4.10645">
        <ele>144</ele>
        <time>2018-03-30T20:19:53Z</time>
      </trkpt>
      <trkpt lat="49.2825" lon="4.10646">
        <ele>145</ele>
        <time>2018-03-30T20:20:53Z</time>
      </trkpt>
      <trkpt lat="49.28248" lon="4.10647">
        <ele>145</ele>
        <time>2018-03-30T20:21:53Z</time>
      </trkpt>
      <trkpt lat="49.28247" lon="4.10649">
        <ele>145</ele>
        <time>2018-03-30T20:22:53Z</time>
      </trkpt>
      <trkpt lat="49.28245" lon="4.10651">
        <ele>145</ele>
        <time>2018-03-30T20:23:53Z</time>
      </trkpt>
      <trkpt lat="49.28243" lon="4.10652">
        <ele>145</ele>
        <time>2018-03-30T20:24:53Z</time>
      </trkpt>
      <trkpt lat="49.28242" lon="4.10655">
        <ele>145</ele>
        <time>2018-03-30T20:25:53Z</time>
      </trkpt>
      <trkpt lat="49.28241" lon="4.10657">
        <ele>145</ele>
        <time>2018-03-30T20:26:53Z</time>
      </trkpt>
      <trkpt lat="49.2824" lon="4.10659">
        <ele>145</ele>
        <time>2018-03-30T20:27:53Z</time>
      </trkpt>
      <trkpt lat="49.28238" lon="4.10664">
        <ele>145</ele>
        <time>2018-03-30T20:28:53Z</time>
      </trkpt>
      <trkpt lat="49.28237" lon="4.10667">
        <ele>145</ele>
        <time>2018-03-30T20:29:53Z</time>
      </trkpt>
      <trkpt lat="49.28237" lon="4.1067">
        <ele>145</ele>
        <time>2018-03-30T20:30:53Z</time>
      </trkpt>
      <trkpt lat="49.28236" lon="4.10672">
        <ele>145</ele>
        <time>2018-03-30T20:31:53Z</time>
      </trkpt>
      <trkpt lat="49.28236" lon="4.10674">
        <ele>145</ele>
        <time>2018-03-30T20:32:53Z</time>
      </trkpt>
      <trkpt lat="49.28236" lon="4.10675">
        <ele>145</ele>
        <time>2018-03-30T20:33:53Z</time>
      </trkpt>
      <trkpt lat="49.28236" lon="4.10677">
        <ele>145</ele>
        <time>2018-03-30T20:34:53Z</time>
      </trkpt>
      <trkpt lat="49.28236" lon="4.10679">
        <ele>145</ele>
        <time>2018-03-30T20:35:53Z</time>
      </trkpt>
      <trkpt lat="49.28236" lon="4.10682">
        <ele>145</ele>
        <time>2018-03-30T20:36:53Z</time>
      </trkpt>
      <trkpt lat="49.28231" lon="4.1069">
        <ele>145</ele>
        <time>2018-03-30T20:37:53Z</time>
      </trkpt>
      <trkpt lat="49.28227" lon="4.10695">
        <ele>145</ele>
        <time>2018-03-30T20:38:53Z</time>
      </trkpt>
      <trkpt lat="49.28224" lon="4.107">
        <ele>145</ele>
        <time>2018-03-30T20:39:53Z</time>
      </trkpt>
      <trkpt lat="49.28219" lon="4.10705">
        <ele>145</ele>
        <time>2018-03-30T20:40:53Z</time>
      </trkpt>
      <trkpt lat="49.28214" lon="4.10709">
        <ele>145</ele>
        <time>2018-03-30T20:41:53Z</time>
      </trkpt>
      <trkpt lat="49.28205" lon="4.1072">
        <ele>146</ele>
        <time>2018-03-30T20:42:53Z</time>
      </trkpt>
      <trkpt lat="49.28195" lon="4.10728">
        <ele>146</ele>
        <time>2018-03-30T20:43:53Z</time>
      </trkpt>
      <trkpt lat="49.28191" lon="4.1073">
        <ele>146</ele>
        <time>2018-03-30T20:44:53Z</time>
      </trkpt>
      <trkpt lat="49.28187" lon="4.10732">
        <ele>146</ele>
        <time>2018-03-30T20:45:53Z</time>
      </trkpt>
      <trkpt lat="49.28181" lon="4.10735">
        <ele>147</ele>
        <time>2018-03-30T20:46:53Z</time>
      </trkpt>
      <trkpt lat="49.28173" lon="4.10737">
        <ele>147</ele>
        <time>2018-03-30T20:47:53Z</time>
      </trkpt>
      <trkpt lat="49.2815" lon="4.10744">
        <ele>148</ele>
        <time>2018-03-30T20:48:53Z</time>
      </trkpt>
      <trkpt lat="49.28133" lon="4.10748">
        <ele>148</ele>
        <time>2018-03-30T20:49:53Z</time>
      </trkpt>
      <trkpt lat="49.2812" lon="4.10752">
        <ele>149</ele>
        <time>2018-03-30T20:50:53Z</time>
      </trkpt>
      <trkpt lat="49.2809" lon="4.10762">
        <ele>150</ele>
        <time>2018-03-30T20:51:53Z</time>
      </trkpt>
      <trkpt lat="49.28083" lon="4.10765">
        <ele>150</ele>
        <time>2018-03-30T20:52:53Z</time>
      </trkpt>
      <trkpt lat="49.28058" lon="4.10772">
        <ele>152</ele>
        <time>2018-03-30T20:53:53Z</time>
      </trkpt>
      <trkpt lat="49.28032" lon="4.10778">
        <ele>154</ele>
        <time>2018-03-30T20:54:53Z</time>
      </trkpt>
      <trkpt lat="49.28015" lon="4.10783">
        <ele>155</ele>
        <time>2018-03-30T20:55:53Z</time>
      </trkpt>
      <trkpt lat="49.28003" lon="4.10786">
        <ele>156</ele>
        <time>2018-03-30T20:56:53Z</time>
      </trkpt>
      <trkpt lat="49.27972" lon="4.10794">
        <ele>158</ele>
        <time>2018-03-30T20:57:53Z</time>
      </trkpt>
      <trkpt lat="49.27953" lon="4.10798">
        <ele>159</ele>
        <time>2018-03-30T20:58:53Z</time>
      </trkpt>
      <trkpt lat="49.27942" lon="4.108">
        <ele>159</ele>
        <time>2018-03-30T20:59:53Z</time>
      </trkpt>
      <trkpt lat="49.27921" lon="4.10802">
        <ele>161</ele>
        <time>2018-03-30T21:00:53Z</time>
      </trkpt>
      <trkpt lat="49.27898" lon="4.10803">
        <ele>161</ele>
        <time>2018-03-30T21:01:53Z</time>
      </trkpt>
      <trkpt lat="49.27889" lon="4.10803">
        <ele>161</ele>
        <time>2018-03-30T21:02:53Z</time>
      </trkpt>
      <trkpt lat="49.2788" lon="4.10803">
        <ele>161</ele>
        <time>2018-03-30T21:03:53Z</time>
      </trkpt>
      <trkpt lat="49.2787" lon="4.10802">
        <ele>161</ele>
        <time>2018-03-30T21:04:53Z</time>
      </trkpt>
      <trkpt lat="49.2786" lon="4.10801">
        <ele>161</ele>
        <time>2018-03-30T21:05:53Z</time>
      </trkpt>
      <trkpt lat="49.27813" lon="4.10797">
        <ele>161</ele>
        <time>2018-03-30T21:06:53Z</time>
      </trkpt>
      <trkpt lat="49.2777" lon="4.10794">
        <ele>161</ele>
        <time>2018-03-30T21:07:53Z</time>
      </trkpt>
      <trkpt lat="49.2775" lon="4.10793">
        <ele>161</ele>
        <time>2018-03-30T21:08:53Z</time>
      </trkpt>
      <trkpt lat="49.27687" lon="4.10788">
        <ele>160</ele>
        <time>2018-03-30T21:09:53Z</time>
      </trkpt>
      <trkpt lat="49.27661" lon="4.10786">
        <ele>159</ele>
        <time>2018-03-30T21:10:53Z</time>
      </trkpt>
      <trkpt lat="49.2764" lon="4.10784">
        <ele>158</ele>
        <time>2018-03-30T21:11:53Z</time>
      </trkpt>
      <trkpt lat="49.27579" lon="4.10776">
        <ele>156</ele>
        <time>2018-03-30T21:12:53Z</time>
      </trkpt>
      <trkpt lat="49.27551" lon="4.10771">
        <ele>155</ele>
        <time>2018-03-30T21:13:53Z</time>
      </trkpt>
      <trkpt lat="49.27514" lon="4.10762">
        <ele>153</ele>
        <time>2018-03-30T21:14:53Z</time>
      </trkpt>
      <trkpt lat="49.2749" lon="4.10755">
        <ele>151</ele>
        <time>2018-03-30T21:15:53Z</time>
      </trkpt>
      <trkpt lat="49.2747" lon="4.10747">
        <ele>150</ele>
        <time>2018-03-30T21:16:53Z</time>
      </trkpt>
      <trkpt lat="49.2745" lon="4.10736">
        <ele>150</ele>
        <time>2018-03-30T21:17:53Z</time>
      </trkpt>
      <trkpt lat="49.27422" lon="4.10718">
        <ele>148</ele>
        <time>2018-03-30T21:18:53Z</time>
      </trkpt>
      <trkpt lat="49.27378" lon="4.10686">
        <ele>146</ele>
        <time>2018-03-30T21:19:53Z</time>
      </trkpt>
      <trkpt lat="49.2737" lon="4.10679">
        <ele>145</ele>
        <time>2018-03-30T21:20:53Z</time>
      </trkpt>
      <trkpt lat="49.27363" lon="4.1067">
        <ele>145</ele>
        <time>2018-03-30T21:21:53Z</time>
      </trkpt>
      <trkpt lat="49.27356" lon="4.10657">
        <ele>144</ele>
        <time>2018-03-30T21:22:53Z</time>
      </trkpt>
      <trkpt lat="49.27352" lon="4.10646">
        <ele>144</ele>
        <time>2018-03-30T21:23:53Z</time>
      </trkpt>
      <trkpt lat="49.27346" lon="4.10625">
        <ele>144</ele>
        <time>2018-03-30T21:24:53Z</time>
      </trkpt>
      <trkpt lat="49.27342" lon="4.106">
        <ele>144</ele>
        <time>2018-03-30T21:25:53Z</time>
      </trkpt>
      <trkpt lat="49.27338" lon="4.10584">
        <ele>144</ele>
        <time>2018-03-30T21:26:53Z</time>
      </trkpt>
      <trkpt lat="49.27334" lon="4.10573">
        <ele>144</ele>
        <time>2018-03-30T21:27:53Z</time>
      </trkpt>
      <trkpt lat="49.27328" lon="4.10559">
        <ele>144</ele>
        <time>2018-03-30T21:28:53Z</time>
      </trkpt>
      <trkpt lat="49.2727" lon="4.10465">
        <ele>142</ele>
        <time>2018-03-30T21:29:53Z</time>
      </trkpt>
      <trkpt lat="49.27263" lon="4.10457">
        <ele>142</ele>
        <time>2018-03-30T21:30:53Z</time>
      </trkpt>
      <trkpt lat="49.27256" lon="4.10451">
        <ele>141</ele>
        <time>2018-03-30T21:31:53Z</time>
      </trkpt>
      <trkpt lat="49.27248" lon="4.10445">
        <ele>141</ele>
        <time>2018-03-30T21:32:53Z</time>
      </trkpt>
      <trkpt lat="49.27238" lon="4.10442">
        <ele>140</ele>
        <time>2018-03-30T21:33:53Z</time>
      </trkpt>
      <trkpt lat="49.27229" lon="4.10441">
        <ele>139</ele>
        <time>2018-03-30T21:34:53Z</time>
      </trkpt>
      <trkpt lat="49.27212" lon="4.10441">
        <ele>138</ele>
        <time>2018-03-30T21:35:53Z</time>
      </trkpt>
      <trkpt lat="49.2712" lon="4.10453">
        <ele>130</ele>
        <time>2018-03-30T21:36:53Z</time>
      </trkpt>
      <trkpt lat="49.27089" lon="4.10459">
        <ele>128</ele>
        <time>2018-03-30T21:37:53Z</time>
      </trkpt>
      <trkpt lat="49.27078" lon="4.10462">
        <ele>127</ele>
        <time>2018-03-30T21:38:53Z</time>
      </trkpt>
      <trkpt lat="49.27066" lon="4.10467">
        <ele>127</ele>
        <time>2018-03-30T21:39:53Z</time>
      </trkpt>
      <trkpt lat="49.27048" lon="4.10479">
        <ele>126</ele>
        <time>2018-03-30T21:40:53Z</time>
      </trkpt>
      <trkpt lat="49.27002" lon="4.1051">
        <ele>124</ele>
        <time>2018-03-30T21:41:53Z</time>
      </trkpt>
      <trkpt lat="49.27002" lon="4.1051">
        <ele>124</ele>
        <time>2018-03-30T21:42:53Z</time>
      </trkpt>
      <trkpt lat="49.26922" lon="4.10571">
        <ele>123</ele>
        <time>2018-03-30T21:43:53Z</time>
      </trkpt>
      <trkpt lat="49.26892" lon="4.10591">
        <ele>123</ele>
        <time>2018-03-30T21:44:53Z</time>
      </trkpt>
      <trkpt lat="49.26872" lon="4.106">
        <ele>124</ele>
        <time>2018-03-30T21:45:53Z</time>
      </trkpt>
      <trkpt lat="49.26859" lon="4.10605">
        <ele>124</ele>
        <time>2018-03-30T21:46:53Z</time>
      </trkpt>
      <trkpt lat="49.26818" lon="4.1061">
        <ele>125</ele>
        <time>2018-03-30T21:47:53Z</time>
      </trkpt>
      <trkpt lat="49.26764" lon="4.10613">
        <ele>128</ele>
        <time>2018-03-30T21:48:53Z</time>
      </trkpt>
      <trkpt lat="49.26703" lon="4.10617">
        <ele>131</ele>
        <time>2018-03-30T21:49:53Z</time>
      </trkpt>
      <trkpt lat="49.26677" lon="4.10616">
        <ele>132</ele>
        <time>2018-03-30T21:50:53Z</time>
      </trkpt>
      <trkpt lat="49.26659" lon="4.10614">
        <ele>132</ele>
        <time>2018-03-30T21:51:53Z</time>
      </trkpt>
      <trkpt lat="49.2665" lon="4.1061">
        <ele>133</ele>
        <time>2018-03-30T21:52:53Z</time>
      </trkpt>
      <trkpt lat="49.26645" lon="4.10604">
        <ele>133</ele>
        <time>2018-03-30T21:53:53Z</time>
      </trkpt>
      <trkpt lat="49.26643" lon="4.10601">
        <ele>133</ele>
        <time>2018-03-30T21:54:53Z</time>
      </trkpt>
      <trkpt lat="49.26622" lon="4.10576">
        <ele>133</ele>
        <time>2018-03-30T21:55:53Z</time>
      </trkpt>
      <trkpt lat="49.26554" lon="4.10497">
        <ele>134</ele>
        <time>2018-03-30T21:56:53Z</time>
      </trkpt>
      <trkpt lat="49.2654" lon="4.1048">
        <ele>134</ele>
        <time>2018-03-30T21:57:53Z</time>
      </trkpt>
      <trkpt lat="49.26518" lon="4.10461">
        <ele>135</ele>
        <time>2018-03-30T21:58:53Z</time>
      </trkpt>
      <trkpt lat="49.26504" lon="4.10449">
        <ele>135</ele>
        <time>2018-03-30T21:59:53Z</time>
      </trkpt>
      <trkpt lat="49.26497" lon="4.10445">
        <ele>135</ele>
        <time>2018-03-30T22:00:53Z</time>
      </trkpt>
      <trkpt lat="49.26492" lon="4.10442">
        <ele>135</ele>
        <time>2018-03-30T22:01:53Z</time>
      </trkpt>
      <trkpt lat="49.26484" lon="4.10441">
        <ele>134</ele>
        <time>2018-03-30T22:02:53Z</time>
      </trkpt>
      <trkpt lat="49.26476" lon="4.1044">
        <ele>134</ele>
        <time>2018-03-30T22:03:53Z</time>
      </trkpt>
      <trkpt lat="49.26437" lon="4.10436">
        <ele>134</ele>
        <time>2018-03-30T22:04:53Z</time>
      </trkpt>
      <trkpt lat="49.26427" lon="4.10434">
        <ele>134</ele>
        <time>2018-03-30T22:05:53Z</time>
      </trkpt>
      <trkpt lat="49.26418" lon="4.10429">
        <ele>133</ele>
        <time>2018-03-30T22:06:53Z</time>
      </trkpt>
      <trkpt lat="49.26406" lon="4.10423">
        <ele>133</ele>
        <time>2018-03-30T22:07:53Z</time>
      </trkpt>
      <trkpt lat="49.26402" lon="4.10419">
        <ele>133</ele>
        <time>2018-03-30T22:08:53Z</time>
      </trkpt>
      <trkpt lat="49.26399" lon="4.10415">
        <ele>133</ele>
        <time>2018-03-30T22:09:53Z</time>
      </trkpt>
      <trkpt lat="49.26395" lon="4.10407">
        <ele>133</ele>
        <time>2018-03-30T22:10:53Z</time>
      </trkpt>
      <trkpt lat="49.26395" lon="4.10407">
        <ele>133</ele>
        <time>2018-03-30T22:11:53Z</time>
      </trkpt>
      <trkpt lat="49.26357" lon="4.10425">
        <ele>132</ele>
        <time>2018-03-30T22:12:53Z</time>
      </trkpt>
      <trkpt lat="49.26346" lon="4.10431">
        <ele>132</ele>
        <time>2018-03-30T22:13:53Z</time>
      </trkpt>
      <trkpt lat="49.26341" lon="4.10436">
        <ele>132</ele>
        <time>2018-03-30T22:14:53Z</time>
      </trkpt>
      <trkpt lat="49.26337" lon="4.10442">
        <ele>132</ele>
        <time>2018-03-30T22:15:53Z</time>
      </trkpt>
      <trkpt lat="49.26283" lon="4.10521">
        <ele>133</ele>
        <time>2018-03-30T22:16:53Z</time>
      </trkpt>
      <trkpt lat="49.26283" lon="4.10521">
        <ele>133</ele>
        <time>2018-03-30T22:17:53Z</time>
      </trkpt>
      <trkpt lat="49.26249" lon="4.10403">
        <ele>130</ele>
        <time>2018-03-30T22:18:53Z</time>
      </trkpt>
      <trkpt lat="49.2624" lon="4.10375">
        <ele>129</ele>
        <time>2018-03-30T22:19:53Z</time>
      </trkpt>
      <trkpt lat="49.26238" lon="4.10365">
        <ele>129</ele>
        <time>2018-03-30T22:20:53Z</time>
      </trkpt>
      <trkpt lat="49.26234" lon="4.10352">
        <ele>128</ele>
        <time>2018-03-30T22:21:53Z</time>
      </trkpt>
      <trkpt lat="49.2623" lon="4.1033">
        <ele>128</ele>
        <time>2018-03-30T22:22:53Z</time>
      </trkpt>
      <trkpt lat="49.26227" lon="4.10311">
        <ele>127</ele>
        <time>2018-03-30T22:23:53Z</time>
      </trkpt>
      <trkpt lat="49.26225" lon="4.10292">
        <ele>126</ele>
        <time>2018-03-30T22:24:53Z</time>
      </trkpt>
      <trkpt lat="49.26223" lon="4.10274">
        <ele>126</ele>
        <time>2018-03-30T22:25:53Z</time>
      </trkpt>
      <trkpt lat="49.26221" lon="4.10259">
        <ele>125</ele>
        <time>2018-03-30T22:26:53Z</time>
      </trkpt>
      <trkpt lat="49.2622" lon="4.10241">
        <ele>125</ele>
        <time>2018-03-30T22:27:53Z</time>
      </trkpt>
      <trkpt lat="49.26211" lon="4.10175">
        <ele>125</ele>
        <time>2018-03-30T22:28:53Z</time>
      </trkpt>
      <trkpt lat="49.26204" lon="4.10116">
        <ele>124</ele>
        <time>2018-03-30T22:29:53Z</time>
      </trkpt>
      <trkpt lat="49.26199" lon="4.10089">
        <ele>123</ele>
        <time>2018-03-30T22:30:53Z</time>
      </trkpt>
      <trkpt lat="49.2619" lon="4.1002">
        <ele>122</ele>
        <time>2018-03-30T22:31:53Z</time>
      </trkpt>
      <trkpt lat="49.26185" lon="4.09981">
        <ele>122</ele>
        <time>2018-03-30T22:32:53Z</time>
      </trkpt>
      <trkpt lat="49.26157" lon="4.09765">
        <ele>118</ele>
        <time>2018-03-30T22:33:53Z</time>
      </trkpt>
      <trkpt lat="49.26154" lon="4.09743">
        <ele>118</ele>
        <time>2018-03-30T22:34:53Z</time>
      </trkpt>
      <trkpt lat="49.26152" lon="4.09717">
        <ele>118</ele>
        <time>2018-03-30T22:35:53Z</time>
      </trkpt>
      <trkpt lat="49.26141" lon="4.09617">
        <ele>116</ele>
        <time>2018-03-30T22:36:53Z</time>
      </trkpt>
      <trkpt lat="49.26141" lon="4.09617">
        <ele>116</ele>
        <time>2018-03-30T22:37:53Z</time>
      </trkpt>
      <trkpt lat="49.26141" lon="4.09616">
        <ele>116</ele>
        <time>2018-03-30T22:38:53Z</time>
      </trkpt>
      <trkpt lat="49.26142" lon="4.09616">
        <ele>116</ele>
        <time>2018-03-30T22:39:53Z</time>
      </trkpt>
      <trkpt lat="49.26143" lon="4.09616">
        <ele>116</ele>
        <time>2018-03-30T22:40:53Z</time>
      </trkpt>
      <trkpt lat="49.26143" lon="4.09615">
        <ele>116</ele>
        <time>2018-03-30T22:41:53Z</time>
      </trkpt>
      <trkpt lat="49.26144" lon="4.09615">
        <ele>116</ele>
        <time>2018-03-30T22:42:53Z</time>
      </trkpt>
      <trkpt lat="49.26144" lon="4.09614">
        <ele>116</ele>
        <time>2018-03-30T22:43:53Z</time>
      </trkpt>
      <trkpt lat="49.26145" lon="4.09613">
        <ele>116</ele>
        <time>2018-03-30T22:44:53Z</time>
      </trkpt>
      <trkpt lat="49.26145" lon="4.09612">
        <ele>116</ele>
        <time>2018-03-30T22:45:53Z</time>
      </trkpt>
      <trkpt lat="49.26145" lon="4.09611">
        <ele>116</ele>
        <time>2018-03-30T22:46:53Z</time>
      </trkpt>
      <trkpt lat="49.26146" lon="4.09611">
        <ele>116</ele>
        <time>2018-03-30T22:47:53Z</time>
      </trkpt>
      <trkpt lat="49.26146" lon="4.0961">
        <ele>116</ele>
        <time>2018-03-30T22:48:53Z</time>
      </trkpt>
      <trkpt lat="49.26146" lon="4.09609">
        <ele>116</ele>
        <time>2018-03-30T22:49:53Z</time>
      </trkpt>
      <trkpt lat="49.26146" lon="4.09608">
        <ele>116</ele>
        <time>2018-03-30T22:50:53Z</time>
      </trkpt>
      <trkpt lat="49.26146" lon="4.09607">
        <ele>116</ele>
        <time>2018-03-30T22:51:53Z</time>
      </trkpt>
      <trkpt lat="49.26146" lon="4.09606">
        <ele>116</ele>
        <time>2018-03-30T22:52:53Z</time>
      </trkpt>
      <trkpt lat="49.26146" lon="4.09605">
        <ele>116</ele>
        <time>2018-03-30T22:53:53Z</time>
      </trkpt>
      <trkpt lat="49.26146" lon="4.09604">
        <ele>116</ele>
        <time>2018-03-30T22:54:53Z</time>
      </trkpt>
      <trkpt lat="49.26146" lon="4.09603">
        <ele>116</ele>
        <time>2018-03-30T22:55:53Z</time>
      </trkpt>
      <trkpt lat="49.26146" lon="4.09602">
        <ele>116</ele>
        <time>2018-03-30T22:56:53Z</time>
      </trkpt>
      <trkpt lat="49.26146" lon="4.09601">
        <ele>116</ele>
        <time>2018-03-30T22:57:53Z</time>
      </trkpt>
      <trkpt lat="49.26145" lon="4.09601">
        <ele>116</ele>
        <time>2018-03-30T22:58:53Z</time>
      </trkpt>
      <trkpt lat="49.26145" lon="4.096">
        <ele>116</ele>
        <time>2018-03-30T22:59:53Z</time>
      </trkpt>
      <trkpt lat="49.26145" lon="4.09599">
        <ele>116</ele>
        <time>2018-03-30T23:00:53Z</time>
      </trkpt>
      <trkpt lat="49.26144" lon="4.09599">
        <ele>116</ele>
        <time>2018-03-30T23:01:53Z</time>
      </trkpt>
      <trkpt lat="49.26144" lon="4.09598">
        <ele>116</ele>
        <time>2018-03-30T23:02:53Z</time>
      </trkpt>
      <trkpt lat="49.26143" lon="4.09598">
        <ele>116</ele>
        <time>2018-03-30T23:03:53Z</time>
      </trkpt>
      <trkpt lat="49.26143" lon="4.09597">
        <ele>116</ele>
        <time>2018-03-30T23:04:53Z</time>
      </trkpt>
      <trkpt lat="49.26142" lon="4.09597">
        <ele>116</ele>
        <time>2018-03-30T23:05:53Z</time>
      </trkpt>
      <trkpt lat="49.26142" lon="4.09596">
        <ele>116</ele>
        <time>2018-03-30T23:06:53Z</time>
      </trkpt>
      <trkpt lat="49.26141" lon="4.09596">
        <ele>116</ele>
        <time>2018-03-30T23:07:53Z</time>
      </trkpt>
      <trkpt lat="49.26138" lon="4.09585">
        <ele>116</ele>
        <time>2018-03-30T23:08:53Z</time>
      </trkpt>
      <trkpt lat="49.26137" lon="4.09578">
        <ele>116</ele>
        <time>2018-03-30T23:09:53Z</time>
      </trkpt>
      <trkpt lat="49.26136" lon="4.09574">
        <ele>116</ele>
        <time>2018-03-30T23:10:53Z</time>
      </trkpt>
      <trkpt lat="49.26131" lon="4.09533">
        <ele>115</ele>
        <time>2018-03-30T23:11:53Z</time>
      </trkpt>
      <trkpt lat="49.26123" lon="4.09472">
        <ele>114</ele>
        <time>2018-03-30T23:12:53Z</time>
      </trkpt>
      <trkpt lat="49.26122" lon="4.09466">
        <ele>114</ele>
        <time>2018-03-30T23:13:53Z</time>
      </trkpt>
      <trkpt lat="49.26122" lon="4.09465">
        <ele>114</ele>
        <time>2018-03-30T23:14:53Z</time>
      </trkpt>
      <trkpt lat="49.2612" lon="4.09459">
        <ele>114</ele>
        <time>2018-03-30T23:15:53Z</time>
      </trkpt>
      <trkpt lat="49.26116" lon="4.09427">
        <ele>114</ele>
        <time>2018-03-30T23:16:53Z</time>
      </trkpt>
      <trkpt lat="49.26108" lon="4.09363">
        <ele>115</ele>
        <time>2018-03-30T23:17:53Z</time>
      </trkpt>
      <trkpt lat="49.26088" lon="4.09208">
        <ele>115</ele>
        <time>2018-03-30T23:18:53Z</time>
      </trkpt>
      <trkpt lat="49.26072" lon="4.09079">
        <ele>115</ele>
        <time>2018-03-30T23:19:53Z</time>
      </trkpt>
      <trkpt lat="49.26054" lon="4.08932">
        <ele>117</ele>
        <time>2018-03-30T23:20:53Z</time>
      </trkpt>
      <trkpt lat="49.26046" lon="4.08873">
        <ele>117</ele>
        <time>2018-03-30T23:21:53Z</time>
      </trkpt>
      <trkpt lat="49.26028" lon="4.0873">
        <ele>116</ele>
        <time>2018-03-30T23:22:53Z</time>
      </trkpt>
      <trkpt lat="49.26014" lon="4.08609">
        <ele>113</ele>
        <time>2018-03-30T23:23:53Z</time>
      </trkpt>
      <trkpt lat="49.26012" lon="4.08598">
        <ele>113</ele>
        <time>2018-03-30T23:24:53Z</time>
      </trkpt>
      <trkpt lat="49.26007" lon="4.08559">
        <ele>112</ele>
        <time>2018-03-30T23:25:53Z</time>
      </trkpt>
      <trkpt lat="49.26002" lon="4.0852">
        <ele>113</ele>
        <time>2018-03-30T23:26:53Z</time>
      </trkpt>
      <trkpt lat="49.25989" lon="4.08419">
        <ele>114</ele>
        <time>2018-03-30T23:27:53Z</time>
      </trkpt>
      <trkpt lat="49.25978" lon="4.08329">
        <ele>112</ele>
        <time>2018-03-30T23:28:53Z</time>
      </trkpt>
      <trkpt lat="49.25958" lon="4.08171">
        <ele>110</ele>
        <time>2018-03-30T23:29:53Z</time>
      </trkpt>
      <trkpt lat="49.25924" lon="4.07903">
        <ele>103</ele>
        <time>2018-03-30T23:30:53Z</time>
      </trkpt>
      <trkpt lat="49.25906" lon="4.07762">
        <ele>101</ele>
        <time>2018-03-30T23:31:53Z</time>
      </trkpt>
      <trkpt lat="49.25847" lon="4.07301">
        <ele>101</ele>
        <time>2018-03-30T23:32:53Z</time>
      </trkpt>
      <trkpt lat="49.25837" lon="4.07216">
        <ele>101</ele>
        <time>2018-03-30T23:33:53Z</time>
      </trkpt>
      <trkpt lat="49.25832" lon="4.07184">
        <ele>101</ele>
        <time>2018-03-30T23:34:53Z</time>
      </trkpt>
      <trkpt lat="49.25829" lon="4.07155">
        <ele>101</ele>
        <time>2018-03-30T23:35:53Z</time>
      </trkpt>
      <trkpt lat="49.25826" lon="4.0713">
        <ele>101</ele>
        <time>2018-03-30T23:36:53Z</time>
      </trkpt>
      <trkpt lat="49.25821" lon="4.07095">
        <ele>100</ele>
        <time>2018-03-30T23:37:53Z</time>
      </trkpt>
      <trkpt lat="49.25805" lon="4.06989">
        <ele>100</ele>
        <time>2018-03-30T23:38:53Z</time>
      </trkpt>
      <trkpt lat="49.25802" lon="4.06966">
        <ele>101</ele>
        <time>2018-03-30T23:39:53Z</time>
      </trkpt>
      <trkpt lat="49.25799" lon="4.06946">
        <ele>101</ele>
        <time>2018-03-30T23:40:53Z</time>
      </trkpt>
      <trkpt lat="49.25797" lon="4.0693">
        <ele>101</ele>
        <time>2018-03-30T23:41:53Z</time>
      </trkpt>
      <trkpt lat="49.25794" lon="4.069">
        <ele>101</ele>
        <time>2018-03-30T23:42:53Z</time>
      </trkpt>
      <trkpt lat="49.2579" lon="4.06856">
        <ele>101</ele>
        <time>2018-03-30T23:43:53Z</time>
      </trkpt>
      <trkpt lat="49.25786" lon="4.06803">
        <ele>100</ele>
        <time>2018-03-30T23:44:53Z</time>
      </trkpt>
      <trkpt lat="49.25781" lon="4.06747">
        <ele>100</ele>
        <time>2018-03-30T23:45:53Z</time>
      </trkpt>
      <trkpt lat="49.25778" lon="4.06725">
        <ele>100</ele>
        <time>2018-03-30T23:46:53Z</time>
      </trkpt>
      <trkpt lat="49.25776" lon="4.06701">
        <ele>100</ele>
        <time>2018-03-30T23:47:53Z</time>
      </trkpt>
      <trkpt lat="49.25769" lon="4.06637">
        <ele>100</ele>
        <time>2018-03-30T23:48:53Z</time>
      </trkpt>
      <trkpt lat="49.25759" lon="4.06566">
        <ele>101</ele>
        <time>2018-03-30T23:49:53Z</time>
      </trkpt>
      <trkpt lat="49.25754" lon="4.06533">
        <ele>101</ele>
        <time>2018-03-30T23:50:53Z</time>
      </trkpt>
      <trkpt lat="49.25751" lon="4.06515">
        <ele>102</ele>
        <time>2018-03-30T23:51:53Z</time>
      </trkpt>
      <trkpt lat="49.25747" lon="4.0649">
        <ele>102</ele>
        <time>2018-03-30T23:52:53Z</time>
      </trkpt>
      <trkpt lat="49.25743" lon="4.06471">
        <ele>103</ele>
        <time>2018-03-30T23:53:53Z</time>
      </trkpt>
      <trkpt lat="49.25736" lon="4.06428">
        <ele>103</ele>
        <time>2018-03-30T23:54:53Z</time>
      </trkpt>
      <trkpt lat="49.25734" lon="4.06405">
        <ele>103</ele>
        <time>2018-03-30T23:55:53Z</time>
      </trkpt>
      <trkpt lat="49.25731" lon="4.0637">
        <ele>103</ele>
        <time>2018-03-30T23:56:53Z</time>
      </trkpt>
      <trkpt lat="49.25726" lon="4.063">
        <ele>104</ele>
        <time>2018-03-30T23:57:53Z</time>
      </trkpt>
      <trkpt lat="49.25726" lon="4.063">
        <ele>104</ele>
        <time>2018-03-30T23:58:53Z</time>
      </trkpt>
      <trkpt lat="49.25702" lon="4.0627">
        <ele>104</ele>
        <time>2018-03-30T23:59:53Z</time>
      </trkpt>
      <trkpt lat="49.25694" lon="4.0626">
        <ele>105</ele>
        <time>2018-03-31T00:00:53Z</time>
      </trkpt>
      <trkpt lat="49.25683" lon="4.06246">
        <ele>105</ele>
        <time>2018-03-31T00:01:53Z</time>
      </trkpt>
      <trkpt lat="49.25664" lon="4.06223">
        <ele>105</ele>
        <time>2018-03-31T00:02:53Z</time>
      </trkpt>
      <trkpt lat="49.25637" lon="4.06189">
        <ele>105</ele>
        <time>2018-03-31T00:03:53Z</time>
      </trkpt>
      <trkpt lat="49.25611" lon="4.06158">
        <ele>105</ele>
        <time>2018-03-31T00:04:53Z</time>
      </trkpt>
      <trkpt lat="49.2558" lon="4.06118">
        <ele>104</ele>
        <time>2018-03-31T00:05:53Z</time>
      </trkpt>
      <trkpt lat="49.25579" lon="4.06115">
        <ele>104</ele>
        <time>2018-03-31T00:06:53Z</time>
      </trkpt>
      <trkpt lat="49.25577" lon="4.06112">
        <ele>104</ele>
        <time>2018-03-31T00:07:53Z</time>
      </trkpt>
      <trkpt lat="49.25575" lon="4.06109">
        <ele>104</ele>
        <time>2018-03-31T00:08:53Z</time>
      </trkpt>
      <trkpt lat="49.25568" lon="4.06101">
        <ele>104</ele>
        <time>2018-03-31T00:09:53Z</time>
      </trkpt>
      <trkpt lat="49.25568" lon="4.06101">
        <ele>104</ele>
        <time>2018-03-31T00:10:53Z</time>
      </trkpt>
      <trkpt lat="49.25568" lon="4.061">
        <ele>104</ele>
        <time>2018-03-31T00:11:53Z</time>
      </trkpt>
      <trkpt lat="49.25568" lon="4.06099">
        <ele>104</ele>
        <time>2018-03-31T00:12:53Z</time>
      </trkpt>
      <trkpt lat="49.25568" lon="4.06098">
        <ele>104</ele>
        <time>2018-03-31T00:13:53Z</time>
      </trkpt>
      <trkpt lat="49.25567" lon="4.06098">
        <ele>104</ele>
        <time>2018-03-31T00:14:53Z</time>
      </trkpt>
      <trkpt lat="49.25567" lon="4.06097">
        <ele>104</ele>
        <time>2018-03-31T00:15:53Z</time>
      </trkpt>
      <trkpt lat="49.25567" lon="4.06096">
        <ele>104</ele>
        <time>2018-03-31T00:16:53Z</time>
      </trkpt>
      <trkpt lat="49.25566" lon="4.06095">
        <ele>104</ele>
        <time>2018-03-31T00:17:53Z</time>
      </trkpt>
      <trkpt lat="49.25566" lon="4.06094">
        <ele>104</ele>
        <time>2018-03-31T00:18:53Z</time>
      </trkpt>
      <trkpt lat="49.25565" lon="4.06094">
        <ele>104</ele>
        <time>2018-03-31T00:19:53Z</time>
      </trkpt>
      <trkpt lat="49.25565" lon="4.06093">
        <ele>104</ele>
        <time>2018-03-31T00:20:53Z</time>
      </trkpt>
      <trkpt lat="49.25564" lon="4.06092">
        <ele>104</ele>
        <time>2018-03-31T00:21:53Z</time>
      </trkpt>
      <trkpt lat="49.25563" lon="4.06091">
        <ele>104</ele>
        <time>2018-03-31T00:22:53Z</time>
      </trkpt>
      <trkpt lat="49.25562" lon="4.06091">
        <ele>104</ele>
        <time>2018-03-31T00:23:53Z</time>
      </trkpt>
      <trkpt lat="49.25562" lon="4.0609">
        <ele>104</ele>
        <time>2018-03-31T00:24:53Z</time>
      </trkpt>
      <trkpt lat="49.25561" lon="4.0609">
        <ele>104</ele>
        <time>2018-03-31T00:25:53Z</time>
      </trkpt>
      <trkpt lat="49.2556" lon="4.0609">
        <ele>104</ele>
        <time>2018-03-31T00:26:53Z</time>
      </trkpt>
      <trkpt lat="49.25559" lon="4.06089">
        <ele>104</ele>
        <time>2018-03-31T00:27:53Z</time>
      </trkpt>
      <trkpt lat="49.25558" lon="4.06089">
        <ele>104</ele>
        <time>2018-03-31T00:28:53Z</time>
      </trkpt>
      <trkpt lat="49.25557" lon="4.0609">
        <ele>104</ele>
        <time>2018-03-31T00:29:53Z</time>
      </trkpt>
      <trkpt lat="49.25556" lon="4.0609">
        <ele>104</ele>
        <time>2018-03-31T00:30:53Z</time>
      </trkpt>
      <trkpt lat="49.25553" lon="4.06067">
        <ele>104</ele>
        <time>2018-03-31T00:31:53Z</time>
      </trkpt>
      <trkpt lat="49.25555" lon="4.06045">
        <ele>104</ele>
        <time>2018-03-31T00:32:53Z</time>
      </trkpt>
      <trkpt lat="49.25555" lon="4.06044">
        <ele>105</ele>
        <time>2018-03-31T00:33:53Z</time>
      </trkpt>
      <trkpt lat="49.25565" lon="4.05944">
        <ele>106</ele>
        <time>2018-03-31T00:34:53Z</time>
      </trkpt>
      <trkpt lat="49.25565" lon="4.05944">
        <ele>106</ele>
        <time>2018-03-31T00:35:53Z</time>
      </trkpt>
      <trkpt lat="49.2554" lon="4.05932">
        <ele>106</ele>
        <time>2018-03-31T00:36:53Z</time>
      </trkpt>
      <trkpt lat="49.25514" lon="4.05919">
        <ele>107</ele>
        <time>2018-03-31T00:37:53Z</time>
      </trkpt>
      <trkpt lat="49.25513" lon="4.05918">
        <ele>107</ele>
        <time>2018-03-31T00:38:53Z</time>
      </trkpt>
      <trkpt lat="49.25447" lon="4.05885">
        <ele>107</ele>
        <time>2018-03-31T00:39:53Z</time>
      </trkpt>
      <trkpt lat="49.25444" lon="4.05884">
        <ele>107</ele>
        <time>2018-03-31T00:40:53Z</time>
      </trkpt>
      <trkpt lat="49.25402" lon="4.05863">
        <ele>107</ele>
        <time>2018-03-31T00:41:53Z</time>
      </trkpt>
      <trkpt lat="49.25381" lon="4.05853">
        <ele>107</ele>
        <time>2018-03-31T00:42:53Z</time>
      </trkpt>
      <trkpt lat="49.25359" lon="4.05841">
        <ele>107</ele>
        <time>2018-03-31T00:43:53Z</time>
      </trkpt>
      <trkpt lat="49.25251" lon="4.05792">
        <ele>106</ele>
        <time>2018-03-31T00:44:53Z</time>
      </trkpt>
      <trkpt lat="49.25251" lon="4.05792">
        <ele>106</ele>
        <time>2018-03-31T00:45:53Z</time>
      </trkpt>
      <trkpt lat="49.2528" lon="4.05656">
        <ele>105</ele>
        <time>2018-03-31T00:46:53Z</time>
      </trkpt>
      <trkpt lat="49.25288" lon="4.0562">
        <ele>105</ele>
        <time>2018-03-31T00:47:53Z</time>
      </trkpt>
      <trkpt lat="49.25305" lon="4.05539">
        <ele>103</ele>
        <time>2018-03-31T00:48:53Z</time>
      </trkpt>
      <trkpt lat="49.2533" lon="4.05409">
        <ele>100</ele>
        <time>2018-03-31T00:49:53Z</time>
      </trkpt>
      <trkpt lat="49.2533" lon="4.05409">
        <ele>100</ele>
        <time>2018-03-31T00:50:53Z</time>
      </trkpt>
      <trkpt lat="49.25276" lon="4.05382">
        <ele>100</ele>
        <time>2018-03-31T00:51:53Z</time>
      </trkpt>
      <trkpt lat="49.25241" lon="4.05365">
        <ele>99</ele>
        <time>2018-03-31T00:52:53Z</time>
      </trkpt>
      <trkpt lat="49.25213" lon="4.05352">
        <ele>99</ele>
        <time>2018-03-31T00:53:53Z</time>
      </trkpt>
      <trkpt lat="49.25171" lon="4.05332">
        <ele>99</ele>
        <time>2018-03-31T00:54:53Z</time>
      </trkpt>
      <trkpt lat="49.25155" lon="4.05324">
        <ele>99</ele>
        <time>2018-03-31T00:55:53Z</time>
      </trkpt>
      <trkpt lat="49.25144" lon="4.05319">
        <ele>99</ele>
        <time>2018-03-31T00:56:53Z</time>
      </trkpt>
      <trkpt lat="49.25089" lon="4.05293">
        <ele>100</ele>
        <time>2018-03-31T00:57:53Z</time>
      </trkpt>
      <trkpt lat="49.25055" lon="4.05276">
        <ele>99</ele>
        <time>2018-03-31T00:58:53Z</time>
      </trkpt>
      <trkpt lat="49.25046" lon="4.05272">
        <ele>99</ele>
        <time>2018-03-31T00:59:53Z</time>
      </trkpt>
      <trkpt lat="49.25032" lon="4.05266">
        <ele>99</ele>
        <time>2018-03-31T01:00:53Z</time>
      </trkpt>
      <trkpt lat="49.24948" lon="4.05224">
        <ele>101</ele>
        <time>2018-03-31T01:01:53Z</time>
      </trkpt>
      <trkpt lat="49.24887" lon="4.05195">
        <ele>103</ele>
        <time>2018-03-31T01:02:53Z</time>
      </trkpt>
      <trkpt lat="49.24857" lon="4.05181">
        <ele>103</ele>
        <time>2018-03-31T01:03:53Z</time>
      </trkpt>
      <trkpt lat="49.2481" lon="4.05158">
        <ele>105</ele>
        <time>2018-03-31T01:04:53Z</time>
      </trkpt>
      <trkpt lat="49.24762" lon="4.05134">
        <ele>106</ele>
        <time>2018-03-31T01:05:53Z</time>
      </trkpt>
      <trkpt lat="49.24762" lon="4.05134">
        <ele>106</ele>
        <time>2018-03-31T01:06:53Z</time>
      </trkpt>
      <trkpt lat="49.24766" lon="4.05113">
        <ele>105</ele>
        <time>2018-03-31T01:07:53Z</time>
      </trkpt>
      <trkpt lat="49.24767" lon="4.05109">
        <ele>105</ele>
        <time>2018-03-31T01:08:53Z</time>
      </trkpt>
      <trkpt lat="49.24767" lon="4.05105">
        <ele>105</ele>
        <time>2018-03-31T01:09:53Z</time>
      </trkpt>
      <trkpt lat="49.24768" lon="4.051">
        <ele>105</ele>
        <time>2018-03-31T01:10:53Z</time>
      </trkpt>
      <trkpt lat="49.24768" lon="4.05095">
        <ele>105</ele>
        <time>2018-03-31T01:11:53Z</time>
      </trkpt>
      <trkpt lat="49.24768" lon="4.05093">
        <ele>105</ele>
        <time>2018-03-31T01:12:53Z</time>
      </trkpt>
      <trkpt lat="49.24768" lon="4.0509">
        <ele>105</ele>
        <time>2018-03-31T01:13:53Z</time>
      </trkpt>
      <trkpt lat="49.24768" lon="4.05088">
        <ele>105</ele>
        <time>2018-03-31T01:14:53Z</time>
      </trkpt>
      <trkpt lat="49.24767" lon="4.05085">
        <ele>105</ele>
        <time>2018-03-31T01:15:53Z</time>
      </trkpt>
      <trkpt lat="49.24767" lon="4.05082">
        <ele>105</ele>
        <time>2018-03-31T01:16:53Z</time>
      </trkpt>
      <trkpt lat="49.24767" lon="4.0508">
        <ele>104</ele>
        <time>2018-03-31T01:17:53Z</time>
      </trkpt>
      <trkpt lat="49.24766" lon="4.05077">
        <ele>104</ele>
        <time>2018-03-31T01:18:53Z</time>
      </trkpt>
      <trkpt lat="49.24765" lon="4.05074">
        <ele>104</ele>
        <time>2018-03-31T01:19:53Z</time>
      </trkpt>
      <trkpt lat="49.24764" lon="4.05071">
        <ele>104</ele>
        <time>2018-03-31T01:20:53Z</time>
      </trkpt>
      <trkpt lat="49.24763" lon="4.05068">
        <ele>104</ele>
        <time>2018-03-31T01:21:53Z</time>
      </trkpt>
      <trkpt lat="49.24761" lon="4.05064">
        <ele>104</ele>
        <time>2018-03-31T01:22:53Z</time>
      </trkpt>
      <trkpt lat="49.2476" lon="4.05062">
        <ele>104</ele>
        <time>2018-03-31T01:23:53Z</time>
      </trkpt>
      <trkpt lat="49.24759" lon="4.0506">
        <ele>104</ele>
        <time>2018-03-31T01:24:53Z</time>
      </trkpt>
      <trkpt lat="49.24758" lon="4.05057">
        <ele>104</ele>
        <time>2018-03-31T01:25:53Z</time>
      </trkpt>
      <trkpt lat="49.24755" lon="4.05054">
        <ele>104</ele>
        <time>2018-03-31T01:26:53Z</time>
      </trkpt>
      <trkpt lat="49.2475" lon="4.05048">
        <ele>104</ele>
        <time>2018-03-31T01:27:53Z</time>
      </trkpt>
      <trkpt lat="49.24742" lon="4.0504">
        <ele>104</ele>
        <time>2018-03-31T01:28:53Z</time>
      </trkpt>
      <trkpt lat="49.24733" lon="4.05031">
        <ele>104</ele>
        <time>2018-03-31T01:29:53Z</time>
      </trkpt>
      <trkpt lat="49.24726" lon="4.05022">
        <ele>104</ele>
        <time>2018-03-31T01:30:53Z</time>
      </trkpt>
      <trkpt lat="49.24721" lon="4.05016">
        <ele>105</ele>
        <time>2018-03-31T01:31:53Z</time>
      </trkpt>
      <trkpt lat="49.24715" lon="4.05007">
        <ele>105</ele>
        <time>2018-03-31T01:32:53Z</time>
      </trkpt>
      <trkpt lat="49.24711" lon="4.05">
        <ele>105</ele>
        <time>2018-03-31T01:33:53Z</time>
      </trkpt>
      <trkpt lat="49.24705" lon="4.0499">
        <ele>105</ele>
        <time>2018-03-31T01:34:53Z</time>
      </trkpt>
      <trkpt lat="49.24701" lon="4.04981">
        <ele>106</ele>
        <time>2018-03-31T01:35:53Z</time>
      </trkpt>
      <trkpt lat="49.24697" lon="4.0497">
        <ele>106</ele>
        <time>2018-03-31T01:36:53Z</time>
      </trkpt>
      <trkpt lat="49.24694" lon="4.04961">
        <ele>106</ele>
        <time>2018-03-31T01:37:53Z</time>
      </trkpt>
      <trkpt lat="49.24692" lon="4.04956">
        <ele>106</ele>
        <time>2018-03-31T01:38:53Z</time>
      </trkpt>
      <trkpt lat="49.2469" lon="4.04951">
        <ele>106</ele>
        <time>2018-03-31T01:39:53Z</time>
      </trkpt>
      <trkpt lat="49.24689" lon="4.04946">
        <ele>106</ele>
        <time>2018-03-31T01:40:53Z</time>
      </trkpt>
      <trkpt lat="49.24688" lon="4.04943">
        <ele>106</ele>
        <time>2018-03-31T01:41:53Z</time>
      </trkpt>
      <trkpt lat="49.24687" lon="4.04939">
        <ele>107</ele>
        <time>2018-03-31T01:42:53Z</time>
      </trkpt>
      <trkpt lat="49.24686" lon="4.04934">
        <ele>107</ele>
        <time>2018-03-31T01:43:53Z</time>
      </trkpt>
      <trkpt lat="49.24681" lon="4.04908">
        <ele>107</ele>
        <time>2018-03-31T01:44:53Z</time>
      </trkpt>
      <trkpt lat="49.24679" lon="4.04895">
        <ele>107</ele>
        <time>2018-03-31T01:45:53Z</time>
      </trkpt>
      <trkpt lat="49.24678" lon="4.04887">
        <ele>107</ele>
        <time>2018-03-31T01:46:53Z</time>
      </trkpt>
      <trkpt lat="49.24676" lon="4.0488">
        <ele>106</ele>
        <time>2018-03-31T01:47:53Z</time>
      </trkpt>
      <trkpt lat="49.24676" lon="4.04874">
        <ele>106</ele>
        <time>2018-03-31T01:48:53Z</time>
      </trkpt>
      <trkpt lat="49.24674" lon="4.04868">
        <ele>106</ele>
        <time>2018-03-31T01:49:53Z</time>
      </trkpt>
      <trkpt lat="49.24674" lon="4.04863">
        <ele>106</ele>
        <time>2018-03-31T01:50:53Z</time>
      </trkpt>
      <trkpt lat="49.24672" lon="4.04858">
        <ele>106</ele>
        <time>2018-03-31T01:51:53Z</time>
      </trkpt>
      <trkpt lat="49.24671" lon="4.04854">
        <ele>106</ele>
        <time>2018-03-31T01:52:53Z</time>
      </trkpt>
      <trkpt lat="49.24669" lon="4.04848">
        <ele>106</ele>
        <time>2018-03-31T01:53:53Z</time>
      </trkpt>
      <trkpt lat="49.24667" lon="4.04838">
        <ele>106</ele>
        <time>2018-03-31T01:54:53Z</time>
      </trkpt>
      <trkpt lat="49.24656" lon="4.04812">
        <ele>106</ele>
        <time>2018-03-31T01:55:53Z</time>
      </trkpt>
      <trkpt lat="49.24646" lon="4.04785">
        <ele>105</ele>
        <time>2018-03-31T01:56:53Z</time>
      </trkpt>
      <trkpt lat="49.24636" lon="4.0476">
        <ele>105</ele>
        <time>2018-03-31T01:57:53Z</time>
      </trkpt>
      <trkpt lat="49.24621" lon="4.04723">
        <ele>105</ele>
        <time>2018-03-31T01:58:53Z</time>
      </trkpt>
      <trkpt lat="49.24604" lon="4.0468">
        <ele>105</ele>
        <time>2018-03-31T01:59:53Z</time>
      </trkpt>
      <trkpt lat="49.24604" lon="4.0468">
        <ele>105</ele>
        <time>2018-03-31T02:00:53Z</time>
      </trkpt>
      <trkpt lat="49.24595" lon="4.04658">
        <ele>105</ele>
        <time>2018-03-31T02:01:53Z</time>
      </trkpt>
      <trkpt lat="49.24556" lon="4.04568">
        <ele>104</ele>
        <time>2018-03-31T02:02:53Z</time>
      </trkpt>
      <trkpt lat="49.24544" lon="4.04533">
        <ele>103</ele>
        <time>2018-03-31T02:03:53Z</time>
      </trkpt>
      <trkpt lat="49.24535" lon="4.04507">
        <ele>103</ele>
        <time>2018-03-31T02:04:53Z</time>
      </trkpt>
      <trkpt lat="49.2453" lon="4.04496">
        <ele>102</ele>
        <time>2018-03-31T02:05:53Z</time>
      </trkpt>
      <trkpt lat="49.24526" lon="4.04486">
        <ele>102</ele>
        <time>2018-03-31T02:06:53Z</time>
      </trkpt>
      <trkpt lat="49.24496" lon="4.04411">
        <ele>100</ele>
        <time>2018-03-31T02:07:53Z</time>
      </trkpt>
      <trkpt lat="49.24496" lon="4.04411">
        <ele>100</ele>
        <time>2018-03-31T02:08:53Z</time>
      </trkpt>
      <trkpt lat="49.24488" lon="4.04399">
        <ele>99</ele>
        <time>2018-03-31T02:09:53Z</time>
      </trkpt>
      <trkpt lat="49.24466" lon="4.04365">
        <ele>98</ele>
        <time>2018-03-31T02:10:53Z</time>
      </trkpt>
      <trkpt lat="49.24457" lon="4.04357">
        <ele>98</ele>
        <time>2018-03-31T02:11:53Z</time>
      </trkpt>
      <trkpt lat="49.24452" lon="4.04353">
        <ele>98</ele>
        <time>2018-03-31T02:12:53Z</time>
      </trkpt>
      <trkpt lat="49.2445" lon="4.04352">
        <ele>98</ele>
        <time>2018-03-31T02:13:53Z</time>
      </trkpt>
      <trkpt lat="49.24448" lon="4.04352">
        <ele>98</ele>
        <time>2018-03-31T02:14:53Z</time>
      </trkpt>
      <trkpt lat="49.2444" lon="4.04353">
        <ele>98</ele>
        <time>2018-03-31T02:15:53Z</time>
      </trkpt>
      <trkpt lat="49.24408" lon="4.04363">
        <ele>99</ele>
        <time>2018-03-31T02:16:53Z</time>
      </trkpt>
      <trkpt lat="49.24373" lon="4.04367">
        <ele>100</ele>
        <time>2018-03-31T02:17:53Z</time>
      </trkpt>
      <trkpt lat="49.24361" lon="4.04366">
        <ele>100</ele>
        <time>2018-03-31T02:18:53Z</time>
      </trkpt>
      <trkpt lat="49.24352" lon="4.04363">
        <ele>100</ele>
        <time>2018-03-31T02:19:53Z</time>
      </trkpt>
      <trkpt lat="49.24346" lon="4.04361">
        <ele>100</ele>
        <time>2018-03-31T02:20:53Z</time>
      </trkpt>
      <trkpt lat="49.2434" lon="4.04358">
        <ele>100</ele>
        <time>2018-03-31T02:21:53Z</time>
      </trkpt>
      <trkpt lat="49.2434" lon="4.04358">
        <ele>100</ele>
        <time>2018-03-31T02:22:53Z</time>
      </trkpt>
      <trkpt lat="49.24324" lon="4.04375">
        <ele>101</ele>
        <time>2018-03-31T02:23:53Z</time>
      </trkpt>
      <trkpt lat="49.24324" lon="4.04375">
        <ele>101</ele>
        <time>2018-03-31T02:24:53Z</time>
      </trkpt>
      <trkpt lat="49.24317" lon="4.04362">
        <ele>100</ele>
        <time>2018-03-31T02:25:53Z</time>
      </trkpt>
      <trkpt lat="49.24296" lon="4.04301">
        <ele>99</ele>
        <time>2018-03-31T02:26:53Z</time>
      </trkpt>
      <trkpt lat="49.24282" lon="4.04259">
        <ele>99</ele>
        <time>2018-03-31T02:27:53Z</time>
      </trkpt>
      <trkpt lat="49.24276" lon="4.04244">
        <ele>99</ele>
        <time>2018-03-31T02:28:53Z</time>
      </trkpt>
      <trkpt lat="49.24271" lon="4.04236">
        <ele>98</ele>
        <time>2018-03-31T02:29:53Z</time>
      </trkpt>
      <trkpt lat="49.24259" lon="4.04217">
        <ele>98</ele>
        <time>2018-03-31T02:30:53Z</time>
      </trkpt>
      <trkpt lat="49.24251" lon="4.04201">
        <ele>98</ele>
        <time>2018-03-31T02:31:53Z</time>
      </trkpt>
      <trkpt lat="49.24243" lon="4.04189">
        <ele>98</ele>
        <time>2018-03-31T02:32:53Z</time>
      </trkpt>
      <trkpt lat="49.24231" lon="4.04173">
        <ele>97</ele>
        <time>2018-03-31T02:33:53Z</time>
      </trkpt>
      <trkpt lat="49.24217" lon="4.04152">
        <ele>95</ele>
        <time>2018-03-31T02:34:53Z</time>
      </trkpt>
      <trkpt lat="49.24211" lon="4.04143">
        <ele>94</ele>
        <time>2018-03-31T02:35:53Z</time>
      </trkpt>
      <trkpt lat="49.24209" lon="4.04137">
        <ele>94</ele>
        <time>2018-03-31T02:36:53Z</time>
      </trkpt>
      <trkpt lat="49.24207" lon="4.04131">
        <ele>94</ele>
        <time>2018-03-31T02:37:53Z</time>
      </trkpt>
      <trkpt lat="49.24206" lon="4.04127">
        <ele>93</ele>
        <time>2018-03-31T02:38:53Z</time>
      </trkpt>
      <trkpt lat="49.24202" lon="4.04112">
        <ele>92</ele>
        <time>2018-03-31T02:39:53Z</time>
      </trkpt>
      <trkpt lat="49.24197" lon="4.04094">
        <ele>91</ele>
        <time>2018-03-31T02:40:53Z</time>
      </trkpt>
      <trkpt lat="49.24197" lon="4.04094">
        <ele>91</ele>
        <time>2018-03-31T02:41:53Z</time>
      </trkpt>
      <trkpt lat="49.24242" lon="4.04066">
        <ele>91</ele>
        <time>2018-03-31T02:42:53Z</time>
      </trkpt>
      <trkpt lat="49.24276" lon="4.04045">
        <ele>91</ele>
        <time>2018-03-31T02:43:53Z</time>
      </trkpt>
      <trkpt lat="49.24316" lon="4.04021">
        <ele>90</ele>
        <time>2018-03-31T02:44:53Z</time>
      </trkpt>
      <trkpt lat="49.24316" lon="4.04021">
        <ele>90</ele>
        <time>2018-03-31T02:45:53Z</time>
      </trkpt>
      <trkpt lat="49.24308" lon="4.03991">
        <ele>89</ele>
        <time>2018-03-31T02:46:53Z</time>
      </trkpt>
      <trkpt lat="49.24302" lon="4.03966">
        <ele>89</ele>
        <time>2018-03-31T02:47:53Z</time>
      </trkpt>
      <trkpt lat="49.24291" lon="4.03925">
        <ele>89</ele>
        <time>2018-03-31T02:48:53Z</time>
      </trkpt>
      <trkpt lat="49.24289" lon="4.03918">
        <ele>89</ele>
        <time>2018-03-31T02:49:53Z</time>
      </trkpt>
      <trkpt lat="49.24271" lon="4.03849">
        <ele>87</ele>
        <time>2018-03-31T02:50:53Z</time>
      </trkpt>
      <trkpt lat="49.24266" lon="4.03829">
        <ele>86</ele>
        <time>2018-03-31T02:51:53Z</time>
      </trkpt>
      <trkpt lat="49.24256" lon="4.03789">
        <ele>85</ele>
        <time>2018-03-31T02:52:53Z</time>
      </trkpt>
      <trkpt lat="49.24252" lon="4.03774">
        <ele>84</ele>
        <time>2018-03-31T02:53:53Z</time>
      </trkpt>
      <trkpt lat="49.24241" lon="4.03732">
        <ele>83</ele>
        <time>2018-03-31T02:54:53Z</time>
      </trkpt>
      <trkpt lat="49.24238" lon="4.03723">
        <ele>83</ele>
        <time>2018-03-31T02:55:53Z</time>
      </trkpt>
      <trkpt lat="49.24235" lon="4.03718">
        <ele>83</ele>
        <time>2018-03-31T02:56:53Z</time>
      </trkpt>
      <trkpt lat="49.24231" lon="4.03712">
        <ele>83</ele>
        <time>2018-03-31T02:57:53Z</time>
      </trkpt>
      <trkpt lat="49.24226" lon="4.03707">
        <ele>83</ele>
        <time>2018-03-31T02:58:53Z</time>
      </trkpt>
      <trkpt lat="49.24217" lon="4.037">
        <ele>82</ele>
        <time>2018-03-31T02:59:53Z</time>
      </trkpt>
      <trkpt lat="49.24208" lon="4.03696">
        <ele>82</ele>
        <time>2018-03-31T03:00:53Z</time>
      </trkpt>
      <trkpt lat="49.24204" lon="4.03691">
        <ele>82</ele>
        <time>2018-03-31T03:01:53Z</time>
      </trkpt>
      <trkpt lat="49.24201" lon="4.03686">
        <ele>82</ele>
        <time>2018-03-31T03:02:53Z</time>
      </trkpt>
      <trkpt lat="49.24198" lon="4.03681">
        <ele>82</ele>
        <time>2018-03-31T03:03:53Z</time>
      </trkpt>
      <trkpt lat="49.24196" lon="4.03677">
        <ele>82</ele>
        <time>2018-03-31T03:04:53Z</time>
      </trkpt>
      <trkpt lat="49.24195" lon="4.03672">
        <ele>82</ele>
        <time>2018-03-31T03:05:53Z</time>
      </trkpt>
    </trkseg>
  </trk>
</gpx>